<?xml version="1.0" encoding="UTF-8" standalone="no" ?>
<gpx xmlns="http://www.topografix.com/GPX/1/1" xmlns:xsi="http://www.w3.org/2001/XMLSchema-instance" xsi:schemaLocation="http://www.topografix.com/GPX/1/1 http://www.topografix.com/GPX/1/1/gpx.xsd" version="1.1" creator="VisuGPX - https://www.visugpx.com">
  <metadata>
    <name>Vivonne 9 km</name>
    <desc><![CDATA[Randonnée pédestre de 9 Km]]></desc>
  </metadata>
  <trk>
    <name><![CDATA[Vivonne 9 km_1]]></name>
    <extensions>
      <line xmlns="http://www.topografix.com/GPX/gpx_style/0/2">
        <color>0000FF</color>
        <width>4</width>
      </line>
    </extensions>
    <trkseg>
      <trkpt lat="46.42515" lon="0.26302">
        <ele>87.997625274584</ele>
        <time>2021-11-04T07:33:28Z</time>
      </trkpt>
      <trkpt lat="46.42513" lon="0.26304">
        <ele>87.682826674543</ele>
        <time>2021-11-04T07:33:36Z</time>
      </trkpt>
      <trkpt lat="46.42513" lon="0.26306">
        <ele>87.983117474243</ele>
        <time>2021-11-04T07:33:42Z</time>
      </trkpt>
      <trkpt lat="46.42512" lon="0.26309">
        <ele>87.896587247029</ele>
        <time>2021-11-04T07:33:47Z</time>
      </trkpt>
      <trkpt lat="46.42512" lon="0.26312">
        <ele>88.24596209731</ele>
        <time>2021-11-04T07:34:00Z</time>
      </trkpt>
      <trkpt lat="46.42511" lon="0.26315">
        <ele>88.266992705874</ele>
        <time>2021-11-04T07:34:02Z</time>
      </trkpt>
      <trkpt lat="46.42512" lon="0.26318">
        <ele>88.394457880408</ele>
        <time>2021-11-04T07:34:05Z</time>
      </trkpt>
      <trkpt lat="46.42512" lon="0.26322">
        <ele>88.889356607571</ele>
        <time>2021-11-04T07:34:08Z</time>
      </trkpt>
      <trkpt lat="46.42512" lon="0.26319">
        <ele>89.243809463456</ele>
        <time>2021-11-04T07:34:16Z</time>
      </trkpt>
      <trkpt lat="46.42512" lon="0.26316">
        <ele>89.241876646876</ele>
        <time>2021-11-04T07:34:20Z</time>
      </trkpt>
      <trkpt lat="46.42513" lon="0.26314">
        <ele>89.028916542418</ele>
        <time>2021-11-04T07:34:24Z</time>
      </trkpt>
      <trkpt lat="46.42514" lon="0.26309">
        <ele>88.484976763837</ele>
        <time>2021-11-04T07:34:36Z</time>
      </trkpt>
      <trkpt lat="46.42513" lon="0.26311">
        <ele>88.23731693998</ele>
        <time>2021-11-04T07:35:15Z</time>
      </trkpt>
      <trkpt lat="46.42514" lon="0.26309">
        <ele>88.120847632177</ele>
        <time>2021-11-04T07:35:18Z</time>
      </trkpt>
      <trkpt lat="46.42515" lon="0.26307">
        <ele>87.723498853855</ele>
        <time>2021-11-04T07:35:20Z</time>
      </trkpt>
      <trkpt lat="46.42517" lon="0.26307">
        <ele>87.461594179273</ele>
        <time>2021-11-04T07:35:26Z</time>
      </trkpt>
      <trkpt lat="46.42519" lon="0.26306">
        <ele>87.988368554972</ele>
        <time>2021-11-04T07:35:32Z</time>
      </trkpt>
      <trkpt lat="46.42521" lon="0.26305">
        <ele>88.155120523646</ele>
        <time>2021-11-04T07:36:53Z</time>
      </trkpt>
      <trkpt lat="46.42519" lon="0.26306">
        <ele>87.586496789008</ele>
        <time>2021-11-04T07:37:09Z</time>
      </trkpt>
      <trkpt lat="46.42517" lon="0.26305">
        <ele>87.655238678679</ele>
        <time>2021-11-04T07:37:23Z</time>
      </trkpt>
      <trkpt lat="46.42519" lon="0.26306">
        <ele>87.988069297746</ele>
        <time>2021-11-04T07:37:32Z</time>
      </trkpt>
      <trkpt lat="46.42519" lon="0.26309">
        <ele>88.46730266232</ele>
        <time>2021-11-04T07:37:39Z</time>
      </trkpt>
      <trkpt lat="46.42517" lon="0.26309">
        <ele>88.48394488357</ele>
        <time>2021-11-04T07:37:46Z</time>
      </trkpt>
      <trkpt lat="46.42519" lon="0.26309">
        <ele>87.917860899121</ele>
        <time>2021-11-04T07:38:00Z</time>
      </trkpt>
      <trkpt lat="46.4252" lon="0.26307">
        <ele>88.222672007978</ele>
        <time>2021-11-04T07:38:03Z</time>
      </trkpt>
      <trkpt lat="46.4252" lon="0.26304">
        <ele>87.664420614019</ele>
        <time>2021-11-04T07:38:10Z</time>
      </trkpt>
      <trkpt lat="46.4252" lon="0.26302">
        <ele>87.917818447575</ele>
        <time>2021-11-04T07:38:23Z</time>
      </trkpt>
      <trkpt lat="46.42519" lon="0.26301">
        <ele>87.625424272381</ele>
        <time>2021-11-04T07:38:43Z</time>
      </trkpt>
      <trkpt lat="46.42516" lon="0.26301">
        <ele>87.91069597099</ele>
        <time>2021-11-04T07:38:59Z</time>
      </trkpt>
      <trkpt lat="46.42519" lon="0.26301">
        <ele>88.168512952514</ele>
        <time>2021-11-04T07:39:15Z</time>
      </trkpt>
      <trkpt lat="46.42517" lon="0.26302">
        <ele>87.521902390756</ele>
        <time>2021-11-04T07:39:36Z</time>
      </trkpt>
      <trkpt lat="46.42516" lon="0.26305">
        <ele>87.815243972465</ele>
        <time>2021-11-04T07:39:46Z</time>
      </trkpt>
      <trkpt lat="46.42517" lon="0.26302">
        <ele>87.371663371101</ele>
        <time>2021-11-04T07:40:00Z</time>
      </trkpt>
      <trkpt lat="46.42516" lon="0.263">
        <ele>88.111674680375</ele>
        <time>2021-11-04T07:40:18Z</time>
      </trkpt>
      <trkpt lat="46.42518" lon="0.26298">
        <ele>88.036587468348</ele>
        <time>2021-11-04T07:40:59Z</time>
      </trkpt>
      <trkpt lat="46.42517" lon="0.263">
        <ele>87.838327378966</ele>
        <time>2021-11-04T07:41:15Z</time>
      </trkpt>
      <trkpt lat="46.42516" lon="0.26299">
        <ele>87.94370614551</ele>
        <time>2021-11-04T07:41:40Z</time>
      </trkpt>
      <trkpt lat="46.42514" lon="0.26303">
        <ele>87.784453009255</ele>
        <time>2021-11-04T07:42:39Z</time>
      </trkpt>
      <trkpt lat="46.42516" lon="0.26303">
        <ele>87.803849094547</ele>
        <time>2021-11-04T07:43:41Z</time>
      </trkpt>
      <trkpt lat="46.42514" lon="0.26303">
        <ele>88.033137207851</ele>
        <time>2021-11-04T07:44:02Z</time>
      </trkpt>
      <trkpt lat="46.42514" lon="0.26306">
        <ele>87.438758984208</ele>
        <time>2021-11-04T07:44:22Z</time>
      </trkpt>
      <trkpt lat="46.42513" lon="0.26309">
        <ele>87.773474185728</ele>
        <time>2021-11-04T07:44:26Z</time>
      </trkpt>
      <trkpt lat="46.42515" lon="0.26308">
        <ele>88.278744456358</ele>
        <time>2021-11-04T07:44:35Z</time>
      </trkpt>
      <trkpt lat="46.42516" lon="0.26305">
        <ele>88.100965859368</ele>
        <time>2021-11-04T07:44:43Z</time>
      </trkpt>
      <trkpt lat="46.42517" lon="0.26303">
        <ele>87.963670039549</ele>
        <time>2021-11-04T07:44:47Z</time>
      </trkpt>
      <trkpt lat="46.42515" lon="0.26303">
        <ele>87.682615118101</ele>
        <time>2021-11-04T07:45:18Z</time>
      </trkpt>
      <trkpt lat="46.42515" lon="0.26306">
        <ele>87.709146399051</ele>
        <time>2021-11-04T07:45:33Z</time>
      </trkpt>
      <trkpt lat="46.42514" lon="0.2631">
        <ele>88.034646987915</ele>
        <time>2021-11-04T07:45:35Z</time>
      </trkpt>
      <trkpt lat="46.42515" lon="0.26308">
        <ele>88.234606060199</ele>
        <time>2021-11-04T07:45:51Z</time>
      </trkpt>
      <trkpt lat="46.42516" lon="0.2631">
        <ele>87.974245441146</ele>
        <time>2021-11-04T07:45:57Z</time>
      </trkpt>
      <trkpt lat="46.42515" lon="0.26315">
        <ele>88.087130942382</ele>
        <time>2021-11-04T07:46:00Z</time>
      </trkpt>
      <trkpt lat="46.42515" lon="0.26318">
        <ele>88.997624875978</ele>
        <time>2021-11-04T07:46:05Z</time>
      </trkpt>
      <trkpt lat="46.42517" lon="0.26316">
        <ele>89.20232858602</ele>
        <time>2021-11-04T07:46:13Z</time>
      </trkpt>
      <trkpt lat="46.42518" lon="0.26314">
        <ele>88.810986964963</ele>
        <time>2021-11-04T07:46:16Z</time>
      </trkpt>
      <trkpt lat="46.42516" lon="0.26316">
        <ele>89.153186093085</ele>
        <time>2021-11-04T07:46:24Z</time>
      </trkpt>
      <trkpt lat="46.42515" lon="0.26318">
        <ele>88.591518118978</ele>
        <time>2021-11-04T07:46:36Z</time>
      </trkpt>
      <trkpt lat="46.42516" lon="0.26315">
        <ele>88.855945389718</ele>
        <time>2021-11-04T07:46:39Z</time>
      </trkpt>
      <trkpt lat="46.42518" lon="0.26312">
        <ele>88.627150828019</ele>
        <time>2021-11-04T07:46:41Z</time>
      </trkpt>
      <trkpt lat="46.42516" lon="0.26312">
        <ele>88.288115586154</ele>
        <time>2021-11-04T07:46:45Z</time>
      </trkpt>
      <trkpt lat="46.42514" lon="0.26315">
        <ele>88.524714303203</ele>
        <time>2021-11-04T07:46:48Z</time>
      </trkpt>
      <trkpt lat="46.42513" lon="0.26317">
        <ele>88.396573719569</ele>
        <time>2021-11-04T07:46:51Z</time>
      </trkpt>
      <trkpt lat="46.42513" lon="0.2632">
        <ele>88.76885894686</ele>
        <time>2021-11-04T07:46:54Z</time>
      </trkpt>
      <trkpt lat="46.42512" lon="0.26322">
        <ele>89.047164678574</ele>
        <time>2021-11-04T07:46:57Z</time>
      </trkpt>
      <trkpt lat="46.42511" lon="0.26326">
        <ele>89.313500242308</ele>
        <time>2021-11-04T07:47:01Z</time>
      </trkpt>
      <trkpt lat="46.42512" lon="0.26323">
        <ele>89.641842014156</ele>
        <time>2021-11-04T07:47:06Z</time>
      </trkpt>
      <trkpt lat="46.4251" lon="0.2632">
        <ele>89.435382742435</ele>
        <time>2021-11-04T07:47:09Z</time>
      </trkpt>
      <trkpt lat="46.42512" lon="0.26317">
        <ele>88.948603221215</ele>
        <time>2021-11-04T07:47:22Z</time>
      </trkpt>
      <trkpt lat="46.42513" lon="0.26314">
        <ele>88.909949841909</ele>
        <time>2021-11-04T07:47:25Z</time>
      </trkpt>
      <trkpt lat="46.42512" lon="0.2631">
        <ele>88.685233104043</ele>
        <time>2021-11-04T07:47:27Z</time>
      </trkpt>
      <trkpt lat="46.4251" lon="0.2631">
        <ele>88.572568234988</ele>
        <time>2021-11-04T07:47:31Z</time>
      </trkpt>
      <trkpt lat="46.42508" lon="0.26309">
        <ele>88.566625017673</ele>
        <time>2021-11-04T07:47:35Z</time>
      </trkpt>
      <trkpt lat="46.42507" lon="0.26307">
        <ele>88.004899527878</ele>
        <time>2021-11-04T07:47:41Z</time>
      </trkpt>
      <trkpt lat="46.42508" lon="0.26305">
        <ele>87.973120524548</ele>
        <time>2021-11-04T07:47:44Z</time>
      </trkpt>
      <trkpt lat="46.42509" lon="0.26307">
        <ele>87.697888175957</ele>
        <time>2021-11-04T07:47:48Z</time>
      </trkpt>
      <trkpt lat="46.42509" lon="0.2631">
        <ele>87.702949925326</ele>
        <time>2021-11-04T07:47:51Z</time>
      </trkpt>
      <trkpt lat="46.42511" lon="0.26311">
        <ele>87.625392013229</ele>
        <time>2021-11-04T07:47:56Z</time>
      </trkpt>
      <trkpt lat="46.4251" lon="0.26313">
        <ele>88.579803311266</ele>
        <time>2021-11-04T07:48:16Z</time>
      </trkpt>
      <trkpt lat="46.4251" lon="0.26317">
        <ele>88.202382009476</ele>
        <time>2021-11-04T07:48:30Z</time>
      </trkpt>
      <trkpt lat="46.42512" lon="0.26315">
        <ele>88.550617475063</ele>
        <time>2021-11-04T07:48:47Z</time>
      </trkpt>
      <trkpt lat="46.42513" lon="0.26313">
        <ele>88.519957318902</ele>
        <time>2021-11-04T07:48:51Z</time>
      </trkpt>
      <trkpt lat="46.42512" lon="0.26314">
        <ele>88.359788733535</ele>
        <time>2021-11-04T07:49:27Z</time>
      </trkpt>
      <trkpt lat="46.42509" lon="0.26316">
        <ele>88.130635476671</ele>
        <time>2021-11-04T07:49:32Z</time>
      </trkpt>
      <trkpt lat="46.42511" lon="0.26311">
        <ele>88.477902490646</ele>
        <time>2021-11-04T07:49:33Z</time>
      </trkpt>
      <trkpt lat="46.42511" lon="0.26314">
        <ele>88.236960183829</ele>
        <time>2021-11-04T07:49:46Z</time>
      </trkpt>
      <trkpt lat="46.42513" lon="0.26313">
        <ele>88.298824796453</ele>
        <time>2021-11-04T07:49:51Z</time>
      </trkpt>
      <trkpt lat="46.42511" lon="0.26313">
        <ele>88.269466145895</ele>
        <time>2021-11-04T07:49:59Z</time>
      </trkpt>
      <trkpt lat="46.42509" lon="0.26312">
        <ele>88.6036152374</ele>
        <time>2021-11-04T07:50:26Z</time>
      </trkpt>
      <trkpt lat="46.42508" lon="0.26315">
        <ele>88.523980312981</ele>
        <time>2021-11-04T07:50:32Z</time>
      </trkpt>
      <trkpt lat="46.42508" lon="0.26311">
        <ele>88.412427394651</ele>
        <time>2021-11-04T07:50:50Z</time>
      </trkpt>
      <trkpt lat="46.42509" lon="0.26308">
        <ele>88.439611087553</ele>
        <time>2021-11-04T07:50:52Z</time>
      </trkpt>
      <trkpt lat="46.4251" lon="0.26305">
        <ele>88.130735150538</ele>
        <time>2021-11-04T07:50:54Z</time>
      </trkpt>
      <trkpt lat="46.4251" lon="0.26303">
        <ele>87.442073770799</ele>
        <time>2021-11-04T07:51:02Z</time>
      </trkpt>
      <trkpt lat="46.42509" lon="0.263">
        <ele>87.619266604073</ele>
        <time>2021-11-04T07:51:05Z</time>
      </trkpt>
      <trkpt lat="46.42509" lon="0.26297">
        <ele>87.448535610922</ele>
        <time>2021-11-04T07:51:09Z</time>
      </trkpt>
      <trkpt lat="46.42509" lon="0.263">
        <ele>87.310428333469</ele>
        <time>2021-11-04T07:51:12Z</time>
      </trkpt>
      <trkpt lat="46.4251" lon="0.26303">
        <ele>87.376232444309</ele>
        <time>2021-11-04T07:51:16Z</time>
      </trkpt>
      <trkpt lat="46.42508" lon="0.26301">
        <ele>87.328488925472</ele>
        <time>2021-11-04T07:51:30Z</time>
      </trkpt>
      <trkpt lat="46.42506" lon="0.26299">
        <ele>87.161975325085</ele>
        <time>2021-11-04T07:51:32Z</time>
      </trkpt>
      <trkpt lat="46.42504" lon="0.26299">
        <ele>87.431577735581</ele>
        <time>2021-11-04T07:51:34Z</time>
      </trkpt>
      <trkpt lat="46.42502" lon="0.26297">
        <ele>87.59121215716</ele>
        <time>2021-11-04T07:51:36Z</time>
      </trkpt>
      <trkpt lat="46.425" lon="0.26297">
        <ele>87.6016928358</ele>
        <time>2021-11-04T07:51:38Z</time>
      </trkpt>
      <trkpt lat="46.42498" lon="0.26296">
        <ele>87.815459736623</ele>
        <time>2021-11-04T07:51:39Z</time>
      </trkpt>
      <trkpt lat="46.42497" lon="0.26294">
        <ele>87.863648447208</ele>
        <time>2021-11-04T07:51:41Z</time>
      </trkpt>
      <trkpt lat="46.42494" lon="0.26294">
        <ele>87.486798565835</ele>
        <time>2021-11-04T07:51:43Z</time>
      </trkpt>
      <trkpt lat="46.42492" lon="0.26292">
        <ele>87.34745122306</ele>
        <time>2021-11-04T07:51:46Z</time>
      </trkpt>
      <trkpt lat="46.42489" lon="0.26292">
        <ele>87.888163823634</ele>
        <time>2021-11-04T07:51:49Z</time>
      </trkpt>
      <trkpt lat="46.42486" lon="0.26292">
        <ele>88.676633665338</ele>
        <time>2021-11-04T07:51:51Z</time>
      </trkpt>
      <trkpt lat="46.42484" lon="0.26291">
        <ele>88.318829695694</ele>
        <time>2021-11-04T07:51:54Z</time>
      </trkpt>
      <trkpt lat="46.42483" lon="0.2629">
        <ele>89.221102952026</ele>
        <time>2021-11-04T07:51:56Z</time>
      </trkpt>
      <trkpt lat="46.42484" lon="0.26292">
        <ele>89.02927675005</ele>
        <time>2021-11-04T07:52:06Z</time>
      </trkpt>
      <trkpt lat="46.42486" lon="0.26294">
        <ele>88.998914876021</ele>
        <time>2021-11-04T07:52:13Z</time>
      </trkpt>
      <trkpt lat="46.42488" lon="0.26294">
        <ele>89.38577974122</ele>
        <time>2021-11-04T07:52:16Z</time>
      </trkpt>
      <trkpt lat="46.42491" lon="0.26293">
        <ele>88.448477551341</ele>
        <time>2021-11-04T07:52:19Z</time>
      </trkpt>
      <trkpt lat="46.42493" lon="0.26293">
        <ele>89.181522452272</ele>
        <time>2021-11-04T07:52:20Z</time>
      </trkpt>
      <trkpt lat="46.42495" lon="0.26292">
        <ele>88.689895441756</ele>
        <time>2021-11-04T07:52:22Z</time>
      </trkpt>
      <trkpt lat="46.42498" lon="0.26292">
        <ele>88.320438584313</ele>
        <time>2021-11-04T07:52:24Z</time>
      </trkpt>
      <trkpt lat="46.42501" lon="0.26292">
        <ele>88.170593192801</ele>
        <time>2021-11-04T07:52:26Z</time>
      </trkpt>
      <trkpt lat="46.42504" lon="0.26292">
        <ele>87.697135797702</ele>
        <time>2021-11-04T07:52:28Z</time>
      </trkpt>
      <trkpt lat="46.42507" lon="0.26291">
        <ele>87.935069384053</ele>
        <time>2021-11-04T07:52:30Z</time>
      </trkpt>
      <trkpt lat="46.4251" lon="0.26291">
        <ele>87.966987714171</ele>
        <time>2021-11-04T07:52:34Z</time>
      </trkpt>
      <trkpt lat="46.42512" lon="0.26291">
        <ele>87.906542632729</ele>
        <time>2021-11-04T07:52:36Z</time>
      </trkpt>
      <trkpt lat="46.42513" lon="0.26294">
        <ele>87.799100907519</ele>
        <time>2021-11-04T07:52:39Z</time>
      </trkpt>
      <trkpt lat="46.42515" lon="0.26296">
        <ele>87.72640286386</ele>
        <time>2021-11-04T07:52:45Z</time>
      </trkpt>
      <trkpt lat="46.42514" lon="0.26299">
        <ele>87.692544658668</ele>
        <time>2021-11-04T07:52:49Z</time>
      </trkpt>
      <trkpt lat="46.42513" lon="0.26302">
        <ele>87.581795628183</ele>
        <time>2021-11-04T07:52:51Z</time>
      </trkpt>
      <trkpt lat="46.42513" lon="0.26305">
        <ele>87.981071289629</ele>
        <time>2021-11-04T07:52:58Z</time>
      </trkpt>
      <trkpt lat="46.42512" lon="0.26307">
        <ele>87.947649839334</ele>
        <time>2021-11-04T07:53:01Z</time>
      </trkpt>
      <trkpt lat="46.42512" lon="0.2631">
        <ele>88.190139876679</ele>
        <time>2021-11-04T07:53:04Z</time>
      </trkpt>
      <trkpt lat="46.42511" lon="0.26307">
        <ele>88.190310524777</ele>
        <time>2021-11-04T07:53:14Z</time>
      </trkpt>
      <trkpt lat="46.42511" lon="0.26303">
        <ele>88.446490814909</ele>
        <time>2021-11-04T07:53:15Z</time>
      </trkpt>
      <trkpt lat="46.4251" lon="0.26299">
        <ele>88.048020919785</ele>
        <time>2021-11-04T07:53:17Z</time>
      </trkpt>
      <trkpt lat="46.42509" lon="0.26303">
        <ele>87.880401670933</ele>
        <time>2021-11-04T07:53:21Z</time>
      </trkpt>
      <trkpt lat="46.42508" lon="0.26301">
        <ele>87.705581932329</ele>
        <time>2021-11-04T07:53:42Z</time>
      </trkpt>
      <trkpt lat="46.42507" lon="0.26299">
        <ele>87.591370726936</ele>
        <time>2021-11-04T07:53:49Z</time>
      </trkpt>
      <trkpt lat="46.42506" lon="0.26297">
        <ele>87.544007031247</ele>
        <time>2021-11-04T07:54:01Z</time>
      </trkpt>
      <trkpt lat="46.42508" lon="0.26296">
        <ele>87.520812828094</ele>
        <time>2021-11-04T07:54:05Z</time>
      </trkpt>
      <trkpt lat="46.42507" lon="0.26298">
        <ele>87.378652470186</ele>
        <time>2021-11-04T07:54:25Z</time>
      </trkpt>
      <trkpt lat="46.42508" lon="0.26301">
        <ele>87.166543839499</ele>
        <time>2021-11-04T07:54:31Z</time>
      </trkpt>
      <trkpt lat="46.4251" lon="0.26301">
        <ele>87.288567389362</ele>
        <time>2021-11-04T07:54:38Z</time>
      </trkpt>
      <trkpt lat="46.42512" lon="0.26302">
        <ele>87.515239083208</ele>
        <time>2021-11-04T07:54:40Z</time>
      </trkpt>
      <trkpt lat="46.42513" lon="0.26306">
        <ele>87.584991957992</ele>
        <time>2021-11-04T07:54:43Z</time>
      </trkpt>
      <trkpt lat="46.42516" lon="0.26306">
        <ele>87.345394177362</ele>
        <time>2021-11-04T07:54:48Z</time>
      </trkpt>
      <trkpt lat="46.42517" lon="0.26309">
        <ele>88.015659238212</ele>
        <time>2021-11-04T07:55:14Z</time>
      </trkpt>
      <trkpt lat="46.42516" lon="0.26311">
        <ele>88.009108916856</ele>
        <time>2021-11-04T07:55:23Z</time>
      </trkpt>
      <trkpt lat="46.42517" lon="0.26309">
        <ele>87.949485693127</ele>
        <time>2021-11-04T07:56:22Z</time>
      </trkpt>
      <trkpt lat="46.42519" lon="0.26308">
        <ele>88.206013969146</ele>
        <time>2021-11-04T07:56:35Z</time>
      </trkpt>
      <trkpt lat="46.42518" lon="0.26306">
        <ele>87.777034081519</ele>
        <time>2021-11-04T07:56:42Z</time>
      </trkpt>
      <trkpt lat="46.42517" lon="0.26303">
        <ele>87.574610607699</ele>
        <time>2021-11-04T07:56:51Z</time>
      </trkpt>
      <trkpt lat="46.42519" lon="0.26305">
        <ele>87.535799300298</ele>
        <time>2021-11-04T07:57:12Z</time>
      </trkpt>
      <trkpt lat="46.4252" lon="0.26307">
        <ele>87.185179574415</ele>
        <time>2021-11-04T07:57:15Z</time>
      </trkpt>
      <trkpt lat="46.42521" lon="0.2631">
        <ele>87.855564533733</ele>
        <time>2021-11-04T07:57:17Z</time>
      </trkpt>
      <trkpt lat="46.42522" lon="0.26312">
        <ele>87.674972556531</ele>
        <time>2021-11-04T07:57:19Z</time>
      </trkpt>
      <trkpt lat="46.42524" lon="0.26315">
        <ele>87.707745126449</ele>
        <time>2021-11-04T07:57:23Z</time>
      </trkpt>
      <trkpt lat="46.42526" lon="0.26317">
        <ele>87.945679144002</ele>
        <time>2021-11-04T07:57:25Z</time>
      </trkpt>
      <trkpt lat="46.42528" lon="0.26319">
        <ele>87.741065765731</ele>
        <time>2021-11-04T07:57:28Z</time>
      </trkpt>
      <trkpt lat="46.4253" lon="0.26322">
        <ele>87.801817598753</ele>
        <time>2021-11-04T07:57:30Z</time>
      </trkpt>
      <trkpt lat="46.42531" lon="0.26324">
        <ele>88.09497180488</ele>
        <time>2021-11-04T07:57:32Z</time>
      </trkpt>
      <trkpt lat="46.42533" lon="0.26325">
        <ele>88.280531712808</ele>
        <time>2021-11-04T07:57:34Z</time>
      </trkpt>
      <trkpt lat="46.42535" lon="0.26328">
        <ele>88.287433056161</ele>
        <time>2021-11-04T07:57:36Z</time>
      </trkpt>
      <trkpt lat="46.42536" lon="0.2633">
        <ele>88.352961014956</ele>
        <time>2021-11-04T07:57:38Z</time>
      </trkpt>
      <trkpt lat="46.42537" lon="0.26333">
        <ele>88.394196504727</ele>
        <time>2021-11-04T07:57:40Z</time>
      </trkpt>
      <trkpt lat="46.42538" lon="0.26336">
        <ele>88.4458903661</ele>
        <time>2021-11-04T07:57:42Z</time>
      </trkpt>
      <trkpt lat="46.42538" lon="0.26339">
        <ele>88.49240937084</ele>
        <time>2021-11-04T07:57:44Z</time>
      </trkpt>
      <trkpt lat="46.42537" lon="0.26342">
        <ele>89.445082198828</ele>
        <time>2021-11-04T07:57:48Z</time>
      </trkpt>
      <trkpt lat="46.42535" lon="0.26344">
        <ele>89.739369181916</ele>
        <time>2021-11-04T07:57:51Z</time>
      </trkpt>
      <trkpt lat="46.42534" lon="0.26346">
        <ele>90.167043090798</ele>
        <time>2021-11-04T07:57:53Z</time>
      </trkpt>
      <trkpt lat="46.42532" lon="0.26348">
        <ele>89.978503157385</ele>
        <time>2021-11-04T07:57:54Z</time>
      </trkpt>
      <trkpt lat="46.42529" lon="0.2635">
        <ele>90.727376776747</ele>
        <time>2021-11-04T07:57:56Z</time>
      </trkpt>
      <trkpt lat="46.42527" lon="0.26353">
        <ele>91.355868845247</ele>
        <time>2021-11-04T07:57:59Z</time>
      </trkpt>
      <trkpt lat="46.42526" lon="0.26356">
        <ele>91.426585149951</ele>
        <time>2021-11-04T07:58:01Z</time>
      </trkpt>
      <trkpt lat="46.42524" lon="0.26359">
        <ele>91.999315505847</ele>
        <time>2021-11-04T07:58:03Z</time>
      </trkpt>
      <trkpt lat="46.42523" lon="0.26362">
        <ele>92.65798236616</ele>
        <time>2021-11-04T07:58:05Z</time>
      </trkpt>
      <trkpt lat="46.42522" lon="0.26364">
        <ele>93.25937794894</ele>
        <time>2021-11-04T07:58:07Z</time>
      </trkpt>
      <trkpt lat="46.42521" lon="0.26367">
        <ele>93.362797289155</ele>
        <time>2021-11-04T07:58:09Z</time>
      </trkpt>
      <trkpt lat="46.4252" lon="0.26369">
        <ele>94.089202309027</ele>
        <time>2021-11-04T07:58:11Z</time>
      </trkpt>
      <trkpt lat="46.42518" lon="0.26372">
        <ele>94.644490576349</ele>
        <time>2021-11-04T07:58:13Z</time>
      </trkpt>
      <trkpt lat="46.42517" lon="0.26376">
        <ele>94.506466253661</ele>
        <time>2021-11-04T07:58:15Z</time>
      </trkpt>
      <trkpt lat="46.42516" lon="0.26379">
        <ele>94.79201564379</ele>
        <time>2021-11-04T07:58:17Z</time>
      </trkpt>
      <trkpt lat="46.42514" lon="0.26381">
        <ele>95.354221020825</ele>
        <time>2021-11-04T07:58:19Z</time>
      </trkpt>
      <trkpt lat="46.42511" lon="0.26385">
        <ele>95.285370627418</ele>
        <time>2021-11-04T07:58:20Z</time>
      </trkpt>
      <trkpt lat="46.42509" lon="0.26387">
        <ele>95.26595053263</ele>
        <time>2021-11-04T07:58:21Z</time>
      </trkpt>
      <trkpt lat="46.42508" lon="0.26389">
        <ele>95.434354369529</ele>
        <time>2021-11-04T07:58:22Z</time>
      </trkpt>
      <trkpt lat="46.42507" lon="0.26392">
        <ele>95.302960088477</ele>
        <time>2021-11-04T07:58:23Z</time>
      </trkpt>
      <trkpt lat="46.42506" lon="0.26395">
        <ele>95.635820736177</ele>
        <time>2021-11-04T07:58:25Z</time>
      </trkpt>
      <trkpt lat="46.42505" lon="0.26399">
        <ele>94.863574333489</ele>
        <time>2021-11-04T07:58:27Z</time>
      </trkpt>
      <trkpt lat="46.42505" lon="0.26402">
        <ele>94.489274850115</ele>
        <time>2021-11-04T07:58:29Z</time>
      </trkpt>
      <trkpt lat="46.42504" lon="0.26405">
        <ele>93.424696226604</ele>
        <time>2021-11-04T07:58:31Z</time>
      </trkpt>
      <trkpt lat="46.42503" lon="0.26407">
        <ele>92.887530739419</ele>
        <time>2021-11-04T07:58:33Z</time>
      </trkpt>
      <trkpt lat="46.42501" lon="0.26405">
        <ele>92.294311672449</ele>
        <time>2021-11-04T07:58:38Z</time>
      </trkpt>
      <trkpt lat="46.425" lon="0.26402">
        <ele>91.954502771609</ele>
        <time>2021-11-04T07:58:41Z</time>
      </trkpt>
      <trkpt lat="46.42498" lon="0.26399">
        <ele>92.438191208988</ele>
        <time>2021-11-04T07:58:44Z</time>
      </trkpt>
      <trkpt lat="46.42497" lon="0.26398">
        <ele>92.556756804697</ele>
        <time>2021-11-04T07:58:46Z</time>
      </trkpt>
      <trkpt lat="46.42495" lon="0.26395">
        <ele>92.819000312127</ele>
        <time>2021-11-04T07:58:49Z</time>
      </trkpt>
      <trkpt lat="46.42493" lon="0.26393">
        <ele>92.437432354316</ele>
        <time>2021-11-04T07:58:51Z</time>
      </trkpt>
      <trkpt lat="46.4249" lon="0.26389">
        <ele>91.827798170038</ele>
        <time>2021-11-04T07:58:53Z</time>
      </trkpt>
      <trkpt lat="46.42487" lon="0.26387">
        <ele>92.26189052593</ele>
        <time>2021-11-04T07:58:55Z</time>
      </trkpt>
      <trkpt lat="46.42485" lon="0.26388">
        <ele>91.990684999153</ele>
        <time>2021-11-04T07:58:57Z</time>
      </trkpt>
      <trkpt lat="46.42483" lon="0.26387">
        <ele>91.710271514952</ele>
        <time>2021-11-04T07:58:59Z</time>
      </trkpt>
      <trkpt lat="46.42481" lon="0.26389">
        <ele>91.155514223501</ele>
        <time>2021-11-04T07:59:01Z</time>
      </trkpt>
      <trkpt lat="46.42479" lon="0.2639">
        <ele>91.256887746975</ele>
        <time>2021-11-04T07:59:03Z</time>
      </trkpt>
      <trkpt lat="46.42476" lon="0.2639">
        <ele>90.34725965932</ele>
        <time>2021-11-04T07:59:05Z</time>
      </trkpt>
      <trkpt lat="46.42474" lon="0.26392">
        <ele>89.558410983533</ele>
        <time>2021-11-04T07:59:07Z</time>
      </trkpt>
      <trkpt lat="46.42471" lon="0.26394">
        <ele>89.019962503575</ele>
        <time>2021-11-04T07:59:09Z</time>
      </trkpt>
      <trkpt lat="46.4247" lon="0.26396">
        <ele>88.510265706107</ele>
        <time>2021-11-04T07:59:11Z</time>
      </trkpt>
      <trkpt lat="46.42467" lon="0.26398">
        <ele>88.323954669759</ele>
        <time>2021-11-04T07:59:14Z</time>
      </trkpt>
      <trkpt lat="46.42465" lon="0.26402">
        <ele>87.881095290184</ele>
        <time>2021-11-04T07:59:17Z</time>
      </trkpt>
      <trkpt lat="46.42464" lon="0.26404">
        <ele>87.843084806576</ele>
        <time>2021-11-04T07:59:19Z</time>
      </trkpt>
      <trkpt lat="46.42462" lon="0.26407">
        <ele>87.783328358084</ele>
        <time>2021-11-04T07:59:22Z</time>
      </trkpt>
      <trkpt lat="46.4246" lon="0.2641">
        <ele>88.077075629495</ele>
        <time>2021-11-04T07:59:24Z</time>
      </trkpt>
      <trkpt lat="46.42458" lon="0.26413">
        <ele>87.803535174578</ele>
        <time>2021-11-04T07:59:26Z</time>
      </trkpt>
      <trkpt lat="46.42455" lon="0.26416">
        <ele>88.130072804168</ele>
        <time>2021-11-04T07:59:28Z</time>
      </trkpt>
      <trkpt lat="46.42454" lon="0.26418">
        <ele>87.548968119547</ele>
        <time>2021-11-04T07:59:30Z</time>
      </trkpt>
      <trkpt lat="46.42453" lon="0.26422">
        <ele>87.616332019679</ele>
        <time>2021-11-04T07:59:32Z</time>
      </trkpt>
      <trkpt lat="46.42451" lon="0.26425">
        <ele>87.824818381108</ele>
        <time>2021-11-04T07:59:34Z</time>
      </trkpt>
      <trkpt lat="46.42449" lon="0.26427">
        <ele>87.433472769335</ele>
        <time>2021-11-04T07:59:36Z</time>
      </trkpt>
      <trkpt lat="46.42448" lon="0.26429">
        <ele>87.544359631836</ele>
        <time>2021-11-04T07:59:38Z</time>
      </trkpt>
      <trkpt lat="46.42447" lon="0.26432">
        <ele>87.665228146128</ele>
        <time>2021-11-04T07:59:40Z</time>
      </trkpt>
      <trkpt lat="46.42445" lon="0.26435">
        <ele>87.297154284082</ele>
        <time>2021-11-04T07:59:42Z</time>
      </trkpt>
      <trkpt lat="46.42443" lon="0.26437">
        <ele>87.138312386349</ele>
        <time>2021-11-04T07:59:44Z</time>
      </trkpt>
      <trkpt lat="46.42441" lon="0.26439">
        <ele>87.060078649782</ele>
        <time>2021-11-04T07:59:46Z</time>
      </trkpt>
      <trkpt lat="46.4244" lon="0.26442">
        <ele>87.006892669946</ele>
        <time>2021-11-04T07:59:48Z</time>
      </trkpt>
      <trkpt lat="46.42438" lon="0.26444">
        <ele>86.926843033172</ele>
        <time>2021-11-04T07:59:50Z</time>
      </trkpt>
      <trkpt lat="46.42437" lon="0.26447">
        <ele>86.826685478911</ele>
        <time>2021-11-04T07:59:52Z</time>
      </trkpt>
      <trkpt lat="46.42436" lon="0.2645">
        <ele>86.705573622137</ele>
        <time>2021-11-04T07:59:54Z</time>
      </trkpt>
      <trkpt lat="46.42434" lon="0.26452">
        <ele>86.782071170397</ele>
        <time>2021-11-04T07:59:56Z</time>
      </trkpt>
      <trkpt lat="46.42433" lon="0.26455">
        <ele>87.305811236612</ele>
        <time>2021-11-04T07:59:58Z</time>
      </trkpt>
      <trkpt lat="46.42432" lon="0.26458">
        <ele>87.077378870919</ele>
        <time>2021-11-04T08:00:00Z</time>
      </trkpt>
      <trkpt lat="46.42431" lon="0.26461">
        <ele>86.818554285914</ele>
        <time>2021-11-04T08:00:02Z</time>
      </trkpt>
      <trkpt lat="46.42429" lon="0.26463">
        <ele>86.976848185062</ele>
        <time>2021-11-04T08:00:04Z</time>
      </trkpt>
      <trkpt lat="46.42427" lon="0.26467">
        <ele>87.181965674274</ele>
        <time>2021-11-04T08:00:06Z</time>
      </trkpt>
      <trkpt lat="46.42427" lon="0.26471">
        <ele>87.266969817691</ele>
        <time>2021-11-04T08:00:08Z</time>
      </trkpt>
      <trkpt lat="46.42425" lon="0.26473">
        <ele>87.510294531472</ele>
        <time>2021-11-04T08:00:10Z</time>
      </trkpt>
      <trkpt lat="46.42423" lon="0.26476">
        <ele>87.150550279766</ele>
        <time>2021-11-04T08:00:12Z</time>
      </trkpt>
      <trkpt lat="46.42422" lon="0.26478">
        <ele>87.239688210189</ele>
        <time>2021-11-04T08:00:15Z</time>
      </trkpt>
      <trkpt lat="46.4242" lon="0.2648">
        <ele>87.35262354929</ele>
        <time>2021-11-04T08:00:16Z</time>
      </trkpt>
      <trkpt lat="46.42418" lon="0.26482">
        <ele>87.128612845205</ele>
        <time>2021-11-04T08:00:18Z</time>
      </trkpt>
      <trkpt lat="46.42417" lon="0.26485">
        <ele>87.377704541199</ele>
        <time>2021-11-04T08:00:20Z</time>
      </trkpt>
      <trkpt lat="46.42415" lon="0.26486">
        <ele>87.248322493397</ele>
        <time>2021-11-04T08:00:22Z</time>
      </trkpt>
      <trkpt lat="46.42413" lon="0.26488">
        <ele>87.097863976844</ele>
        <time>2021-11-04T08:00:25Z</time>
      </trkpt>
      <trkpt lat="46.42412" lon="0.2649">
        <ele>86.914163581096</ele>
        <time>2021-11-04T08:00:31Z</time>
      </trkpt>
      <trkpt lat="46.4241" lon="0.26492">
        <ele>87.263892644085</ele>
        <time>2021-11-04T08:00:37Z</time>
      </trkpt>
      <trkpt lat="46.42408" lon="0.26493">
        <ele>87.550360297784</ele>
        <time>2021-11-04T08:00:41Z</time>
      </trkpt>
      <trkpt lat="46.42406" lon="0.26495">
        <ele>87.448588739149</ele>
        <time>2021-11-04T08:00:44Z</time>
      </trkpt>
      <trkpt lat="46.42404" lon="0.26497">
        <ele>86.988141378388</ele>
        <time>2021-11-04T08:00:46Z</time>
      </trkpt>
      <trkpt lat="46.42402" lon="0.26499">
        <ele>87.009456879459</ele>
        <time>2021-11-04T08:00:48Z</time>
      </trkpt>
      <trkpt lat="46.424" lon="0.26501">
        <ele>86.881794738583</ele>
        <time>2021-11-04T08:00:50Z</time>
      </trkpt>
      <trkpt lat="46.42397" lon="0.26503">
        <ele>86.532490249723</ele>
        <time>2021-11-04T08:00:53Z</time>
      </trkpt>
      <trkpt lat="46.42395" lon="0.26505">
        <ele>86.731043161824</ele>
        <time>2021-11-04T08:00:55Z</time>
      </trkpt>
      <trkpt lat="46.42394" lon="0.26506">
        <ele>86.862851741724</ele>
        <time>2021-11-04T08:00:57Z</time>
      </trkpt>
      <trkpt lat="46.42391" lon="0.26509">
        <ele>86.628275905736</ele>
        <time>2021-11-04T08:01:00Z</time>
      </trkpt>
      <trkpt lat="46.4239" lon="0.26511">
        <ele>86.479097774252</ele>
        <time>2021-11-04T08:01:03Z</time>
      </trkpt>
      <trkpt lat="46.42388" lon="0.26512">
        <ele>86.713752335869</ele>
        <time>2021-11-04T08:01:06Z</time>
      </trkpt>
      <trkpt lat="46.42386" lon="0.26514">
        <ele>86.750101030804</ele>
        <time>2021-11-04T08:01:10Z</time>
      </trkpt>
      <trkpt lat="46.42384" lon="0.26515">
        <ele>86.437564329244</ele>
        <time>2021-11-04T08:01:15Z</time>
      </trkpt>
      <trkpt lat="46.42383" lon="0.26517">
        <ele>86.020246646367</ele>
        <time>2021-11-04T08:01:19Z</time>
      </trkpt>
      <trkpt lat="46.4238" lon="0.2652">
        <ele>86.229939090088</ele>
        <time>2021-11-04T08:01:22Z</time>
      </trkpt>
      <trkpt lat="46.42378" lon="0.26521">
        <ele>87.180924087763</ele>
        <time>2021-11-04T08:01:25Z</time>
      </trkpt>
      <trkpt lat="46.42375" lon="0.26525">
        <ele>87.275515713729</ele>
        <time>2021-11-04T08:01:28Z</time>
      </trkpt>
      <trkpt lat="46.42373" lon="0.26526">
        <ele>87.656298436224</ele>
        <time>2021-11-04T08:01:31Z</time>
      </trkpt>
      <trkpt lat="46.42371" lon="0.26528">
        <ele>87.905057873577</ele>
        <time>2021-11-04T08:01:33Z</time>
      </trkpt>
      <trkpt lat="46.42369" lon="0.2653">
        <ele>88.577897506766</ele>
        <time>2021-11-04T08:01:36Z</time>
      </trkpt>
      <trkpt lat="46.42367" lon="0.26531">
        <ele>88.778480919078</ele>
        <time>2021-11-04T08:01:38Z</time>
      </trkpt>
      <trkpt lat="46.42365" lon="0.26533">
        <ele>88.8067728756</ele>
        <time>2021-11-04T08:01:40Z</time>
      </trkpt>
      <trkpt lat="46.42363" lon="0.26533">
        <ele>89.724319294095</ele>
        <time>2021-11-04T08:01:43Z</time>
      </trkpt>
      <trkpt lat="46.42361" lon="0.26534">
        <ele>89.920265732333</ele>
        <time>2021-11-04T08:01:45Z</time>
      </trkpt>
      <trkpt lat="46.42358" lon="0.26532">
        <ele>90.312791420147</ele>
        <time>2021-11-04T08:01:48Z</time>
      </trkpt>
      <trkpt lat="46.42356" lon="0.26532">
        <ele>91.112174419686</ele>
        <time>2021-11-04T08:01:50Z</time>
      </trkpt>
      <trkpt lat="46.42354" lon="0.26529">
        <ele>91.599638702348</ele>
        <time>2021-11-04T08:01:52Z</time>
      </trkpt>
      <trkpt lat="46.42353" lon="0.26525">
        <ele>91.877728812397</ele>
        <time>2021-11-04T08:01:55Z</time>
      </trkpt>
      <trkpt lat="46.4235" lon="0.26522">
        <ele>91.36558157485</ele>
        <time>2021-11-04T08:01:57Z</time>
      </trkpt>
      <trkpt lat="46.42349" lon="0.26518">
        <ele>91.603140698746</ele>
        <time>2021-11-04T08:01:59Z</time>
      </trkpt>
      <trkpt lat="46.42348" lon="0.26517">
        <ele>92.04593090713</ele>
        <time>2021-11-04T08:02:00Z</time>
      </trkpt>
      <trkpt lat="46.42347" lon="0.26514">
        <ele>91.968353702687</ele>
        <time>2021-11-04T08:02:02Z</time>
      </trkpt>
      <trkpt lat="46.42345" lon="0.26511">
        <ele>92.160874311812</ele>
        <time>2021-11-04T08:02:04Z</time>
      </trkpt>
      <trkpt lat="46.42343" lon="0.26508">
        <ele>91.911147681065</ele>
        <time>2021-11-04T08:02:06Z</time>
      </trkpt>
      <trkpt lat="46.42342" lon="0.26506">
        <ele>91.894316703081</ele>
        <time>2021-11-04T08:02:08Z</time>
      </trkpt>
      <trkpt lat="46.4234" lon="0.26504">
        <ele>92.226675218903</ele>
        <time>2021-11-04T08:02:10Z</time>
      </trkpt>
      <trkpt lat="46.42338" lon="0.26502">
        <ele>92.475189225748</ele>
        <time>2021-11-04T08:02:11Z</time>
      </trkpt>
      <trkpt lat="46.42337" lon="0.26499">
        <ele>92.635265313089</ele>
        <time>2021-11-04T08:02:13Z</time>
      </trkpt>
      <trkpt lat="46.42334" lon="0.26495">
        <ele>92.211055454798</ele>
        <time>2021-11-04T08:02:15Z</time>
      </trkpt>
      <trkpt lat="46.42332" lon="0.26493">
        <ele>92.559153135866</ele>
        <time>2021-11-04T08:02:17Z</time>
      </trkpt>
      <trkpt lat="46.42331" lon="0.2649">
        <ele>92.877298854291</ele>
        <time>2021-11-04T08:02:18Z</time>
      </trkpt>
      <trkpt lat="46.4233" lon="0.26488">
        <ele>93.078704599291</ele>
        <time>2021-11-04T08:02:19Z</time>
      </trkpt>
      <trkpt lat="46.42328" lon="0.26484">
        <ele>92.726309231482</ele>
        <time>2021-11-04T08:02:21Z</time>
      </trkpt>
      <trkpt lat="46.42326" lon="0.26482">
        <ele>93.127709633671</ele>
        <time>2021-11-04T08:02:23Z</time>
      </trkpt>
      <trkpt lat="46.42325" lon="0.26479">
        <ele>92.985379251651</ele>
        <time>2021-11-04T08:02:25Z</time>
      </trkpt>
      <trkpt lat="46.42323" lon="0.26475">
        <ele>93.25696109049</ele>
        <time>2021-11-04T08:02:27Z</time>
      </trkpt>
      <trkpt lat="46.42322" lon="0.26472">
        <ele>93.527738456614</ele>
        <time>2021-11-04T08:02:30Z</time>
      </trkpt>
      <trkpt lat="46.4232" lon="0.26469">
        <ele>93.200138672255</ele>
        <time>2021-11-04T08:02:32Z</time>
      </trkpt>
      <trkpt lat="46.42319" lon="0.26466">
        <ele>93.603432674892</ele>
        <time>2021-11-04T08:02:34Z</time>
      </trkpt>
      <trkpt lat="46.42317" lon="0.26464">
        <ele>93.525601598434</ele>
        <time>2021-11-04T08:02:36Z</time>
      </trkpt>
      <trkpt lat="46.42316" lon="0.26461">
        <ele>93.974654331803</ele>
        <time>2021-11-04T08:02:39Z</time>
      </trkpt>
      <trkpt lat="46.42314" lon="0.26458">
        <ele>93.547217516229</ele>
        <time>2021-11-04T08:02:42Z</time>
      </trkpt>
      <trkpt lat="46.42313" lon="0.26455">
        <ele>93.751218623482</ele>
        <time>2021-11-04T08:02:45Z</time>
      </trkpt>
      <trkpt lat="46.42311" lon="0.26453">
        <ele>93.385297633708</ele>
        <time>2021-11-04T08:02:47Z</time>
      </trkpt>
      <trkpt lat="46.4231" lon="0.2645">
        <ele>93.414599182084</ele>
        <time>2021-11-04T08:02:49Z</time>
      </trkpt>
      <trkpt lat="46.42309" lon="0.26447">
        <ele>93.336842414923</ele>
        <time>2021-11-04T08:02:51Z</time>
      </trkpt>
      <trkpt lat="46.42307" lon="0.26444">
        <ele>93.282375751995</ele>
        <time>2021-11-04T08:02:53Z</time>
      </trkpt>
      <trkpt lat="46.42304" lon="0.26441">
        <ele>93.640900211409</ele>
        <time>2021-11-04T08:02:55Z</time>
      </trkpt>
      <trkpt lat="46.42303" lon="0.26439">
        <ele>93.196427696384</ele>
        <time>2021-11-04T08:02:57Z</time>
      </trkpt>
      <trkpt lat="46.42301" lon="0.26435">
        <ele>93.45080562681</ele>
        <time>2021-11-04T08:02:59Z</time>
      </trkpt>
      <trkpt lat="46.42301" lon="0.26433">
        <ele>93.895335818641</ele>
        <time>2021-11-04T08:03:00Z</time>
      </trkpt>
      <trkpt lat="46.423" lon="0.26431">
        <ele>93.161760644987</ele>
        <time>2021-11-04T08:03:02Z</time>
      </trkpt>
      <trkpt lat="46.42298" lon="0.26428">
        <ele>93.278105076402</ele>
        <time>2021-11-04T08:03:04Z</time>
      </trkpt>
      <trkpt lat="46.42296" lon="0.26424">
        <ele>93.953765911981</ele>
        <time>2021-11-04T08:03:06Z</time>
      </trkpt>
      <trkpt lat="46.42294" lon="0.26421">
        <ele>93.24758812692</ele>
        <time>2021-11-04T08:03:08Z</time>
      </trkpt>
      <trkpt lat="46.42293" lon="0.26418">
        <ele>93.691108452156</ele>
        <time>2021-11-04T08:03:10Z</time>
      </trkpt>
      <trkpt lat="46.42291" lon="0.26414">
        <ele>93.760751605034</ele>
        <time>2021-11-04T08:03:12Z</time>
      </trkpt>
      <trkpt lat="46.4229" lon="0.26411">
        <ele>93.367871739902</ele>
        <time>2021-11-04T08:03:14Z</time>
      </trkpt>
      <trkpt lat="46.42288" lon="0.26408">
        <ele>93.787065128796</ele>
        <time>2021-11-04T08:03:16Z</time>
      </trkpt>
      <trkpt lat="46.42287" lon="0.26406">
        <ele>94.10781715624</ele>
        <time>2021-11-04T08:03:18Z</time>
      </trkpt>
      <trkpt lat="46.42285" lon="0.26403">
        <ele>94.446357343346</ele>
        <time>2021-11-04T08:03:22Z</time>
      </trkpt>
      <trkpt lat="46.42283" lon="0.26402">
        <ele>94.559925899841</ele>
        <time>2021-11-04T08:03:24Z</time>
      </trkpt>
      <trkpt lat="46.42281" lon="0.264">
        <ele>94.756002214737</ele>
        <time>2021-11-04T08:03:28Z</time>
      </trkpt>
      <trkpt lat="46.42279" lon="0.26398">
        <ele>95.41733547207</ele>
        <time>2021-11-04T08:03:30Z</time>
      </trkpt>
      <trkpt lat="46.42277" lon="0.26396">
        <ele>95.468635153025</ele>
        <time>2021-11-04T08:03:32Z</time>
      </trkpt>
      <trkpt lat="46.42275" lon="0.26395">
        <ele>95.235633222386</ele>
        <time>2021-11-04T08:03:34Z</time>
      </trkpt>
      <trkpt lat="46.42273" lon="0.26393">
        <ele>95.659703775309</ele>
        <time>2021-11-04T08:03:36Z</time>
      </trkpt>
      <trkpt lat="46.42271" lon="0.2639">
        <ele>96.233180785552</ele>
        <time>2021-11-04T08:03:39Z</time>
      </trkpt>
      <trkpt lat="46.4227" lon="0.26387">
        <ele>96.416921061464</ele>
        <time>2021-11-04T08:03:42Z</time>
      </trkpt>
      <trkpt lat="46.42268" lon="0.26385">
        <ele>96.870254308917</ele>
        <time>2021-11-04T08:03:45Z</time>
      </trkpt>
      <trkpt lat="46.42268" lon="0.26382">
        <ele>96.792135223746</ele>
        <time>2021-11-04T08:03:47Z</time>
      </trkpt>
      <trkpt lat="46.42267" lon="0.26379">
        <ele>96.489743780345</ele>
        <time>2021-11-04T08:03:50Z</time>
      </trkpt>
      <trkpt lat="46.42265" lon="0.26377">
        <ele>96.84591989778</ele>
        <time>2021-11-04T08:03:53Z</time>
      </trkpt>
      <trkpt lat="46.42265" lon="0.26373">
        <ele>96.673663135618</ele>
        <time>2021-11-04T08:03:55Z</time>
      </trkpt>
      <trkpt lat="46.42263" lon="0.2637">
        <ele>96.519607463852</ele>
        <time>2021-11-04T08:03:58Z</time>
      </trkpt>
      <trkpt lat="46.42262" lon="0.26368">
        <ele>96.745542196557</ele>
        <time>2021-11-04T08:04:00Z</time>
      </trkpt>
      <trkpt lat="46.42261" lon="0.26365">
        <ele>96.454167014919</ele>
        <time>2021-11-04T08:04:02Z</time>
      </trkpt>
      <trkpt lat="46.42258" lon="0.26363">
        <ele>96.573170992546</ele>
        <time>2021-11-04T08:04:05Z</time>
      </trkpt>
      <trkpt lat="46.42257" lon="0.26361">
        <ele>96.739953668788</ele>
        <time>2021-11-04T08:04:07Z</time>
      </trkpt>
      <trkpt lat="46.42255" lon="0.26358">
        <ele>96.89072034508</ele>
        <time>2021-11-04T08:04:09Z</time>
      </trkpt>
      <trkpt lat="46.42255" lon="0.26354">
        <ele>96.695234660059</ele>
        <time>2021-11-04T08:04:11Z</time>
      </trkpt>
      <trkpt lat="46.42254" lon="0.2635">
        <ele>96.64463017974</ele>
        <time>2021-11-04T08:04:13Z</time>
      </trkpt>
      <trkpt lat="46.42253" lon="0.26347">
        <ele>96.605871500447</ele>
        <time>2021-11-04T08:04:16Z</time>
      </trkpt>
      <trkpt lat="46.42252" lon="0.26344">
        <ele>96.786252341233</ele>
        <time>2021-11-04T08:04:18Z</time>
      </trkpt>
      <trkpt lat="46.42252" lon="0.26341">
        <ele>96.322726562619</ele>
        <time>2021-11-04T08:04:20Z</time>
      </trkpt>
      <trkpt lat="46.42251" lon="0.26337">
        <ele>96.42378234677</ele>
        <time>2021-11-04T08:04:22Z</time>
      </trkpt>
      <trkpt lat="46.42249" lon="0.26334">
        <ele>96.076384861954</ele>
        <time>2021-11-04T08:04:24Z</time>
      </trkpt>
      <trkpt lat="46.42248" lon="0.26329">
        <ele>95.928434509784</ele>
        <time>2021-11-04T08:04:26Z</time>
      </trkpt>
      <trkpt lat="46.42247" lon="0.26326">
        <ele>95.855679850094</ele>
        <time>2021-11-04T08:04:28Z</time>
      </trkpt>
      <trkpt lat="46.42245" lon="0.26324">
        <ele>95.984976623207</ele>
        <time>2021-11-04T08:04:30Z</time>
      </trkpt>
      <trkpt lat="46.42243" lon="0.2632">
        <ele>96.286104037426</ele>
        <time>2021-11-04T08:04:33Z</time>
      </trkpt>
      <trkpt lat="46.42242" lon="0.26317">
        <ele>95.528943230398</ele>
        <time>2021-11-04T08:04:35Z</time>
      </trkpt>
      <trkpt lat="46.42241" lon="0.26314">
        <ele>95.783264590427</ele>
        <time>2021-11-04T08:04:37Z</time>
      </trkpt>
      <trkpt lat="46.42239" lon="0.26312">
        <ele>96.25578241609</ele>
        <time>2021-11-04T08:04:39Z</time>
      </trkpt>
      <trkpt lat="46.42238" lon="0.26309">
        <ele>95.932907622308</ele>
        <time>2021-11-04T08:04:41Z</time>
      </trkpt>
      <trkpt lat="46.42237" lon="0.26307">
        <ele>96.037406477146</ele>
        <time>2021-11-04T08:04:43Z</time>
      </trkpt>
      <trkpt lat="46.42235" lon="0.26304">
        <ele>96.074474729598</ele>
        <time>2021-11-04T08:04:45Z</time>
      </trkpt>
      <trkpt lat="46.42234" lon="0.26302">
        <ele>96.126616168767</ele>
        <time>2021-11-04T08:04:47Z</time>
      </trkpt>
      <trkpt lat="46.42233" lon="0.26298">
        <ele>96.13458039239</ele>
        <time>2021-11-04T08:04:50Z</time>
      </trkpt>
      <trkpt lat="46.42232" lon="0.26295">
        <ele>96.227344920859</ele>
        <time>2021-11-04T08:04:52Z</time>
      </trkpt>
      <trkpt lat="46.42231" lon="0.26293">
        <ele>95.993582920171</ele>
        <time>2021-11-04T08:04:53Z</time>
      </trkpt>
      <trkpt lat="46.4223" lon="0.26289">
        <ele>96.06037201453</ele>
        <time>2021-11-04T08:04:56Z</time>
      </trkpt>
      <trkpt lat="46.42228" lon="0.26285">
        <ele>95.718924758025</ele>
        <time>2021-11-04T08:04:58Z</time>
      </trkpt>
      <trkpt lat="46.42228" lon="0.26281">
        <ele>95.674933780916</ele>
        <time>2021-11-04T08:05:01Z</time>
      </trkpt>
      <trkpt lat="46.42227" lon="0.26278">
        <ele>95.209126724862</ele>
        <time>2021-11-04T08:05:03Z</time>
      </trkpt>
      <trkpt lat="46.42227" lon="0.26275">
        <ele>94.63039524015</ele>
        <time>2021-11-04T08:05:05Z</time>
      </trkpt>
      <trkpt lat="46.42226" lon="0.26272">
        <ele>94.422414878383</ele>
        <time>2021-11-04T08:05:06Z</time>
      </trkpt>
      <trkpt lat="46.42225" lon="0.26268">
        <ele>94.2612480307</ele>
        <time>2021-11-04T08:05:08Z</time>
      </trkpt>
      <trkpt lat="46.42224" lon="0.26264">
        <ele>94.104751055129</ele>
        <time>2021-11-04T08:05:10Z</time>
      </trkpt>
      <trkpt lat="46.42224" lon="0.2626">
        <ele>93.843930692412</ele>
        <time>2021-11-04T08:05:12Z</time>
      </trkpt>
      <trkpt lat="46.42224" lon="0.26257">
        <ele>93.582080319524</ele>
        <time>2021-11-04T08:05:14Z</time>
      </trkpt>
      <trkpt lat="46.42223" lon="0.26252">
        <ele>93.067000922747</ele>
        <time>2021-11-04T08:05:16Z</time>
      </trkpt>
      <trkpt lat="46.42223" lon="0.26248">
        <ele>92.824555269442</ele>
        <time>2021-11-04T08:05:18Z</time>
      </trkpt>
      <trkpt lat="46.42223" lon="0.26245">
        <ele>92.684329108335</ele>
        <time>2021-11-04T08:05:20Z</time>
      </trkpt>
      <trkpt lat="46.42222" lon="0.26242">
        <ele>92.385994642973</ele>
        <time>2021-11-04T08:05:22Z</time>
      </trkpt>
      <trkpt lat="46.42222" lon="0.26239">
        <ele>91.572298041545</ele>
        <time>2021-11-04T08:05:24Z</time>
      </trkpt>
      <trkpt lat="46.42219" lon="0.26235">
        <ele>91.915583412163</ele>
        <time>2021-11-04T08:05:27Z</time>
      </trkpt>
      <trkpt lat="46.42217" lon="0.26236">
        <ele>92.13056964241</ele>
        <time>2021-11-04T08:05:29Z</time>
      </trkpt>
      <trkpt lat="46.42216" lon="0.26238">
        <ele>92.322331998497</ele>
        <time>2021-11-04T08:05:34Z</time>
      </trkpt>
      <trkpt lat="46.42216" lon="0.26242">
        <ele>92.833444926888</ele>
        <time>2021-11-04T08:05:37Z</time>
      </trkpt>
      <trkpt lat="46.42215" lon="0.26246">
        <ele>93.393773237243</ele>
        <time>2021-11-04T08:05:40Z</time>
      </trkpt>
      <trkpt lat="46.42216" lon="0.26249">
        <ele>93.854742119089</ele>
        <time>2021-11-04T08:05:42Z</time>
      </trkpt>
      <trkpt lat="46.42216" lon="0.26252">
        <ele>94.337201796472</ele>
        <time>2021-11-04T08:05:46Z</time>
      </trkpt>
      <trkpt lat="46.42216" lon="0.26256">
        <ele>94.609492827207</ele>
        <time>2021-11-04T08:05:49Z</time>
      </trkpt>
      <trkpt lat="46.42216" lon="0.26259">
        <ele>95.236873119138</ele>
        <time>2021-11-04T08:05:52Z</time>
      </trkpt>
      <trkpt lat="46.42217" lon="0.26262">
        <ele>95.662772130221</ele>
        <time>2021-11-04T08:05:56Z</time>
      </trkpt>
      <trkpt lat="46.42218" lon="0.26265">
        <ele>95.975855743513</ele>
        <time>2021-11-04T08:06:00Z</time>
      </trkpt>
      <trkpt lat="46.42217" lon="0.26269">
        <ele>96.369502816349</ele>
        <time>2021-11-04T08:06:03Z</time>
      </trkpt>
      <trkpt lat="46.42216" lon="0.26272">
        <ele>96.671081024222</ele>
        <time>2021-11-04T08:06:06Z</time>
      </trkpt>
      <trkpt lat="46.42215" lon="0.26276">
        <ele>97.2777462136</ele>
        <time>2021-11-04T08:06:09Z</time>
      </trkpt>
      <trkpt lat="46.42214" lon="0.26279">
        <ele>98.034435468726</ele>
        <time>2021-11-04T08:06:12Z</time>
      </trkpt>
      <trkpt lat="46.42214" lon="0.26283">
        <ele>98.590291660279</ele>
        <time>2021-11-04T08:06:15Z</time>
      </trkpt>
      <trkpt lat="46.42213" lon="0.26286">
        <ele>99.347613946535</ele>
        <time>2021-11-04T08:06:19Z</time>
      </trkpt>
      <trkpt lat="46.42213" lon="0.26289">
        <ele>100.1668493934</ele>
        <time>2021-11-04T08:06:21Z</time>
      </trkpt>
      <trkpt lat="46.42213" lon="0.26293">
        <ele>100.63341332786</ele>
        <time>2021-11-04T08:06:23Z</time>
      </trkpt>
      <trkpt lat="46.42213" lon="0.26296">
        <ele>100.67706915457</ele>
        <time>2021-11-04T08:06:25Z</time>
      </trkpt>
      <trkpt lat="46.42213" lon="0.26301">
        <ele>101.76317106746</ele>
        <time>2021-11-04T08:06:29Z</time>
      </trkpt>
      <trkpt lat="46.42213" lon="0.26304">
        <ele>102.00076894742</ele>
        <time>2021-11-04T08:06:33Z</time>
      </trkpt>
      <trkpt lat="46.42213" lon="0.26307">
        <ele>102.51086079702</ele>
        <time>2021-11-04T08:06:36Z</time>
      </trkpt>
      <trkpt lat="46.42213" lon="0.26311">
        <ele>102.9261604147</ele>
        <time>2021-11-04T08:06:38Z</time>
      </trkpt>
      <trkpt lat="46.42214" lon="0.26314">
        <ele>103.38743046392</ele>
        <time>2021-11-04T08:06:40Z</time>
      </trkpt>
      <trkpt lat="46.42214" lon="0.26317">
        <ele>103.7322745854</ele>
        <time>2021-11-04T08:06:45Z</time>
      </trkpt>
      <trkpt lat="46.42214" lon="0.26321">
        <ele>104.1560534453</ele>
        <time>2021-11-04T08:06:48Z</time>
      </trkpt>
      <trkpt lat="46.42215" lon="0.26323">
        <ele>104.57378678862</ele>
        <time>2021-11-04T08:06:50Z</time>
      </trkpt>
      <trkpt lat="46.42215" lon="0.26326">
        <ele>104.67290685698</ele>
        <time>2021-11-04T08:06:52Z</time>
      </trkpt>
      <trkpt lat="46.42216" lon="0.26329">
        <ele>105.42604425736</ele>
        <time>2021-11-04T08:06:55Z</time>
      </trkpt>
      <trkpt lat="46.42216" lon="0.26332">
        <ele>105.68691409379</ele>
        <time>2021-11-04T08:06:59Z</time>
      </trkpt>
      <trkpt lat="46.42216" lon="0.26335">
        <ele>105.76448012702</ele>
        <time>2021-11-04T08:07:02Z</time>
      </trkpt>
      <trkpt lat="46.42216" lon="0.26338">
        <ele>106.18354272936</ele>
        <time>2021-11-04T08:07:05Z</time>
      </trkpt>
      <trkpt lat="46.42216" lon="0.26341">
        <ele>106.42490875162</ele>
        <time>2021-11-04T08:07:08Z</time>
      </trkpt>
      <trkpt lat="46.42216" lon="0.26344">
        <ele>106.41092391871</ele>
        <time>2021-11-04T08:07:11Z</time>
      </trkpt>
      <trkpt lat="46.42218" lon="0.26346">
        <ele>106.85303838644</ele>
        <time>2021-11-04T08:07:13Z</time>
      </trkpt>
      <trkpt lat="46.42216" lon="0.2635">
        <ele>106.93376220111</ele>
        <time>2021-11-04T08:07:15Z</time>
      </trkpt>
      <trkpt lat="46.42217" lon="0.26352">
        <ele>107.44583532494</ele>
        <time>2021-11-04T08:07:19Z</time>
      </trkpt>
      <trkpt lat="46.42216" lon="0.26356">
        <ele>107.81355265714</ele>
        <time>2021-11-04T08:07:22Z</time>
      </trkpt>
      <trkpt lat="46.42216" lon="0.26358">
        <ele>107.7249663258</ele>
        <time>2021-11-04T08:07:24Z</time>
      </trkpt>
      <trkpt lat="46.42215" lon="0.26361">
        <ele>108.05937243253</ele>
        <time>2021-11-04T08:07:27Z</time>
      </trkpt>
      <trkpt lat="46.42215" lon="0.26364">
        <ele>108.04189577326</ele>
        <time>2021-11-04T08:07:29Z</time>
      </trkpt>
      <trkpt lat="46.42216" lon="0.26367">
        <ele>108.61943629291</ele>
        <time>2021-11-04T08:07:32Z</time>
      </trkpt>
      <trkpt lat="46.42217" lon="0.26371">
        <ele>108.52983317431</ele>
        <time>2021-11-04T08:07:34Z</time>
      </trkpt>
      <trkpt lat="46.42218" lon="0.26375">
        <ele>108.86050393432</ele>
        <time>2021-11-04T08:07:36Z</time>
      </trkpt>
      <trkpt lat="46.42219" lon="0.26377">
        <ele>109.01548079401</ele>
        <time>2021-11-04T08:07:38Z</time>
      </trkpt>
      <trkpt lat="46.4222" lon="0.2638">
        <ele>109.25199847389</ele>
        <time>2021-11-04T08:07:40Z</time>
      </trkpt>
      <trkpt lat="46.42222" lon="0.26383">
        <ele>109.3722597016</ele>
        <time>2021-11-04T08:07:43Z</time>
      </trkpt>
      <trkpt lat="46.42224" lon="0.26386">
        <ele>109.28582731821</ele>
        <time>2021-11-04T08:07:46Z</time>
      </trkpt>
      <trkpt lat="46.42226" lon="0.26389">
        <ele>109.65307075717</ele>
        <time>2021-11-04T08:07:49Z</time>
      </trkpt>
      <trkpt lat="46.42228" lon="0.26391">
        <ele>109.39282266703</ele>
        <time>2021-11-04T08:07:54Z</time>
      </trkpt>
      <trkpt lat="46.4223" lon="0.26395">
        <ele>108.6829540683</ele>
        <time>2021-11-04T08:07:56Z</time>
      </trkpt>
      <trkpt lat="46.42231" lon="0.26399">
        <ele>109.14279048704</ele>
        <time>2021-11-04T08:08:00Z</time>
      </trkpt>
      <trkpt lat="46.42232" lon="0.26403">
        <ele>108.96273714397</ele>
        <time>2021-11-04T08:08:03Z</time>
      </trkpt>
      <trkpt lat="46.42233" lon="0.26406">
        <ele>109.5272554541</ele>
        <time>2021-11-04T08:08:06Z</time>
      </trkpt>
      <trkpt lat="46.42233" lon="0.26409">
        <ele>109.42696826812</ele>
        <time>2021-11-04T08:08:10Z</time>
      </trkpt>
      <trkpt lat="46.42233" lon="0.26412">
        <ele>109.22320378665</ele>
        <time>2021-11-04T08:08:13Z</time>
      </trkpt>
      <trkpt lat="46.42233" lon="0.26415">
        <ele>110.06922841165</ele>
        <time>2021-11-04T08:08:15Z</time>
      </trkpt>
      <trkpt lat="46.42233" lon="0.26418">
        <ele>109.94397483114</ele>
        <time>2021-11-04T08:08:18Z</time>
      </trkpt>
      <trkpt lat="46.42234" lon="0.2642">
        <ele>110.24464125372</ele>
        <time>2021-11-04T08:08:21Z</time>
      </trkpt>
      <trkpt lat="46.42234" lon="0.26424">
        <ele>110.18147589546</ele>
        <time>2021-11-04T08:08:24Z</time>
      </trkpt>
      <trkpt lat="46.42234" lon="0.26427">
        <ele>110.37258045096</ele>
        <time>2021-11-04T08:08:26Z</time>
      </trkpt>
      <trkpt lat="46.42233" lon="0.2643">
        <ele>110.52007926535</ele>
        <time>2021-11-04T08:08:28Z</time>
      </trkpt>
      <trkpt lat="46.42232" lon="0.26433">
        <ele>110.9996703025</ele>
        <time>2021-11-04T08:08:32Z</time>
      </trkpt>
      <trkpt lat="46.42231" lon="0.26436">
        <ele>112.13009227905</ele>
        <time>2021-11-04T08:08:36Z</time>
      </trkpt>
      <trkpt lat="46.42229" lon="0.26437">
        <ele>111.77541678399</ele>
        <time>2021-11-04T08:08:39Z</time>
      </trkpt>
      <trkpt lat="46.42227" lon="0.26438">
        <ele>112.35037523508</ele>
        <time>2021-11-04T08:08:42Z</time>
      </trkpt>
      <trkpt lat="46.42224" lon="0.26439">
        <ele>112.70196901821</ele>
        <time>2021-11-04T08:08:50Z</time>
      </trkpt>
      <trkpt lat="46.42223" lon="0.2644">
        <ele>113.10938989092</ele>
        <time>2021-11-04T08:09:13Z</time>
      </trkpt>
      <trkpt lat="46.42221" lon="0.26438">
        <ele>113.44788184389</ele>
        <time>2021-11-04T08:09:29Z</time>
      </trkpt>
      <trkpt lat="46.4222" lon="0.2644">
        <ele>113.68775079958</ele>
        <time>2021-11-04T08:09:59Z</time>
      </trkpt>
      <trkpt lat="46.42218" lon="0.26441">
        <ele>113.81672920659</ele>
        <time>2021-11-04T08:10:02Z</time>
      </trkpt>
      <trkpt lat="46.42216" lon="0.26444">
        <ele>114.16086581163</ele>
        <time>2021-11-04T08:10:05Z</time>
      </trkpt>
      <trkpt lat="46.42214" lon="0.26446">
        <ele>114.27331946231</ele>
        <time>2021-11-04T08:10:08Z</time>
      </trkpt>
      <trkpt lat="46.42213" lon="0.26449">
        <ele>114.47125261929</ele>
        <time>2021-11-04T08:10:10Z</time>
      </trkpt>
      <trkpt lat="46.42212" lon="0.26452">
        <ele>114.76620814204</ele>
        <time>2021-11-04T08:10:12Z</time>
      </trkpt>
      <trkpt lat="46.42211" lon="0.26455">
        <ele>114.85396238137</ele>
        <time>2021-11-04T08:10:14Z</time>
      </trkpt>
      <trkpt lat="46.4221" lon="0.26458">
        <ele>115.30801360589</ele>
        <time>2021-11-04T08:10:17Z</time>
      </trkpt>
      <trkpt lat="46.42209" lon="0.26461">
        <ele>115.38351184689</ele>
        <time>2021-11-04T08:10:19Z</time>
      </trkpt>
      <trkpt lat="46.42207" lon="0.26465">
        <ele>115.62957652565</ele>
        <time>2021-11-04T08:10:22Z</time>
      </trkpt>
      <trkpt lat="46.42206" lon="0.26468">
        <ele>115.79346106108</ele>
        <time>2021-11-04T08:10:25Z</time>
      </trkpt>
      <trkpt lat="46.42205" lon="0.26471">
        <ele>115.95046169218</ele>
        <time>2021-11-04T08:10:27Z</time>
      </trkpt>
      <trkpt lat="46.42204" lon="0.26474">
        <ele>116.38813669514</ele>
        <time>2021-11-04T08:10:29Z</time>
      </trkpt>
      <trkpt lat="46.42203" lon="0.26477">
        <ele>116.29053484183</ele>
        <time>2021-11-04T08:10:31Z</time>
      </trkpt>
      <trkpt lat="46.42202" lon="0.26481">
        <ele>116.75905622914</ele>
        <time>2021-11-04T08:10:34Z</time>
      </trkpt>
      <trkpt lat="46.42201" lon="0.26484">
        <ele>116.86622095481</ele>
        <time>2021-11-04T08:10:36Z</time>
      </trkpt>
      <trkpt lat="46.422" lon="0.26487">
        <ele>116.87322640792</ele>
        <time>2021-11-04T08:10:38Z</time>
      </trkpt>
      <trkpt lat="46.42199" lon="0.26491">
        <ele>116.84377370588</ele>
        <time>2021-11-04T08:10:40Z</time>
      </trkpt>
      <trkpt lat="46.42198" lon="0.26494">
        <ele>117.3177758595</ele>
        <time>2021-11-04T08:10:42Z</time>
      </trkpt>
      <trkpt lat="46.42196" lon="0.26497">
        <ele>117.31524592079</ele>
        <time>2021-11-04T08:10:44Z</time>
      </trkpt>
      <trkpt lat="46.42196" lon="0.265">
        <ele>117.0588566456</ele>
        <time>2021-11-04T08:10:46Z</time>
      </trkpt>
      <trkpt lat="46.42195" lon="0.26505">
        <ele>117.39685224462</ele>
        <time>2021-11-04T08:10:49Z</time>
      </trkpt>
      <trkpt lat="46.42195" lon="0.26507">
        <ele>117.2404775247</ele>
        <time>2021-11-04T08:10:51Z</time>
      </trkpt>
      <trkpt lat="46.42194" lon="0.26511">
        <ele>117.67036157474</ele>
        <time>2021-11-04T08:10:53Z</time>
      </trkpt>
      <trkpt lat="46.42192" lon="0.26513">
        <ele>118.02134697046</ele>
        <time>2021-11-04T08:10:55Z</time>
      </trkpt>
      <trkpt lat="46.42191" lon="0.26515">
        <ele>117.5428254297</ele>
        <time>2021-11-04T08:10:56Z</time>
      </trkpt>
      <trkpt lat="46.42189" lon="0.26518">
        <ele>117.77919848636</ele>
        <time>2021-11-04T08:10:58Z</time>
      </trkpt>
      <trkpt lat="46.42189" lon="0.26521">
        <ele>118.0128383562</ele>
        <time>2021-11-04T08:11:00Z</time>
      </trkpt>
      <trkpt lat="46.42187" lon="0.26524">
        <ele>117.55234822724</ele>
        <time>2021-11-04T08:11:02Z</time>
      </trkpt>
      <trkpt lat="46.42186" lon="0.26527">
        <ele>117.87542783841</ele>
        <time>2021-11-04T08:11:04Z</time>
      </trkpt>
      <trkpt lat="46.42185" lon="0.2653">
        <ele>117.90627900325</ele>
        <time>2021-11-04T08:11:06Z</time>
      </trkpt>
      <trkpt lat="46.42184" lon="0.26533">
        <ele>117.92396043707</ele>
        <time>2021-11-04T08:11:08Z</time>
      </trkpt>
      <trkpt lat="46.42183" lon="0.26535">
        <ele>117.95996857435</ele>
        <time>2021-11-04T08:11:10Z</time>
      </trkpt>
      <trkpt lat="46.42182" lon="0.26538">
        <ele>117.80374519061</ele>
        <time>2021-11-04T08:11:13Z</time>
      </trkpt>
      <trkpt lat="46.42181" lon="0.26542">
        <ele>117.91447691061</ele>
        <time>2021-11-04T08:11:15Z</time>
      </trkpt>
      <trkpt lat="46.4218" lon="0.26546">
        <ele>117.82016095798</ele>
        <time>2021-11-04T08:11:18Z</time>
      </trkpt>
      <trkpt lat="46.42178" lon="0.26548">
        <ele>118.14671775699</ele>
        <time>2021-11-04T08:11:20Z</time>
      </trkpt>
      <trkpt lat="46.42177" lon="0.26552">
        <ele>117.90509953815</ele>
        <time>2021-11-04T08:11:22Z</time>
      </trkpt>
      <trkpt lat="46.42176" lon="0.26555">
        <ele>118.20647030696</ele>
        <time>2021-11-04T08:11:24Z</time>
      </trkpt>
      <trkpt lat="46.42174" lon="0.26558">
        <ele>117.85416448861</ele>
        <time>2021-11-04T08:11:26Z</time>
      </trkpt>
      <trkpt lat="46.42173" lon="0.26561">
        <ele>118.25208707619</ele>
        <time>2021-11-04T08:11:28Z</time>
      </trkpt>
      <trkpt lat="46.42171" lon="0.26564">
        <ele>118.35741932411</ele>
        <time>2021-11-04T08:11:30Z</time>
      </trkpt>
      <trkpt lat="46.4217" lon="0.26568">
        <ele>118.3972962657</ele>
        <time>2021-11-04T08:11:32Z</time>
      </trkpt>
      <trkpt lat="46.42168" lon="0.2657">
        <ele>118.52666943148</ele>
        <time>2021-11-04T08:11:34Z</time>
      </trkpt>
      <trkpt lat="46.42167" lon="0.26572">
        <ele>118.74294810928</ele>
        <time>2021-11-04T08:11:36Z</time>
      </trkpt>
      <trkpt lat="46.42165" lon="0.26573">
        <ele>118.61022322904</ele>
        <time>2021-11-04T08:11:39Z</time>
      </trkpt>
      <trkpt lat="46.42163" lon="0.26572">
        <ele>118.69738537446</ele>
        <time>2021-11-04T08:11:41Z</time>
      </trkpt>
      <trkpt lat="46.4216" lon="0.2657">
        <ele>118.51476519927</ele>
        <time>2021-11-04T08:11:43Z</time>
      </trkpt>
      <trkpt lat="46.42158" lon="0.26568">
        <ele>119.03274509776</ele>
        <time>2021-11-04T08:11:45Z</time>
      </trkpt>
      <trkpt lat="46.42156" lon="0.26566">
        <ele>118.64021927211</ele>
        <time>2021-11-04T08:11:47Z</time>
      </trkpt>
      <trkpt lat="46.42155" lon="0.26563">
        <ele>118.6513236817</ele>
        <time>2021-11-04T08:11:49Z</time>
      </trkpt>
      <trkpt lat="46.42154" lon="0.26559">
        <ele>118.51417635661</ele>
        <time>2021-11-04T08:11:51Z</time>
      </trkpt>
      <trkpt lat="46.42153" lon="0.26557">
        <ele>118.53248438705</ele>
        <time>2021-11-04T08:11:53Z</time>
      </trkpt>
      <trkpt lat="46.42151" lon="0.26553">
        <ele>118.22838966548</ele>
        <time>2021-11-04T08:11:55Z</time>
      </trkpt>
      <trkpt lat="46.42151" lon="0.2655">
        <ele>118.69009708893</ele>
        <time>2021-11-04T08:11:57Z</time>
      </trkpt>
      <trkpt lat="46.4215" lon="0.26547">
        <ele>118.22424152121</ele>
        <time>2021-11-04T08:12:00Z</time>
      </trkpt>
      <trkpt lat="46.4215" lon="0.26543">
        <ele>118.58804487064</ele>
        <time>2021-11-04T08:12:02Z</time>
      </trkpt>
      <trkpt lat="46.42149" lon="0.2654">
        <ele>118.29987957422</ele>
        <time>2021-11-04T08:12:04Z</time>
      </trkpt>
      <trkpt lat="46.42148" lon="0.26537">
        <ele>118.08508132026</ele>
        <time>2021-11-04T08:12:07Z</time>
      </trkpt>
      <trkpt lat="46.42147" lon="0.26534">
        <ele>118.17710402235</ele>
        <time>2021-11-04T08:12:09Z</time>
      </trkpt>
      <trkpt lat="46.42147" lon="0.2653">
        <ele>117.9111385243</ele>
        <time>2021-11-04T08:12:11Z</time>
      </trkpt>
      <trkpt lat="46.42146" lon="0.26527">
        <ele>118.34799750149</ele>
        <time>2021-11-04T08:12:13Z</time>
      </trkpt>
      <trkpt lat="46.42146" lon="0.26524">
        <ele>118.11675984785</ele>
        <time>2021-11-04T08:12:15Z</time>
      </trkpt>
      <trkpt lat="46.42145" lon="0.26521">
        <ele>118.11376278941</ele>
        <time>2021-11-04T08:12:17Z</time>
      </trkpt>
      <trkpt lat="46.42145" lon="0.26517">
        <ele>118.20179190021</ele>
        <time>2021-11-04T08:12:19Z</time>
      </trkpt>
      <trkpt lat="46.42145" lon="0.26515">
        <ele>118.08894994855</ele>
        <time>2021-11-04T08:12:21Z</time>
      </trkpt>
      <trkpt lat="46.42144" lon="0.26512">
        <ele>118.30306612141</ele>
        <time>2021-11-04T08:12:23Z</time>
      </trkpt>
      <trkpt lat="46.42143" lon="0.26507">
        <ele>118.25473777205</ele>
        <time>2021-11-04T08:12:25Z</time>
      </trkpt>
      <trkpt lat="46.42143" lon="0.26504">
        <ele>118.22777478956</ele>
        <time>2021-11-04T08:12:27Z</time>
      </trkpt>
      <trkpt lat="46.42143" lon="0.26501">
        <ele>118.2502850797</ele>
        <time>2021-11-04T08:12:29Z</time>
      </trkpt>
      <trkpt lat="46.42142" lon="0.26497">
        <ele>118.09589387663</ele>
        <time>2021-11-04T08:12:31Z</time>
      </trkpt>
      <trkpt lat="46.42141" lon="0.26493">
        <ele>118.27876707818</ele>
        <time>2021-11-04T08:12:34Z</time>
      </trkpt>
      <trkpt lat="46.4214" lon="0.26489">
        <ele>118.30036584847</ele>
        <time>2021-11-04T08:12:36Z</time>
      </trkpt>
      <trkpt lat="46.42139" lon="0.26485">
        <ele>118.28922674526</ele>
        <time>2021-11-04T08:12:38Z</time>
      </trkpt>
      <trkpt lat="46.42139" lon="0.26481">
        <ele>117.98419741355</ele>
        <time>2021-11-04T08:12:40Z</time>
      </trkpt>
      <trkpt lat="46.42139" lon="0.26477">
        <ele>118.48713946622</ele>
        <time>2021-11-04T08:12:42Z</time>
      </trkpt>
      <trkpt lat="46.42138" lon="0.26473">
        <ele>118.51113446616</ele>
        <time>2021-11-04T08:12:44Z</time>
      </trkpt>
      <trkpt lat="46.42137" lon="0.2647">
        <ele>118.37321668584</ele>
        <time>2021-11-04T08:12:46Z</time>
      </trkpt>
      <trkpt lat="46.42137" lon="0.26466">
        <ele>118.27426842414</ele>
        <time>2021-11-04T08:12:48Z</time>
      </trkpt>
      <trkpt lat="46.42136" lon="0.26463">
        <ele>118.17778285872</ele>
        <time>2021-11-04T08:12:50Z</time>
      </trkpt>
      <trkpt lat="46.42136" lon="0.2646">
        <ele>118.26517424919</ele>
        <time>2021-11-04T08:12:52Z</time>
      </trkpt>
      <trkpt lat="46.42135" lon="0.26457">
        <ele>118.11321043968</ele>
        <time>2021-11-04T08:12:55Z</time>
      </trkpt>
      <trkpt lat="46.42135" lon="0.26454">
        <ele>118.17991502956</ele>
        <time>2021-11-04T08:12:57Z</time>
      </trkpt>
      <trkpt lat="46.42134" lon="0.26452">
        <ele>119.02888140827</ele>
        <time>2021-11-04T08:12:58Z</time>
      </trkpt>
      <trkpt lat="46.42135" lon="0.26448">
        <ele>118.16357496101</ele>
        <time>2021-11-04T08:13:00Z</time>
      </trkpt>
      <trkpt lat="46.42134" lon="0.26444">
        <ele>118.04204965569</ele>
        <time>2021-11-04T08:13:02Z</time>
      </trkpt>
      <trkpt lat="46.42133" lon="0.26442">
        <ele>118.26377474889</ele>
        <time>2021-11-04T08:13:04Z</time>
      </trkpt>
      <trkpt lat="46.42132" lon="0.26438">
        <ele>118.65981029347</ele>
        <time>2021-11-04T08:13:06Z</time>
      </trkpt>
      <trkpt lat="46.42131" lon="0.26435">
        <ele>118.3420413062</ele>
        <time>2021-11-04T08:13:09Z</time>
      </trkpt>
      <trkpt lat="46.4213" lon="0.26433">
        <ele>118.59939849377</ele>
        <time>2021-11-04T08:13:11Z</time>
      </trkpt>
      <trkpt lat="46.42129" lon="0.2643">
        <ele>118.63864238653</ele>
        <time>2021-11-04T08:13:13Z</time>
      </trkpt>
      <trkpt lat="46.42127" lon="0.26427">
        <ele>119.0551822558</ele>
        <time>2021-11-04T08:13:15Z</time>
      </trkpt>
      <trkpt lat="46.42125" lon="0.26428">
        <ele>118.45003403444</ele>
        <time>2021-11-04T08:13:17Z</time>
      </trkpt>
      <trkpt lat="46.42123" lon="0.26429">
        <ele>118.75290111266</ele>
        <time>2021-11-04T08:13:19Z</time>
      </trkpt>
      <trkpt lat="46.42121" lon="0.2643">
        <ele>119.14213573746</ele>
        <time>2021-11-04T08:13:21Z</time>
      </trkpt>
      <trkpt lat="46.42119" lon="0.26433">
        <ele>119.25316949841</ele>
        <time>2021-11-04T08:13:24Z</time>
      </trkpt>
      <trkpt lat="46.42117" lon="0.26435">
        <ele>119.28028126247</ele>
        <time>2021-11-04T08:13:26Z</time>
      </trkpt>
      <trkpt lat="46.42115" lon="0.26437">
        <ele>119.24207440205</ele>
        <time>2021-11-04T08:13:28Z</time>
      </trkpt>
      <trkpt lat="46.42113" lon="0.26439">
        <ele>119.3708879929</ele>
        <time>2021-11-04T08:13:30Z</time>
      </trkpt>
      <trkpt lat="46.42111" lon="0.26441">
        <ele>119.63699381426</ele>
        <time>2021-11-04T08:13:32Z</time>
      </trkpt>
      <trkpt lat="46.4211" lon="0.26443">
        <ele>119.48516782559</ele>
        <time>2021-11-04T08:13:34Z</time>
      </trkpt>
      <trkpt lat="46.42107" lon="0.26446">
        <ele>119.53457077313</ele>
        <time>2021-11-04T08:13:36Z</time>
      </trkpt>
      <trkpt lat="46.42106" lon="0.26448">
        <ele>119.65381753724</ele>
        <time>2021-11-04T08:13:38Z</time>
      </trkpt>
      <trkpt lat="46.42104" lon="0.2645">
        <ele>119.69757054746</ele>
        <time>2021-11-04T08:13:40Z</time>
      </trkpt>
      <trkpt lat="46.42102" lon="0.26453">
        <ele>120.06577448174</ele>
        <time>2021-11-04T08:13:42Z</time>
      </trkpt>
      <trkpt lat="46.42101" lon="0.26455">
        <ele>119.51562821213</ele>
        <time>2021-11-04T08:13:44Z</time>
      </trkpt>
      <trkpt lat="46.42099" lon="0.26457">
        <ele>119.74344692193</ele>
        <time>2021-11-04T08:13:46Z</time>
      </trkpt>
      <trkpt lat="46.42098" lon="0.26459">
        <ele>120.05217470415</ele>
        <time>2021-11-04T08:13:48Z</time>
      </trkpt>
      <trkpt lat="46.42096" lon="0.2646">
        <ele>119.59007783514</ele>
        <time>2021-11-04T08:13:50Z</time>
      </trkpt>
      <trkpt lat="46.42095" lon="0.26462">
        <ele>119.70287125371</ele>
        <time>2021-11-04T08:13:51Z</time>
      </trkpt>
      <trkpt lat="46.42092" lon="0.26464">
        <ele>119.74512208067</ele>
        <time>2021-11-04T08:13:53Z</time>
      </trkpt>
      <trkpt lat="46.4209" lon="0.26466">
        <ele>119.69208430871</ele>
        <time>2021-11-04T08:13:55Z</time>
      </trkpt>
      <trkpt lat="46.42087" lon="0.26468">
        <ele>119.58141350467</ele>
        <time>2021-11-04T08:13:57Z</time>
      </trkpt>
      <trkpt lat="46.42086" lon="0.2647">
        <ele>119.80586589128</ele>
        <time>2021-11-04T08:13:59Z</time>
      </trkpt>
      <trkpt lat="46.42084" lon="0.26472">
        <ele>119.96704594605</ele>
        <time>2021-11-04T08:14:01Z</time>
      </trkpt>
      <trkpt lat="46.42082" lon="0.26474">
        <ele>119.75046144892</ele>
        <time>2021-11-04T08:14:03Z</time>
      </trkpt>
      <trkpt lat="46.42081" lon="0.26475">
        <ele>119.81130907591</ele>
        <time>2021-11-04T08:14:05Z</time>
      </trkpt>
      <trkpt lat="46.42079" lon="0.26477">
        <ele>119.51872397307</ele>
        <time>2021-11-04T08:14:07Z</time>
      </trkpt>
      <trkpt lat="46.42077" lon="0.26478">
        <ele>119.69981855527</ele>
        <time>2021-11-04T08:14:10Z</time>
      </trkpt>
      <trkpt lat="46.42074" lon="0.26479">
        <ele>119.55911164638</ele>
        <time>2021-11-04T08:14:12Z</time>
      </trkpt>
      <trkpt lat="46.42072" lon="0.26479">
        <ele>119.47743395437</ele>
        <time>2021-11-04T08:14:14Z</time>
      </trkpt>
      <trkpt lat="46.4207" lon="0.26481">
        <ele>119.49102019891</ele>
        <time>2021-11-04T08:14:16Z</time>
      </trkpt>
      <trkpt lat="46.42067" lon="0.26483">
        <ele>119.62770809047</ele>
        <time>2021-11-04T08:14:18Z</time>
      </trkpt>
      <trkpt lat="46.42065" lon="0.26486">
        <ele>119.22698246129</ele>
        <time>2021-11-04T08:14:20Z</time>
      </trkpt>
      <trkpt lat="46.42064" lon="0.26489">
        <ele>119.571708465</ele>
        <time>2021-11-04T08:14:22Z</time>
      </trkpt>
      <trkpt lat="46.42062" lon="0.26491">
        <ele>119.51580218691</ele>
        <time>2021-11-04T08:14:24Z</time>
      </trkpt>
      <trkpt lat="46.42061" lon="0.26494">
        <ele>119.68241088279</ele>
        <time>2021-11-04T08:14:26Z</time>
      </trkpt>
      <trkpt lat="46.4206" lon="0.26497">
        <ele>119.62260464951</ele>
        <time>2021-11-04T08:14:29Z</time>
      </trkpt>
      <trkpt lat="46.42058" lon="0.26499">
        <ele>119.66654130165</ele>
        <time>2021-11-04T08:14:31Z</time>
      </trkpt>
      <trkpt lat="46.42055" lon="0.26501">
        <ele>119.99934233353</ele>
        <time>2021-11-04T08:14:33Z</time>
      </trkpt>
      <trkpt lat="46.42054" lon="0.26503">
        <ele>119.41765349079</ele>
        <time>2021-11-04T08:14:35Z</time>
      </trkpt>
      <trkpt lat="46.42052" lon="0.26506">
        <ele>119.54786367435</ele>
        <time>2021-11-04T08:14:37Z</time>
      </trkpt>
      <trkpt lat="46.4205" lon="0.26508">
        <ele>119.50408229139</ele>
        <time>2021-11-04T08:14:39Z</time>
      </trkpt>
      <trkpt lat="46.42048" lon="0.2651">
        <ele>119.76980237849</ele>
        <time>2021-11-04T08:14:41Z</time>
      </trkpt>
      <trkpt lat="46.42046" lon="0.26512">
        <ele>119.85143902525</ele>
        <time>2021-11-04T08:14:43Z</time>
      </trkpt>
      <trkpt lat="46.42045" lon="0.26514">
        <ele>119.70689522196</ele>
        <time>2021-11-04T08:14:45Z</time>
      </trkpt>
      <trkpt lat="46.42043" lon="0.26516">
        <ele>119.7596455114</ele>
        <time>2021-11-04T08:14:47Z</time>
      </trkpt>
      <trkpt lat="46.4204" lon="0.26517">
        <ele>119.82371918112</ele>
        <time>2021-11-04T08:14:49Z</time>
      </trkpt>
      <trkpt lat="46.42038" lon="0.2652">
        <ele>119.774022392</ele>
        <time>2021-11-04T08:14:52Z</time>
      </trkpt>
      <trkpt lat="46.42036" lon="0.26522">
        <ele>120.20049247798</ele>
        <time>2021-11-04T08:14:54Z</time>
      </trkpt>
      <trkpt lat="46.42034" lon="0.26523">
        <ele>120.33000212349</ele>
        <time>2021-11-04T08:14:56Z</time>
      </trkpt>
      <trkpt lat="46.4203" lon="0.26526">
        <ele>120.35428098682</ele>
        <time>2021-11-04T08:14:59Z</time>
      </trkpt>
      <trkpt lat="46.42028" lon="0.26528">
        <ele>120.64535350353</ele>
        <time>2021-11-04T08:15:02Z</time>
      </trkpt>
      <trkpt lat="46.42025" lon="0.26531">
        <ele>120.26974739227</ele>
        <time>2021-11-04T08:15:04Z</time>
      </trkpt>
      <trkpt lat="46.42024" lon="0.26533">
        <ele>120.42029375769</ele>
        <time>2021-11-04T08:15:06Z</time>
      </trkpt>
      <trkpt lat="46.42022" lon="0.26535">
        <ele>120.59638642799</ele>
        <time>2021-11-04T08:15:08Z</time>
      </trkpt>
      <trkpt lat="46.4202" lon="0.26537">
        <ele>120.52927609999</ele>
        <time>2021-11-04T08:15:10Z</time>
      </trkpt>
      <trkpt lat="46.42017" lon="0.26538">
        <ele>120.2467285106</ele>
        <time>2021-11-04T08:15:12Z</time>
      </trkpt>
      <trkpt lat="46.42015" lon="0.2654">
        <ele>120.57892368268</ele>
        <time>2021-11-04T08:15:14Z</time>
      </trkpt>
      <trkpt lat="46.42014" lon="0.26542">
        <ele>120.35804935731</ele>
        <time>2021-11-04T08:15:16Z</time>
      </trkpt>
      <trkpt lat="46.42012" lon="0.26543">
        <ele>120.37080003973</ele>
        <time>2021-11-04T08:15:18Z</time>
      </trkpt>
      <trkpt lat="46.4201" lon="0.26545">
        <ele>120.25816487614</ele>
        <time>2021-11-04T08:15:20Z</time>
      </trkpt>
      <trkpt lat="46.42008" lon="0.26546">
        <ele>120.62492202409</ele>
        <time>2021-11-04T08:15:22Z</time>
      </trkpt>
      <trkpt lat="46.42006" lon="0.26548">
        <ele>120.66423679702</ele>
        <time>2021-11-04T08:15:24Z</time>
      </trkpt>
      <trkpt lat="46.42004" lon="0.2655">
        <ele>120.5520813223</ele>
        <time>2021-11-04T08:15:26Z</time>
      </trkpt>
      <trkpt lat="46.42002" lon="0.26551">
        <ele>120.75258199405</ele>
        <time>2021-11-04T08:15:28Z</time>
      </trkpt>
      <trkpt lat="46.42" lon="0.26554">
        <ele>120.49469070788</ele>
        <time>2021-11-04T08:15:30Z</time>
      </trkpt>
      <trkpt lat="46.41998" lon="0.26555">
        <ele>120.89402032737</ele>
        <time>2021-11-04T08:15:32Z</time>
      </trkpt>
      <trkpt lat="46.41996" lon="0.26556">
        <ele>120.86950963456</ele>
        <time>2021-11-04T08:15:34Z</time>
      </trkpt>
      <trkpt lat="46.41994" lon="0.26557">
        <ele>120.42957394756</ele>
        <time>2021-11-04T08:15:36Z</time>
      </trkpt>
      <trkpt lat="46.41992" lon="0.26558">
        <ele>120.48361809738</ele>
        <time>2021-11-04T08:15:38Z</time>
      </trkpt>
      <trkpt lat="46.4199" lon="0.2656">
        <ele>120.48565824516</ele>
        <time>2021-11-04T08:15:40Z</time>
      </trkpt>
      <trkpt lat="46.41988" lon="0.26561">
        <ele>120.65019058809</ele>
        <time>2021-11-04T08:15:42Z</time>
      </trkpt>
      <trkpt lat="46.41986" lon="0.26562">
        <ele>120.36617299076</ele>
        <time>2021-11-04T08:15:44Z</time>
      </trkpt>
      <trkpt lat="46.41984" lon="0.26563">
        <ele>120.41285584215</ele>
        <time>2021-11-04T08:15:46Z</time>
      </trkpt>
      <trkpt lat="46.41982" lon="0.26565">
        <ele>120.62642035447</ele>
        <time>2021-11-04T08:15:48Z</time>
      </trkpt>
      <trkpt lat="46.4198" lon="0.26566">
        <ele>120.35417076666</ele>
        <time>2021-11-04T08:15:50Z</time>
      </trkpt>
      <trkpt lat="46.41977" lon="0.26568">
        <ele>120.68322327826</ele>
        <time>2021-11-04T08:15:52Z</time>
      </trkpt>
      <trkpt lat="46.41975" lon="0.2657">
        <ele>120.88170941081</ele>
        <time>2021-11-04T08:15:54Z</time>
      </trkpt>
      <trkpt lat="46.41973" lon="0.26571">
        <ele>120.61586123519</ele>
        <time>2021-11-04T08:15:56Z</time>
      </trkpt>
      <trkpt lat="46.41971" lon="0.26573">
        <ele>120.62703424506</ele>
        <time>2021-11-04T08:15:58Z</time>
      </trkpt>
      <trkpt lat="46.41969" lon="0.26574">
        <ele>120.78796684556</ele>
        <time>2021-11-04T08:16:00Z</time>
      </trkpt>
      <trkpt lat="46.41967" lon="0.26576">
        <ele>121.25003728364</ele>
        <time>2021-11-04T08:16:02Z</time>
      </trkpt>
      <trkpt lat="46.41965" lon="0.26578">
        <ele>120.85861008335</ele>
        <time>2021-11-04T08:16:04Z</time>
      </trkpt>
      <trkpt lat="46.41962" lon="0.2658">
        <ele>121.10300731752</ele>
        <time>2021-11-04T08:16:06Z</time>
      </trkpt>
      <trkpt lat="46.4196" lon="0.26581">
        <ele>121.40132866707</ele>
        <time>2021-11-04T08:16:08Z</time>
      </trkpt>
      <trkpt lat="46.41958" lon="0.26582">
        <ele>121.3914398104</ele>
        <time>2021-11-04T08:16:10Z</time>
      </trkpt>
      <trkpt lat="46.41956" lon="0.26584">
        <ele>121.47458257526</ele>
        <time>2021-11-04T08:16:12Z</time>
      </trkpt>
      <trkpt lat="46.41954" lon="0.26586">
        <ele>121.54471249133</ele>
        <time>2021-11-04T08:16:14Z</time>
      </trkpt>
      <trkpt lat="46.41952" lon="0.26588">
        <ele>121.32967943978</ele>
        <time>2021-11-04T08:16:16Z</time>
      </trkpt>
      <trkpt lat="46.4195" lon="0.2659">
        <ele>121.55354972836</ele>
        <time>2021-11-04T08:16:18Z</time>
      </trkpt>
      <trkpt lat="46.41949" lon="0.26592">
        <ele>121.63516554143</ele>
        <time>2021-11-04T08:16:20Z</time>
      </trkpt>
      <trkpt lat="46.41946" lon="0.26594">
        <ele>121.62233658787</ele>
        <time>2021-11-04T08:16:23Z</time>
      </trkpt>
      <trkpt lat="46.41944" lon="0.26596">
        <ele>121.59891997743</ele>
        <time>2021-11-04T08:16:25Z</time>
      </trkpt>
      <trkpt lat="46.41942" lon="0.26598">
        <ele>121.41851775628</ele>
        <time>2021-11-04T08:16:27Z</time>
      </trkpt>
      <trkpt lat="46.4194" lon="0.266">
        <ele>121.48312568106</ele>
        <time>2021-11-04T08:16:29Z</time>
      </trkpt>
      <trkpt lat="46.41938" lon="0.26601">
        <ele>121.09600490425</ele>
        <time>2021-11-04T08:16:31Z</time>
      </trkpt>
      <trkpt lat="46.41935" lon="0.26603">
        <ele>121.43529503699</ele>
        <time>2021-11-04T08:16:33Z</time>
      </trkpt>
      <trkpt lat="46.41933" lon="0.26605">
        <ele>121.30126792379</ele>
        <time>2021-11-04T08:16:35Z</time>
      </trkpt>
      <trkpt lat="46.41932" lon="0.26608">
        <ele>121.54215977713</ele>
        <time>2021-11-04T08:16:37Z</time>
      </trkpt>
      <trkpt lat="46.4193" lon="0.26609">
        <ele>121.95634465478</ele>
        <time>2021-11-04T08:16:39Z</time>
      </trkpt>
      <trkpt lat="46.41928" lon="0.26612">
        <ele>121.4008753309</ele>
        <time>2021-11-04T08:16:41Z</time>
      </trkpt>
      <trkpt lat="46.41926" lon="0.26613">
        <ele>121.50946965348</ele>
        <time>2021-11-04T08:16:43Z</time>
      </trkpt>
      <trkpt lat="46.41924" lon="0.26616">
        <ele>121.50546030514</ele>
        <time>2021-11-04T08:16:45Z</time>
      </trkpt>
      <trkpt lat="46.41922" lon="0.26618">
        <ele>121.09036756214</ele>
        <time>2021-11-04T08:16:47Z</time>
      </trkpt>
      <trkpt lat="46.4192" lon="0.2662">
        <ele>121.68084805738</ele>
        <time>2021-11-04T08:16:49Z</time>
      </trkpt>
      <trkpt lat="46.41918" lon="0.26622">
        <ele>121.16057193093</ele>
        <time>2021-11-04T08:16:51Z</time>
      </trkpt>
      <trkpt lat="46.41916" lon="0.26625">
        <ele>121.53759469278</ele>
        <time>2021-11-04T08:16:53Z</time>
      </trkpt>
      <trkpt lat="46.41915" lon="0.26626">
        <ele>121.4989169864</ele>
        <time>2021-11-04T08:16:54Z</time>
      </trkpt>
      <trkpt lat="46.41913" lon="0.26628">
        <ele>121.57599488646</ele>
        <time>2021-11-04T08:16:56Z</time>
      </trkpt>
      <trkpt lat="46.41911" lon="0.26631">
        <ele>121.431789428</ele>
        <time>2021-11-04T08:16:58Z</time>
      </trkpt>
      <trkpt lat="46.41909" lon="0.26633">
        <ele>121.55783718172</ele>
        <time>2021-11-04T08:17:00Z</time>
      </trkpt>
      <trkpt lat="46.41908" lon="0.26635">
        <ele>121.67231144942</ele>
        <time>2021-11-04T08:17:02Z</time>
      </trkpt>
      <trkpt lat="46.41906" lon="0.26637">
        <ele>121.6357343616</ele>
        <time>2021-11-04T08:17:04Z</time>
      </trkpt>
      <trkpt lat="46.41904" lon="0.26639">
        <ele>121.43082859926</ele>
        <time>2021-11-04T08:17:06Z</time>
      </trkpt>
      <trkpt lat="46.41902" lon="0.26642">
        <ele>121.91803050973</ele>
        <time>2021-11-04T08:17:08Z</time>
      </trkpt>
      <trkpt lat="46.41901" lon="0.26644">
        <ele>121.39769659936</ele>
        <time>2021-11-04T08:17:10Z</time>
      </trkpt>
      <trkpt lat="46.41899" lon="0.26646">
        <ele>121.60791687295</ele>
        <time>2021-11-04T08:17:12Z</time>
      </trkpt>
      <trkpt lat="46.41897" lon="0.26649">
        <ele>121.97594865039</ele>
        <time>2021-11-04T08:17:14Z</time>
      </trkpt>
      <trkpt lat="46.41896" lon="0.26651">
        <ele>121.47890643217</ele>
        <time>2021-11-04T08:17:16Z</time>
      </trkpt>
      <trkpt lat="46.41894" lon="0.26654">
        <ele>121.62544518802</ele>
        <time>2021-11-04T08:17:18Z</time>
      </trkpt>
      <trkpt lat="46.41892" lon="0.26656">
        <ele>121.71543084085</ele>
        <time>2021-11-04T08:17:21Z</time>
      </trkpt>
      <trkpt lat="46.4189" lon="0.26659">
        <ele>121.49340703432</ele>
        <time>2021-11-04T08:17:23Z</time>
      </trkpt>
      <trkpt lat="46.41889" lon="0.26661">
        <ele>121.32304240018</ele>
        <time>2021-11-04T08:17:25Z</time>
      </trkpt>
      <trkpt lat="46.41887" lon="0.26664">
        <ele>121.5039845081</ele>
        <time>2021-11-04T08:17:27Z</time>
      </trkpt>
      <trkpt lat="46.41887" lon="0.26666">
        <ele>121.64673370961</ele>
        <time>2021-11-04T08:17:29Z</time>
      </trkpt>
      <trkpt lat="46.41885" lon="0.26668">
        <ele>121.59004455619</ele>
        <time>2021-11-04T08:17:31Z</time>
      </trkpt>
      <trkpt lat="46.41884" lon="0.2667">
        <ele>121.50376047567</ele>
        <time>2021-11-04T08:17:33Z</time>
      </trkpt>
      <trkpt lat="46.41883" lon="0.26674">
        <ele>122.0592793785</ele>
        <time>2021-11-04T08:17:35Z</time>
      </trkpt>
      <trkpt lat="46.41881" lon="0.26677">
        <ele>121.4793555038</ele>
        <time>2021-11-04T08:17:37Z</time>
      </trkpt>
      <trkpt lat="46.4188" lon="0.2668">
        <ele>121.84001791105</ele>
        <time>2021-11-04T08:17:40Z</time>
      </trkpt>
      <trkpt lat="46.41878" lon="0.26683">
        <ele>121.85004386958</ele>
        <time>2021-11-04T08:17:42Z</time>
      </trkpt>
      <trkpt lat="46.41876" lon="0.26687">
        <ele>121.50642452855</ele>
        <time>2021-11-04T08:17:44Z</time>
      </trkpt>
      <trkpt lat="46.41875" lon="0.26689">
        <ele>121.46308203135</ele>
        <time>2021-11-04T08:17:45Z</time>
      </trkpt>
      <trkpt lat="46.41874" lon="0.26692">
        <ele>121.40488885995</ele>
        <time>2021-11-04T08:17:47Z</time>
      </trkpt>
      <trkpt lat="46.41873" lon="0.26696">
        <ele>121.5083956467</ele>
        <time>2021-11-04T08:17:49Z</time>
      </trkpt>
      <trkpt lat="46.41872" lon="0.267">
        <ele>121.586769633</ele>
        <time>2021-11-04T08:17:51Z</time>
      </trkpt>
      <trkpt lat="46.41871" lon="0.26704">
        <ele>121.49968409073</ele>
        <time>2021-11-04T08:17:53Z</time>
      </trkpt>
      <trkpt lat="46.41869" lon="0.26707">
        <ele>120.94254010823</ele>
        <time>2021-11-04T08:17:55Z</time>
      </trkpt>
      <trkpt lat="46.41868" lon="0.26711">
        <ele>121.36297221854</ele>
        <time>2021-11-04T08:17:57Z</time>
      </trkpt>
      <trkpt lat="46.41868" lon="0.26714">
        <ele>121.13940714672</ele>
        <time>2021-11-04T08:17:59Z</time>
      </trkpt>
      <trkpt lat="46.41867" lon="0.26717">
        <ele>121.2441794388</ele>
        <time>2021-11-04T08:18:01Z</time>
      </trkpt>
      <trkpt lat="46.41866" lon="0.26721">
        <ele>121.52295497339</ele>
        <time>2021-11-04T08:18:03Z</time>
      </trkpt>
      <trkpt lat="46.41865" lon="0.26724">
        <ele>121.20636255015</ele>
        <time>2021-11-04T08:18:05Z</time>
      </trkpt>
      <trkpt lat="46.41864" lon="0.26728">
        <ele>121.16408205219</ele>
        <time>2021-11-04T08:18:07Z</time>
      </trkpt>
      <trkpt lat="46.41862" lon="0.26731">
        <ele>121.24121747538</ele>
        <time>2021-11-04T08:18:09Z</time>
      </trkpt>
      <trkpt lat="46.41861" lon="0.26735">
        <ele>121.364295315</ele>
        <time>2021-11-04T08:18:11Z</time>
      </trkpt>
      <trkpt lat="46.4186" lon="0.26738">
        <ele>121.33591223322</ele>
        <time>2021-11-04T08:18:13Z</time>
      </trkpt>
      <trkpt lat="46.41858" lon="0.26741">
        <ele>121.50668114144</ele>
        <time>2021-11-04T08:18:15Z</time>
      </trkpt>
      <trkpt lat="46.41857" lon="0.26744">
        <ele>121.51217013504</ele>
        <time>2021-11-04T08:18:17Z</time>
      </trkpt>
      <trkpt lat="46.41856" lon="0.26748">
        <ele>121.38301438745</ele>
        <time>2021-11-04T08:18:19Z</time>
      </trkpt>
      <trkpt lat="46.41855" lon="0.26751">
        <ele>121.2804041272</ele>
        <time>2021-11-04T08:18:21Z</time>
      </trkpt>
      <trkpt lat="46.41853" lon="0.26755">
        <ele>121.54364432395</ele>
        <time>2021-11-04T08:18:23Z</time>
      </trkpt>
      <trkpt lat="46.41853" lon="0.26758">
        <ele>121.32957519032</ele>
        <time>2021-11-04T08:18:25Z</time>
      </trkpt>
      <trkpt lat="46.41852" lon="0.2676">
        <ele>121.43657188583</ele>
        <time>2021-11-04T08:18:27Z</time>
      </trkpt>
      <trkpt lat="46.4185" lon="0.26763">
        <ele>121.29822241329</ele>
        <time>2021-11-04T08:18:29Z</time>
      </trkpt>
      <trkpt lat="46.41849" lon="0.26766">
        <ele>121.20836928021</ele>
        <time>2021-11-04T08:18:31Z</time>
      </trkpt>
      <trkpt lat="46.41848" lon="0.2677">
        <ele>121.25599220488</ele>
        <time>2021-11-04T08:18:33Z</time>
      </trkpt>
      <trkpt lat="46.41847" lon="0.26774">
        <ele>120.92889656499</ele>
        <time>2021-11-04T08:18:35Z</time>
      </trkpt>
      <trkpt lat="46.41845" lon="0.26777">
        <ele>121.45131910872</ele>
        <time>2021-11-04T08:18:37Z</time>
      </trkpt>
      <trkpt lat="46.41844" lon="0.2678">
        <ele>120.91772681661</ele>
        <time>2021-11-04T08:18:39Z</time>
      </trkpt>
      <trkpt lat="46.41843" lon="0.26783">
        <ele>120.79569821339</ele>
        <time>2021-11-04T08:18:41Z</time>
      </trkpt>
      <trkpt lat="46.41842" lon="0.26786">
        <ele>121.06676295493</ele>
        <time>2021-11-04T08:18:43Z</time>
      </trkpt>
      <trkpt lat="46.4184" lon="0.26789">
        <ele>120.88339444622</ele>
        <time>2021-11-04T08:18:45Z</time>
      </trkpt>
      <trkpt lat="46.41839" lon="0.26792">
        <ele>121.06678613834</ele>
        <time>2021-11-04T08:18:47Z</time>
      </trkpt>
      <trkpt lat="46.41838" lon="0.26796">
        <ele>121.08436544612</ele>
        <time>2021-11-04T08:18:49Z</time>
      </trkpt>
      <trkpt lat="46.41837" lon="0.26799">
        <ele>121.17351399083</ele>
        <time>2021-11-04T08:18:51Z</time>
      </trkpt>
      <trkpt lat="46.41836" lon="0.26802">
        <ele>120.98028128128</ele>
        <time>2021-11-04T08:18:53Z</time>
      </trkpt>
      <trkpt lat="46.41834" lon="0.26805">
        <ele>121.20662961435</ele>
        <time>2021-11-04T08:18:55Z</time>
      </trkpt>
      <trkpt lat="46.41833" lon="0.26808">
        <ele>121.3503687745</ele>
        <time>2021-11-04T08:18:57Z</time>
      </trkpt>
      <trkpt lat="46.41832" lon="0.2681">
        <ele>121.07817682438</ele>
        <time>2021-11-04T08:18:59Z</time>
      </trkpt>
      <trkpt lat="46.41831" lon="0.26813">
        <ele>121.12913534138</ele>
        <time>2021-11-04T08:19:00Z</time>
      </trkpt>
      <trkpt lat="46.4183" lon="0.26815">
        <ele>121.10125370137</ele>
        <time>2021-11-04T08:19:02Z</time>
      </trkpt>
      <trkpt lat="46.41829" lon="0.26818">
        <ele>121.3236791715</ele>
        <time>2021-11-04T08:19:04Z</time>
      </trkpt>
      <trkpt lat="46.41827" lon="0.26821">
        <ele>121.24204330612</ele>
        <time>2021-11-04T08:19:06Z</time>
      </trkpt>
      <trkpt lat="46.41826" lon="0.26824">
        <ele>120.49766086042</ele>
        <time>2021-11-04T08:19:08Z</time>
      </trkpt>
      <trkpt lat="46.41824" lon="0.26828">
        <ele>120.8273569569</ele>
        <time>2021-11-04T08:19:10Z</time>
      </trkpt>
      <trkpt lat="46.41823" lon="0.26831">
        <ele>121.05696561094</ele>
        <time>2021-11-04T08:19:12Z</time>
      </trkpt>
      <trkpt lat="46.41822" lon="0.26835">
        <ele>120.66089359485</ele>
        <time>2021-11-04T08:19:14Z</time>
      </trkpt>
      <trkpt lat="46.41821" lon="0.26838">
        <ele>120.55255881976</ele>
        <time>2021-11-04T08:19:16Z</time>
      </trkpt>
      <trkpt lat="46.41819" lon="0.26841">
        <ele>120.5024231337</ele>
        <time>2021-11-04T08:19:18Z</time>
      </trkpt>
      <trkpt lat="46.41818" lon="0.26843">
        <ele>120.60928899609</ele>
        <time>2021-11-04T08:19:20Z</time>
      </trkpt>
      <trkpt lat="46.41817" lon="0.26846">
        <ele>120.71314789262</ele>
        <time>2021-11-04T08:19:22Z</time>
      </trkpt>
      <trkpt lat="46.41816" lon="0.26849">
        <ele>120.71241998766</ele>
        <time>2021-11-04T08:19:24Z</time>
      </trkpt>
      <trkpt lat="46.41815" lon="0.26852">
        <ele>120.27635487169</ele>
        <time>2021-11-04T08:19:26Z</time>
      </trkpt>
      <trkpt lat="46.41814" lon="0.26854">
        <ele>120.25556374434</ele>
        <time>2021-11-04T08:19:28Z</time>
      </trkpt>
      <trkpt lat="46.41812" lon="0.26858">
        <ele>120.48560472764</ele>
        <time>2021-11-04T08:19:30Z</time>
      </trkpt>
      <trkpt lat="46.41811" lon="0.26861">
        <ele>120.0548197655</ele>
        <time>2021-11-04T08:19:32Z</time>
      </trkpt>
      <trkpt lat="46.4181" lon="0.26865">
        <ele>120.20912200492</ele>
        <time>2021-11-04T08:19:34Z</time>
      </trkpt>
      <trkpt lat="46.41809" lon="0.26868">
        <ele>120.15421941224</ele>
        <time>2021-11-04T08:19:36Z</time>
      </trkpt>
      <trkpt lat="46.41807" lon="0.26872">
        <ele>119.87931084726</ele>
        <time>2021-11-04T08:19:38Z</time>
      </trkpt>
      <trkpt lat="46.41806" lon="0.26875">
        <ele>119.7179952208</ele>
        <time>2021-11-04T08:19:40Z</time>
      </trkpt>
      <trkpt lat="46.41805" lon="0.26878">
        <ele>119.81374501903</ele>
        <time>2021-11-04T08:19:42Z</time>
      </trkpt>
      <trkpt lat="46.41804" lon="0.26882">
        <ele>119.72189776413</ele>
        <time>2021-11-04T08:19:44Z</time>
      </trkpt>
      <trkpt lat="46.41803" lon="0.26885">
        <ele>119.79224161431</ele>
        <time>2021-11-04T08:19:46Z</time>
      </trkpt>
      <trkpt lat="46.41801" lon="0.26888">
        <ele>119.8914286755</ele>
        <time>2021-11-04T08:19:48Z</time>
      </trkpt>
      <trkpt lat="46.418" lon="0.2689">
        <ele>119.5862759538</ele>
        <time>2021-11-04T08:19:50Z</time>
      </trkpt>
      <trkpt lat="46.418" lon="0.26893">
        <ele>119.28408781998</ele>
        <time>2021-11-04T08:19:52Z</time>
      </trkpt>
      <trkpt lat="46.41799" lon="0.26897">
        <ele>119.28190594539</ele>
        <time>2021-11-04T08:19:54Z</time>
      </trkpt>
      <trkpt lat="46.41798" lon="0.269">
        <ele>119.13661632873</ele>
        <time>2021-11-04T08:19:56Z</time>
      </trkpt>
      <trkpt lat="46.41797" lon="0.26903">
        <ele>119.49530535657</ele>
        <time>2021-11-04T08:19:58Z</time>
      </trkpt>
      <trkpt lat="46.41796" lon="0.26906">
        <ele>119.08177188318</ele>
        <time>2021-11-04T08:20:00Z</time>
      </trkpt>
      <trkpt lat="46.41795" lon="0.26909">
        <ele>118.93145936355</ele>
        <time>2021-11-04T08:20:02Z</time>
      </trkpt>
      <trkpt lat="46.41794" lon="0.26912">
        <ele>119.31426567771</ele>
        <time>2021-11-04T08:20:04Z</time>
      </trkpt>
      <trkpt lat="46.41792" lon="0.26916">
        <ele>119.08232465107</ele>
        <time>2021-11-04T08:20:06Z</time>
      </trkpt>
      <trkpt lat="46.4179" lon="0.2692">
        <ele>119.43005567696</ele>
        <time>2021-11-04T08:20:08Z</time>
      </trkpt>
      <trkpt lat="46.41789" lon="0.26923">
        <ele>118.94549623225</ele>
        <time>2021-11-04T08:20:10Z</time>
      </trkpt>
      <trkpt lat="46.41788" lon="0.26926">
        <ele>118.95128014218</ele>
        <time>2021-11-04T08:20:12Z</time>
      </trkpt>
      <trkpt lat="46.41786" lon="0.2693">
        <ele>119.05687330011</ele>
        <time>2021-11-04T08:20:14Z</time>
      </trkpt>
      <trkpt lat="46.41785" lon="0.26933">
        <ele>118.75769883674</ele>
        <time>2021-11-04T08:20:16Z</time>
      </trkpt>
      <trkpt lat="46.41784" lon="0.26937">
        <ele>119.0217466196</ele>
        <time>2021-11-04T08:20:18Z</time>
      </trkpt>
      <trkpt lat="46.41782" lon="0.2694">
        <ele>118.70919095632</ele>
        <time>2021-11-04T08:20:20Z</time>
      </trkpt>
      <trkpt lat="46.41781" lon="0.26943">
        <ele>118.5342054572</ele>
        <time>2021-11-04T08:20:22Z</time>
      </trkpt>
      <trkpt lat="46.4178" lon="0.26946">
        <ele>118.42056443635</ele>
        <time>2021-11-04T08:20:24Z</time>
      </trkpt>
      <trkpt lat="46.41778" lon="0.2695">
        <ele>118.35774698108</ele>
        <time>2021-11-04T08:20:26Z</time>
      </trkpt>
      <trkpt lat="46.41777" lon="0.26953">
        <ele>117.81032582931</ele>
        <time>2021-11-04T08:20:28Z</time>
      </trkpt>
      <trkpt lat="46.41776" lon="0.26956">
        <ele>118.50008956809</ele>
        <time>2021-11-04T08:20:30Z</time>
      </trkpt>
      <trkpt lat="46.41774" lon="0.2696">
        <ele>118.5587483272</ele>
        <time>2021-11-04T08:20:32Z</time>
      </trkpt>
      <trkpt lat="46.41774" lon="0.26963">
        <ele>118.26593066007</ele>
        <time>2021-11-04T08:20:34Z</time>
      </trkpt>
      <trkpt lat="46.41772" lon="0.26966">
        <ele>118.13952526264</ele>
        <time>2021-11-04T08:20:36Z</time>
      </trkpt>
      <trkpt lat="46.41771" lon="0.26969">
        <ele>118.09313324094</ele>
        <time>2021-11-04T08:20:38Z</time>
      </trkpt>
      <trkpt lat="46.4177" lon="0.26972">
        <ele>118.32450788468</ele>
        <time>2021-11-04T08:20:40Z</time>
      </trkpt>
      <trkpt lat="46.41769" lon="0.26975">
        <ele>117.82042050827</ele>
        <time>2021-11-04T08:20:42Z</time>
      </trkpt>
      <trkpt lat="46.41768" lon="0.26978">
        <ele>117.56451210286</ele>
        <time>2021-11-04T08:20:44Z</time>
      </trkpt>
      <trkpt lat="46.41766" lon="0.2698">
        <ele>117.26737255976</ele>
        <time>2021-11-04T08:20:46Z</time>
      </trkpt>
      <trkpt lat="46.41765" lon="0.26983">
        <ele>117.86548425537</ele>
        <time>2021-11-04T08:20:48Z</time>
      </trkpt>
      <trkpt lat="46.41764" lon="0.26986">
        <ele>117.44046987034</ele>
        <time>2021-11-04T08:20:50Z</time>
      </trkpt>
      <trkpt lat="46.41763" lon="0.26989">
        <ele>117.94895368814</ele>
        <time>2021-11-04T08:20:52Z</time>
      </trkpt>
      <trkpt lat="46.41762" lon="0.26991">
        <ele>117.15795572847</ele>
        <time>2021-11-04T08:20:54Z</time>
      </trkpt>
      <trkpt lat="46.4176" lon="0.26995">
        <ele>117.26959899999</ele>
        <time>2021-11-04T08:20:57Z</time>
      </trkpt>
      <trkpt lat="46.41759" lon="0.26998">
        <ele>117.37054338399</ele>
        <time>2021-11-04T08:20:59Z</time>
      </trkpt>
      <trkpt lat="46.41758" lon="0.27">
        <ele>117.46735796798</ele>
        <time>2021-11-04T08:21:00Z</time>
      </trkpt>
      <trkpt lat="46.41756" lon="0.27004">
        <ele>117.37627442554</ele>
        <time>2021-11-04T08:21:02Z</time>
      </trkpt>
      <trkpt lat="46.41755" lon="0.27007">
        <ele>117.28549423255</ele>
        <time>2021-11-04T08:21:04Z</time>
      </trkpt>
      <trkpt lat="46.41753" lon="0.2701">
        <ele>117.12656155508</ele>
        <time>2021-11-04T08:21:06Z</time>
      </trkpt>
      <trkpt lat="46.41752" lon="0.27013">
        <ele>117.21532946546</ele>
        <time>2021-11-04T08:21:08Z</time>
      </trkpt>
      <trkpt lat="46.4175" lon="0.27017">
        <ele>117.40843383316</ele>
        <time>2021-11-04T08:21:10Z</time>
      </trkpt>
      <trkpt lat="46.41749" lon="0.2702">
        <ele>116.57539385837</ele>
        <time>2021-11-04T08:21:12Z</time>
      </trkpt>
      <trkpt lat="46.41747" lon="0.27024">
        <ele>116.80040791258</ele>
        <time>2021-11-04T08:21:14Z</time>
      </trkpt>
      <trkpt lat="46.41747" lon="0.27027">
        <ele>116.72363250609</ele>
        <time>2021-11-04T08:21:16Z</time>
      </trkpt>
      <trkpt lat="46.41746" lon="0.2703">
        <ele>116.61188656185</ele>
        <time>2021-11-04T08:21:18Z</time>
      </trkpt>
      <trkpt lat="46.41744" lon="0.27033">
        <ele>116.24676793721</ele>
        <time>2021-11-04T08:21:20Z</time>
      </trkpt>
      <trkpt lat="46.41743" lon="0.27036">
        <ele>116.33795524761</ele>
        <time>2021-11-04T08:21:22Z</time>
      </trkpt>
      <trkpt lat="46.41742" lon="0.27038">
        <ele>116.54251745995</ele>
        <time>2021-11-04T08:21:24Z</time>
      </trkpt>
      <trkpt lat="46.41741" lon="0.27041">
        <ele>116.3807815304</ele>
        <time>2021-11-04T08:21:26Z</time>
      </trkpt>
      <trkpt lat="46.41739" lon="0.27044">
        <ele>115.8602507757</ele>
        <time>2021-11-04T08:21:28Z</time>
      </trkpt>
      <trkpt lat="46.41738" lon="0.27048">
        <ele>115.99643789697</ele>
        <time>2021-11-04T08:21:30Z</time>
      </trkpt>
      <trkpt lat="46.41736" lon="0.2705">
        <ele>116.15594923962</ele>
        <time>2021-11-04T08:21:32Z</time>
      </trkpt>
      <trkpt lat="46.41735" lon="0.27053">
        <ele>116.0824653469</ele>
        <time>2021-11-04T08:21:34Z</time>
      </trkpt>
      <trkpt lat="46.41733" lon="0.27056">
        <ele>115.74540450983</ele>
        <time>2021-11-04T08:21:36Z</time>
      </trkpt>
      <trkpt lat="46.41732" lon="0.27059">
        <ele>116.00452057924</ele>
        <time>2021-11-04T08:21:38Z</time>
      </trkpt>
      <trkpt lat="46.41731" lon="0.27062">
        <ele>115.79447078984</ele>
        <time>2021-11-04T08:21:40Z</time>
      </trkpt>
      <trkpt lat="46.41729" lon="0.27065">
        <ele>115.535260926</ele>
        <time>2021-11-04T08:21:42Z</time>
      </trkpt>
      <trkpt lat="46.41727" lon="0.27068">
        <ele>115.51315039303</ele>
        <time>2021-11-04T08:21:44Z</time>
      </trkpt>
      <trkpt lat="46.41725" lon="0.27072">
        <ele>115.61741118506</ele>
        <time>2021-11-04T08:21:46Z</time>
      </trkpt>
      <trkpt lat="46.41723" lon="0.27074">
        <ele>115.54490912333</ele>
        <time>2021-11-04T08:21:48Z</time>
      </trkpt>
      <trkpt lat="46.41721" lon="0.27077">
        <ele>115.47700077295</ele>
        <time>2021-11-04T08:21:50Z</time>
      </trkpt>
      <trkpt lat="46.4172" lon="0.2708">
        <ele>115.3688437799</ele>
        <time>2021-11-04T08:21:52Z</time>
      </trkpt>
      <trkpt lat="46.41718" lon="0.27082">
        <ele>115.38587424997</ele>
        <time>2021-11-04T08:21:54Z</time>
      </trkpt>
      <trkpt lat="46.41716" lon="0.27085">
        <ele>115.58123977203</ele>
        <time>2021-11-04T08:21:56Z</time>
      </trkpt>
      <trkpt lat="46.41714" lon="0.27088">
        <ele>115.36656579003</ele>
        <time>2021-11-04T08:21:58Z</time>
      </trkpt>
      <trkpt lat="46.41712" lon="0.2709">
        <ele>115.13297021203</ele>
        <time>2021-11-04T08:22:00Z</time>
      </trkpt>
      <trkpt lat="46.4171" lon="0.27092">
        <ele>115.0656906208</ele>
        <time>2021-11-04T08:22:02Z</time>
      </trkpt>
      <trkpt lat="46.41709" lon="0.27095">
        <ele>115.40232549049</ele>
        <time>2021-11-04T08:22:04Z</time>
      </trkpt>
      <trkpt lat="46.41707" lon="0.27097">
        <ele>115.23170570843</ele>
        <time>2021-11-04T08:22:06Z</time>
      </trkpt>
      <trkpt lat="46.41706" lon="0.271">
        <ele>115.13225355558</ele>
        <time>2021-11-04T08:22:08Z</time>
      </trkpt>
      <trkpt lat="46.41704" lon="0.27101">
        <ele>115.11094100215</ele>
        <time>2021-11-04T08:22:10Z</time>
      </trkpt>
      <trkpt lat="46.41702" lon="0.27103">
        <ele>115.14697162807</ele>
        <time>2021-11-04T08:22:12Z</time>
      </trkpt>
      <trkpt lat="46.41701" lon="0.27106">
        <ele>115.24360104185</ele>
        <time>2021-11-04T08:22:14Z</time>
      </trkpt>
      <trkpt lat="46.41698" lon="0.27108">
        <ele>115.447991414</ele>
        <time>2021-11-04T08:22:16Z</time>
      </trkpt>
      <trkpt lat="46.41697" lon="0.2711">
        <ele>115.44269130658</ele>
        <time>2021-11-04T08:22:18Z</time>
      </trkpt>
      <trkpt lat="46.41695" lon="0.27112">
        <ele>115.4034110019</ele>
        <time>2021-11-04T08:22:20Z</time>
      </trkpt>
      <trkpt lat="46.41694" lon="0.27115">
        <ele>115.38806783687</ele>
        <time>2021-11-04T08:22:22Z</time>
      </trkpt>
      <trkpt lat="46.41691" lon="0.27118">
        <ele>115.38177797943</ele>
        <time>2021-11-04T08:22:24Z</time>
      </trkpt>
      <trkpt lat="46.4169" lon="0.27121">
        <ele>115.72433509119</ele>
        <time>2021-11-04T08:22:26Z</time>
      </trkpt>
      <trkpt lat="46.41688" lon="0.27124">
        <ele>115.42509549204</ele>
        <time>2021-11-04T08:22:28Z</time>
      </trkpt>
      <trkpt lat="46.41686" lon="0.27127">
        <ele>115.83929641917</ele>
        <time>2021-11-04T08:22:30Z</time>
      </trkpt>
      <trkpt lat="46.41684" lon="0.2713">
        <ele>115.56485482398</ele>
        <time>2021-11-04T08:22:32Z</time>
      </trkpt>
      <trkpt lat="46.41682" lon="0.27132">
        <ele>115.71707984433</ele>
        <time>2021-11-04T08:22:34Z</time>
      </trkpt>
      <trkpt lat="46.4168" lon="0.27134">
        <ele>115.53424867615</ele>
        <time>2021-11-04T08:22:36Z</time>
      </trkpt>
      <trkpt lat="46.41679" lon="0.27137">
        <ele>115.95560107566</ele>
        <time>2021-11-04T08:22:38Z</time>
      </trkpt>
      <trkpt lat="46.41677" lon="0.2714">
        <ele>115.8222196335</ele>
        <time>2021-11-04T08:22:40Z</time>
      </trkpt>
      <trkpt lat="46.41675" lon="0.27143">
        <ele>115.97811689973</ele>
        <time>2021-11-04T08:22:42Z</time>
      </trkpt>
      <trkpt lat="46.41673" lon="0.27145">
        <ele>115.84022922628</ele>
        <time>2021-11-04T08:22:44Z</time>
      </trkpt>
      <trkpt lat="46.41672" lon="0.27148">
        <ele>115.98271481972</ele>
        <time>2021-11-04T08:22:46Z</time>
      </trkpt>
      <trkpt lat="46.4167" lon="0.27151">
        <ele>115.9525548052</ele>
        <time>2021-11-04T08:22:48Z</time>
      </trkpt>
      <trkpt lat="46.41668" lon="0.27154">
        <ele>116.20062559936</ele>
        <time>2021-11-04T08:22:50Z</time>
      </trkpt>
      <trkpt lat="46.41667" lon="0.27156">
        <ele>115.60290877335</ele>
        <time>2021-11-04T08:22:52Z</time>
      </trkpt>
      <trkpt lat="46.41665" lon="0.27159">
        <ele>115.82711486612</ele>
        <time>2021-11-04T08:22:54Z</time>
      </trkpt>
      <trkpt lat="46.41663" lon="0.27162">
        <ele>115.90647279005</ele>
        <time>2021-11-04T08:22:56Z</time>
      </trkpt>
      <trkpt lat="46.41662" lon="0.27166">
        <ele>115.82974158321</ele>
        <time>2021-11-04T08:22:58Z</time>
      </trkpt>
      <trkpt lat="46.4166" lon="0.27168">
        <ele>115.62518938258</ele>
        <time>2021-11-04T08:23:00Z</time>
      </trkpt>
      <trkpt lat="46.41659" lon="0.27171">
        <ele>115.87551720906</ele>
        <time>2021-11-04T08:23:02Z</time>
      </trkpt>
      <trkpt lat="46.41657" lon="0.27173">
        <ele>115.8731184043</ele>
        <time>2021-11-04T08:23:04Z</time>
      </trkpt>
      <trkpt lat="46.41656" lon="0.27176">
        <ele>115.44527527969</ele>
        <time>2021-11-04T08:23:06Z</time>
      </trkpt>
      <trkpt lat="46.41654" lon="0.27179">
        <ele>115.56994336378</ele>
        <time>2021-11-04T08:23:08Z</time>
      </trkpt>
      <trkpt lat="46.41652" lon="0.27182">
        <ele>115.59123837762</ele>
        <time>2021-11-04T08:23:10Z</time>
      </trkpt>
      <trkpt lat="46.41651" lon="0.27185">
        <ele>116.04846408311</ele>
        <time>2021-11-04T08:23:12Z</time>
      </trkpt>
      <trkpt lat="46.41649" lon="0.27188">
        <ele>115.58931492176</ele>
        <time>2021-11-04T08:23:14Z</time>
      </trkpt>
      <trkpt lat="46.41648" lon="0.27191">
        <ele>115.30266754143</ele>
        <time>2021-11-04T08:23:16Z</time>
      </trkpt>
      <trkpt lat="46.41647" lon="0.27194">
        <ele>115.46537684184</ele>
        <time>2021-11-04T08:23:18Z</time>
      </trkpt>
      <trkpt lat="46.41645" lon="0.27197">
        <ele>115.53599758539</ele>
        <time>2021-11-04T08:23:20Z</time>
      </trkpt>
      <trkpt lat="46.41644" lon="0.272">
        <ele>115.73547188658</ele>
        <time>2021-11-04T08:23:22Z</time>
      </trkpt>
      <trkpt lat="46.41642" lon="0.27203">
        <ele>115.55168115813</ele>
        <time>2021-11-04T08:23:24Z</time>
      </trkpt>
      <trkpt lat="46.41641" lon="0.27205">
        <ele>115.29755953047</ele>
        <time>2021-11-04T08:23:26Z</time>
      </trkpt>
      <trkpt lat="46.4164" lon="0.27208">
        <ele>115.5013573207</ele>
        <time>2021-11-04T08:23:28Z</time>
      </trkpt>
      <trkpt lat="46.41638" lon="0.27211">
        <ele>115.01487417705</ele>
        <time>2021-11-04T08:23:30Z</time>
      </trkpt>
      <trkpt lat="46.41637" lon="0.27215">
        <ele>115.22445255704</ele>
        <time>2021-11-04T08:23:32Z</time>
      </trkpt>
      <trkpt lat="46.41636" lon="0.27219">
        <ele>115.51134585869</ele>
        <time>2021-11-04T08:23:35Z</time>
      </trkpt>
      <trkpt lat="46.41635" lon="0.27221">
        <ele>115.70892683137</ele>
        <time>2021-11-04T08:23:36Z</time>
      </trkpt>
      <trkpt lat="46.41634" lon="0.27223">
        <ele>115.31597355194</ele>
        <time>2021-11-04T08:23:38Z</time>
      </trkpt>
      <trkpt lat="46.41632" lon="0.27226">
        <ele>115.47569438908</ele>
        <time>2021-11-04T08:23:40Z</time>
      </trkpt>
      <trkpt lat="46.41631" lon="0.27229">
        <ele>115.46638072096</ele>
        <time>2021-11-04T08:23:42Z</time>
      </trkpt>
      <trkpt lat="46.41629" lon="0.27232">
        <ele>115.65806616936</ele>
        <time>2021-11-04T08:23:44Z</time>
      </trkpt>
      <trkpt lat="46.41628" lon="0.27235">
        <ele>115.36425937992</ele>
        <time>2021-11-04T08:23:46Z</time>
      </trkpt>
      <trkpt lat="46.41626" lon="0.27238">
        <ele>115.5767550962</ele>
        <time>2021-11-04T08:23:48Z</time>
      </trkpt>
      <trkpt lat="46.41625" lon="0.27241">
        <ele>115.77747522574</ele>
        <time>2021-11-04T08:23:50Z</time>
      </trkpt>
      <trkpt lat="46.41623" lon="0.27245">
        <ele>115.75243248977</ele>
        <time>2021-11-04T08:23:52Z</time>
      </trkpt>
      <trkpt lat="46.41622" lon="0.27249">
        <ele>116.05243839603</ele>
        <time>2021-11-04T08:23:54Z</time>
      </trkpt>
      <trkpt lat="46.4162" lon="0.27251">
        <ele>116.26673184801</ele>
        <time>2021-11-04T08:23:56Z</time>
      </trkpt>
      <trkpt lat="46.41619" lon="0.27254">
        <ele>115.6697861366</ele>
        <time>2021-11-04T08:23:58Z</time>
      </trkpt>
      <trkpt lat="46.41618" lon="0.27257">
        <ele>116.50145315938</ele>
        <time>2021-11-04T08:24:00Z</time>
      </trkpt>
      <trkpt lat="46.41617" lon="0.27259">
        <ele>116.32341103535</ele>
        <time>2021-11-04T08:24:02Z</time>
      </trkpt>
      <trkpt lat="46.41615" lon="0.27263">
        <ele>116.59037019592</ele>
        <time>2021-11-04T08:24:04Z</time>
      </trkpt>
      <trkpt lat="46.41614" lon="0.27266">
        <ele>116.13920803461</ele>
        <time>2021-11-04T08:24:06Z</time>
      </trkpt>
      <trkpt lat="46.41612" lon="0.27269">
        <ele>116.44604618847</ele>
        <time>2021-11-04T08:24:08Z</time>
      </trkpt>
      <trkpt lat="46.41611" lon="0.27272">
        <ele>116.55252586957</ele>
        <time>2021-11-04T08:24:10Z</time>
      </trkpt>
      <trkpt lat="46.4161" lon="0.27275">
        <ele>116.60120728798</ele>
        <time>2021-11-04T08:24:12Z</time>
      </trkpt>
      <trkpt lat="46.41609" lon="0.27278">
        <ele>116.20597446803</ele>
        <time>2021-11-04T08:24:14Z</time>
      </trkpt>
      <trkpt lat="46.41608" lon="0.27281">
        <ele>116.96559873875</ele>
        <time>2021-11-04T08:24:16Z</time>
      </trkpt>
      <trkpt lat="46.41607" lon="0.27283">
        <ele>116.8404785078</ele>
        <time>2021-11-04T08:24:18Z</time>
      </trkpt>
      <trkpt lat="46.41605" lon="0.27286">
        <ele>116.50344020035</ele>
        <time>2021-11-04T08:24:20Z</time>
      </trkpt>
      <trkpt lat="46.41604" lon="0.2729">
        <ele>117.06582730636</ele>
        <time>2021-11-04T08:24:22Z</time>
      </trkpt>
      <trkpt lat="46.41602" lon="0.27293">
        <ele>117.42133286316</ele>
        <time>2021-11-04T08:24:24Z</time>
      </trkpt>
      <trkpt lat="46.41601" lon="0.27296">
        <ele>116.90270338301</ele>
        <time>2021-11-04T08:24:26Z</time>
      </trkpt>
      <trkpt lat="46.416" lon="0.27299">
        <ele>116.95156911202</ele>
        <time>2021-11-04T08:24:28Z</time>
      </trkpt>
      <trkpt lat="46.41598" lon="0.27302">
        <ele>117.26539805625</ele>
        <time>2021-11-04T08:24:30Z</time>
      </trkpt>
      <trkpt lat="46.41597" lon="0.27305">
        <ele>117.22530352231</ele>
        <time>2021-11-04T08:24:32Z</time>
      </trkpt>
      <trkpt lat="46.41596" lon="0.27308">
        <ele>117.422195917</ele>
        <time>2021-11-04T08:24:34Z</time>
      </trkpt>
      <trkpt lat="46.41595" lon="0.27311">
        <ele>117.38739967346</ele>
        <time>2021-11-04T08:24:36Z</time>
      </trkpt>
      <trkpt lat="46.41593" lon="0.27314">
        <ele>117.78878153488</ele>
        <time>2021-11-04T08:24:38Z</time>
      </trkpt>
      <trkpt lat="46.41592" lon="0.27317">
        <ele>117.21392229758</ele>
        <time>2021-11-04T08:24:40Z</time>
      </trkpt>
      <trkpt lat="46.41591" lon="0.2732">
        <ele>118.40237090737</ele>
        <time>2021-11-04T08:24:42Z</time>
      </trkpt>
      <trkpt lat="46.4159" lon="0.27323">
        <ele>118.41166924126</ele>
        <time>2021-11-04T08:24:44Z</time>
      </trkpt>
      <trkpt lat="46.41589" lon="0.27326">
        <ele>117.50939255487</ele>
        <time>2021-11-04T08:24:46Z</time>
      </trkpt>
      <trkpt lat="46.41588" lon="0.27329">
        <ele>118.31892983243</ele>
        <time>2021-11-04T08:24:48Z</time>
      </trkpt>
      <trkpt lat="46.41587" lon="0.27332">
        <ele>118.27268428262</ele>
        <time>2021-11-04T08:24:50Z</time>
      </trkpt>
      <trkpt lat="46.41585" lon="0.27335">
        <ele>117.76340416539</ele>
        <time>2021-11-04T08:24:52Z</time>
      </trkpt>
      <trkpt lat="46.41584" lon="0.27338">
        <ele>118.61282091215</ele>
        <time>2021-11-04T08:24:54Z</time>
      </trkpt>
      <trkpt lat="46.41583" lon="0.27341">
        <ele>118.46343444102</ele>
        <time>2021-11-04T08:24:56Z</time>
      </trkpt>
      <trkpt lat="46.41581" lon="0.27344">
        <ele>118.46641485579</ele>
        <time>2021-11-04T08:24:58Z</time>
      </trkpt>
      <trkpt lat="46.4158" lon="0.27347">
        <ele>118.20586211048</ele>
        <time>2021-11-04T08:25:00Z</time>
      </trkpt>
      <trkpt lat="46.41579" lon="0.2735">
        <ele>118.59002367314</ele>
        <time>2021-11-04T08:25:02Z</time>
      </trkpt>
      <trkpt lat="46.41577" lon="0.27354">
        <ele>118.63809640333</ele>
        <time>2021-11-04T08:25:04Z</time>
      </trkpt>
      <trkpt lat="46.41576" lon="0.27356">
        <ele>118.43255165778</ele>
        <time>2021-11-04T08:25:06Z</time>
      </trkpt>
      <trkpt lat="46.41575" lon="0.27358">
        <ele>118.41334869061</ele>
        <time>2021-11-04T08:25:08Z</time>
      </trkpt>
      <trkpt lat="46.41573" lon="0.27361">
        <ele>118.7519530626</ele>
        <time>2021-11-04T08:25:10Z</time>
      </trkpt>
      <trkpt lat="46.41571" lon="0.27364">
        <ele>118.09890560806</ele>
        <time>2021-11-04T08:25:12Z</time>
      </trkpt>
      <trkpt lat="46.4157" lon="0.27367">
        <ele>118.68746894784</ele>
        <time>2021-11-04T08:25:14Z</time>
      </trkpt>
      <trkpt lat="46.41569" lon="0.2737">
        <ele>118.57401302177</ele>
        <time>2021-11-04T08:25:16Z</time>
      </trkpt>
      <trkpt lat="46.41567" lon="0.27373">
        <ele>118.26775980182</ele>
        <time>2021-11-04T08:25:18Z</time>
      </trkpt>
      <trkpt lat="46.41566" lon="0.27376">
        <ele>118.57710671239</ele>
        <time>2021-11-04T08:25:20Z</time>
      </trkpt>
      <trkpt lat="46.41564" lon="0.27379">
        <ele>118.52343908977</ele>
        <time>2021-11-04T08:25:22Z</time>
      </trkpt>
      <trkpt lat="46.41563" lon="0.27382">
        <ele>118.62441539858</ele>
        <time>2021-11-04T08:25:24Z</time>
      </trkpt>
      <trkpt lat="46.41561" lon="0.27386">
        <ele>118.33720568102</ele>
        <time>2021-11-04T08:25:26Z</time>
      </trkpt>
      <trkpt lat="46.4156" lon="0.27389">
        <ele>118.81966927461</ele>
        <time>2021-11-04T08:25:28Z</time>
      </trkpt>
      <trkpt lat="46.41559" lon="0.27392">
        <ele>118.61623903178</ele>
        <time>2021-11-04T08:25:30Z</time>
      </trkpt>
      <trkpt lat="46.41557" lon="0.27396">
        <ele>118.54477175325</ele>
        <time>2021-11-04T08:25:32Z</time>
      </trkpt>
      <trkpt lat="46.41556" lon="0.27399">
        <ele>118.39375255443</ele>
        <time>2021-11-04T08:25:34Z</time>
      </trkpt>
      <trkpt lat="46.41555" lon="0.27402">
        <ele>118.48756644223</ele>
        <time>2021-11-04T08:25:36Z</time>
      </trkpt>
      <trkpt lat="46.41553" lon="0.27407">
        <ele>118.86402564216</ele>
        <time>2021-11-04T08:25:39Z</time>
      </trkpt>
      <trkpt lat="46.41552" lon="0.2741">
        <ele>118.23258372582</ele>
        <time>2021-11-04T08:25:41Z</time>
      </trkpt>
      <trkpt lat="46.4155" lon="0.27413">
        <ele>118.49270246271</ele>
        <time>2021-11-04T08:25:43Z</time>
      </trkpt>
      <trkpt lat="46.41549" lon="0.27416">
        <ele>118.61749967281</ele>
        <time>2021-11-04T08:25:45Z</time>
      </trkpt>
      <trkpt lat="46.41548" lon="0.2742">
        <ele>118.63915837277</ele>
        <time>2021-11-04T08:25:47Z</time>
      </trkpt>
      <trkpt lat="46.41547" lon="0.27423">
        <ele>118.86091775913</ele>
        <time>2021-11-04T08:25:49Z</time>
      </trkpt>
      <trkpt lat="46.41546" lon="0.27426">
        <ele>118.39030439593</ele>
        <time>2021-11-04T08:25:51Z</time>
      </trkpt>
      <trkpt lat="46.41545" lon="0.2743">
        <ele>118.51104048826</ele>
        <time>2021-11-04T08:25:53Z</time>
      </trkpt>
      <trkpt lat="46.41544" lon="0.27432">
        <ele>119.06744137034</ele>
        <time>2021-11-04T08:25:55Z</time>
      </trkpt>
      <trkpt lat="46.41543" lon="0.27436">
        <ele>119.08745711483</ele>
        <time>2021-11-04T08:25:57Z</time>
      </trkpt>
      <trkpt lat="46.41542" lon="0.27438">
        <ele>118.72740007378</ele>
        <time>2021-11-04T08:25:59Z</time>
      </trkpt>
      <trkpt lat="46.4154" lon="0.27442">
        <ele>118.63150784187</ele>
        <time>2021-11-04T08:26:01Z</time>
      </trkpt>
      <trkpt lat="46.41539" lon="0.27445">
        <ele>119.26196341682</ele>
        <time>2021-11-04T08:26:03Z</time>
      </trkpt>
      <trkpt lat="46.41538" lon="0.27448">
        <ele>118.84308466874</ele>
        <time>2021-11-04T08:26:05Z</time>
      </trkpt>
      <trkpt lat="46.41537" lon="0.27451">
        <ele>118.95596441627</ele>
        <time>2021-11-04T08:26:07Z</time>
      </trkpt>
      <trkpt lat="46.41536" lon="0.27454">
        <ele>119.09856097214</ele>
        <time>2021-11-04T08:26:09Z</time>
      </trkpt>
      <trkpt lat="46.41534" lon="0.27457">
        <ele>119.26334051695</ele>
        <time>2021-11-04T08:26:11Z</time>
      </trkpt>
      <trkpt lat="46.41533" lon="0.2746">
        <ele>119.12818196416</ele>
        <time>2021-11-04T08:26:13Z</time>
      </trkpt>
      <trkpt lat="46.41532" lon="0.27463">
        <ele>118.93987365905</ele>
        <time>2021-11-04T08:26:15Z</time>
      </trkpt>
      <trkpt lat="46.4153" lon="0.27467">
        <ele>119.18397476431</ele>
        <time>2021-11-04T08:26:17Z</time>
      </trkpt>
      <trkpt lat="46.41529" lon="0.2747">
        <ele>119.40820443816</ele>
        <time>2021-11-04T08:26:19Z</time>
      </trkpt>
      <trkpt lat="46.41528" lon="0.27473">
        <ele>119.47812482435</ele>
        <time>2021-11-04T08:26:21Z</time>
      </trkpt>
      <trkpt lat="46.41527" lon="0.27475">
        <ele>118.98800872639</ele>
        <time>2021-11-04T08:26:23Z</time>
      </trkpt>
      <trkpt lat="46.41526" lon="0.27479">
        <ele>119.23771052342</ele>
        <time>2021-11-04T08:26:25Z</time>
      </trkpt>
      <trkpt lat="46.41525" lon="0.27482">
        <ele>119.15678328462</ele>
        <time>2021-11-04T08:26:27Z</time>
      </trkpt>
      <trkpt lat="46.41524" lon="0.27485">
        <ele>119.07906066533</ele>
        <time>2021-11-04T08:26:29Z</time>
      </trkpt>
      <trkpt lat="46.41522" lon="0.27488">
        <ele>118.86952821258</ele>
        <time>2021-11-04T08:26:31Z</time>
      </trkpt>
      <trkpt lat="46.41521" lon="0.27491">
        <ele>118.93338072766</ele>
        <time>2021-11-04T08:26:33Z</time>
      </trkpt>
      <trkpt lat="46.4152" lon="0.27494">
        <ele>119.11202736292</ele>
        <time>2021-11-04T08:26:35Z</time>
      </trkpt>
      <trkpt lat="46.41518" lon="0.27497">
        <ele>118.67315449659</ele>
        <time>2021-11-04T08:26:37Z</time>
      </trkpt>
      <trkpt lat="46.41517" lon="0.275">
        <ele>118.74591372535</ele>
        <time>2021-11-04T08:26:39Z</time>
      </trkpt>
      <trkpt lat="46.41516" lon="0.27503">
        <ele>118.57301056013</ele>
        <time>2021-11-04T08:26:41Z</time>
      </trkpt>
      <trkpt lat="46.41514" lon="0.27505">
        <ele>118.45839048177</ele>
        <time>2021-11-04T08:26:43Z</time>
      </trkpt>
      <trkpt lat="46.41513" lon="0.27509">
        <ele>118.75749504287</ele>
        <time>2021-11-04T08:26:45Z</time>
      </trkpt>
      <trkpt lat="46.41511" lon="0.27512">
        <ele>118.60319563467</ele>
        <time>2021-11-04T08:26:47Z</time>
      </trkpt>
      <trkpt lat="46.4151" lon="0.27515">
        <ele>118.83464978356</ele>
        <time>2021-11-04T08:26:49Z</time>
      </trkpt>
      <trkpt lat="46.41508" lon="0.27518">
        <ele>118.88289836701</ele>
        <time>2021-11-04T08:26:51Z</time>
      </trkpt>
      <trkpt lat="46.41507" lon="0.27521">
        <ele>118.47671425063</ele>
        <time>2021-11-04T08:26:53Z</time>
      </trkpt>
      <trkpt lat="46.41506" lon="0.27524">
        <ele>118.65772006381</ele>
        <time>2021-11-04T08:26:55Z</time>
      </trkpt>
      <trkpt lat="46.41504" lon="0.27526">
        <ele>118.76383420918</ele>
        <time>2021-11-04T08:26:57Z</time>
      </trkpt>
      <trkpt lat="46.41503" lon="0.27529">
        <ele>118.59894304164</ele>
        <time>2021-11-04T08:26:59Z</time>
      </trkpt>
      <trkpt lat="46.41502" lon="0.27533">
        <ele>118.05328878853</ele>
        <time>2021-11-04T08:27:01Z</time>
      </trkpt>
      <trkpt lat="46.415" lon="0.27535">
        <ele>118.24737494718</ele>
        <time>2021-11-04T08:27:03Z</time>
      </trkpt>
      <trkpt lat="46.41499" lon="0.27538">
        <ele>118.44723530486</ele>
        <time>2021-11-04T08:27:05Z</time>
      </trkpt>
      <trkpt lat="46.41498" lon="0.27541">
        <ele>118.8225763971</ele>
        <time>2021-11-04T08:27:07Z</time>
      </trkpt>
      <trkpt lat="46.41496" lon="0.27544">
        <ele>118.3873180449</ele>
        <time>2021-11-04T08:27:09Z</time>
      </trkpt>
      <trkpt lat="46.41494" lon="0.27547">
        <ele>118.37134498544</ele>
        <time>2021-11-04T08:27:11Z</time>
      </trkpt>
      <trkpt lat="46.41493" lon="0.27549">
        <ele>118.90834958106</ele>
        <time>2021-11-04T08:27:13Z</time>
      </trkpt>
      <trkpt lat="46.41492" lon="0.27553">
        <ele>118.55600760505</ele>
        <time>2021-11-04T08:27:15Z</time>
      </trkpt>
      <trkpt lat="46.4149" lon="0.27555">
        <ele>118.90979745239</ele>
        <time>2021-11-04T08:27:17Z</time>
      </trkpt>
      <trkpt lat="46.41489" lon="0.27559">
        <ele>118.41160751972</ele>
        <time>2021-11-04T08:27:19Z</time>
      </trkpt>
      <trkpt lat="46.41487" lon="0.27562">
        <ele>118.41420170758</ele>
        <time>2021-11-04T08:27:21Z</time>
      </trkpt>
      <trkpt lat="46.41486" lon="0.27564">
        <ele>119.07937073335</ele>
        <time>2021-11-04T08:27:23Z</time>
      </trkpt>
      <trkpt lat="46.41485" lon="0.27567">
        <ele>118.49520693719</ele>
        <time>2021-11-04T08:27:25Z</time>
      </trkpt>
      <trkpt lat="46.41483" lon="0.2757">
        <ele>118.58571634442</ele>
        <time>2021-11-04T08:27:27Z</time>
      </trkpt>
      <trkpt lat="46.41481" lon="0.27573">
        <ele>118.30030360539</ele>
        <time>2021-11-04T08:27:29Z</time>
      </trkpt>
      <trkpt lat="46.4148" lon="0.27576">
        <ele>118.43185778335</ele>
        <time>2021-11-04T08:27:31Z</time>
      </trkpt>
      <trkpt lat="46.41478" lon="0.27578">
        <ele>118.74512073956</ele>
        <time>2021-11-04T08:27:33Z</time>
      </trkpt>
      <trkpt lat="46.41477" lon="0.2758">
        <ele>118.62957658805</ele>
        <time>2021-11-04T08:27:35Z</time>
      </trkpt>
      <trkpt lat="46.41475" lon="0.27583">
        <ele>118.1291665351</ele>
        <time>2021-11-04T08:27:37Z</time>
      </trkpt>
      <trkpt lat="46.41474" lon="0.27586">
        <ele>118.70944192633</ele>
        <time>2021-11-04T08:27:39Z</time>
      </trkpt>
      <trkpt lat="46.41472" lon="0.27589">
        <ele>118.47146815062</ele>
        <time>2021-11-04T08:27:41Z</time>
      </trkpt>
      <trkpt lat="46.41471" lon="0.27591">
        <ele>118.54038365837</ele>
        <time>2021-11-04T08:27:43Z</time>
      </trkpt>
      <trkpt lat="46.4147" lon="0.27594">
        <ele>118.35825467389</ele>
        <time>2021-11-04T08:27:45Z</time>
      </trkpt>
      <trkpt lat="46.41468" lon="0.27597">
        <ele>118.51555546466</ele>
        <time>2021-11-04T08:27:47Z</time>
      </trkpt>
      <trkpt lat="46.41467" lon="0.276">
        <ele>118.86109052692</ele>
        <time>2021-11-04T08:27:49Z</time>
      </trkpt>
      <trkpt lat="46.41465" lon="0.27603">
        <ele>118.98246958293</ele>
        <time>2021-11-04T08:27:51Z</time>
      </trkpt>
      <trkpt lat="46.41464" lon="0.27606">
        <ele>118.66178522725</ele>
        <time>2021-11-04T08:27:53Z</time>
      </trkpt>
      <trkpt lat="46.41462" lon="0.27609">
        <ele>119.01342648361</ele>
        <time>2021-11-04T08:27:55Z</time>
      </trkpt>
      <trkpt lat="46.4146" lon="0.27613">
        <ele>118.87769429572</ele>
        <time>2021-11-04T08:27:57Z</time>
      </trkpt>
      <trkpt lat="46.41459" lon="0.27615">
        <ele>119.04714458995</ele>
        <time>2021-11-04T08:27:59Z</time>
      </trkpt>
      <trkpt lat="46.41457" lon="0.27618">
        <ele>118.76652090065</ele>
        <time>2021-11-04T08:28:01Z</time>
      </trkpt>
      <trkpt lat="46.41456" lon="0.27621">
        <ele>118.7273978414</ele>
        <time>2021-11-04T08:28:03Z</time>
      </trkpt>
      <trkpt lat="46.41455" lon="0.27623">
        <ele>118.97001821361</ele>
        <time>2021-11-04T08:28:05Z</time>
      </trkpt>
      <trkpt lat="46.41453" lon="0.27626">
        <ele>118.82581550069</ele>
        <time>2021-11-04T08:28:07Z</time>
      </trkpt>
      <trkpt lat="46.41452" lon="0.27629">
        <ele>119.24878611974</ele>
        <time>2021-11-04T08:28:09Z</time>
      </trkpt>
      <trkpt lat="46.4145" lon="0.27632">
        <ele>119.03940217756</ele>
        <time>2021-11-04T08:28:11Z</time>
      </trkpt>
      <trkpt lat="46.41449" lon="0.27635">
        <ele>119.54318191484</ele>
        <time>2021-11-04T08:28:13Z</time>
      </trkpt>
      <trkpt lat="46.41447" lon="0.27637">
        <ele>119.33797202259</ele>
        <time>2021-11-04T08:28:15Z</time>
      </trkpt>
      <trkpt lat="46.41446" lon="0.27641">
        <ele>119.17637389991</ele>
        <time>2021-11-04T08:28:17Z</time>
      </trkpt>
      <trkpt lat="46.41445" lon="0.27644">
        <ele>119.18613792863</ele>
        <time>2021-11-04T08:28:19Z</time>
      </trkpt>
      <trkpt lat="46.41444" lon="0.27647">
        <ele>119.50577941444</ele>
        <time>2021-11-04T08:28:21Z</time>
      </trkpt>
      <trkpt lat="46.41442" lon="0.2765">
        <ele>119.25747947022</ele>
        <time>2021-11-04T08:28:23Z</time>
      </trkpt>
      <trkpt lat="46.41441" lon="0.27653">
        <ele>119.12373217568</ele>
        <time>2021-11-04T08:28:25Z</time>
      </trkpt>
      <trkpt lat="46.41439" lon="0.27656">
        <ele>119.71192028094</ele>
        <time>2021-11-04T08:28:27Z</time>
      </trkpt>
      <trkpt lat="46.41438" lon="0.2766">
        <ele>119.80640672334</ele>
        <time>2021-11-04T08:28:30Z</time>
      </trkpt>
      <trkpt lat="46.41436" lon="0.27663">
        <ele>119.39993238449</ele>
        <time>2021-11-04T08:28:32Z</time>
      </trkpt>
      <trkpt lat="46.41435" lon="0.27666">
        <ele>119.67914914805</ele>
        <time>2021-11-04T08:28:34Z</time>
      </trkpt>
      <trkpt lat="46.41433" lon="0.27669">
        <ele>120.19500334468</ele>
        <time>2021-11-04T08:28:36Z</time>
      </trkpt>
      <trkpt lat="46.41432" lon="0.27672">
        <ele>119.41307219863</ele>
        <time>2021-11-04T08:28:38Z</time>
      </trkpt>
      <trkpt lat="46.4143" lon="0.27674">
        <ele>119.87512232736</ele>
        <time>2021-11-04T08:28:40Z</time>
      </trkpt>
      <trkpt lat="46.41429" lon="0.27677">
        <ele>119.87386467215</ele>
        <time>2021-11-04T08:28:42Z</time>
      </trkpt>
      <trkpt lat="46.41428" lon="0.2768">
        <ele>119.94004134741</ele>
        <time>2021-11-04T08:28:44Z</time>
      </trkpt>
      <trkpt lat="46.41426" lon="0.27682">
        <ele>120.08447145857</ele>
        <time>2021-11-04T08:28:46Z</time>
      </trkpt>
      <trkpt lat="46.41425" lon="0.27685">
        <ele>120.07059175055</ele>
        <time>2021-11-04T08:28:48Z</time>
      </trkpt>
      <trkpt lat="46.41424" lon="0.27688">
        <ele>120.2817174457</ele>
        <time>2021-11-04T08:28:50Z</time>
      </trkpt>
      <trkpt lat="46.41422" lon="0.27691">
        <ele>119.9554464845</ele>
        <time>2021-11-04T08:28:52Z</time>
      </trkpt>
      <trkpt lat="46.41421" lon="0.27694">
        <ele>120.32106639165</ele>
        <time>2021-11-04T08:28:54Z</time>
      </trkpt>
      <trkpt lat="46.4142" lon="0.27698">
        <ele>120.58813198283</ele>
        <time>2021-11-04T08:28:56Z</time>
      </trkpt>
      <trkpt lat="46.41417" lon="0.27701">
        <ele>120.09179753438</ele>
        <time>2021-11-04T08:28:58Z</time>
      </trkpt>
      <trkpt lat="46.41415" lon="0.27702">
        <ele>120.7685225429</ele>
        <time>2021-11-04T08:29:00Z</time>
      </trkpt>
      <trkpt lat="46.41414" lon="0.27706">
        <ele>120.10485086963</ele>
        <time>2021-11-04T08:29:02Z</time>
      </trkpt>
      <trkpt lat="46.41412" lon="0.27708">
        <ele>120.33874823712</ele>
        <time>2021-11-04T08:29:04Z</time>
      </trkpt>
      <trkpt lat="46.4141" lon="0.27711">
        <ele>120.55463774875</ele>
        <time>2021-11-04T08:29:06Z</time>
      </trkpt>
      <trkpt lat="46.41409" lon="0.27713">
        <ele>120.71419881657</ele>
        <time>2021-11-04T08:29:08Z</time>
      </trkpt>
      <trkpt lat="46.41407" lon="0.27716">
        <ele>120.29900806211</ele>
        <time>2021-11-04T08:29:10Z</time>
      </trkpt>
      <trkpt lat="46.41406" lon="0.27718">
        <ele>120.49879394099</ele>
        <time>2021-11-04T08:29:12Z</time>
      </trkpt>
      <trkpt lat="46.41404" lon="0.2772">
        <ele>120.94125477038</ele>
        <time>2021-11-04T08:29:14Z</time>
      </trkpt>
      <trkpt lat="46.41402" lon="0.27723">
        <ele>121.04501795676</ele>
        <time>2021-11-04T08:29:16Z</time>
      </trkpt>
      <trkpt lat="46.414" lon="0.27726">
        <ele>120.43393272068</ele>
        <time>2021-11-04T08:29:18Z</time>
      </trkpt>
      <trkpt lat="46.41399" lon="0.27729">
        <ele>121.13531659916</ele>
        <time>2021-11-04T08:29:20Z</time>
      </trkpt>
      <trkpt lat="46.41397" lon="0.27731">
        <ele>121.14249907713</ele>
        <time>2021-11-04T08:29:22Z</time>
      </trkpt>
      <trkpt lat="46.41394" lon="0.27734">
        <ele>121.32059841324</ele>
        <time>2021-11-04T08:29:24Z</time>
      </trkpt>
      <trkpt lat="46.41393" lon="0.27736">
        <ele>120.63350619469</ele>
        <time>2021-11-04T08:29:26Z</time>
      </trkpt>
      <trkpt lat="46.41391" lon="0.27739">
        <ele>121.39472905081</ele>
        <time>2021-11-04T08:29:28Z</time>
      </trkpt>
      <trkpt lat="46.41389" lon="0.27741">
        <ele>120.97109120991</ele>
        <time>2021-11-04T08:29:31Z</time>
      </trkpt>
      <trkpt lat="46.41387" lon="0.27744">
        <ele>121.81473890599</ele>
        <time>2021-11-04T08:29:33Z</time>
      </trkpt>
      <trkpt lat="46.41385" lon="0.27746">
        <ele>121.27861702628</ele>
        <time>2021-11-04T08:29:35Z</time>
      </trkpt>
      <trkpt lat="46.41384" lon="0.27748">
        <ele>121.56060553994</ele>
        <time>2021-11-04T08:29:37Z</time>
      </trkpt>
      <trkpt lat="46.41382" lon="0.2775">
        <ele>121.06242133025</ele>
        <time>2021-11-04T08:29:39Z</time>
      </trkpt>
      <trkpt lat="46.4138" lon="0.27752">
        <ele>121.62717689108</ele>
        <time>2021-11-04T08:29:41Z</time>
      </trkpt>
      <trkpt lat="46.41379" lon="0.27755">
        <ele>121.66936051007</ele>
        <time>2021-11-04T08:29:43Z</time>
      </trkpt>
      <trkpt lat="46.41377" lon="0.27756">
        <ele>121.16380881332</ele>
        <time>2021-11-04T08:29:45Z</time>
      </trkpt>
      <trkpt lat="46.41376" lon="0.27759">
        <ele>121.96523526311</ele>
        <time>2021-11-04T08:29:47Z</time>
      </trkpt>
      <trkpt lat="46.41373" lon="0.27761">
        <ele>121.27282321732</ele>
        <time>2021-11-04T08:29:49Z</time>
      </trkpt>
      <trkpt lat="46.41372" lon="0.27763">
        <ele>121.49942049105</ele>
        <time>2021-11-04T08:29:51Z</time>
      </trkpt>
      <trkpt lat="46.4137" lon="0.27765">
        <ele>121.11809174158</ele>
        <time>2021-11-04T08:29:53Z</time>
      </trkpt>
      <trkpt lat="46.41369" lon="0.27767">
        <ele>121.51095389016</ele>
        <time>2021-11-04T08:29:55Z</time>
      </trkpt>
      <trkpt lat="46.41367" lon="0.2777">
        <ele>121.21487105265</ele>
        <time>2021-11-04T08:29:57Z</time>
      </trkpt>
      <trkpt lat="46.41366" lon="0.27771">
        <ele>121.59805517271</ele>
        <time>2021-11-04T08:29:59Z</time>
      </trkpt>
      <trkpt lat="46.41364" lon="0.27774">
        <ele>121.37364658806</ele>
        <time>2021-11-04T08:30:01Z</time>
      </trkpt>
      <trkpt lat="46.41362" lon="0.27776">
        <ele>121.56681025494</ele>
        <time>2021-11-04T08:30:03Z</time>
      </trkpt>
      <trkpt lat="46.41361" lon="0.27778">
        <ele>121.96394525189</ele>
        <time>2021-11-04T08:30:05Z</time>
      </trkpt>
      <trkpt lat="46.41359" lon="0.2778">
        <ele>121.64941339847</ele>
        <time>2021-11-04T08:30:07Z</time>
      </trkpt>
      <trkpt lat="46.41358" lon="0.27782">
        <ele>121.41298060492</ele>
        <time>2021-11-04T08:30:09Z</time>
      </trkpt>
      <trkpt lat="46.41356" lon="0.27784">
        <ele>121.88499842491</ele>
        <time>2021-11-04T08:30:11Z</time>
      </trkpt>
      <trkpt lat="46.41354" lon="0.27786">
        <ele>121.77193453349</ele>
        <time>2021-11-04T08:30:13Z</time>
      </trkpt>
      <trkpt lat="46.41351" lon="0.27789">
        <ele>122.19702288974</ele>
        <time>2021-11-04T08:30:16Z</time>
      </trkpt>
      <trkpt lat="46.41349" lon="0.27792">
        <ele>121.81374510285</ele>
        <time>2021-11-04T08:30:18Z</time>
      </trkpt>
      <trkpt lat="46.41348" lon="0.27794">
        <ele>121.91412246507</ele>
        <time>2021-11-04T08:30:20Z</time>
      </trkpt>
      <trkpt lat="46.41346" lon="0.27796">
        <ele>122.08626792766</ele>
        <time>2021-11-04T08:30:22Z</time>
      </trkpt>
      <trkpt lat="46.41344" lon="0.27798">
        <ele>122.24184532836</ele>
        <time>2021-11-04T08:30:24Z</time>
      </trkpt>
      <trkpt lat="46.41343" lon="0.278">
        <ele>122.41431712266</ele>
        <time>2021-11-04T08:30:26Z</time>
      </trkpt>
      <trkpt lat="46.41341" lon="0.27802">
        <ele>122.5717771342</ele>
        <time>2021-11-04T08:30:28Z</time>
      </trkpt>
      <trkpt lat="46.4134" lon="0.27804">
        <ele>122.61914764438</ele>
        <time>2021-11-04T08:30:30Z</time>
      </trkpt>
      <trkpt lat="46.41338" lon="0.27806">
        <ele>122.28922293056</ele>
        <time>2021-11-04T08:30:32Z</time>
      </trkpt>
      <trkpt lat="46.41336" lon="0.27808">
        <ele>121.59663982783</ele>
        <time>2021-11-04T08:30:34Z</time>
      </trkpt>
      <trkpt lat="46.41335" lon="0.2781">
        <ele>122.67386413459</ele>
        <time>2021-11-04T08:30:36Z</time>
      </trkpt>
      <trkpt lat="46.41333" lon="0.27813">
        <ele>122.61415633839</ele>
        <time>2021-11-04T08:30:38Z</time>
      </trkpt>
      <trkpt lat="46.41331" lon="0.27815">
        <ele>122.37735701166</ele>
        <time>2021-11-04T08:30:40Z</time>
      </trkpt>
      <trkpt lat="46.4133" lon="0.27817">
        <ele>122.4011935601</ele>
        <time>2021-11-04T08:30:42Z</time>
      </trkpt>
      <trkpt lat="46.41328" lon="0.27819">
        <ele>122.04623525869</ele>
        <time>2021-11-04T08:30:44Z</time>
      </trkpt>
      <trkpt lat="46.41326" lon="0.27822">
        <ele>122.57863023784</ele>
        <time>2021-11-04T08:30:46Z</time>
      </trkpt>
      <trkpt lat="46.41324" lon="0.27823">
        <ele>123.0245741345</ele>
        <time>2021-11-04T08:30:48Z</time>
      </trkpt>
      <trkpt lat="46.41322" lon="0.27825">
        <ele>122.65030309744</ele>
        <time>2021-11-04T08:30:50Z</time>
      </trkpt>
      <trkpt lat="46.4132" lon="0.27827">
        <ele>122.86695994344</ele>
        <time>2021-11-04T08:30:52Z</time>
      </trkpt>
      <trkpt lat="46.41318" lon="0.27829">
        <ele>122.5429480141</ele>
        <time>2021-11-04T08:30:54Z</time>
      </trkpt>
      <trkpt lat="46.41316" lon="0.27831">
        <ele>123.21366607677</ele>
        <time>2021-11-04T08:30:56Z</time>
      </trkpt>
      <trkpt lat="46.41314" lon="0.27833">
        <ele>123.28487706929</ele>
        <time>2021-11-04T08:30:58Z</time>
      </trkpt>
      <trkpt lat="46.41313" lon="0.27836">
        <ele>122.55693350267</ele>
        <time>2021-11-04T08:31:00Z</time>
      </trkpt>
      <trkpt lat="46.41311" lon="0.27838">
        <ele>123.26227914635</ele>
        <time>2021-11-04T08:31:02Z</time>
      </trkpt>
      <trkpt lat="46.41309" lon="0.27841">
        <ele>123.4955678666</ele>
        <time>2021-11-04T08:31:04Z</time>
      </trkpt>
      <trkpt lat="46.41307" lon="0.27843">
        <ele>123.11714403518</ele>
        <time>2021-11-04T08:31:06Z</time>
      </trkpt>
      <trkpt lat="46.41306" lon="0.27845">
        <ele>123.65440582577</ele>
        <time>2021-11-04T08:31:08Z</time>
      </trkpt>
      <trkpt lat="46.41305" lon="0.27847">
        <ele>123.28233039938</ele>
        <time>2021-11-04T08:31:10Z</time>
      </trkpt>
      <trkpt lat="46.41303" lon="0.27849">
        <ele>123.35833568126</ele>
        <time>2021-11-04T08:31:12Z</time>
      </trkpt>
      <trkpt lat="46.41301" lon="0.27851">
        <ele>123.62444042601</ele>
        <time>2021-11-04T08:31:14Z</time>
      </trkpt>
      <trkpt lat="46.41299" lon="0.27854">
        <ele>124.05485003628</ele>
        <time>2021-11-04T08:31:16Z</time>
      </trkpt>
      <trkpt lat="46.41298" lon="0.27858">
        <ele>123.89298539329</ele>
        <time>2021-11-04T08:31:19Z</time>
      </trkpt>
      <trkpt lat="46.41296" lon="0.2786">
        <ele>123.98264807835</ele>
        <time>2021-11-04T08:31:21Z</time>
      </trkpt>
      <trkpt lat="46.41294" lon="0.27863">
        <ele>123.51791489311</ele>
        <time>2021-11-04T08:31:23Z</time>
      </trkpt>
      <trkpt lat="46.41293" lon="0.27866">
        <ele>123.53324387968</ele>
        <time>2021-11-04T08:31:25Z</time>
      </trkpt>
      <trkpt lat="46.41292" lon="0.27869">
        <ele>124.04035300575</ele>
        <time>2021-11-04T08:31:27Z</time>
      </trkpt>
      <trkpt lat="46.41291" lon="0.27871">
        <ele>123.03874564171</ele>
        <time>2021-11-04T08:31:29Z</time>
      </trkpt>
      <trkpt lat="46.41289" lon="0.27874">
        <ele>123.44349684287</ele>
        <time>2021-11-04T08:31:31Z</time>
      </trkpt>
      <trkpt lat="46.41287" lon="0.27876">
        <ele>123.57451591641</ele>
        <time>2021-11-04T08:31:33Z</time>
      </trkpt>
      <trkpt lat="46.41285" lon="0.27879">
        <ele>123.23852627631</ele>
        <time>2021-11-04T08:31:35Z</time>
      </trkpt>
      <trkpt lat="46.41284" lon="0.27881">
        <ele>123.31444558036</ele>
        <time>2021-11-04T08:31:37Z</time>
      </trkpt>
      <trkpt lat="46.41283" lon="0.27884">
        <ele>123.39639529679</ele>
        <time>2021-11-04T08:31:39Z</time>
      </trkpt>
      <trkpt lat="46.41281" lon="0.27887">
        <ele>123.24109672289</ele>
        <time>2021-11-04T08:31:41Z</time>
      </trkpt>
      <trkpt lat="46.41279" lon="0.2789">
        <ele>123.52583287284</ele>
        <time>2021-11-04T08:31:43Z</time>
      </trkpt>
      <trkpt lat="46.41278" lon="0.27893">
        <ele>123.57121391501</ele>
        <time>2021-11-04T08:31:45Z</time>
      </trkpt>
      <trkpt lat="46.41276" lon="0.27895">
        <ele>123.31775565911</ele>
        <time>2021-11-04T08:31:47Z</time>
      </trkpt>
      <trkpt lat="46.41275" lon="0.27898">
        <ele>123.65788253769</ele>
        <time>2021-11-04T08:31:49Z</time>
      </trkpt>
      <trkpt lat="46.41273" lon="0.279">
        <ele>123.91507629957</ele>
        <time>2021-11-04T08:31:51Z</time>
      </trkpt>
      <trkpt lat="46.41272" lon="0.27903">
        <ele>123.38720473647</ele>
        <time>2021-11-04T08:31:53Z</time>
      </trkpt>
      <trkpt lat="46.4127" lon="0.27907">
        <ele>123.93582061492</ele>
        <time>2021-11-04T08:31:55Z</time>
      </trkpt>
      <trkpt lat="46.41269" lon="0.2791">
        <ele>124.39489850122</ele>
        <time>2021-11-04T08:31:57Z</time>
      </trkpt>
      <trkpt lat="46.41267" lon="0.27913">
        <ele>124.09772063699</ele>
        <time>2021-11-04T08:32:00Z</time>
      </trkpt>
      <trkpt lat="46.41266" lon="0.27915">
        <ele>124.22237223666</ele>
        <time>2021-11-04T08:32:02Z</time>
      </trkpt>
      <trkpt lat="46.41264" lon="0.27918">
        <ele>124.65290613659</ele>
        <time>2021-11-04T08:32:04Z</time>
      </trkpt>
      <trkpt lat="46.41262" lon="0.27921">
        <ele>124.64626034535</ele>
        <time>2021-11-04T08:32:06Z</time>
      </trkpt>
      <trkpt lat="46.41261" lon="0.27924">
        <ele>124.24565349519</ele>
        <time>2021-11-04T08:32:08Z</time>
      </trkpt>
      <trkpt lat="46.41259" lon="0.27927">
        <ele>124.27832944691</ele>
        <time>2021-11-04T08:32:10Z</time>
      </trkpt>
      <trkpt lat="46.41258" lon="0.27929">
        <ele>124.55991483573</ele>
        <time>2021-11-04T08:32:12Z</time>
      </trkpt>
      <trkpt lat="46.41256" lon="0.27932">
        <ele>124.35607008357</ele>
        <time>2021-11-04T08:32:14Z</time>
      </trkpt>
      <trkpt lat="46.41254" lon="0.27934">
        <ele>124.20075539779</ele>
        <time>2021-11-04T08:32:16Z</time>
      </trkpt>
      <trkpt lat="46.41252" lon="0.27937">
        <ele>124.59188169707</ele>
        <time>2021-11-04T08:32:18Z</time>
      </trkpt>
      <trkpt lat="46.41251" lon="0.2794">
        <ele>124.40570195206</ele>
        <time>2021-11-04T08:32:20Z</time>
      </trkpt>
      <trkpt lat="46.41249" lon="0.27942">
        <ele>124.47940090299</ele>
        <time>2021-11-04T08:32:22Z</time>
      </trkpt>
      <trkpt lat="46.41247" lon="0.27944">
        <ele>124.23803084064</ele>
        <time>2021-11-04T08:32:24Z</time>
      </trkpt>
      <trkpt lat="46.41246" lon="0.27947">
        <ele>124.8118904233</ele>
        <time>2021-11-04T08:32:26Z</time>
      </trkpt>
      <trkpt lat="46.41244" lon="0.2795">
        <ele>124.54105857294</ele>
        <time>2021-11-04T08:32:28Z</time>
      </trkpt>
      <trkpt lat="46.41242" lon="0.27952">
        <ele>124.31940446515</ele>
        <time>2021-11-04T08:32:30Z</time>
      </trkpt>
      <trkpt lat="46.41241" lon="0.27954">
        <ele>124.04083426576</ele>
        <time>2021-11-04T08:32:32Z</time>
      </trkpt>
      <trkpt lat="46.41239" lon="0.27957">
        <ele>124.43502040859</ele>
        <time>2021-11-04T08:32:34Z</time>
      </trkpt>
      <trkpt lat="46.41237" lon="0.2796">
        <ele>124.45864810236</ele>
        <time>2021-11-04T08:32:36Z</time>
      </trkpt>
      <trkpt lat="46.41236" lon="0.27962">
        <ele>123.700949369</ele>
        <time>2021-11-04T08:32:38Z</time>
      </trkpt>
      <trkpt lat="46.41234" lon="0.27965">
        <ele>124.09555128496</ele>
        <time>2021-11-04T08:32:40Z</time>
      </trkpt>
      <trkpt lat="46.41232" lon="0.27967">
        <ele>124.2215527324</ele>
        <time>2021-11-04T08:32:42Z</time>
      </trkpt>
      <trkpt lat="46.4123" lon="0.2797">
        <ele>124.34148204979</ele>
        <time>2021-11-04T08:32:44Z</time>
      </trkpt>
      <trkpt lat="46.41228" lon="0.27973">
        <ele>123.83058442175</ele>
        <time>2021-11-04T08:32:46Z</time>
      </trkpt>
      <trkpt lat="46.41227" lon="0.27975">
        <ele>124.23126481101</ele>
        <time>2021-11-04T08:32:48Z</time>
      </trkpt>
      <trkpt lat="46.41225" lon="0.27978">
        <ele>124.09045383707</ele>
        <time>2021-11-04T08:32:50Z</time>
      </trkpt>
      <trkpt lat="46.41223" lon="0.2798">
        <ele>124.14407643769</ele>
        <time>2021-11-04T08:32:52Z</time>
      </trkpt>
      <trkpt lat="46.41221" lon="0.27983">
        <ele>123.79294347763</ele>
        <time>2021-11-04T08:32:54Z</time>
      </trkpt>
      <trkpt lat="46.41219" lon="0.27985">
        <ele>124.22789692041</ele>
        <time>2021-11-04T08:32:56Z</time>
      </trkpt>
      <trkpt lat="46.41218" lon="0.27987">
        <ele>123.92814313434</ele>
        <time>2021-11-04T08:32:58Z</time>
      </trkpt>
      <trkpt lat="46.41216" lon="0.27989">
        <ele>123.69147539418</ele>
        <time>2021-11-04T08:33:00Z</time>
      </trkpt>
      <trkpt lat="46.41214" lon="0.27992">
        <ele>124.1277066227</ele>
        <time>2021-11-04T08:33:02Z</time>
      </trkpt>
      <trkpt lat="46.41212" lon="0.27994">
        <ele>123.94153750781</ele>
        <time>2021-11-04T08:33:04Z</time>
      </trkpt>
      <trkpt lat="46.4121" lon="0.27998">
        <ele>123.62313697394</ele>
        <time>2021-11-04T08:33:07Z</time>
      </trkpt>
      <trkpt lat="46.41208" lon="0.28">
        <ele>123.5537134707</ele>
        <time>2021-11-04T08:33:09Z</time>
      </trkpt>
      <trkpt lat="46.41206" lon="0.28003">
        <ele>122.99411062617</ele>
        <time>2021-11-04T08:33:11Z</time>
      </trkpt>
      <trkpt lat="46.41205" lon="0.28004">
        <ele>123.95740562771</ele>
        <time>2021-11-04T08:33:13Z</time>
      </trkpt>
      <trkpt lat="46.41203" lon="0.28007">
        <ele>124.01364098303</ele>
        <time>2021-11-04T08:33:15Z</time>
      </trkpt>
      <trkpt lat="46.41201" lon="0.28008">
        <ele>123.09062062576</ele>
        <time>2021-11-04T08:33:17Z</time>
      </trkpt>
      <trkpt lat="46.41198" lon="0.28011">
        <ele>123.6477091033</ele>
        <time>2021-11-04T08:33:19Z</time>
      </trkpt>
      <trkpt lat="46.41197" lon="0.28014">
        <ele>123.53646462783</ele>
        <time>2021-11-04T08:33:21Z</time>
      </trkpt>
      <trkpt lat="46.41195" lon="0.28016">
        <ele>123.38070264179</ele>
        <time>2021-11-04T08:33:23Z</time>
      </trkpt>
      <trkpt lat="46.41194" lon="0.28019">
        <ele>123.22746471874</ele>
        <time>2021-11-04T08:33:25Z</time>
      </trkpt>
      <trkpt lat="46.41192" lon="0.28021">
        <ele>123.57988028228</ele>
        <time>2021-11-04T08:33:27Z</time>
      </trkpt>
      <trkpt lat="46.41191" lon="0.28023">
        <ele>123.7460478507</ele>
        <time>2021-11-04T08:33:29Z</time>
      </trkpt>
      <trkpt lat="46.41189" lon="0.28026">
        <ele>123.44340749085</ele>
        <time>2021-11-04T08:33:31Z</time>
      </trkpt>
      <trkpt lat="46.41187" lon="0.28028">
        <ele>123.41868038289</ele>
        <time>2021-11-04T08:33:33Z</time>
      </trkpt>
      <trkpt lat="46.41186" lon="0.28031">
        <ele>123.52018915582</ele>
        <time>2021-11-04T08:33:35Z</time>
      </trkpt>
      <trkpt lat="46.41184" lon="0.28034">
        <ele>123.29378599767</ele>
        <time>2021-11-04T08:33:37Z</time>
      </trkpt>
      <trkpt lat="46.41182" lon="0.28037">
        <ele>123.46703579742</ele>
        <time>2021-11-04T08:33:39Z</time>
      </trkpt>
      <trkpt lat="46.4118" lon="0.28039">
        <ele>123.45006321557</ele>
        <time>2021-11-04T08:33:41Z</time>
      </trkpt>
      <trkpt lat="46.41179" lon="0.28041">
        <ele>122.88725292031</ele>
        <time>2021-11-04T08:33:43Z</time>
      </trkpt>
      <trkpt lat="46.41177" lon="0.28044">
        <ele>122.78910222184</ele>
        <time>2021-11-04T08:33:45Z</time>
      </trkpt>
      <trkpt lat="46.41175" lon="0.28047">
        <ele>122.40600249451</ele>
        <time>2021-11-04T08:33:47Z</time>
      </trkpt>
      <trkpt lat="46.41173" lon="0.2805">
        <ele>122.3123630425</ele>
        <time>2021-11-04T08:33:49Z</time>
      </trkpt>
      <trkpt lat="46.41172" lon="0.28052">
        <ele>122.85757006053</ele>
        <time>2021-11-04T08:33:51Z</time>
      </trkpt>
      <trkpt lat="46.4117" lon="0.28055">
        <ele>122.70629456919</ele>
        <time>2021-11-04T08:33:53Z</time>
      </trkpt>
      <trkpt lat="46.41168" lon="0.28057">
        <ele>122.37125644367</ele>
        <time>2021-11-04T08:33:55Z</time>
      </trkpt>
      <trkpt lat="46.41167" lon="0.2806">
        <ele>122.70369153656</ele>
        <time>2021-11-04T08:33:57Z</time>
      </trkpt>
      <trkpt lat="46.41166" lon="0.28062">
        <ele>122.70709491987</ele>
        <time>2021-11-04T08:33:59Z</time>
      </trkpt>
      <trkpt lat="46.41164" lon="0.28066">
        <ele>122.96175633837</ele>
        <time>2021-11-04T08:34:01Z</time>
      </trkpt>
      <trkpt lat="46.41162" lon="0.28069">
        <ele>122.48270173743</ele>
        <time>2021-11-04T08:34:03Z</time>
      </trkpt>
      <trkpt lat="46.41161" lon="0.28072">
        <ele>122.64052194264</ele>
        <time>2021-11-04T08:34:06Z</time>
      </trkpt>
      <trkpt lat="46.4116" lon="0.28074">
        <ele>122.63717361633</ele>
        <time>2021-11-04T08:34:08Z</time>
      </trkpt>
      <trkpt lat="46.41158" lon="0.28078">
        <ele>122.41946114134</ele>
        <time>2021-11-04T08:34:10Z</time>
      </trkpt>
      <trkpt lat="46.41157" lon="0.28081">
        <ele>122.88631108776</ele>
        <time>2021-11-04T08:34:12Z</time>
      </trkpt>
      <trkpt lat="46.41156" lon="0.28085">
        <ele>122.67594242282</ele>
        <time>2021-11-04T08:34:14Z</time>
      </trkpt>
      <trkpt lat="46.41155" lon="0.28088">
        <ele>122.48207202461</ele>
        <time>2021-11-04T08:34:16Z</time>
      </trkpt>
      <trkpt lat="46.41154" lon="0.28091">
        <ele>122.56680865679</ele>
        <time>2021-11-04T08:34:18Z</time>
      </trkpt>
      <trkpt lat="46.41153" lon="0.28094">
        <ele>122.59131464735</ele>
        <time>2021-11-04T08:34:20Z</time>
      </trkpt>
      <trkpt lat="46.41152" lon="0.28097">
        <ele>122.79117442202</ele>
        <time>2021-11-04T08:34:22Z</time>
      </trkpt>
      <trkpt lat="46.41151" lon="0.28101">
        <ele>122.57159408089</ele>
        <time>2021-11-04T08:34:24Z</time>
      </trkpt>
      <trkpt lat="46.4115" lon="0.28104">
        <ele>122.05809242278</ele>
        <time>2021-11-04T08:34:26Z</time>
      </trkpt>
      <trkpt lat="46.4115" lon="0.28108">
        <ele>122.58440971747</ele>
        <time>2021-11-04T08:34:28Z</time>
      </trkpt>
      <trkpt lat="46.41149" lon="0.28111">
        <ele>122.44864535239</ele>
        <time>2021-11-04T08:34:30Z</time>
      </trkpt>
      <trkpt lat="46.41149" lon="0.28115">
        <ele>122.76225875225</ele>
        <time>2021-11-04T08:34:32Z</time>
      </trkpt>
      <trkpt lat="46.41148" lon="0.28119">
        <ele>122.30198985431</ele>
        <time>2021-11-04T08:34:34Z</time>
      </trkpt>
      <trkpt lat="46.41148" lon="0.28123">
        <ele>122.05950424168</ele>
        <time>2021-11-04T08:34:36Z</time>
      </trkpt>
      <trkpt lat="46.41148" lon="0.28126">
        <ele>122.0717342943</ele>
        <time>2021-11-04T08:34:38Z</time>
      </trkpt>
      <trkpt lat="46.41148" lon="0.2813">
        <ele>122.46235017292</ele>
        <time>2021-11-04T08:34:40Z</time>
      </trkpt>
      <trkpt lat="46.41148" lon="0.28134">
        <ele>122.57915745862</ele>
        <time>2021-11-04T08:34:42Z</time>
      </trkpt>
      <trkpt lat="46.41148" lon="0.28138">
        <ele>122.17932998203</ele>
        <time>2021-11-04T08:34:44Z</time>
      </trkpt>
      <trkpt lat="46.41148" lon="0.28141">
        <ele>122.07709083613</ele>
        <time>2021-11-04T08:34:46Z</time>
      </trkpt>
      <trkpt lat="46.41148" lon="0.28144">
        <ele>122.52974567842</ele>
        <time>2021-11-04T08:34:48Z</time>
      </trkpt>
      <trkpt lat="46.41148" lon="0.28149">
        <ele>122.07644320186</ele>
        <time>2021-11-04T08:34:50Z</time>
      </trkpt>
      <trkpt lat="46.41149" lon="0.28152">
        <ele>122.47132466733</ele>
        <time>2021-11-04T08:34:52Z</time>
      </trkpt>
      <trkpt lat="46.41149" lon="0.28156">
        <ele>122.1646564994</ele>
        <time>2021-11-04T08:34:54Z</time>
      </trkpt>
      <trkpt lat="46.41149" lon="0.2816">
        <ele>121.7656964073</ele>
        <time>2021-11-04T08:34:56Z</time>
      </trkpt>
      <trkpt lat="46.41149" lon="0.28164">
        <ele>122.05351866875</ele>
        <time>2021-11-04T08:34:58Z</time>
      </trkpt>
      <trkpt lat="46.41149" lon="0.28167">
        <ele>122.46926369984</ele>
        <time>2021-11-04T08:35:00Z</time>
      </trkpt>
      <trkpt lat="46.41149" lon="0.2817">
        <ele>122.15238964092</ele>
        <time>2021-11-04T08:35:02Z</time>
      </trkpt>
      <trkpt lat="46.4115" lon="0.28175">
        <ele>121.89321386442</ele>
        <time>2021-11-04T08:35:04Z</time>
      </trkpt>
      <trkpt lat="46.4115" lon="0.28178">
        <ele>122.38815975003</ele>
        <time>2021-11-04T08:35:06Z</time>
      </trkpt>
      <trkpt lat="46.4115" lon="0.28182">
        <ele>122.47694013361</ele>
        <time>2021-11-04T08:35:08Z</time>
      </trkpt>
      <trkpt lat="46.4115" lon="0.28184">
        <ele>122.10649708472</ele>
        <time>2021-11-04T08:35:10Z</time>
      </trkpt>
      <trkpt lat="46.4115" lon="0.28188">
        <ele>121.965650497</ele>
        <time>2021-11-04T08:35:12Z</time>
      </trkpt>
      <trkpt lat="46.4115" lon="0.28192">
        <ele>122.37193613686</ele>
        <time>2021-11-04T08:35:14Z</time>
      </trkpt>
      <trkpt lat="46.4115" lon="0.28195">
        <ele>122.39590505976</ele>
        <time>2021-11-04T08:35:16Z</time>
      </trkpt>
      <trkpt lat="46.4115" lon="0.28198">
        <ele>122.43526950944</ele>
        <time>2021-11-04T08:35:18Z</time>
      </trkpt>
      <trkpt lat="46.4115" lon="0.28201">
        <ele>122.36974429991</ele>
        <time>2021-11-04T08:35:20Z</time>
      </trkpt>
      <trkpt lat="46.4115" lon="0.28205">
        <ele>121.98215842899</ele>
        <time>2021-11-04T08:35:22Z</time>
      </trkpt>
      <trkpt lat="46.4115" lon="0.2821">
        <ele>121.89084158186</ele>
        <time>2021-11-04T08:35:25Z</time>
      </trkpt>
      <trkpt lat="46.4115" lon="0.28214">
        <ele>122.11961322185</ele>
        <time>2021-11-04T08:35:27Z</time>
      </trkpt>
      <trkpt lat="46.4115" lon="0.28217">
        <ele>122.08232067805</ele>
        <time>2021-11-04T08:35:29Z</time>
      </trkpt>
      <trkpt lat="46.41151" lon="0.28219">
        <ele>121.7338190265</ele>
        <time>2021-11-04T08:35:30Z</time>
      </trkpt>
      <trkpt lat="46.4115" lon="0.28222">
        <ele>121.77309519332</ele>
        <time>2021-11-04T08:35:32Z</time>
      </trkpt>
      <trkpt lat="46.4115" lon="0.28226">
        <ele>121.52539320383</ele>
        <time>2021-11-04T08:35:34Z</time>
      </trkpt>
      <trkpt lat="46.4115" lon="0.2823">
        <ele>121.76383790374</ele>
        <time>2021-11-04T08:35:36Z</time>
      </trkpt>
      <trkpt lat="46.4115" lon="0.28234">
        <ele>121.4404881373</ele>
        <time>2021-11-04T08:35:39Z</time>
      </trkpt>
      <trkpt lat="46.4115" lon="0.28238">
        <ele>121.73791969754</ele>
        <time>2021-11-04T08:35:41Z</time>
      </trkpt>
      <trkpt lat="46.4115" lon="0.28241">
        <ele>121.34607469197</ele>
        <time>2021-11-04T08:35:43Z</time>
      </trkpt>
      <trkpt lat="46.4115" lon="0.28245">
        <ele>121.41474023182</ele>
        <time>2021-11-04T08:35:45Z</time>
      </trkpt>
      <trkpt lat="46.4115" lon="0.28248">
        <ele>121.26303411555</ele>
        <time>2021-11-04T08:35:47Z</time>
      </trkpt>
      <trkpt lat="46.4115" lon="0.2825">
        <ele>121.45727311075</ele>
        <time>2021-11-04T08:35:48Z</time>
      </trkpt>
      <trkpt lat="46.4115" lon="0.28254">
        <ele>121.23180154338</ele>
        <time>2021-11-04T08:35:50Z</time>
      </trkpt>
      <trkpt lat="46.41149" lon="0.28258">
        <ele>121.21631239727</ele>
        <time>2021-11-04T08:35:52Z</time>
      </trkpt>
      <trkpt lat="46.41149" lon="0.28261">
        <ele>121.65130652208</ele>
        <time>2021-11-04T08:35:54Z</time>
      </trkpt>
      <trkpt lat="46.41149" lon="0.28265">
        <ele>121.6824187357</ele>
        <time>2021-11-04T08:35:56Z</time>
      </trkpt>
      <trkpt lat="46.41149" lon="0.28269">
        <ele>121.36716007534</ele>
        <time>2021-11-04T08:35:58Z</time>
      </trkpt>
      <trkpt lat="46.41149" lon="0.28272">
        <ele>121.62173546851</ele>
        <time>2021-11-04T08:36:00Z</time>
      </trkpt>
      <trkpt lat="46.41149" lon="0.28276">
        <ele>121.57364076469</ele>
        <time>2021-11-04T08:36:02Z</time>
      </trkpt>
      <trkpt lat="46.41149" lon="0.28279">
        <ele>121.68809901085</ele>
        <time>2021-11-04T08:36:04Z</time>
      </trkpt>
      <trkpt lat="46.41149" lon="0.28282">
        <ele>121.14588395879</ele>
        <time>2021-11-04T08:36:06Z</time>
      </trkpt>
      <trkpt lat="46.41149" lon="0.28286">
        <ele>121.63880615961</ele>
        <time>2021-11-04T08:36:08Z</time>
      </trkpt>
      <trkpt lat="46.41148" lon="0.28289">
        <ele>121.23601749446</ele>
        <time>2021-11-04T08:36:10Z</time>
      </trkpt>
      <trkpt lat="46.41148" lon="0.28292">
        <ele>121.63973597623</ele>
        <time>2021-11-04T08:36:12Z</time>
      </trkpt>
      <trkpt lat="46.41148" lon="0.28296">
        <ele>121.54362040665</ele>
        <time>2021-11-04T08:36:14Z</time>
      </trkpt>
      <trkpt lat="46.41148" lon="0.28299">
        <ele>121.4040340865</ele>
        <time>2021-11-04T08:36:16Z</time>
      </trkpt>
      <trkpt lat="46.41148" lon="0.28303">
        <ele>121.68237210251</ele>
        <time>2021-11-04T08:36:18Z</time>
      </trkpt>
      <trkpt lat="46.41148" lon="0.28306">
        <ele>121.53839418292</ele>
        <time>2021-11-04T08:36:20Z</time>
      </trkpt>
      <trkpt lat="46.41148" lon="0.28309">
        <ele>121.40582682192</ele>
        <time>2021-11-04T08:36:22Z</time>
      </trkpt>
      <trkpt lat="46.41148" lon="0.28312">
        <ele>121.4970841473</ele>
        <time>2021-11-04T08:36:24Z</time>
      </trkpt>
      <trkpt lat="46.41148" lon="0.28316">
        <ele>121.17308750842</ele>
        <time>2021-11-04T08:36:26Z</time>
      </trkpt>
      <trkpt lat="46.41148" lon="0.28319">
        <ele>121.03644109052</ele>
        <time>2021-11-04T08:36:28Z</time>
      </trkpt>
      <trkpt lat="46.41148" lon="0.28323">
        <ele>121.30548091419</ele>
        <time>2021-11-04T08:36:30Z</time>
      </trkpt>
      <trkpt lat="46.41148" lon="0.28327">
        <ele>121.21076979022</ele>
        <time>2021-11-04T08:36:32Z</time>
      </trkpt>
      <trkpt lat="46.41147" lon="0.2833">
        <ele>121.38932785578</ele>
        <time>2021-11-04T08:36:34Z</time>
      </trkpt>
      <trkpt lat="46.41147" lon="0.28334">
        <ele>120.46942102537</ele>
        <time>2021-11-04T08:36:36Z</time>
      </trkpt>
      <trkpt lat="46.41147" lon="0.28338">
        <ele>120.19511722215</ele>
        <time>2021-11-04T08:36:38Z</time>
      </trkpt>
      <trkpt lat="46.41147" lon="0.28341">
        <ele>120.32046812773</ele>
        <time>2021-11-04T08:36:40Z</time>
      </trkpt>
      <trkpt lat="46.41146" lon="0.28344">
        <ele>120.88058629632</ele>
        <time>2021-11-04T08:36:42Z</time>
      </trkpt>
      <trkpt lat="46.41146" lon="0.28348">
        <ele>120.60929661524</ele>
        <time>2021-11-04T08:36:44Z</time>
      </trkpt>
      <trkpt lat="46.41146" lon="0.28351">
        <ele>120.55639776494</ele>
        <time>2021-11-04T08:36:46Z</time>
      </trkpt>
      <trkpt lat="46.41146" lon="0.28354">
        <ele>120.62280884851</ele>
        <time>2021-11-04T08:36:47Z</time>
      </trkpt>
      <trkpt lat="46.41146" lon="0.28358">
        <ele>120.77985073719</ele>
        <time>2021-11-04T08:36:49Z</time>
      </trkpt>
      <trkpt lat="46.41146" lon="0.28361">
        <ele>120.08840855304</ele>
        <time>2021-11-04T08:36:51Z</time>
      </trkpt>
      <trkpt lat="46.41146" lon="0.28364">
        <ele>120.41548037808</ele>
        <time>2021-11-04T08:36:53Z</time>
      </trkpt>
      <trkpt lat="46.41146" lon="0.28368">
        <ele>120.65258685406</ele>
        <time>2021-11-04T08:36:55Z</time>
      </trkpt>
      <trkpt lat="46.41146" lon="0.28373">
        <ele>120.7604989009</ele>
        <time>2021-11-04T08:36:57Z</time>
      </trkpt>
      <trkpt lat="46.41146" lon="0.28375">
        <ele>120.4422544241</ele>
        <time>2021-11-04T08:36:59Z</time>
      </trkpt>
      <trkpt lat="46.41146" lon="0.28379">
        <ele>119.94050226547</ele>
        <time>2021-11-04T08:37:01Z</time>
      </trkpt>
      <trkpt lat="46.41146" lon="0.28382">
        <ele>120.58247068338</ele>
        <time>2021-11-04T08:37:03Z</time>
      </trkpt>
      <trkpt lat="46.41146" lon="0.28387">
        <ele>120.17758859135</ele>
        <time>2021-11-04T08:37:05Z</time>
      </trkpt>
      <trkpt lat="46.41146" lon="0.28391">
        <ele>120.33913466707</ele>
        <time>2021-11-04T08:37:07Z</time>
      </trkpt>
      <trkpt lat="46.41146" lon="0.28394">
        <ele>119.99956396129</ele>
        <time>2021-11-04T08:37:09Z</time>
      </trkpt>
      <trkpt lat="46.41146" lon="0.28399">
        <ele>120.48675384745</ele>
        <time>2021-11-04T08:37:11Z</time>
      </trkpt>
      <trkpt lat="46.41146" lon="0.28402">
        <ele>120.34826733451</ele>
        <time>2021-11-04T08:37:13Z</time>
      </trkpt>
      <trkpt lat="46.41146" lon="0.28405">
        <ele>120.572176449</ele>
        <time>2021-11-04T08:37:15Z</time>
      </trkpt>
      <trkpt lat="46.41146" lon="0.28409">
        <ele>120.0428716084</ele>
        <time>2021-11-04T08:37:17Z</time>
      </trkpt>
      <trkpt lat="46.41146" lon="0.28412">
        <ele>120.13796810713</ele>
        <time>2021-11-04T08:37:19Z</time>
      </trkpt>
      <trkpt lat="46.41146" lon="0.28417">
        <ele>120.35573147703</ele>
        <time>2021-11-04T08:37:21Z</time>
      </trkpt>
      <trkpt lat="46.41146" lon="0.2842">
        <ele>120.69340454787</ele>
        <time>2021-11-04T08:37:23Z</time>
      </trkpt>
      <trkpt lat="46.41146" lon="0.28424">
        <ele>119.81802718528</ele>
        <time>2021-11-04T08:37:25Z</time>
      </trkpt>
      <trkpt lat="46.41147" lon="0.28428">
        <ele>120.35962144192</ele>
        <time>2021-11-04T08:37:28Z</time>
      </trkpt>
      <trkpt lat="46.41147" lon="0.28432">
        <ele>119.78766229842</ele>
        <time>2021-11-04T08:37:30Z</time>
      </trkpt>
      <trkpt lat="46.41147" lon="0.28435">
        <ele>120.03746135905</ele>
        <time>2021-11-04T08:37:32Z</time>
      </trkpt>
      <trkpt lat="46.41147" lon="0.28439">
        <ele>119.35935498308</ele>
        <time>2021-11-04T08:37:34Z</time>
      </trkpt>
      <trkpt lat="46.41147" lon="0.28443">
        <ele>119.89525821526</ele>
        <time>2021-11-04T08:37:36Z</time>
      </trkpt>
      <trkpt lat="46.41147" lon="0.28446">
        <ele>119.52482011914</ele>
        <time>2021-11-04T08:37:38Z</time>
      </trkpt>
      <trkpt lat="46.41147" lon="0.2845">
        <ele>119.76486244611</ele>
        <time>2021-11-04T08:37:40Z</time>
      </trkpt>
      <trkpt lat="46.41146" lon="0.28454">
        <ele>119.30556398258</ele>
        <time>2021-11-04T08:37:42Z</time>
      </trkpt>
      <trkpt lat="46.41146" lon="0.28457">
        <ele>119.2721672412</ele>
        <time>2021-11-04T08:37:44Z</time>
      </trkpt>
      <trkpt lat="46.41146" lon="0.2846">
        <ele>119.32860763744</ele>
        <time>2021-11-04T08:37:46Z</time>
      </trkpt>
      <trkpt lat="46.41146" lon="0.28464">
        <ele>119.12750595901</ele>
        <time>2021-11-04T08:37:48Z</time>
      </trkpt>
      <trkpt lat="46.41146" lon="0.28467">
        <ele>118.82753398083</ele>
        <time>2021-11-04T08:37:50Z</time>
      </trkpt>
      <trkpt lat="46.41145" lon="0.28471">
        <ele>119.07848104648</ele>
        <time>2021-11-04T08:37:52Z</time>
      </trkpt>
      <trkpt lat="46.41145" lon="0.28475">
        <ele>118.85104706697</ele>
        <time>2021-11-04T08:37:54Z</time>
      </trkpt>
      <trkpt lat="46.41145" lon="0.28478">
        <ele>119.15300008282</ele>
        <time>2021-11-04T08:37:56Z</time>
      </trkpt>
      <trkpt lat="46.41145" lon="0.28482">
        <ele>118.86340318155</ele>
        <time>2021-11-04T08:37:58Z</time>
      </trkpt>
      <trkpt lat="46.41144" lon="0.28485">
        <ele>119.04578824434</ele>
        <time>2021-11-04T08:38:00Z</time>
      </trkpt>
      <trkpt lat="46.41144" lon="0.28488">
        <ele>118.85270169377</ele>
        <time>2021-11-04T08:38:02Z</time>
      </trkpt>
      <trkpt lat="46.41143" lon="0.28492">
        <ele>118.41326887626</ele>
        <time>2021-11-04T08:38:04Z</time>
      </trkpt>
      <trkpt lat="46.41142" lon="0.28495">
        <ele>118.95134443138</ele>
        <time>2021-11-04T08:38:06Z</time>
      </trkpt>
      <trkpt lat="46.41142" lon="0.28499">
        <ele>118.79706978332</ele>
        <time>2021-11-04T08:38:08Z</time>
      </trkpt>
      <trkpt lat="46.41141" lon="0.28502">
        <ele>118.64105100371</ele>
        <time>2021-11-04T08:38:10Z</time>
      </trkpt>
      <trkpt lat="46.4114" lon="0.28506">
        <ele>118.11818396579</ele>
        <time>2021-11-04T08:38:12Z</time>
      </trkpt>
      <trkpt lat="46.4114" lon="0.28509">
        <ele>118.84792630561</ele>
        <time>2021-11-04T08:38:14Z</time>
      </trkpt>
      <trkpt lat="46.41139" lon="0.28511">
        <ele>118.70158559363</ele>
        <time>2021-11-04T08:38:16Z</time>
      </trkpt>
      <trkpt lat="46.41139" lon="0.28515">
        <ele>118.36288530566</ele>
        <time>2021-11-04T08:38:18Z</time>
      </trkpt>
      <trkpt lat="46.41138" lon="0.28518">
        <ele>118.35011166893</ele>
        <time>2021-11-04T08:38:20Z</time>
      </trkpt>
      <trkpt lat="46.41138" lon="0.28522">
        <ele>118.29605751205</ele>
        <time>2021-11-04T08:38:22Z</time>
      </trkpt>
      <trkpt lat="46.41137" lon="0.28526">
        <ele>118.25923307054</ele>
        <time>2021-11-04T08:38:25Z</time>
      </trkpt>
      <trkpt lat="46.41136" lon="0.2853">
        <ele>118.72295884788</ele>
        <time>2021-11-04T08:38:27Z</time>
      </trkpt>
      <trkpt lat="46.41135" lon="0.28534">
        <ele>118.82196240127</ele>
        <time>2021-11-04T08:38:29Z</time>
      </trkpt>
      <trkpt lat="46.41134" lon="0.28538">
        <ele>118.49521187134</ele>
        <time>2021-11-04T08:38:31Z</time>
      </trkpt>
      <trkpt lat="46.41134" lon="0.28541">
        <ele>118.65081563313</ele>
        <time>2021-11-04T08:38:33Z</time>
      </trkpt>
      <trkpt lat="46.41133" lon="0.28545">
        <ele>118.47957958747</ele>
        <time>2021-11-04T08:38:35Z</time>
      </trkpt>
      <trkpt lat="46.41132" lon="0.2855">
        <ele>118.99203330092</ele>
        <time>2021-11-04T08:38:38Z</time>
      </trkpt>
      <trkpt lat="46.41131" lon="0.28553">
        <ele>118.90691257268</ele>
        <time>2021-11-04T08:38:40Z</time>
      </trkpt>
      <trkpt lat="46.4113" lon="0.28557">
        <ele>118.46469836961</ele>
        <time>2021-11-04T08:38:42Z</time>
      </trkpt>
      <trkpt lat="46.41129" lon="0.2856">
        <ele>119.04492916632</ele>
        <time>2021-11-04T08:38:44Z</time>
      </trkpt>
      <trkpt lat="46.41129" lon="0.28564">
        <ele>118.66630929057</ele>
        <time>2021-11-04T08:38:46Z</time>
      </trkpt>
      <trkpt lat="46.41128" lon="0.28567">
        <ele>118.88943303563</ele>
        <time>2021-11-04T08:38:48Z</time>
      </trkpt>
      <trkpt lat="46.41127" lon="0.28571">
        <ele>119.09445551783</ele>
        <time>2021-11-04T08:38:50Z</time>
      </trkpt>
      <trkpt lat="46.41126" lon="0.28574">
        <ele>118.92112645134</ele>
        <time>2021-11-04T08:38:52Z</time>
      </trkpt>
      <trkpt lat="46.41126" lon="0.28577">
        <ele>118.53705774248</ele>
        <time>2021-11-04T08:38:54Z</time>
      </trkpt>
      <trkpt lat="46.41125" lon="0.28581">
        <ele>118.99694955721</ele>
        <time>2021-11-04T08:38:56Z</time>
      </trkpt>
      <trkpt lat="46.41124" lon="0.28585">
        <ele>119.46594976727</ele>
        <time>2021-11-04T08:38:58Z</time>
      </trkpt>
      <trkpt lat="46.41123" lon="0.28587">
        <ele>118.88158065081</ele>
        <time>2021-11-04T08:39:00Z</time>
      </trkpt>
      <trkpt lat="46.41123" lon="0.28591">
        <ele>119.00344126765</ele>
        <time>2021-11-04T08:39:02Z</time>
      </trkpt>
      <trkpt lat="46.41122" lon="0.28593">
        <ele>118.94001067337</ele>
        <time>2021-11-04T08:39:04Z</time>
      </trkpt>
      <trkpt lat="46.41121" lon="0.28597">
        <ele>119.6198082529</ele>
        <time>2021-11-04T08:39:06Z</time>
      </trkpt>
      <trkpt lat="46.41121" lon="0.286">
        <ele>119.42907029204</ele>
        <time>2021-11-04T08:39:08Z</time>
      </trkpt>
      <trkpt lat="46.4112" lon="0.28603">
        <ele>119.45864077099</ele>
        <time>2021-11-04T08:39:11Z</time>
      </trkpt>
      <trkpt lat="46.41121" lon="0.28606">
        <ele>119.50858038757</ele>
        <time>2021-11-04T08:39:15Z</time>
      </trkpt>
      <trkpt lat="46.4112" lon="0.28609">
        <ele>119.27921401244</ele>
        <time>2021-11-04T08:39:22Z</time>
      </trkpt>
      <trkpt lat="46.41122" lon="0.2861">
        <ele>119.19328038581</ele>
        <time>2021-11-04T08:39:49Z</time>
      </trkpt>
      <trkpt lat="46.41123" lon="0.28612">
        <ele>119.27143018227</ele>
        <time>2021-11-04T08:39:53Z</time>
      </trkpt>
      <trkpt lat="46.41122" lon="0.2861">
        <ele>118.67596186884</ele>
        <time>2021-11-04T08:40:19Z</time>
      </trkpt>
      <trkpt lat="46.41122" lon="0.28612">
        <ele>119.10700564273</ele>
        <time>2021-11-04T08:40:52Z</time>
      </trkpt>
      <trkpt lat="46.41124" lon="0.28611">
        <ele>118.49567206204</ele>
        <time>2021-11-04T08:40:59Z</time>
      </trkpt>
      <trkpt lat="46.41126" lon="0.2861">
        <ele>118.95068642683</ele>
        <time>2021-11-04T08:41:00Z</time>
      </trkpt>
      <trkpt lat="46.41129" lon="0.28609">
        <ele>118.4332643887</ele>
        <time>2021-11-04T08:41:02Z</time>
      </trkpt>
      <trkpt lat="46.41132" lon="0.28608">
        <ele>118.68512068968</ele>
        <time>2021-11-04T08:41:04Z</time>
      </trkpt>
      <trkpt lat="46.41134" lon="0.28608">
        <ele>118.83985331748</ele>
        <time>2021-11-04T08:41:06Z</time>
      </trkpt>
      <trkpt lat="46.41137" lon="0.28608">
        <ele>118.61950707994</ele>
        <time>2021-11-04T08:41:08Z</time>
      </trkpt>
      <trkpt lat="46.41139" lon="0.28608">
        <ele>119.47315965313</ele>
        <time>2021-11-04T08:41:10Z</time>
      </trkpt>
      <trkpt lat="46.41141" lon="0.28608">
        <ele>118.82370803226</ele>
        <time>2021-11-04T08:41:12Z</time>
      </trkpt>
      <trkpt lat="46.41144" lon="0.28607">
        <ele>119.29405681137</ele>
        <time>2021-11-04T08:41:14Z</time>
      </trkpt>
      <trkpt lat="46.41146" lon="0.28607">
        <ele>118.75337955169</ele>
        <time>2021-11-04T08:41:16Z</time>
      </trkpt>
      <trkpt lat="46.41148" lon="0.28607">
        <ele>118.76479131263</ele>
        <time>2021-11-04T08:41:18Z</time>
      </trkpt>
      <trkpt lat="46.41151" lon="0.28607">
        <ele>119.07711341605</ele>
        <time>2021-11-04T08:41:20Z</time>
      </trkpt>
      <trkpt lat="46.41153" lon="0.28607">
        <ele>119.17057187017</ele>
        <time>2021-11-04T08:41:21Z</time>
      </trkpt>
      <trkpt lat="46.41155" lon="0.28607">
        <ele>118.73614716902</ele>
        <time>2021-11-04T08:41:23Z</time>
      </trkpt>
      <trkpt lat="46.41158" lon="0.28607">
        <ele>118.7579720011</ele>
        <time>2021-11-04T08:41:25Z</time>
      </trkpt>
      <trkpt lat="46.4116" lon="0.28607">
        <ele>118.79837372713</ele>
        <time>2021-11-04T08:41:27Z</time>
      </trkpt>
      <trkpt lat="46.41162" lon="0.28608">
        <ele>118.60331242811</ele>
        <time>2021-11-04T08:41:29Z</time>
      </trkpt>
      <trkpt lat="46.41164" lon="0.28608">
        <ele>118.50601002201</ele>
        <time>2021-11-04T08:41:31Z</time>
      </trkpt>
      <trkpt lat="46.41166" lon="0.28608">
        <ele>118.73831113242</ele>
        <time>2021-11-04T08:41:33Z</time>
      </trkpt>
      <trkpt lat="46.41169" lon="0.28609">
        <ele>118.47754266858</ele>
        <time>2021-11-04T08:41:35Z</time>
      </trkpt>
      <trkpt lat="46.41171" lon="0.28609">
        <ele>118.44165675994</ele>
        <time>2021-11-04T08:41:37Z</time>
      </trkpt>
      <trkpt lat="46.41173" lon="0.2861">
        <ele>118.32945044804</ele>
        <time>2021-11-04T08:41:39Z</time>
      </trkpt>
      <trkpt lat="46.41176" lon="0.2861">
        <ele>118.21591089293</ele>
        <time>2021-11-04T08:41:41Z</time>
      </trkpt>
      <trkpt lat="46.41178" lon="0.28611">
        <ele>118.38084078673</ele>
        <time>2021-11-04T08:41:43Z</time>
      </trkpt>
      <trkpt lat="46.41182" lon="0.28611">
        <ele>118.41569371615</ele>
        <time>2021-11-04T08:41:45Z</time>
      </trkpt>
      <trkpt lat="46.41184" lon="0.28612">
        <ele>118.32592742983</ele>
        <time>2021-11-04T08:41:47Z</time>
      </trkpt>
      <trkpt lat="46.41187" lon="0.28613">
        <ele>118.27205009758</ele>
        <time>2021-11-04T08:41:49Z</time>
      </trkpt>
      <trkpt lat="46.41189" lon="0.28614">
        <ele>118.4419797482</ele>
        <time>2021-11-04T08:41:51Z</time>
      </trkpt>
      <trkpt lat="46.41192" lon="0.28614">
        <ele>118.15709094051</ele>
        <time>2021-11-04T08:41:53Z</time>
      </trkpt>
      <trkpt lat="46.41194" lon="0.28615">
        <ele>118.57470167056</ele>
        <time>2021-11-04T08:41:55Z</time>
      </trkpt>
      <trkpt lat="46.41196" lon="0.28616">
        <ele>118.66136236675</ele>
        <time>2021-11-04T08:41:57Z</time>
      </trkpt>
      <trkpt lat="46.41198" lon="0.28616">
        <ele>118.33549736626</ele>
        <time>2021-11-04T08:41:59Z</time>
      </trkpt>
      <trkpt lat="46.41201" lon="0.28616">
        <ele>118.21484082472</ele>
        <time>2021-11-04T08:42:01Z</time>
      </trkpt>
      <trkpt lat="46.41203" lon="0.28617">
        <ele>118.57437449228</ele>
        <time>2021-11-04T08:42:03Z</time>
      </trkpt>
      <trkpt lat="46.41206" lon="0.28617">
        <ele>118.52082891203</ele>
        <time>2021-11-04T08:42:05Z</time>
      </trkpt>
      <trkpt lat="46.41208" lon="0.28618">
        <ele>118.39936185721</ele>
        <time>2021-11-04T08:42:07Z</time>
      </trkpt>
      <trkpt lat="46.4121" lon="0.28618">
        <ele>117.96925113257</ele>
        <time>2021-11-04T08:42:09Z</time>
      </trkpt>
      <trkpt lat="46.41213" lon="0.28619">
        <ele>117.93087518122</ele>
        <time>2021-11-04T08:42:11Z</time>
      </trkpt>
      <trkpt lat="46.41216" lon="0.2862">
        <ele>118.21042024996</ele>
        <time>2021-11-04T08:42:13Z</time>
      </trkpt>
      <trkpt lat="46.41218" lon="0.2862">
        <ele>117.77987684403</ele>
        <time>2021-11-04T08:42:15Z</time>
      </trkpt>
      <trkpt lat="46.41221" lon="0.2862">
        <ele>117.68904152233</ele>
        <time>2021-11-04T08:42:17Z</time>
      </trkpt>
      <trkpt lat="46.41224" lon="0.28621">
        <ele>117.47268812079</ele>
        <time>2021-11-04T08:42:19Z</time>
      </trkpt>
      <trkpt lat="46.41227" lon="0.28621">
        <ele>117.97769426741</ele>
        <time>2021-11-04T08:42:21Z</time>
      </trkpt>
      <trkpt lat="46.41229" lon="0.28621">
        <ele>117.63437508699</ele>
        <time>2021-11-04T08:42:23Z</time>
      </trkpt>
      <trkpt lat="46.4123" lon="0.28621">
        <ele>117.9416234782</ele>
        <time>2021-11-04T08:42:24Z</time>
      </trkpt>
      <trkpt lat="46.41233" lon="0.28621">
        <ele>117.78381127119</ele>
        <time>2021-11-04T08:42:26Z</time>
      </trkpt>
      <trkpt lat="46.41236" lon="0.2862">
        <ele>117.40596690401</ele>
        <time>2021-11-04T08:42:28Z</time>
      </trkpt>
      <trkpt lat="46.41238" lon="0.2862">
        <ele>117.44441144075</ele>
        <time>2021-11-04T08:42:30Z</time>
      </trkpt>
      <trkpt lat="46.41241" lon="0.2862">
        <ele>117.41100398824</ele>
        <time>2021-11-04T08:42:32Z</time>
      </trkpt>
      <trkpt lat="46.41244" lon="0.2862">
        <ele>117.81325697433</ele>
        <time>2021-11-04T08:42:34Z</time>
      </trkpt>
      <trkpt lat="46.41247" lon="0.28619">
        <ele>117.34693936352</ele>
        <time>2021-11-04T08:42:36Z</time>
      </trkpt>
      <trkpt lat="46.41249" lon="0.28619">
        <ele>117.44876635727</ele>
        <time>2021-11-04T08:42:38Z</time>
      </trkpt>
      <trkpt lat="46.41252" lon="0.28618">
        <ele>117.6994866142</ele>
        <time>2021-11-04T08:42:40Z</time>
      </trkpt>
      <trkpt lat="46.41255" lon="0.28618">
        <ele>117.62797852047</ele>
        <time>2021-11-04T08:42:42Z</time>
      </trkpt>
      <trkpt lat="46.41257" lon="0.28617">
        <ele>117.082027697</ele>
        <time>2021-11-04T08:42:44Z</time>
      </trkpt>
      <trkpt lat="46.41259" lon="0.28617">
        <ele>117.26468360424</ele>
        <time>2021-11-04T08:42:46Z</time>
      </trkpt>
      <trkpt lat="46.41262" lon="0.28617">
        <ele>117.42886536103</ele>
        <time>2021-11-04T08:42:48Z</time>
      </trkpt>
      <trkpt lat="46.41265" lon="0.28616">
        <ele>117.66677014623</ele>
        <time>2021-11-04T08:42:50Z</time>
      </trkpt>
      <trkpt lat="46.41266" lon="0.28616">
        <ele>117.37037642766</ele>
        <time>2021-11-04T08:42:52Z</time>
      </trkpt>
      <trkpt lat="46.41268" lon="0.28617">
        <ele>117.2937635025</ele>
        <time>2021-11-04T08:42:54Z</time>
      </trkpt>
      <trkpt lat="46.4127" lon="0.28617">
        <ele>117.63122749515</ele>
        <time>2021-11-04T08:42:56Z</time>
      </trkpt>
      <trkpt lat="46.41273" lon="0.28617">
        <ele>117.22163007315</ele>
        <time>2021-11-04T08:42:58Z</time>
      </trkpt>
      <trkpt lat="46.41275" lon="0.28616">
        <ele>117.45598225482</ele>
        <time>2021-11-04T08:43:00Z</time>
      </trkpt>
      <trkpt lat="46.41278" lon="0.28616">
        <ele>117.34722351655</ele>
        <time>2021-11-04T08:43:02Z</time>
      </trkpt>
      <trkpt lat="46.4128" lon="0.28615">
        <ele>117.38189414144</ele>
        <time>2021-11-04T08:43:04Z</time>
      </trkpt>
      <trkpt lat="46.41282" lon="0.28615">
        <ele>117.19142856542</ele>
        <time>2021-11-04T08:43:06Z</time>
      </trkpt>
      <trkpt lat="46.41285" lon="0.28614">
        <ele>117.13747970015</ele>
        <time>2021-11-04T08:43:08Z</time>
      </trkpt>
      <trkpt lat="46.41287" lon="0.28615">
        <ele>117.07742598094</ele>
        <time>2021-11-04T08:43:10Z</time>
      </trkpt>
      <trkpt lat="46.41289" lon="0.28616">
        <ele>117.12012461852</ele>
        <time>2021-11-04T08:43:12Z</time>
      </trkpt>
      <trkpt lat="46.41291" lon="0.28616">
        <ele>117.29116138909</ele>
        <time>2021-11-04T08:43:14Z</time>
      </trkpt>
      <trkpt lat="46.41293" lon="0.28616">
        <ele>117.25966569129</ele>
        <time>2021-11-04T08:43:16Z</time>
      </trkpt>
      <trkpt lat="46.41296" lon="0.28616">
        <ele>117.496785108</ele>
        <time>2021-11-04T08:43:18Z</time>
      </trkpt>
      <trkpt lat="46.41298" lon="0.28617">
        <ele>117.18665712327</ele>
        <time>2021-11-04T08:43:20Z</time>
      </trkpt>
      <trkpt lat="46.41301" lon="0.28617">
        <ele>117.4574281238</ele>
        <time>2021-11-04T08:43:22Z</time>
      </trkpt>
      <trkpt lat="46.41304" lon="0.28617">
        <ele>117.72937122546</ele>
        <time>2021-11-04T08:43:24Z</time>
      </trkpt>
      <trkpt lat="46.41307" lon="0.28617">
        <ele>117.40053411387</ele>
        <time>2021-11-04T08:43:27Z</time>
      </trkpt>
      <trkpt lat="46.41309" lon="0.28617">
        <ele>117.40823246632</ele>
        <time>2021-11-04T08:43:29Z</time>
      </trkpt>
      <trkpt lat="46.41312" lon="0.28617">
        <ele>117.82614806388</ele>
        <time>2021-11-04T08:43:31Z</time>
      </trkpt>
      <trkpt lat="46.41314" lon="0.28618">
        <ele>117.46116006095</ele>
        <time>2021-11-04T08:43:33Z</time>
      </trkpt>
      <trkpt lat="46.41316" lon="0.28618">
        <ele>117.22426823992</ele>
        <time>2021-11-04T08:43:36Z</time>
      </trkpt>
      <trkpt lat="46.41318" lon="0.28619">
        <ele>117.91016074084</ele>
        <time>2021-11-04T08:43:38Z</time>
      </trkpt>
      <trkpt lat="46.41321" lon="0.28618">
        <ele>117.50673943758</ele>
        <time>2021-11-04T08:43:40Z</time>
      </trkpt>
      <trkpt lat="46.41323" lon="0.28618">
        <ele>117.66518198512</ele>
        <time>2021-11-04T08:43:42Z</time>
      </trkpt>
      <trkpt lat="46.41326" lon="0.28619">
        <ele>117.73158427235</ele>
        <time>2021-11-04T08:43:44Z</time>
      </trkpt>
      <trkpt lat="46.41328" lon="0.28619">
        <ele>117.38763244636</ele>
        <time>2021-11-04T08:43:46Z</time>
      </trkpt>
      <trkpt lat="46.41331" lon="0.2862">
        <ele>117.55153124128</ele>
        <time>2021-11-04T08:43:48Z</time>
      </trkpt>
      <trkpt lat="46.41334" lon="0.2862">
        <ele>117.43463530019</ele>
        <time>2021-11-04T08:43:50Z</time>
      </trkpt>
      <trkpt lat="46.41336" lon="0.28621">
        <ele>117.81248853076</ele>
        <time>2021-11-04T08:43:52Z</time>
      </trkpt>
      <trkpt lat="46.41339" lon="0.28621">
        <ele>117.5904524643</ele>
        <time>2021-11-04T08:43:54Z</time>
      </trkpt>
      <trkpt lat="46.41342" lon="0.28622">
        <ele>117.45214086771</ele>
        <time>2021-11-04T08:43:56Z</time>
      </trkpt>
      <trkpt lat="46.41344" lon="0.28622">
        <ele>118.02747127693</ele>
        <time>2021-11-04T08:43:58Z</time>
      </trkpt>
      <trkpt lat="46.41346" lon="0.28623">
        <ele>117.80765193608</ele>
        <time>2021-11-04T08:44:00Z</time>
      </trkpt>
      <trkpt lat="46.41349" lon="0.28623">
        <ele>118.19742268417</ele>
        <time>2021-11-04T08:44:02Z</time>
      </trkpt>
      <trkpt lat="46.41352" lon="0.28623">
        <ele>118.29461620562</ele>
        <time>2021-11-04T08:44:04Z</time>
      </trkpt>
      <trkpt lat="46.41354" lon="0.28623">
        <ele>118.39061136637</ele>
        <time>2021-11-04T08:44:06Z</time>
      </trkpt>
      <trkpt lat="46.41357" lon="0.28624">
        <ele>118.47719026636</ele>
        <time>2021-11-04T08:44:08Z</time>
      </trkpt>
      <trkpt lat="46.4136" lon="0.28624">
        <ele>118.72025321331</ele>
        <time>2021-11-04T08:44:10Z</time>
      </trkpt>
      <trkpt lat="46.41362" lon="0.28624">
        <ele>118.37694096565</ele>
        <time>2021-11-04T08:44:12Z</time>
      </trkpt>
      <trkpt lat="46.41364" lon="0.28625">
        <ele>119.00638225488</ele>
        <time>2021-11-04T08:44:14Z</time>
      </trkpt>
      <trkpt lat="46.41367" lon="0.28626">
        <ele>118.75834243838</ele>
        <time>2021-11-04T08:44:16Z</time>
      </trkpt>
      <trkpt lat="46.41369" lon="0.28625">
        <ele>119.09598768689</ele>
        <time>2021-11-04T08:44:18Z</time>
      </trkpt>
      <trkpt lat="46.41372" lon="0.28626">
        <ele>118.63079605531</ele>
        <time>2021-11-04T08:44:20Z</time>
      </trkpt>
      <trkpt lat="46.41374" lon="0.28626">
        <ele>118.97088137176</ele>
        <time>2021-11-04T08:44:22Z</time>
      </trkpt>
      <trkpt lat="46.41377" lon="0.28626">
        <ele>119.16350529157</ele>
        <time>2021-11-04T08:44:24Z</time>
      </trkpt>
      <trkpt lat="46.41379" lon="0.28626">
        <ele>119.09943442326</ele>
        <time>2021-11-04T08:44:26Z</time>
      </trkpt>
      <trkpt lat="46.41382" lon="0.28627">
        <ele>119.16214753781</ele>
        <time>2021-11-04T08:44:28Z</time>
      </trkpt>
      <trkpt lat="46.41384" lon="0.28627">
        <ele>119.3712895792</ele>
        <time>2021-11-04T08:44:30Z</time>
      </trkpt>
      <trkpt lat="46.41386" lon="0.28627">
        <ele>119.0713665802</ele>
        <time>2021-11-04T08:44:32Z</time>
      </trkpt>
      <trkpt lat="46.41389" lon="0.28627">
        <ele>119.31114429142</ele>
        <time>2021-11-04T08:44:34Z</time>
      </trkpt>
      <trkpt lat="46.41391" lon="0.28627">
        <ele>119.18652269617</ele>
        <time>2021-11-04T08:44:36Z</time>
      </trkpt>
      <trkpt lat="46.41394" lon="0.28627">
        <ele>119.49850321561</ele>
        <time>2021-11-04T08:44:38Z</time>
      </trkpt>
      <trkpt lat="46.41397" lon="0.28628">
        <ele>119.24815219734</ele>
        <time>2021-11-04T08:44:40Z</time>
      </trkpt>
      <trkpt lat="46.41399" lon="0.28628">
        <ele>119.67103474867</ele>
        <time>2021-11-04T08:44:42Z</time>
      </trkpt>
      <trkpt lat="46.41401" lon="0.28629">
        <ele>119.22593635321</ele>
        <time>2021-11-04T08:44:44Z</time>
      </trkpt>
      <trkpt lat="46.41404" lon="0.28629">
        <ele>119.35674635693</ele>
        <time>2021-11-04T08:44:46Z</time>
      </trkpt>
      <trkpt lat="46.41406" lon="0.28629">
        <ele>119.04503386002</ele>
        <time>2021-11-04T08:44:48Z</time>
      </trkpt>
      <trkpt lat="46.41409" lon="0.2863">
        <ele>119.78933267202</ele>
        <time>2021-11-04T08:44:50Z</time>
      </trkpt>
      <trkpt lat="46.41411" lon="0.2863">
        <ele>119.26683730073</ele>
        <time>2021-11-04T08:44:53Z</time>
      </trkpt>
      <trkpt lat="46.41413" lon="0.28631">
        <ele>119.47048538364</ele>
        <time>2021-11-04T08:44:54Z</time>
      </trkpt>
      <trkpt lat="46.41415" lon="0.2863">
        <ele>119.25692747999</ele>
        <time>2021-11-04T08:44:56Z</time>
      </trkpt>
      <trkpt lat="46.41417" lon="0.28631">
        <ele>119.08674161416</ele>
        <time>2021-11-04T08:44:58Z</time>
      </trkpt>
      <trkpt lat="46.41419" lon="0.28632">
        <ele>119.14448105078</ele>
        <time>2021-11-04T08:45:01Z</time>
      </trkpt>
      <trkpt lat="46.41421" lon="0.28633">
        <ele>119.30849752482</ele>
        <time>2021-11-04T08:45:03Z</time>
      </trkpt>
      <trkpt lat="46.41423" lon="0.28633">
        <ele>119.17212715093</ele>
        <time>2021-11-04T08:45:05Z</time>
      </trkpt>
      <trkpt lat="46.41425" lon="0.28633">
        <ele>119.35699222982</ele>
        <time>2021-11-04T08:45:07Z</time>
      </trkpt>
      <trkpt lat="46.41428" lon="0.28633">
        <ele>119.61310165096</ele>
        <time>2021-11-04T08:45:10Z</time>
      </trkpt>
      <trkpt lat="46.41431" lon="0.28633">
        <ele>119.84543045796</ele>
        <time>2021-11-04T08:45:13Z</time>
      </trkpt>
      <trkpt lat="46.41432" lon="0.28633">
        <ele>119.26711086836</ele>
        <time>2021-11-04T08:45:15Z</time>
      </trkpt>
      <trkpt lat="46.41436" lon="0.28635">
        <ele>119.77524831612</ele>
        <time>2021-11-04T08:45:17Z</time>
      </trkpt>
      <trkpt lat="46.41439" lon="0.28636">
        <ele>119.63566924352</ele>
        <time>2021-11-04T08:45:19Z</time>
      </trkpt>
      <trkpt lat="46.41442" lon="0.28637">
        <ele>119.61330574006</ele>
        <time>2021-11-04T08:45:21Z</time>
      </trkpt>
      <trkpt lat="46.41445" lon="0.28637">
        <ele>119.25033154618</ele>
        <time>2021-11-04T08:45:23Z</time>
      </trkpt>
      <trkpt lat="46.41447" lon="0.28637">
        <ele>119.31536631938</ele>
        <time>2021-11-04T08:45:25Z</time>
      </trkpt>
      <trkpt lat="46.41449" lon="0.28638">
        <ele>119.35011302773</ele>
        <time>2021-11-04T08:45:27Z</time>
      </trkpt>
      <trkpt lat="46.41451" lon="0.28639">
        <ele>119.3027622411</ele>
        <time>2021-11-04T08:45:29Z</time>
      </trkpt>
      <trkpt lat="46.41455" lon="0.28639">
        <ele>119.78414063342</ele>
        <time>2021-11-04T08:45:31Z</time>
      </trkpt>
      <trkpt lat="46.41457" lon="0.2864">
        <ele>119.43469590601</ele>
        <time>2021-11-04T08:45:33Z</time>
      </trkpt>
      <trkpt lat="46.41459" lon="0.28642">
        <ele>119.36025529075</ele>
        <time>2021-11-04T08:45:35Z</time>
      </trkpt>
      <trkpt lat="46.41462" lon="0.28642">
        <ele>119.45076389797</ele>
        <time>2021-11-04T08:45:37Z</time>
      </trkpt>
      <trkpt lat="46.41464" lon="0.28643">
        <ele>120.14576649945</ele>
        <time>2021-11-04T08:45:39Z</time>
      </trkpt>
      <trkpt lat="46.41467" lon="0.28644">
        <ele>119.43303384166</ele>
        <time>2021-11-04T08:45:41Z</time>
      </trkpt>
      <trkpt lat="46.41469" lon="0.28644">
        <ele>119.77849054057</ele>
        <time>2021-11-04T08:45:43Z</time>
      </trkpt>
      <trkpt lat="46.41472" lon="0.28645">
        <ele>119.43582468852</ele>
        <time>2021-11-04T08:45:45Z</time>
      </trkpt>
      <trkpt lat="46.41475" lon="0.28646">
        <ele>119.73409846425</ele>
        <time>2021-11-04T08:45:47Z</time>
      </trkpt>
      <trkpt lat="46.41477" lon="0.28648">
        <ele>119.07861057576</ele>
        <time>2021-11-04T08:45:49Z</time>
      </trkpt>
      <trkpt lat="46.4148" lon="0.28649">
        <ele>119.44510356709</ele>
        <time>2021-11-04T08:45:51Z</time>
      </trkpt>
      <trkpt lat="46.41483" lon="0.28651">
        <ele>119.64454849064</ele>
        <time>2021-11-04T08:45:53Z</time>
      </trkpt>
      <trkpt lat="46.41484" lon="0.28653">
        <ele>119.22981721815</ele>
        <time>2021-11-04T08:45:55Z</time>
      </trkpt>
      <trkpt lat="46.41487" lon="0.28654">
        <ele>119.1861335244</ele>
        <time>2021-11-04T08:45:57Z</time>
      </trkpt>
      <trkpt lat="46.4149" lon="0.28654">
        <ele>119.50123635959</ele>
        <time>2021-11-04T08:45:59Z</time>
      </trkpt>
      <trkpt lat="46.41492" lon="0.28656">
        <ele>119.2380495565</ele>
        <time>2021-11-04T08:46:01Z</time>
      </trkpt>
      <trkpt lat="46.41495" lon="0.28657">
        <ele>119.41819749121</ele>
        <time>2021-11-04T08:46:03Z</time>
      </trkpt>
      <trkpt lat="46.41497" lon="0.28658">
        <ele>119.3448216822</ele>
        <time>2021-11-04T08:46:05Z</time>
      </trkpt>
      <trkpt lat="46.415" lon="0.28659">
        <ele>119.35660634469</ele>
        <time>2021-11-04T08:46:07Z</time>
      </trkpt>
      <trkpt lat="46.41502" lon="0.2866">
        <ele>119.25605606567</ele>
        <time>2021-11-04T08:46:09Z</time>
      </trkpt>
      <trkpt lat="46.41504" lon="0.28661">
        <ele>119.10987115838</ele>
        <time>2021-11-04T08:46:11Z</time>
      </trkpt>
      <trkpt lat="46.41507" lon="0.28661">
        <ele>119.19645580743</ele>
        <time>2021-11-04T08:46:13Z</time>
      </trkpt>
      <trkpt lat="46.41509" lon="0.28662">
        <ele>119.30614885874</ele>
        <time>2021-11-04T08:46:15Z</time>
      </trkpt>
      <trkpt lat="46.41511" lon="0.28662">
        <ele>119.45882650837</ele>
        <time>2021-11-04T08:46:17Z</time>
      </trkpt>
      <trkpt lat="46.41514" lon="0.28663">
        <ele>119.46022083424</ele>
        <time>2021-11-04T08:46:19Z</time>
      </trkpt>
      <trkpt lat="46.41516" lon="0.28664">
        <ele>119.3764362121</ele>
        <time>2021-11-04T08:46:21Z</time>
      </trkpt>
      <trkpt lat="46.41518" lon="0.28664">
        <ele>119.2450527288</ele>
        <time>2021-11-04T08:46:23Z</time>
      </trkpt>
      <trkpt lat="46.4152" lon="0.28666">
        <ele>119.54937984515</ele>
        <time>2021-11-04T08:46:25Z</time>
      </trkpt>
      <trkpt lat="46.41522" lon="0.28666">
        <ele>119.19480429497</ele>
        <time>2021-11-04T08:46:27Z</time>
      </trkpt>
      <trkpt lat="46.41524" lon="0.28667">
        <ele>119.59886792395</ele>
        <time>2021-11-04T08:46:30Z</time>
      </trkpt>
      <trkpt lat="46.41527" lon="0.28669">
        <ele>119.53679913469</ele>
        <time>2021-11-04T08:46:32Z</time>
      </trkpt>
      <trkpt lat="46.4153" lon="0.28669">
        <ele>119.52573918365</ele>
        <time>2021-11-04T08:46:34Z</time>
      </trkpt>
      <trkpt lat="46.41532" lon="0.28671">
        <ele>119.70572894905</ele>
        <time>2021-11-04T08:46:36Z</time>
      </trkpt>
      <trkpt lat="46.41534" lon="0.28672">
        <ele>119.84541560803</ele>
        <time>2021-11-04T08:46:38Z</time>
      </trkpt>
      <trkpt lat="46.41537" lon="0.28673">
        <ele>119.5304179471</ele>
        <time>2021-11-04T08:46:40Z</time>
      </trkpt>
      <trkpt lat="46.4154" lon="0.28674">
        <ele>119.62903227843</ele>
        <time>2021-11-04T08:46:42Z</time>
      </trkpt>
      <trkpt lat="46.41543" lon="0.28674">
        <ele>119.2813688172</ele>
        <time>2021-11-04T08:46:44Z</time>
      </trkpt>
      <trkpt lat="46.41545" lon="0.28674">
        <ele>118.70910205413</ele>
        <time>2021-11-04T08:46:46Z</time>
      </trkpt>
      <trkpt lat="46.41548" lon="0.28675">
        <ele>119.2724576313</ele>
        <time>2021-11-04T08:46:48Z</time>
      </trkpt>
      <trkpt lat="46.4155" lon="0.28676">
        <ele>118.86884041876</ele>
        <time>2021-11-04T08:46:50Z</time>
      </trkpt>
      <trkpt lat="46.41552" lon="0.28677">
        <ele>118.7489760099</ele>
        <time>2021-11-04T08:46:52Z</time>
      </trkpt>
      <trkpt lat="46.41555" lon="0.28678">
        <ele>118.62066909671</ele>
        <time>2021-11-04T08:46:54Z</time>
      </trkpt>
      <trkpt lat="46.41557" lon="0.28679">
        <ele>119.04213931225</ele>
        <time>2021-11-04T08:46:56Z</time>
      </trkpt>
      <trkpt lat="46.4156" lon="0.28679">
        <ele>118.99967850931</ele>
        <time>2021-11-04T08:46:58Z</time>
      </trkpt>
      <trkpt lat="46.41562" lon="0.2868">
        <ele>118.91735556535</ele>
        <time>2021-11-04T08:47:00Z</time>
      </trkpt>
      <trkpt lat="46.41564" lon="0.28681">
        <ele>119.05522865616</ele>
        <time>2021-11-04T08:47:01Z</time>
      </trkpt>
      <trkpt lat="46.41566" lon="0.28682">
        <ele>119.19584522489</ele>
        <time>2021-11-04T08:47:04Z</time>
      </trkpt>
      <trkpt lat="46.41568" lon="0.28683">
        <ele>119.55460050981</ele>
        <time>2021-11-04T08:47:05Z</time>
      </trkpt>
      <trkpt lat="46.4157" lon="0.28684">
        <ele>118.98704402335</ele>
        <time>2021-11-04T08:47:07Z</time>
      </trkpt>
      <trkpt lat="46.41573" lon="0.28687">
        <ele>119.30056422763</ele>
        <time>2021-11-04T08:47:09Z</time>
      </trkpt>
      <trkpt lat="46.41575" lon="0.28688">
        <ele>118.80500810686</ele>
        <time>2021-11-04T08:47:11Z</time>
      </trkpt>
      <trkpt lat="46.41577" lon="0.28689">
        <ele>118.69654982816</ele>
        <time>2021-11-04T08:47:13Z</time>
      </trkpt>
      <trkpt lat="46.41579" lon="0.2869">
        <ele>119.45676945522</ele>
        <time>2021-11-04T08:47:15Z</time>
      </trkpt>
      <trkpt lat="46.41581" lon="0.28692">
        <ele>119.59881723486</ele>
        <time>2021-11-04T08:47:17Z</time>
      </trkpt>
      <trkpt lat="46.41584" lon="0.28693">
        <ele>118.84012534656</ele>
        <time>2021-11-04T08:47:19Z</time>
      </trkpt>
      <trkpt lat="46.41587" lon="0.28693">
        <ele>119.72407772951</ele>
        <time>2021-11-04T08:47:21Z</time>
      </trkpt>
      <trkpt lat="46.4159" lon="0.28694">
        <ele>119.26431224775</ele>
        <time>2021-11-04T08:47:23Z</time>
      </trkpt>
      <trkpt lat="46.41592" lon="0.28694">
        <ele>119.1651136307</ele>
        <time>2021-11-04T08:47:25Z</time>
      </trkpt>
      <trkpt lat="46.41594" lon="0.28695">
        <ele>119.38676207513</ele>
        <time>2021-11-04T08:47:27Z</time>
      </trkpt>
      <trkpt lat="46.41597" lon="0.28696">
        <ele>118.84984346665</ele>
        <time>2021-11-04T08:47:29Z</time>
      </trkpt>
      <trkpt lat="46.416" lon="0.28695">
        <ele>119.51133361645</ele>
        <time>2021-11-04T08:47:31Z</time>
      </trkpt>
      <trkpt lat="46.41602" lon="0.28697">
        <ele>119.03835138585</ele>
        <time>2021-11-04T08:47:33Z</time>
      </trkpt>
      <trkpt lat="46.41605" lon="0.28697">
        <ele>119.11160427891</ele>
        <time>2021-11-04T08:47:35Z</time>
      </trkpt>
      <trkpt lat="46.41607" lon="0.28698">
        <ele>118.8445092896</ele>
        <time>2021-11-04T08:47:37Z</time>
      </trkpt>
      <trkpt lat="46.41609" lon="0.28698">
        <ele>118.62614342012</ele>
        <time>2021-11-04T08:47:39Z</time>
      </trkpt>
      <trkpt lat="46.41612" lon="0.28699">
        <ele>118.79547673371</ele>
        <time>2021-11-04T08:47:41Z</time>
      </trkpt>
      <trkpt lat="46.41615" lon="0.28699">
        <ele>118.631868992</ele>
        <time>2021-11-04T08:47:43Z</time>
      </trkpt>
      <trkpt lat="46.41618" lon="0.287">
        <ele>118.14491206873</ele>
        <time>2021-11-04T08:47:45Z</time>
      </trkpt>
      <trkpt lat="46.4162" lon="0.287">
        <ele>118.61756783817</ele>
        <time>2021-11-04T08:47:47Z</time>
      </trkpt>
      <trkpt lat="46.41622" lon="0.28701">
        <ele>118.47718422208</ele>
        <time>2021-11-04T08:47:49Z</time>
      </trkpt>
      <trkpt lat="46.41625" lon="0.28702">
        <ele>118.76239319425</ele>
        <time>2021-11-04T08:47:52Z</time>
      </trkpt>
      <trkpt lat="46.41627" lon="0.28702">
        <ele>118.29933536984</ele>
        <time>2021-11-04T08:47:54Z</time>
      </trkpt>
      <trkpt lat="46.41629" lon="0.28703">
        <ele>119.02350545116</ele>
        <time>2021-11-04T08:47:56Z</time>
      </trkpt>
      <trkpt lat="46.41632" lon="0.28702">
        <ele>118.84596860595</ele>
        <time>2021-11-04T08:47:58Z</time>
      </trkpt>
      <trkpt lat="46.41635" lon="0.28702">
        <ele>118.84983703028</ele>
        <time>2021-11-04T08:48:00Z</time>
      </trkpt>
      <trkpt lat="46.41636" lon="0.28702">
        <ele>118.6125854766</ele>
        <time>2021-11-04T08:48:02Z</time>
      </trkpt>
      <trkpt lat="46.4164" lon="0.28703">
        <ele>118.69465132896</ele>
        <time>2021-11-04T08:48:04Z</time>
      </trkpt>
      <trkpt lat="46.41642" lon="0.28704">
        <ele>118.41948902607</ele>
        <time>2021-11-04T08:48:06Z</time>
      </trkpt>
      <trkpt lat="46.41645" lon="0.28705">
        <ele>119.07049917337</ele>
        <time>2021-11-04T08:48:09Z</time>
      </trkpt>
      <trkpt lat="46.41647" lon="0.28705">
        <ele>118.67813801672</ele>
        <time>2021-11-04T08:48:11Z</time>
      </trkpt>
      <trkpt lat="46.41649" lon="0.28705">
        <ele>119.05556157231</ele>
        <time>2021-11-04T08:48:13Z</time>
      </trkpt>
      <trkpt lat="46.41652" lon="0.28707">
        <ele>118.88057771605</ele>
        <time>2021-11-04T08:48:15Z</time>
      </trkpt>
      <trkpt lat="46.41654" lon="0.28708">
        <ele>118.51765259448</ele>
        <time>2021-11-04T08:48:17Z</time>
      </trkpt>
      <trkpt lat="46.41656" lon="0.28708">
        <ele>118.55402203649</ele>
        <time>2021-11-04T08:48:19Z</time>
      </trkpt>
      <trkpt lat="46.41659" lon="0.28709">
        <ele>118.74583436921</ele>
        <time>2021-11-04T08:48:21Z</time>
      </trkpt>
      <trkpt lat="46.41661" lon="0.28711">
        <ele>118.09475733619</ele>
        <time>2021-11-04T08:48:23Z</time>
      </trkpt>
      <trkpt lat="46.41663" lon="0.28713">
        <ele>118.231944778</ele>
        <time>2021-11-04T08:48:25Z</time>
      </trkpt>
      <trkpt lat="46.41666" lon="0.28715">
        <ele>118.33453056868</ele>
        <time>2021-11-04T08:48:27Z</time>
      </trkpt>
      <trkpt lat="46.41668" lon="0.28716">
        <ele>118.41062836349</ele>
        <time>2021-11-04T08:48:29Z</time>
      </trkpt>
      <trkpt lat="46.41671" lon="0.28716">
        <ele>118.36227209214</ele>
        <time>2021-11-04T08:48:31Z</time>
      </trkpt>
      <trkpt lat="46.41672" lon="0.28717">
        <ele>118.16941415332</ele>
        <time>2021-11-04T08:48:33Z</time>
      </trkpt>
      <trkpt lat="46.41674" lon="0.28717">
        <ele>118.37656186335</ele>
        <time>2021-11-04T08:48:35Z</time>
      </trkpt>
      <trkpt lat="46.41677" lon="0.28717">
        <ele>118.59250172507</ele>
        <time>2021-11-04T08:48:37Z</time>
      </trkpt>
      <trkpt lat="46.4168" lon="0.28718">
        <ele>118.09916546289</ele>
        <time>2021-11-04T08:48:40Z</time>
      </trkpt>
      <trkpt lat="46.41682" lon="0.28719">
        <ele>118.44450553879</ele>
        <time>2021-11-04T08:48:42Z</time>
      </trkpt>
      <trkpt lat="46.41685" lon="0.2872">
        <ele>118.59421155974</ele>
        <time>2021-11-04T08:48:46Z</time>
      </trkpt>
      <trkpt lat="46.41688" lon="0.28721">
        <ele>118.25698742457</ele>
        <time>2021-11-04T08:48:47Z</time>
      </trkpt>
      <trkpt lat="46.4169" lon="0.28723">
        <ele>118.33746823017</ele>
        <time>2021-11-04T08:48:48Z</time>
      </trkpt>
      <trkpt lat="46.41692" lon="0.28725">
        <ele>118.60249397624</ele>
        <time>2021-11-04T08:48:50Z</time>
      </trkpt>
      <trkpt lat="46.41695" lon="0.28727">
        <ele>118.50019465759</ele>
        <time>2021-11-04T08:48:52Z</time>
      </trkpt>
      <trkpt lat="46.41697" lon="0.28728">
        <ele>118.67823697347</ele>
        <time>2021-11-04T08:48:53Z</time>
      </trkpt>
      <trkpt lat="46.41699" lon="0.28729">
        <ele>118.46609934513</ele>
        <time>2021-11-04T08:48:55Z</time>
      </trkpt>
      <trkpt lat="46.41702" lon="0.28731">
        <ele>118.47879437823</ele>
        <time>2021-11-04T08:48:57Z</time>
      </trkpt>
      <trkpt lat="46.41705" lon="0.28732">
        <ele>118.33577751741</ele>
        <time>2021-11-04T08:48:59Z</time>
      </trkpt>
      <trkpt lat="46.41708" lon="0.28733">
        <ele>118.35663977452</ele>
        <time>2021-11-04T08:49:01Z</time>
      </trkpt>
      <trkpt lat="46.4171" lon="0.28733">
        <ele>117.93443374522</ele>
        <time>2021-11-04T08:49:03Z</time>
      </trkpt>
      <trkpt lat="46.41712" lon="0.28734">
        <ele>118.42317848746</ele>
        <time>2021-11-04T08:49:05Z</time>
      </trkpt>
      <trkpt lat="46.41714" lon="0.28734">
        <ele>118.22013898101</ele>
        <time>2021-11-04T08:49:08Z</time>
      </trkpt>
      <trkpt lat="46.41717" lon="0.28735">
        <ele>118.41702533979</ele>
        <time>2021-11-04T08:49:10Z</time>
      </trkpt>
      <trkpt lat="46.41719" lon="0.28736">
        <ele>118.07316493336</ele>
        <time>2021-11-04T08:49:12Z</time>
      </trkpt>
      <trkpt lat="46.41722" lon="0.28737">
        <ele>118.42109139822</ele>
        <time>2021-11-04T08:49:15Z</time>
      </trkpt>
      <trkpt lat="46.41724" lon="0.28738">
        <ele>118.50924130715</ele>
        <time>2021-11-04T08:49:17Z</time>
      </trkpt>
      <trkpt lat="46.41726" lon="0.28738">
        <ele>118.50440226495</ele>
        <time>2021-11-04T08:49:19Z</time>
      </trkpt>
      <trkpt lat="46.41728" lon="0.28739">
        <ele>118.22387333959</ele>
        <time>2021-11-04T08:49:21Z</time>
      </trkpt>
      <trkpt lat="46.41731" lon="0.28739">
        <ele>118.70025956631</ele>
        <time>2021-11-04T08:49:23Z</time>
      </trkpt>
      <trkpt lat="46.41733" lon="0.2874">
        <ele>117.93623429444</ele>
        <time>2021-11-04T08:49:25Z</time>
      </trkpt>
      <trkpt lat="46.41736" lon="0.28742">
        <ele>118.21488337498</ele>
        <time>2021-11-04T08:49:27Z</time>
      </trkpt>
      <trkpt lat="46.41738" lon="0.28743">
        <ele>118.27825255599</ele>
        <time>2021-11-04T08:49:29Z</time>
      </trkpt>
      <trkpt lat="46.41741" lon="0.28744">
        <ele>118.57280717045</ele>
        <time>2021-11-04T08:49:31Z</time>
      </trkpt>
      <trkpt lat="46.41743" lon="0.28746">
        <ele>118.30826914497</ele>
        <time>2021-11-04T08:49:33Z</time>
      </trkpt>
      <trkpt lat="46.41746" lon="0.28747">
        <ele>118.53120855894</ele>
        <time>2021-11-04T08:49:35Z</time>
      </trkpt>
      <trkpt lat="46.41748" lon="0.28747">
        <ele>118.44653592259</ele>
        <time>2021-11-04T08:49:37Z</time>
      </trkpt>
      <trkpt lat="46.41751" lon="0.28748">
        <ele>118.44891182147</ele>
        <time>2021-11-04T08:49:40Z</time>
      </trkpt>
      <trkpt lat="46.41754" lon="0.28748">
        <ele>118.74885728303</ele>
        <time>2021-11-04T08:49:42Z</time>
      </trkpt>
      <trkpt lat="46.41756" lon="0.2875">
        <ele>118.62105756812</ele>
        <time>2021-11-04T08:49:44Z</time>
      </trkpt>
      <trkpt lat="46.41759" lon="0.28749">
        <ele>118.43649851438</ele>
        <time>2021-11-04T08:49:46Z</time>
      </trkpt>
      <trkpt lat="46.41761" lon="0.2875">
        <ele>118.7805548748</ele>
        <time>2021-11-04T08:49:48Z</time>
      </trkpt>
      <trkpt lat="46.41763" lon="0.28751">
        <ele>118.95215137117</ele>
        <time>2021-11-04T08:49:50Z</time>
      </trkpt>
      <trkpt lat="46.41766" lon="0.28751">
        <ele>118.97185564879</ele>
        <time>2021-11-04T08:49:52Z</time>
      </trkpt>
      <trkpt lat="46.41767" lon="0.28751">
        <ele>118.55817562621</ele>
        <time>2021-11-04T08:49:53Z</time>
      </trkpt>
      <trkpt lat="46.4177" lon="0.28751">
        <ele>119.23495626263</ele>
        <time>2021-11-04T08:49:55Z</time>
      </trkpt>
      <trkpt lat="46.41773" lon="0.28751">
        <ele>119.04133023601</ele>
        <time>2021-11-04T08:49:57Z</time>
      </trkpt>
      <trkpt lat="46.41775" lon="0.28751">
        <ele>119.29594750796</ele>
        <time>2021-11-04T08:49:59Z</time>
      </trkpt>
      <trkpt lat="46.41778" lon="0.28751">
        <ele>119.4611088587</ele>
        <time>2021-11-04T08:50:01Z</time>
      </trkpt>
      <trkpt lat="46.41781" lon="0.28751">
        <ele>119.1704017818</ele>
        <time>2021-11-04T08:50:03Z</time>
      </trkpt>
      <trkpt lat="46.41784" lon="0.28751">
        <ele>119.55746794771</ele>
        <time>2021-11-04T08:50:06Z</time>
      </trkpt>
      <trkpt lat="46.41787" lon="0.2875">
        <ele>119.48993168585</ele>
        <time>2021-11-04T08:50:09Z</time>
      </trkpt>
      <trkpt lat="46.4179" lon="0.28752">
        <ele>119.69931984879</ele>
        <time>2021-11-04T08:50:11Z</time>
      </trkpt>
      <trkpt lat="46.41794" lon="0.28752">
        <ele>119.52616602927</ele>
        <time>2021-11-04T08:50:13Z</time>
      </trkpt>
      <trkpt lat="46.41796" lon="0.28752">
        <ele>119.2775502773</ele>
        <time>2021-11-04T08:50:15Z</time>
      </trkpt>
      <trkpt lat="46.41799" lon="0.28754">
        <ele>119.22814771533</ele>
        <time>2021-11-04T08:50:17Z</time>
      </trkpt>
      <trkpt lat="46.418" lon="0.28754">
        <ele>119.52108176984</ele>
        <time>2021-11-04T08:50:19Z</time>
      </trkpt>
      <trkpt lat="46.41803" lon="0.28755">
        <ele>119.479168755</ele>
        <time>2021-11-04T08:50:21Z</time>
      </trkpt>
      <trkpt lat="46.41804" lon="0.28756">
        <ele>119.74963692762</ele>
        <time>2021-11-04T08:50:23Z</time>
      </trkpt>
      <trkpt lat="46.41807" lon="0.28757">
        <ele>119.83605098631</ele>
        <time>2021-11-04T08:50:25Z</time>
      </trkpt>
      <trkpt lat="46.4181" lon="0.28758">
        <ele>119.4829688454</ele>
        <time>2021-11-04T08:50:27Z</time>
      </trkpt>
      <trkpt lat="46.41812" lon="0.28758">
        <ele>119.86418905389</ele>
        <time>2021-11-04T08:50:29Z</time>
      </trkpt>
      <trkpt lat="46.41814" lon="0.28758">
        <ele>120.20719415136</ele>
        <time>2021-11-04T08:50:31Z</time>
      </trkpt>
      <trkpt lat="46.41817" lon="0.28758">
        <ele>119.68891564757</ele>
        <time>2021-11-04T08:50:33Z</time>
      </trkpt>
      <trkpt lat="46.41819" lon="0.28758">
        <ele>120.40916930884</ele>
        <time>2021-11-04T08:50:35Z</time>
      </trkpt>
      <trkpt lat="46.41821" lon="0.2876">
        <ele>120.14844519924</ele>
        <time>2021-11-04T08:50:37Z</time>
      </trkpt>
      <trkpt lat="46.41823" lon="0.2876">
        <ele>120.54034422431</ele>
        <time>2021-11-04T08:50:39Z</time>
      </trkpt>
      <trkpt lat="46.41825" lon="0.2876">
        <ele>120.18120869249</ele>
        <time>2021-11-04T08:50:41Z</time>
      </trkpt>
      <trkpt lat="46.41828" lon="0.2876">
        <ele>120.98141095415</ele>
        <time>2021-11-04T08:50:43Z</time>
      </trkpt>
      <trkpt lat="46.4183" lon="0.28762">
        <ele>120.254533628</ele>
        <time>2021-11-04T08:50:45Z</time>
      </trkpt>
      <trkpt lat="46.41833" lon="0.28763">
        <ele>120.23436906748</ele>
        <time>2021-11-04T08:50:47Z</time>
      </trkpt>
      <trkpt lat="46.41835" lon="0.28764">
        <ele>121.06575047504</ele>
        <time>2021-11-04T08:50:48Z</time>
      </trkpt>
      <trkpt lat="46.41838" lon="0.28766">
        <ele>120.47485004179</ele>
        <time>2021-11-04T08:50:50Z</time>
      </trkpt>
      <trkpt lat="46.41841" lon="0.28767">
        <ele>120.71432786342</ele>
        <time>2021-11-04T08:50:52Z</time>
      </trkpt>
      <trkpt lat="46.41844" lon="0.28767">
        <ele>121.24330551177</ele>
        <time>2021-11-04T08:50:54Z</time>
      </trkpt>
      <trkpt lat="46.41846" lon="0.28767">
        <ele>121.14317661338</ele>
        <time>2021-11-04T08:50:57Z</time>
      </trkpt>
      <trkpt lat="46.41849" lon="0.28767">
        <ele>120.66640407033</ele>
        <time>2021-11-04T08:50:59Z</time>
      </trkpt>
      <trkpt lat="46.41851" lon="0.28768">
        <ele>120.97266846336</ele>
        <time>2021-11-04T08:51:01Z</time>
      </trkpt>
      <trkpt lat="46.41854" lon="0.28769">
        <ele>121.32449174207</ele>
        <time>2021-11-04T08:51:04Z</time>
      </trkpt>
      <trkpt lat="46.41857" lon="0.28769">
        <ele>121.61153257452</ele>
        <time>2021-11-04T08:51:06Z</time>
      </trkpt>
      <trkpt lat="46.41859" lon="0.28769">
        <ele>121.50971443579</ele>
        <time>2021-11-04T08:51:08Z</time>
      </trkpt>
      <trkpt lat="46.41861" lon="0.28768">
        <ele>121.49257989228</ele>
        <time>2021-11-04T08:51:10Z</time>
      </trkpt>
      <trkpt lat="46.41863" lon="0.28769">
        <ele>121.62595015392</ele>
        <time>2021-11-04T08:51:12Z</time>
      </trkpt>
      <trkpt lat="46.41865" lon="0.28769">
        <ele>121.68059073668</ele>
        <time>2021-11-04T08:51:14Z</time>
      </trkpt>
      <trkpt lat="46.41867" lon="0.28768">
        <ele>121.81011755206</ele>
        <time>2021-11-04T08:51:16Z</time>
      </trkpt>
      <trkpt lat="46.4187" lon="0.28769">
        <ele>121.60816883761</ele>
        <time>2021-11-04T08:51:18Z</time>
      </trkpt>
      <trkpt lat="46.41873" lon="0.28768">
        <ele>121.80413516238</ele>
        <time>2021-11-04T08:51:20Z</time>
      </trkpt>
      <trkpt lat="46.41875" lon="0.28769">
        <ele>121.58168267459</ele>
        <time>2021-11-04T08:51:22Z</time>
      </trkpt>
      <trkpt lat="46.41877" lon="0.28769">
        <ele>122.0475017149</ele>
        <time>2021-11-04T08:51:23Z</time>
      </trkpt>
      <trkpt lat="46.41879" lon="0.28771">
        <ele>121.98514069803</ele>
        <time>2021-11-04T08:51:24Z</time>
      </trkpt>
      <trkpt lat="46.41881" lon="0.28771">
        <ele>121.74742014427</ele>
        <time>2021-11-04T08:51:26Z</time>
      </trkpt>
      <trkpt lat="46.41883" lon="0.28771">
        <ele>122.08353964612</ele>
        <time>2021-11-04T08:51:28Z</time>
      </trkpt>
      <trkpt lat="46.41886" lon="0.2877">
        <ele>122.00938931573</ele>
        <time>2021-11-04T08:51:29Z</time>
      </trkpt>
      <trkpt lat="46.41888" lon="0.28771">
        <ele>121.9382395763</ele>
        <time>2021-11-04T08:51:31Z</time>
      </trkpt>
      <trkpt lat="46.4189" lon="0.28771">
        <ele>122.30130156036</ele>
        <time>2021-11-04T08:51:33Z</time>
      </trkpt>
      <trkpt lat="46.41892" lon="0.28771">
        <ele>122.32636259589</ele>
        <time>2021-11-04T08:51:35Z</time>
      </trkpt>
      <trkpt lat="46.41895" lon="0.28771">
        <ele>122.26362114772</ele>
        <time>2021-11-04T08:51:37Z</time>
      </trkpt>
      <trkpt lat="46.41897" lon="0.28771">
        <ele>122.12878875341</ele>
        <time>2021-11-04T08:51:40Z</time>
      </trkpt>
      <trkpt lat="46.419" lon="0.28772">
        <ele>122.35236081854</ele>
        <time>2021-11-04T08:51:43Z</time>
      </trkpt>
      <trkpt lat="46.41903" lon="0.28771">
        <ele>122.38887727819</ele>
        <time>2021-11-04T08:51:45Z</time>
      </trkpt>
      <trkpt lat="46.41905" lon="0.28772">
        <ele>122.42482654843</ele>
        <time>2021-11-04T08:51:47Z</time>
      </trkpt>
      <trkpt lat="46.41907" lon="0.28773">
        <ele>122.61825064104</ele>
        <time>2021-11-04T08:51:49Z</time>
      </trkpt>
      <trkpt lat="46.4191" lon="0.28774">
        <ele>122.69973020069</ele>
        <time>2021-11-04T08:51:51Z</time>
      </trkpt>
      <trkpt lat="46.41913" lon="0.28774">
        <ele>122.68665855285</ele>
        <time>2021-11-04T08:51:53Z</time>
      </trkpt>
      <trkpt lat="46.41915" lon="0.28775">
        <ele>122.73606447596</ele>
        <time>2021-11-04T08:51:55Z</time>
      </trkpt>
      <trkpt lat="46.41918" lon="0.28776">
        <ele>122.34447898995</ele>
        <time>2021-11-04T08:51:57Z</time>
      </trkpt>
      <trkpt lat="46.41921" lon="0.28777">
        <ele>123.04574800469</ele>
        <time>2021-11-04T08:51:59Z</time>
      </trkpt>
      <trkpt lat="46.41924" lon="0.28777">
        <ele>122.56312638894</ele>
        <time>2021-11-04T08:52:01Z</time>
      </trkpt>
      <trkpt lat="46.41926" lon="0.28778">
        <ele>122.92741797585</ele>
        <time>2021-11-04T08:52:03Z</time>
      </trkpt>
      <trkpt lat="46.41928" lon="0.28779">
        <ele>122.90362136997</ele>
        <time>2021-11-04T08:52:05Z</time>
      </trkpt>
      <trkpt lat="46.41931" lon="0.28781">
        <ele>122.85896127392</ele>
        <time>2021-11-04T08:52:07Z</time>
      </trkpt>
      <trkpt lat="46.41934" lon="0.28782">
        <ele>123.32283546403</ele>
        <time>2021-11-04T08:52:09Z</time>
      </trkpt>
      <trkpt lat="46.41935" lon="0.28783">
        <ele>122.991807268</ele>
        <time>2021-11-04T08:52:11Z</time>
      </trkpt>
      <trkpt lat="46.41938" lon="0.28785">
        <ele>122.87544546649</ele>
        <time>2021-11-04T08:52:13Z</time>
      </trkpt>
      <trkpt lat="46.4194" lon="0.28786">
        <ele>123.04953732528</ele>
        <time>2021-11-04T08:52:15Z</time>
      </trkpt>
      <trkpt lat="46.41943" lon="0.28787">
        <ele>123.09611427598</ele>
        <time>2021-11-04T08:52:17Z</time>
      </trkpt>
      <trkpt lat="46.41945" lon="0.28788">
        <ele>123.47272561491</ele>
        <time>2021-11-04T08:52:19Z</time>
      </trkpt>
      <trkpt lat="46.41947" lon="0.2879">
        <ele>123.04111640062</ele>
        <time>2021-11-04T08:52:21Z</time>
      </trkpt>
      <trkpt lat="46.41949" lon="0.28791">
        <ele>123.37660685461</ele>
        <time>2021-11-04T08:52:23Z</time>
      </trkpt>
      <trkpt lat="46.41951" lon="0.28793">
        <ele>123.19331892114</ele>
        <time>2021-11-04T08:52:25Z</time>
      </trkpt>
      <trkpt lat="46.41953" lon="0.28795">
        <ele>123.5292720627</ele>
        <time>2021-11-04T08:52:27Z</time>
      </trkpt>
      <trkpt lat="46.41956" lon="0.28797">
        <ele>123.33419050369</ele>
        <time>2021-11-04T08:52:30Z</time>
      </trkpt>
      <trkpt lat="46.41958" lon="0.28798">
        <ele>123.25397648197</ele>
        <time>2021-11-04T08:52:32Z</time>
      </trkpt>
      <trkpt lat="46.4196" lon="0.28799">
        <ele>123.83519519772</ele>
        <time>2021-11-04T08:52:34Z</time>
      </trkpt>
      <trkpt lat="46.41962" lon="0.28801">
        <ele>123.15164725203</ele>
        <time>2021-11-04T08:52:36Z</time>
      </trkpt>
      <trkpt lat="46.41964" lon="0.28803">
        <ele>123.56793399993</ele>
        <time>2021-11-04T08:52:38Z</time>
      </trkpt>
      <trkpt lat="46.41966" lon="0.28804">
        <ele>123.7071952736</ele>
        <time>2021-11-04T08:52:40Z</time>
      </trkpt>
      <trkpt lat="46.41968" lon="0.28806">
        <ele>123.61370692123</ele>
        <time>2021-11-04T08:52:42Z</time>
      </trkpt>
      <trkpt lat="46.41971" lon="0.28808">
        <ele>123.38031005673</ele>
        <time>2021-11-04T08:52:44Z</time>
      </trkpt>
      <trkpt lat="46.41973" lon="0.28809">
        <ele>123.34419263341</ele>
        <time>2021-11-04T08:52:46Z</time>
      </trkpt>
      <trkpt lat="46.41976" lon="0.28811">
        <ele>123.49739966076</ele>
        <time>2021-11-04T08:52:48Z</time>
      </trkpt>
      <trkpt lat="46.41978" lon="0.28812">
        <ele>123.40504638758</ele>
        <time>2021-11-04T08:52:50Z</time>
      </trkpt>
      <trkpt lat="46.41981" lon="0.28814">
        <ele>123.54602898192</ele>
        <time>2021-11-04T08:52:52Z</time>
      </trkpt>
      <trkpt lat="46.41983" lon="0.28816">
        <ele>123.50295116752</ele>
        <time>2021-11-04T08:52:54Z</time>
      </trkpt>
      <trkpt lat="46.41985" lon="0.28817">
        <ele>123.6332720872</ele>
        <time>2021-11-04T08:52:56Z</time>
      </trkpt>
      <trkpt lat="46.41987" lon="0.28818">
        <ele>123.72822540253</ele>
        <time>2021-11-04T08:52:58Z</time>
      </trkpt>
      <trkpt lat="46.41989" lon="0.2882">
        <ele>123.81494995207</ele>
        <time>2021-11-04T08:53:00Z</time>
      </trkpt>
      <trkpt lat="46.41991" lon="0.28822">
        <ele>123.78083252255</ele>
        <time>2021-11-04T08:53:02Z</time>
      </trkpt>
      <trkpt lat="46.41994" lon="0.28823">
        <ele>123.96394527704</ele>
        <time>2021-11-04T08:53:04Z</time>
      </trkpt>
      <trkpt lat="46.41996" lon="0.28825">
        <ele>123.8986451095</ele>
        <time>2021-11-04T08:53:06Z</time>
      </trkpt>
      <trkpt lat="46.41998" lon="0.28826">
        <ele>123.87233380973</ele>
        <time>2021-11-04T08:53:08Z</time>
      </trkpt>
      <trkpt lat="46.42" lon="0.28827">
        <ele>123.92402475234</ele>
        <time>2021-11-04T08:53:10Z</time>
      </trkpt>
      <trkpt lat="46.42003" lon="0.28828">
        <ele>124.34528197907</ele>
        <time>2021-11-04T08:53:12Z</time>
      </trkpt>
      <trkpt lat="46.42005" lon="0.2883">
        <ele>124.2668329794</ele>
        <time>2021-11-04T08:53:14Z</time>
      </trkpt>
      <trkpt lat="46.42007" lon="0.28832">
        <ele>124.53037132137</ele>
        <time>2021-11-04T08:53:16Z</time>
      </trkpt>
      <trkpt lat="46.4201" lon="0.28832">
        <ele>124.21408778522</ele>
        <time>2021-11-04T08:53:18Z</time>
      </trkpt>
      <trkpt lat="46.42012" lon="0.28835">
        <ele>123.47797791846</ele>
        <time>2021-11-04T08:53:20Z</time>
      </trkpt>
      <trkpt lat="46.42014" lon="0.28835">
        <ele>124.57962047216</ele>
        <time>2021-11-04T08:53:22Z</time>
      </trkpt>
      <trkpt lat="46.42016" lon="0.28836">
        <ele>124.67091200501</ele>
        <time>2021-11-04T08:53:24Z</time>
      </trkpt>
      <trkpt lat="46.42019" lon="0.28837">
        <ele>124.76126526482</ele>
        <time>2021-11-04T08:53:26Z</time>
      </trkpt>
      <trkpt lat="46.42021" lon="0.28839">
        <ele>124.49793365411</ele>
        <time>2021-11-04T08:53:28Z</time>
      </trkpt>
      <trkpt lat="46.42023" lon="0.28841">
        <ele>124.42840856127</ele>
        <time>2021-11-04T08:53:31Z</time>
      </trkpt>
      <trkpt lat="46.42025" lon="0.28841">
        <ele>124.48064899445</ele>
        <time>2021-11-04T08:53:33Z</time>
      </trkpt>
      <trkpt lat="46.42028" lon="0.28842">
        <ele>124.31116765179</ele>
        <time>2021-11-04T08:53:35Z</time>
      </trkpt>
      <trkpt lat="46.4203" lon="0.28843">
        <ele>124.94825769961</ele>
        <time>2021-11-04T08:53:38Z</time>
      </trkpt>
      <trkpt lat="46.42032" lon="0.28844">
        <ele>124.44372870866</ele>
        <time>2021-11-04T08:53:40Z</time>
      </trkpt>
      <trkpt lat="46.42035" lon="0.28847">
        <ele>123.98879471514</ele>
        <time>2021-11-04T08:53:42Z</time>
      </trkpt>
      <trkpt lat="46.42037" lon="0.28849">
        <ele>124.72097566351</ele>
        <time>2021-11-04T08:53:44Z</time>
      </trkpt>
      <trkpt lat="46.42039" lon="0.28851">
        <ele>124.49885119591</ele>
        <time>2021-11-04T08:53:46Z</time>
      </trkpt>
      <trkpt lat="46.42041" lon="0.28851">
        <ele>124.43042094354</ele>
        <time>2021-11-04T08:53:48Z</time>
      </trkpt>
      <trkpt lat="46.42043" lon="0.28852">
        <ele>123.75499186106</ele>
        <time>2021-11-04T08:53:50Z</time>
      </trkpt>
      <trkpt lat="46.42046" lon="0.28852">
        <ele>124.04600731749</ele>
        <time>2021-11-04T08:53:52Z</time>
      </trkpt>
      <trkpt lat="46.42047" lon="0.28853">
        <ele>124.03242561221</ele>
        <time>2021-11-04T08:53:54Z</time>
      </trkpt>
      <trkpt lat="46.4205" lon="0.28854">
        <ele>123.94382931013</ele>
        <time>2021-11-04T08:53:56Z</time>
      </trkpt>
      <trkpt lat="46.42052" lon="0.28854">
        <ele>123.90041483659</ele>
        <time>2021-11-04T08:53:58Z</time>
      </trkpt>
      <trkpt lat="46.42055" lon="0.28855">
        <ele>123.62601052877</ele>
        <time>2021-11-04T08:54:00Z</time>
      </trkpt>
      <trkpt lat="46.42057" lon="0.28856">
        <ele>123.65147269052</ele>
        <time>2021-11-04T08:54:02Z</time>
      </trkpt>
      <trkpt lat="46.42058" lon="0.28859">
        <ele>122.92332539614</ele>
        <time>2021-11-04T08:54:04Z</time>
      </trkpt>
      <trkpt lat="46.42061" lon="0.28859">
        <ele>123.37314850651</ele>
        <time>2021-11-04T08:54:06Z</time>
      </trkpt>
      <trkpt lat="46.42063" lon="0.2886">
        <ele>123.58270015102</ele>
        <time>2021-11-04T08:54:09Z</time>
      </trkpt>
      <trkpt lat="46.42066" lon="0.28861">
        <ele>123.08436473832</ele>
        <time>2021-11-04T08:54:11Z</time>
      </trkpt>
      <trkpt lat="46.42069" lon="0.28862">
        <ele>123.7648203969</ele>
        <time>2021-11-04T08:54:13Z</time>
      </trkpt>
      <trkpt lat="46.42072" lon="0.28864">
        <ele>123.54926292691</ele>
        <time>2021-11-04T08:54:15Z</time>
      </trkpt>
      <trkpt lat="46.42074" lon="0.28865">
        <ele>123.19702203572</ele>
        <time>2021-11-04T08:54:17Z</time>
      </trkpt>
      <trkpt lat="46.42076" lon="0.28866">
        <ele>123.50150177721</ele>
        <time>2021-11-04T08:54:19Z</time>
      </trkpt>
      <trkpt lat="46.42078" lon="0.28867">
        <ele>123.31998822466</ele>
        <time>2021-11-04T08:54:21Z</time>
      </trkpt>
      <trkpt lat="46.42081" lon="0.28869">
        <ele>123.78038085904</ele>
        <time>2021-11-04T08:54:23Z</time>
      </trkpt>
      <trkpt lat="46.42082" lon="0.2887">
        <ele>123.25381433498</ele>
        <time>2021-11-04T08:54:25Z</time>
      </trkpt>
      <trkpt lat="46.42085" lon="0.28872">
        <ele>123.23279183824</ele>
        <time>2021-11-04T08:54:27Z</time>
      </trkpt>
      <trkpt lat="46.42087" lon="0.28872">
        <ele>123.40621988382</ele>
        <time>2021-11-04T08:54:29Z</time>
      </trkpt>
      <trkpt lat="46.42089" lon="0.28873">
        <ele>123.4512152588</ele>
        <time>2021-11-04T08:54:31Z</time>
      </trkpt>
      <trkpt lat="46.42092" lon="0.28874">
        <ele>123.13497239072</ele>
        <time>2021-11-04T08:54:33Z</time>
      </trkpt>
      <trkpt lat="46.42094" lon="0.28875">
        <ele>123.32019497827</ele>
        <time>2021-11-04T08:54:35Z</time>
      </trkpt>
      <trkpt lat="46.42096" lon="0.28877">
        <ele>123.30419071298</ele>
        <time>2021-11-04T08:54:37Z</time>
      </trkpt>
      <trkpt lat="46.42098" lon="0.28879">
        <ele>122.85292650945</ele>
        <time>2021-11-04T08:54:39Z</time>
      </trkpt>
      <trkpt lat="46.42101" lon="0.2888">
        <ele>122.8750543166</ele>
        <time>2021-11-04T08:54:41Z</time>
      </trkpt>
      <trkpt lat="46.42103" lon="0.28881">
        <ele>122.88115958124</ele>
        <time>2021-11-04T08:54:43Z</time>
      </trkpt>
      <trkpt lat="46.42106" lon="0.28882">
        <ele>122.0262783058</ele>
        <time>2021-11-04T08:54:45Z</time>
      </trkpt>
      <trkpt lat="46.42109" lon="0.28884">
        <ele>122.61083711404</ele>
        <time>2021-11-04T08:54:47Z</time>
      </trkpt>
      <trkpt lat="46.42111" lon="0.28885">
        <ele>122.83439191896</ele>
        <time>2021-11-04T08:54:49Z</time>
      </trkpt>
      <trkpt lat="46.42114" lon="0.28886">
        <ele>122.35214153863</ele>
        <time>2021-11-04T08:54:51Z</time>
      </trkpt>
      <trkpt lat="46.42116" lon="0.28887">
        <ele>122.6001503868</ele>
        <time>2021-11-04T08:54:52Z</time>
      </trkpt>
      <trkpt lat="46.42118" lon="0.28888">
        <ele>122.70370333083</ele>
        <time>2021-11-04T08:54:53Z</time>
      </trkpt>
      <trkpt lat="46.4212" lon="0.28889">
        <ele>122.41042410955</ele>
        <time>2021-11-04T08:54:55Z</time>
      </trkpt>
      <trkpt lat="46.42123" lon="0.2889">
        <ele>122.47701093834</ele>
        <time>2021-11-04T08:54:57Z</time>
      </trkpt>
      <trkpt lat="46.42126" lon="0.28891">
        <ele>122.41836256813</ele>
        <time>2021-11-04T08:54:59Z</time>
      </trkpt>
      <trkpt lat="46.42128" lon="0.28891">
        <ele>122.8254635036</ele>
        <time>2021-11-04T08:55:00Z</time>
      </trkpt>
      <trkpt lat="46.4213" lon="0.28892">
        <ele>122.42251183372</ele>
        <time>2021-11-04T08:55:02Z</time>
      </trkpt>
      <trkpt lat="46.42132" lon="0.28893">
        <ele>122.35942567699</ele>
        <time>2021-11-04T08:55:04Z</time>
      </trkpt>
      <trkpt lat="46.42135" lon="0.28894">
        <ele>122.35480282269</ele>
        <time>2021-11-04T08:55:06Z</time>
      </trkpt>
      <trkpt lat="46.42138" lon="0.28895">
        <ele>122.19520531408</ele>
        <time>2021-11-04T08:55:09Z</time>
      </trkpt>
      <trkpt lat="46.42141" lon="0.28897">
        <ele>122.73316950165</ele>
        <time>2021-11-04T08:55:11Z</time>
      </trkpt>
      <trkpt lat="46.42143" lon="0.28897">
        <ele>122.57617638912</ele>
        <time>2021-11-04T08:55:13Z</time>
      </trkpt>
      <trkpt lat="46.42146" lon="0.28898">
        <ele>122.32632471621</ele>
        <time>2021-11-04T08:55:15Z</time>
      </trkpt>
      <trkpt lat="46.42148" lon="0.289">
        <ele>122.24312853254</ele>
        <time>2021-11-04T08:55:18Z</time>
      </trkpt>
      <trkpt lat="46.4215" lon="0.28901">
        <ele>122.04823137913</ele>
        <time>2021-11-04T08:55:20Z</time>
      </trkpt>
      <trkpt lat="46.42152" lon="0.28903">
        <ele>122.48568188492</ele>
        <time>2021-11-04T08:55:22Z</time>
      </trkpt>
      <trkpt lat="46.42154" lon="0.28903">
        <ele>122.02994765714</ele>
        <time>2021-11-04T08:55:24Z</time>
      </trkpt>
      <trkpt lat="46.42156" lon="0.28905">
        <ele>122.46290667541</ele>
        <time>2021-11-04T08:55:26Z</time>
      </trkpt>
      <trkpt lat="46.42159" lon="0.28906">
        <ele>122.07504311111</ele>
        <time>2021-11-04T08:55:28Z</time>
      </trkpt>
      <trkpt lat="46.42161" lon="0.28907">
        <ele>122.03854827024</ele>
        <time>2021-11-04T08:55:30Z</time>
      </trkpt>
      <trkpt lat="46.42163" lon="0.28907">
        <ele>122.37871090695</ele>
        <time>2021-11-04T08:55:32Z</time>
      </trkpt>
      <trkpt lat="46.42166" lon="0.28908">
        <ele>121.93270549644</ele>
        <time>2021-11-04T08:55:34Z</time>
      </trkpt>
      <trkpt lat="46.42169" lon="0.28909">
        <ele>122.43501100503</ele>
        <time>2021-11-04T08:55:36Z</time>
      </trkpt>
      <trkpt lat="46.42171" lon="0.28909">
        <ele>122.09768503439</ele>
        <time>2021-11-04T08:55:38Z</time>
      </trkpt>
      <trkpt lat="46.42173" lon="0.28909">
        <ele>122.04387015011</ele>
        <time>2021-11-04T08:55:40Z</time>
      </trkpt>
      <trkpt lat="46.42175" lon="0.2891">
        <ele>121.98305830546</ele>
        <time>2021-11-04T08:55:42Z</time>
      </trkpt>
      <trkpt lat="46.42177" lon="0.2891">
        <ele>121.74536089785</ele>
        <time>2021-11-04T08:55:44Z</time>
      </trkpt>
      <trkpt lat="46.4218" lon="0.28909">
        <ele>122.08549767733</ele>
        <time>2021-11-04T08:55:46Z</time>
      </trkpt>
      <trkpt lat="46.42182" lon="0.28909">
        <ele>122.09400575981</ele>
        <time>2021-11-04T08:55:48Z</time>
      </trkpt>
      <trkpt lat="46.42184" lon="0.28908">
        <ele>123.05063610896</ele>
        <time>2021-11-04T08:55:50Z</time>
      </trkpt>
      <trkpt lat="46.42187" lon="0.28907">
        <ele>122.06173450314</ele>
        <time>2021-11-04T08:55:52Z</time>
      </trkpt>
      <trkpt lat="46.4219" lon="0.28907">
        <ele>122.23595408164</ele>
        <time>2021-11-04T08:55:54Z</time>
      </trkpt>
      <trkpt lat="46.42193" lon="0.28907">
        <ele>121.75882058498</ele>
        <time>2021-11-04T08:55:56Z</time>
      </trkpt>
      <trkpt lat="46.42196" lon="0.28907">
        <ele>122.48363636248</ele>
        <time>2021-11-04T08:55:58Z</time>
      </trkpt>
      <trkpt lat="46.42198" lon="0.28907">
        <ele>121.95376993343</ele>
        <time>2021-11-04T08:56:00Z</time>
      </trkpt>
      <trkpt lat="46.42201" lon="0.28906">
        <ele>121.75228496827</ele>
        <time>2021-11-04T08:56:02Z</time>
      </trkpt>
      <trkpt lat="46.42203" lon="0.28907">
        <ele>121.72665690072</ele>
        <time>2021-11-04T08:56:04Z</time>
      </trkpt>
      <trkpt lat="46.42205" lon="0.28907">
        <ele>121.88753499929</ele>
        <time>2021-11-04T08:56:05Z</time>
      </trkpt>
      <trkpt lat="46.42207" lon="0.28907">
        <ele>121.88761899341</ele>
        <time>2021-11-04T08:56:06Z</time>
      </trkpt>
      <trkpt lat="46.42209" lon="0.28907">
        <ele>121.74624147173</ele>
        <time>2021-11-04T08:56:08Z</time>
      </trkpt>
      <trkpt lat="46.42212" lon="0.28907">
        <ele>121.79228414781</ele>
        <time>2021-11-04T08:56:10Z</time>
      </trkpt>
      <trkpt lat="46.42214" lon="0.28908">
        <ele>122.3316819584</ele>
        <time>2021-11-04T08:56:12Z</time>
      </trkpt>
      <trkpt lat="46.42217" lon="0.28908">
        <ele>122.13430443965</ele>
        <time>2021-11-04T08:56:14Z</time>
      </trkpt>
      <trkpt lat="46.42219" lon="0.28908">
        <ele>121.68240642641</ele>
        <time>2021-11-04T08:56:16Z</time>
      </trkpt>
      <trkpt lat="46.42222" lon="0.28908">
        <ele>121.4073634306</ele>
        <time>2021-11-04T08:56:18Z</time>
      </trkpt>
      <trkpt lat="46.42224" lon="0.28909">
        <ele>121.86972435191</ele>
        <time>2021-11-04T08:56:20Z</time>
      </trkpt>
      <trkpt lat="46.42226" lon="0.28909">
        <ele>121.82344622351</ele>
        <time>2021-11-04T08:56:22Z</time>
      </trkpt>
      <trkpt lat="46.42228" lon="0.28909">
        <ele>121.75195303652</ele>
        <time>2021-11-04T08:56:24Z</time>
      </trkpt>
      <trkpt lat="46.4223" lon="0.28909">
        <ele>121.57892285753</ele>
        <time>2021-11-04T08:56:27Z</time>
      </trkpt>
      <trkpt lat="46.42233" lon="0.2891">
        <ele>121.89885039534</ele>
        <time>2021-11-04T08:56:30Z</time>
      </trkpt>
      <trkpt lat="46.42236" lon="0.28911">
        <ele>121.68357994873</ele>
        <time>2021-11-04T08:56:33Z</time>
      </trkpt>
      <trkpt lat="46.42239" lon="0.28911">
        <ele>121.36554844584</ele>
        <time>2021-11-04T08:56:35Z</time>
      </trkpt>
      <trkpt lat="46.42241" lon="0.28912">
        <ele>121.59477467369</ele>
        <time>2021-11-04T08:56:37Z</time>
      </trkpt>
      <trkpt lat="46.42244" lon="0.28912">
        <ele>121.84786657803</ele>
        <time>2021-11-04T08:56:39Z</time>
      </trkpt>
      <trkpt lat="46.42246" lon="0.28912">
        <ele>122.03688758146</ele>
        <time>2021-11-04T08:56:41Z</time>
      </trkpt>
      <trkpt lat="46.42246" lon="0.28909">
        <ele>121.41833841056</ele>
        <time>2021-11-04T08:56:58Z</time>
      </trkpt>
      <trkpt lat="46.42247" lon="0.28911">
        <ele>121.50017721951</ele>
        <time>2021-11-04T08:57:14Z</time>
      </trkpt>
      <trkpt lat="46.42246" lon="0.28909">
        <ele>121.40481731948</ele>
        <time>2021-11-04T08:57:28Z</time>
      </trkpt>
      <trkpt lat="46.42248" lon="0.2891">
        <ele>121.11289526615</ele>
        <time>2021-11-04T08:57:41Z</time>
      </trkpt>
      <trkpt lat="46.4225" lon="0.2891">
        <ele>120.95197171997</ele>
        <time>2021-11-04T08:57:43Z</time>
      </trkpt>
      <trkpt lat="46.42253" lon="0.28909">
        <ele>121.62882750202</ele>
        <time>2021-11-04T08:57:45Z</time>
      </trkpt>
      <trkpt lat="46.42256" lon="0.28909">
        <ele>121.30970566068</ele>
        <time>2021-11-04T08:57:47Z</time>
      </trkpt>
      <trkpt lat="46.42258" lon="0.28908">
        <ele>120.79391195066</ele>
        <time>2021-11-04T08:57:49Z</time>
      </trkpt>
      <trkpt lat="46.4226" lon="0.28908">
        <ele>121.00474129897</ele>
        <time>2021-11-04T08:57:51Z</time>
      </trkpt>
      <trkpt lat="46.42263" lon="0.28908">
        <ele>120.80095225852</ele>
        <time>2021-11-04T08:57:53Z</time>
      </trkpt>
      <trkpt lat="46.42266" lon="0.28907">
        <ele>121.09288122691</ele>
        <time>2021-11-04T08:57:55Z</time>
      </trkpt>
      <trkpt lat="46.42268" lon="0.28907">
        <ele>120.99897000566</ele>
        <time>2021-11-04T08:57:57Z</time>
      </trkpt>
      <trkpt lat="46.4227" lon="0.28908">
        <ele>120.95455506444</ele>
        <time>2021-11-04T08:57:59Z</time>
      </trkpt>
      <trkpt lat="46.42272" lon="0.28908">
        <ele>121.08416713867</ele>
        <time>2021-11-04T08:58:00Z</time>
      </trkpt>
      <trkpt lat="46.42274" lon="0.28908">
        <ele>120.87910030689</ele>
        <time>2021-11-04T08:58:02Z</time>
      </trkpt>
      <trkpt lat="46.42277" lon="0.28907">
        <ele>120.71645046212</ele>
        <time>2021-11-04T08:58:04Z</time>
      </trkpt>
      <trkpt lat="46.42279" lon="0.28908">
        <ele>120.69359885715</ele>
        <time>2021-11-04T08:58:06Z</time>
      </trkpt>
      <trkpt lat="46.42281" lon="0.28908">
        <ele>121.21423995402</ele>
        <time>2021-11-04T08:58:08Z</time>
      </trkpt>
      <trkpt lat="46.42284" lon="0.28908">
        <ele>120.46474898141</ele>
        <time>2021-11-04T08:58:10Z</time>
      </trkpt>
      <trkpt lat="46.42286" lon="0.28908">
        <ele>120.53888006788</ele>
        <time>2021-11-04T08:58:12Z</time>
      </trkpt>
      <trkpt lat="46.42289" lon="0.28908">
        <ele>120.5179171348</ele>
        <time>2021-11-04T08:58:14Z</time>
      </trkpt>
      <trkpt lat="46.42291" lon="0.28908">
        <ele>120.82328294031</ele>
        <time>2021-11-04T08:58:16Z</time>
      </trkpt>
      <trkpt lat="46.42293" lon="0.28907">
        <ele>120.3144219555</ele>
        <time>2021-11-04T08:58:18Z</time>
      </trkpt>
      <trkpt lat="46.42295" lon="0.28907">
        <ele>120.66558093484</ele>
        <time>2021-11-04T08:58:20Z</time>
      </trkpt>
      <trkpt lat="46.42297" lon="0.28906">
        <ele>120.61954074632</ele>
        <time>2021-11-04T08:58:22Z</time>
      </trkpt>
      <trkpt lat="46.423" lon="0.28906">
        <ele>120.47281364538</ele>
        <time>2021-11-04T08:58:24Z</time>
      </trkpt>
      <trkpt lat="46.42303" lon="0.28905">
        <ele>120.23240772635</ele>
        <time>2021-11-04T08:58:26Z</time>
      </trkpt>
      <trkpt lat="46.42305" lon="0.28905">
        <ele>120.17511038762</ele>
        <time>2021-11-04T08:58:28Z</time>
      </trkpt>
      <trkpt lat="46.42307" lon="0.28904">
        <ele>119.99723451678</ele>
        <time>2021-11-04T08:58:31Z</time>
      </trkpt>
      <trkpt lat="46.4231" lon="0.28903">
        <ele>119.96955083311</ele>
        <time>2021-11-04T08:58:33Z</time>
      </trkpt>
      <trkpt lat="46.42312" lon="0.28903">
        <ele>120.09260666836</ele>
        <time>2021-11-04T08:58:35Z</time>
      </trkpt>
      <trkpt lat="46.42314" lon="0.28902">
        <ele>119.8755090218</ele>
        <time>2021-11-04T08:58:38Z</time>
      </trkpt>
      <trkpt lat="46.42317" lon="0.289">
        <ele>120.0579781523</ele>
        <time>2021-11-04T08:58:40Z</time>
      </trkpt>
      <trkpt lat="46.4232" lon="0.28899">
        <ele>119.7736430103</ele>
        <time>2021-11-04T08:58:42Z</time>
      </trkpt>
      <trkpt lat="46.42322" lon="0.28898">
        <ele>119.93053057883</ele>
        <time>2021-11-04T08:58:44Z</time>
      </trkpt>
      <trkpt lat="46.42324" lon="0.28897">
        <ele>120.05059242714</ele>
        <time>2021-11-04T08:58:46Z</time>
      </trkpt>
      <trkpt lat="46.42327" lon="0.28897">
        <ele>119.56803492736</ele>
        <time>2021-11-04T08:58:49Z</time>
      </trkpt>
      <trkpt lat="46.42329" lon="0.28896">
        <ele>119.86564232688</ele>
        <time>2021-11-04T08:58:51Z</time>
      </trkpt>
      <trkpt lat="46.42332" lon="0.28895">
        <ele>119.86085582338</ele>
        <time>2021-11-04T08:58:53Z</time>
      </trkpt>
      <trkpt lat="46.42334" lon="0.28894">
        <ele>119.57558076642</ele>
        <time>2021-11-04T08:58:55Z</time>
      </trkpt>
      <trkpt lat="46.42337" lon="0.28893">
        <ele>119.47831318341</ele>
        <time>2021-11-04T08:58:57Z</time>
      </trkpt>
      <trkpt lat="46.42339" lon="0.28891">
        <ele>119.82337797526</ele>
        <time>2021-11-04T08:58:59Z</time>
      </trkpt>
      <trkpt lat="46.42341" lon="0.28891">
        <ele>119.28109240066</ele>
        <time>2021-11-04T08:59:01Z</time>
      </trkpt>
      <trkpt lat="46.42344" lon="0.2889">
        <ele>119.24289314635</ele>
        <time>2021-11-04T08:59:03Z</time>
      </trkpt>
      <trkpt lat="46.42346" lon="0.28889">
        <ele>119.8148062788</ele>
        <time>2021-11-04T08:59:05Z</time>
      </trkpt>
      <trkpt lat="46.42348" lon="0.28889">
        <ele>119.45330495015</ele>
        <time>2021-11-04T08:59:07Z</time>
      </trkpt>
      <trkpt lat="46.42351" lon="0.28888">
        <ele>119.31189500261</ele>
        <time>2021-11-04T08:59:09Z</time>
      </trkpt>
      <trkpt lat="46.42354" lon="0.28887">
        <ele>119.37745084986</ele>
        <time>2021-11-04T08:59:11Z</time>
      </trkpt>
      <trkpt lat="46.42357" lon="0.28885">
        <ele>119.02602881286</ele>
        <time>2021-11-04T08:59:13Z</time>
      </trkpt>
      <trkpt lat="46.42358" lon="0.28885">
        <ele>119.08773850743</ele>
        <time>2021-11-04T08:59:15Z</time>
      </trkpt>
      <trkpt lat="46.42361" lon="0.28884">
        <ele>118.74682928901</ele>
        <time>2021-11-04T08:59:17Z</time>
      </trkpt>
      <trkpt lat="46.42364" lon="0.28883">
        <ele>118.90809642803</ele>
        <time>2021-11-04T08:59:19Z</time>
      </trkpt>
      <trkpt lat="46.42366" lon="0.28883">
        <ele>118.38347927667</ele>
        <time>2021-11-04T08:59:22Z</time>
      </trkpt>
      <trkpt lat="46.42369" lon="0.28882">
        <ele>118.41683919169</ele>
        <time>2021-11-04T08:59:24Z</time>
      </trkpt>
      <trkpt lat="46.42371" lon="0.28882">
        <ele>118.40809532255</ele>
        <time>2021-11-04T08:59:26Z</time>
      </trkpt>
      <trkpt lat="46.42373" lon="0.28881">
        <ele>118.2364191357</ele>
        <time>2021-11-04T08:59:28Z</time>
      </trkpt>
      <trkpt lat="46.42376" lon="0.28881">
        <ele>118.0645042602</ele>
        <time>2021-11-04T08:59:31Z</time>
      </trkpt>
      <trkpt lat="46.42378" lon="0.28881">
        <ele>118.07144634146</ele>
        <time>2021-11-04T08:59:33Z</time>
      </trkpt>
      <trkpt lat="46.42381" lon="0.2888">
        <ele>117.94529518671</ele>
        <time>2021-11-04T08:59:35Z</time>
      </trkpt>
      <trkpt lat="46.42383" lon="0.2888">
        <ele>117.29251701012</ele>
        <time>2021-11-04T08:59:37Z</time>
      </trkpt>
      <trkpt lat="46.42385" lon="0.28879">
        <ele>117.39644984063</ele>
        <time>2021-11-04T08:59:39Z</time>
      </trkpt>
      <trkpt lat="46.42388" lon="0.2888">
        <ele>117.4632694656</ele>
        <time>2021-11-04T08:59:42Z</time>
      </trkpt>
      <trkpt lat="46.4239" lon="0.28879">
        <ele>117.12228157744</ele>
        <time>2021-11-04T08:59:45Z</time>
      </trkpt>
      <trkpt lat="46.42393" lon="0.28879">
        <ele>117.2621612465</ele>
        <time>2021-11-04T08:59:48Z</time>
      </trkpt>
      <trkpt lat="46.42395" lon="0.28878">
        <ele>117.00529542938</ele>
        <time>2021-11-04T08:59:50Z</time>
      </trkpt>
      <trkpt lat="46.42397" lon="0.28878">
        <ele>116.74455644749</ele>
        <time>2021-11-04T08:59:52Z</time>
      </trkpt>
      <trkpt lat="46.42399" lon="0.28878">
        <ele>116.15051894076</ele>
        <time>2021-11-04T08:59:54Z</time>
      </trkpt>
      <trkpt lat="46.42402" lon="0.28878">
        <ele>116.53601473104</ele>
        <time>2021-11-04T08:59:57Z</time>
      </trkpt>
      <trkpt lat="46.42405" lon="0.28877">
        <ele>115.84159208927</ele>
        <time>2021-11-04T09:00:00Z</time>
      </trkpt>
      <trkpt lat="46.42406" lon="0.28876">
        <ele>116.06698106602</ele>
        <time>2021-11-04T09:00:02Z</time>
      </trkpt>
      <trkpt lat="46.42409" lon="0.28875">
        <ele>115.27931608632</ele>
        <time>2021-11-04T09:00:05Z</time>
      </trkpt>
      <trkpt lat="46.42412" lon="0.28875">
        <ele>115.54111896455</ele>
        <time>2021-11-04T09:00:07Z</time>
      </trkpt>
      <trkpt lat="46.42414" lon="0.28875">
        <ele>115.47807343118</ele>
        <time>2021-11-04T09:00:09Z</time>
      </trkpt>
      <trkpt lat="46.42416" lon="0.28874">
        <ele>115.48959545605</ele>
        <time>2021-11-04T09:00:11Z</time>
      </trkpt>
      <trkpt lat="46.42418" lon="0.28874">
        <ele>114.7774536917</ele>
        <time>2021-11-04T09:00:13Z</time>
      </trkpt>
      <trkpt lat="46.42421" lon="0.28873">
        <ele>114.76036333665</ele>
        <time>2021-11-04T09:00:15Z</time>
      </trkpt>
      <trkpt lat="46.42424" lon="0.28871">
        <ele>114.31055291649</ele>
        <time>2021-11-04T09:00:17Z</time>
      </trkpt>
      <trkpt lat="46.42426" lon="0.28871">
        <ele>114.36704342999</ele>
        <time>2021-11-04T09:00:19Z</time>
      </trkpt>
      <trkpt lat="46.42429" lon="0.2887">
        <ele>113.82300485112</ele>
        <time>2021-11-04T09:00:22Z</time>
      </trkpt>
      <trkpt lat="46.42431" lon="0.28868">
        <ele>113.042888592</ele>
        <time>2021-11-04T09:00:24Z</time>
      </trkpt>
      <trkpt lat="46.42434" lon="0.28867">
        <ele>113.08153192513</ele>
        <time>2021-11-04T09:00:26Z</time>
      </trkpt>
      <trkpt lat="46.42436" lon="0.28866">
        <ele>112.49289400131</ele>
        <time>2021-11-04T09:00:28Z</time>
      </trkpt>
      <trkpt lat="46.42438" lon="0.28866">
        <ele>113.11182400957</ele>
        <time>2021-11-04T09:00:30Z</time>
      </trkpt>
      <trkpt lat="46.4244" lon="0.28866">
        <ele>112.25823388714</ele>
        <time>2021-11-04T09:00:32Z</time>
      </trkpt>
      <trkpt lat="46.42442" lon="0.28865">
        <ele>112.35630915035</ele>
        <time>2021-11-04T09:00:34Z</time>
      </trkpt>
      <trkpt lat="46.42444" lon="0.28865">
        <ele>111.38981252909</ele>
        <time>2021-11-04T09:00:36Z</time>
      </trkpt>
      <trkpt lat="46.42446" lon="0.28865">
        <ele>111.65896511078</ele>
        <time>2021-11-04T09:00:38Z</time>
      </trkpt>
      <trkpt lat="46.42449" lon="0.28867">
        <ele>111.26969192177</ele>
        <time>2021-11-04T09:00:40Z</time>
      </trkpt>
      <trkpt lat="46.42451" lon="0.28867">
        <ele>110.95953737479</ele>
        <time>2021-11-04T09:00:42Z</time>
      </trkpt>
      <trkpt lat="46.42453" lon="0.28868">
        <ele>111.13517207187</ele>
        <time>2021-11-04T09:00:44Z</time>
      </trkpt>
      <trkpt lat="46.42455" lon="0.28869">
        <ele>110.81388556678</ele>
        <time>2021-11-04T09:00:46Z</time>
      </trkpt>
      <trkpt lat="46.42457" lon="0.28869">
        <ele>110.82435822021</ele>
        <time>2021-11-04T09:00:48Z</time>
      </trkpt>
      <trkpt lat="46.42459" lon="0.2887">
        <ele>110.12295867223</ele>
        <time>2021-11-04T09:00:50Z</time>
      </trkpt>
      <trkpt lat="46.42461" lon="0.28872">
        <ele>110.04422197584</ele>
        <time>2021-11-04T09:00:52Z</time>
      </trkpt>
      <trkpt lat="46.42464" lon="0.28874">
        <ele>109.72494600248</ele>
        <time>2021-11-04T09:00:54Z</time>
      </trkpt>
      <trkpt lat="46.42466" lon="0.28876">
        <ele>109.68626330607</ele>
        <time>2021-11-04T09:00:56Z</time>
      </trkpt>
      <trkpt lat="46.42468" lon="0.28878">
        <ele>109.2027661223</ele>
        <time>2021-11-04T09:00:58Z</time>
      </trkpt>
      <trkpt lat="46.4247" lon="0.28879">
        <ele>109.23031195439</ele>
        <time>2021-11-04T09:01:00Z</time>
      </trkpt>
      <trkpt lat="46.42472" lon="0.28881">
        <ele>108.81101821177</ele>
        <time>2021-11-04T09:01:02Z</time>
      </trkpt>
      <trkpt lat="46.42474" lon="0.28883">
        <ele>108.55648412369</ele>
        <time>2021-11-04T09:01:04Z</time>
      </trkpt>
      <trkpt lat="46.42475" lon="0.28886">
        <ele>107.93747427501</ele>
        <time>2021-11-04T09:01:06Z</time>
      </trkpt>
      <trkpt lat="46.42477" lon="0.28888">
        <ele>107.70506209694</ele>
        <time>2021-11-04T09:01:08Z</time>
      </trkpt>
      <trkpt lat="46.42478" lon="0.28889">
        <ele>107.62841155846</ele>
        <time>2021-11-04T09:01:10Z</time>
      </trkpt>
      <trkpt lat="46.4248" lon="0.28891">
        <ele>108.14939347934</ele>
        <time>2021-11-04T09:01:12Z</time>
      </trkpt>
      <trkpt lat="46.42482" lon="0.28891">
        <ele>107.68583381921</ele>
        <time>2021-11-04T09:01:14Z</time>
      </trkpt>
      <trkpt lat="46.42484" lon="0.28893">
        <ele>107.27927775867</ele>
        <time>2021-11-04T09:01:16Z</time>
      </trkpt>
      <trkpt lat="46.42486" lon="0.28895">
        <ele>107.52507926524</ele>
        <time>2021-11-04T09:01:19Z</time>
      </trkpt>
      <trkpt lat="46.42489" lon="0.28894">
        <ele>106.92305488698</ele>
        <time>2021-11-04T09:01:21Z</time>
      </trkpt>
      <trkpt lat="46.42491" lon="0.28896">
        <ele>106.88933151681</ele>
        <time>2021-11-04T09:01:23Z</time>
      </trkpt>
      <trkpt lat="46.42493" lon="0.28899">
        <ele>106.90552366059</ele>
        <time>2021-11-04T09:01:26Z</time>
      </trkpt>
      <trkpt lat="46.42495" lon="0.289">
        <ele>105.91470282152</ele>
        <time>2021-11-04T09:01:29Z</time>
      </trkpt>
      <trkpt lat="46.42498" lon="0.28901">
        <ele>106.19320101477</ele>
        <time>2021-11-04T09:01:31Z</time>
      </trkpt>
      <trkpt lat="46.425" lon="0.28902">
        <ele>105.71953579597</ele>
        <time>2021-11-04T09:01:33Z</time>
      </trkpt>
      <trkpt lat="46.42502" lon="0.28901">
        <ele>105.93932213169</ele>
        <time>2021-11-04T09:01:34Z</time>
      </trkpt>
      <trkpt lat="46.42504" lon="0.28902">
        <ele>105.65273396671</ele>
        <time>2021-11-04T09:01:36Z</time>
      </trkpt>
      <trkpt lat="46.42507" lon="0.28903">
        <ele>105.25396327022</ele>
        <time>2021-11-04T09:01:38Z</time>
      </trkpt>
      <trkpt lat="46.4251" lon="0.28903">
        <ele>105.29730653856</ele>
        <time>2021-11-04T09:01:40Z</time>
      </trkpt>
      <trkpt lat="46.42512" lon="0.28903">
        <ele>105.04077258334</ele>
        <time>2021-11-04T09:01:42Z</time>
      </trkpt>
      <trkpt lat="46.42513" lon="0.28904">
        <ele>105.2581623327</ele>
        <time>2021-11-04T09:01:44Z</time>
      </trkpt>
      <trkpt lat="46.42516" lon="0.28904">
        <ele>105.37759910617</ele>
        <time>2021-11-04T09:01:46Z</time>
      </trkpt>
      <trkpt lat="46.42518" lon="0.28906">
        <ele>104.7869356228</ele>
        <time>2021-11-04T09:01:48Z</time>
      </trkpt>
      <trkpt lat="46.4252" lon="0.28904">
        <ele>104.58347372431</ele>
        <time>2021-11-04T09:01:52Z</time>
      </trkpt>
      <trkpt lat="46.42519" lon="0.28907">
        <ele>104.76822200324</ele>
        <time>2021-11-04T09:01:54Z</time>
      </trkpt>
      <trkpt lat="46.42523" lon="0.28908">
        <ele>104.26619744394</ele>
        <time>2021-11-04T09:02:03Z</time>
      </trkpt>
      <trkpt lat="46.42526" lon="0.28909">
        <ele>104.17410276551</ele>
        <time>2021-11-04T09:02:05Z</time>
      </trkpt>
      <trkpt lat="46.42527" lon="0.28911">
        <ele>104.17953476217</ele>
        <time>2021-11-04T09:02:07Z</time>
      </trkpt>
      <trkpt lat="46.4253" lon="0.28911">
        <ele>104.16448133159</ele>
        <time>2021-11-04T09:02:10Z</time>
      </trkpt>
      <trkpt lat="46.42532" lon="0.28912">
        <ele>104.11271693558</ele>
        <time>2021-11-04T09:02:13Z</time>
      </trkpt>
      <trkpt lat="46.42535" lon="0.28913">
        <ele>103.38572339155</ele>
        <time>2021-11-04T09:02:15Z</time>
      </trkpt>
      <trkpt lat="46.42537" lon="0.28914">
        <ele>103.60009444598</ele>
        <time>2021-11-04T09:02:17Z</time>
      </trkpt>
      <trkpt lat="46.42539" lon="0.28915">
        <ele>103.51266568527</ele>
        <time>2021-11-04T09:02:19Z</time>
      </trkpt>
      <trkpt lat="46.42541" lon="0.28916">
        <ele>103.03826771211</ele>
        <time>2021-11-04T09:02:21Z</time>
      </trkpt>
      <trkpt lat="46.42543" lon="0.28916">
        <ele>103.28959228937</ele>
        <time>2021-11-04T09:02:23Z</time>
      </trkpt>
      <trkpt lat="46.42545" lon="0.28918">
        <ele>102.7239579754</ele>
        <time>2021-11-04T09:02:25Z</time>
      </trkpt>
      <trkpt lat="46.42549" lon="0.28917">
        <ele>102.3123336127</ele>
        <time>2021-11-04T09:02:28Z</time>
      </trkpt>
      <trkpt lat="46.42551" lon="0.28918">
        <ele>102.39425130375</ele>
        <time>2021-11-04T09:02:31Z</time>
      </trkpt>
      <trkpt lat="46.42554" lon="0.28919">
        <ele>101.89251015801</ele>
        <time>2021-11-04T09:02:33Z</time>
      </trkpt>
      <trkpt lat="46.42556" lon="0.28921">
        <ele>101.80496206973</ele>
        <time>2021-11-04T09:02:35Z</time>
      </trkpt>
      <trkpt lat="46.42558" lon="0.28921">
        <ele>101.86901273113</ele>
        <time>2021-11-04T09:02:37Z</time>
      </trkpt>
      <trkpt lat="46.4256" lon="0.28923">
        <ele>101.197868363</ele>
        <time>2021-11-04T09:02:39Z</time>
      </trkpt>
      <trkpt lat="46.42562" lon="0.28924">
        <ele>102.09757637139</ele>
        <time>2021-11-04T09:02:41Z</time>
      </trkpt>
      <trkpt lat="46.42564" lon="0.28926">
        <ele>101.59208192583</ele>
        <time>2021-11-04T09:02:43Z</time>
      </trkpt>
      <trkpt lat="46.42566" lon="0.28927">
        <ele>101.60822047293</ele>
        <time>2021-11-04T09:02:45Z</time>
      </trkpt>
      <trkpt lat="46.42568" lon="0.28928">
        <ele>101.34568574186</ele>
        <time>2021-11-04T09:02:47Z</time>
      </trkpt>
      <trkpt lat="46.4257" lon="0.28929">
        <ele>101.2048928719</ele>
        <time>2021-11-04T09:02:49Z</time>
      </trkpt>
      <trkpt lat="46.42572" lon="0.2893">
        <ele>101.37779963668</ele>
        <time>2021-11-04T09:02:51Z</time>
      </trkpt>
      <trkpt lat="46.42574" lon="0.28932">
        <ele>101.76255326997</ele>
        <time>2021-11-04T09:02:54Z</time>
      </trkpt>
      <trkpt lat="46.42577" lon="0.28933">
        <ele>101.12265406456</ele>
        <time>2021-11-04T09:02:56Z</time>
      </trkpt>
      <trkpt lat="46.4258" lon="0.28933">
        <ele>101.47634256445</ele>
        <time>2021-11-04T09:02:58Z</time>
      </trkpt>
      <trkpt lat="46.42583" lon="0.28936">
        <ele>101.04939144198</ele>
        <time>2021-11-04T09:03:00Z</time>
      </trkpt>
      <trkpt lat="46.42585" lon="0.28938">
        <ele>101.22075004131</ele>
        <time>2021-11-04T09:03:02Z</time>
      </trkpt>
      <trkpt lat="46.42588" lon="0.28939">
        <ele>101.34583452158</ele>
        <time>2021-11-04T09:03:05Z</time>
      </trkpt>
      <trkpt lat="46.4259" lon="0.2894">
        <ele>100.54599758983</ele>
        <time>2021-11-04T09:03:07Z</time>
      </trkpt>
      <trkpt lat="46.42592" lon="0.2894">
        <ele>100.89782670978</ele>
        <time>2021-11-04T09:03:08Z</time>
      </trkpt>
      <trkpt lat="46.42594" lon="0.28941">
        <ele>100.77469245251</ele>
        <time>2021-11-04T09:03:10Z</time>
      </trkpt>
      <trkpt lat="46.42596" lon="0.28941">
        <ele>100.57488754205</ele>
        <time>2021-11-04T09:03:12Z</time>
      </trkpt>
      <trkpt lat="46.42599" lon="0.28942">
        <ele>100.40538964327</ele>
        <time>2021-11-04T09:03:14Z</time>
      </trkpt>
      <trkpt lat="46.42601" lon="0.28943">
        <ele>100.45769875683</ele>
        <time>2021-11-04T09:03:16Z</time>
      </trkpt>
      <trkpt lat="46.42604" lon="0.28944">
        <ele>100.78581138607</ele>
        <time>2021-11-04T09:03:18Z</time>
      </trkpt>
      <trkpt lat="46.42607" lon="0.28946">
        <ele>100.08839184698</ele>
        <time>2021-11-04T09:03:21Z</time>
      </trkpt>
      <trkpt lat="46.42609" lon="0.28948">
        <ele>99.939983040094</ele>
        <time>2021-11-04T09:03:23Z</time>
      </trkpt>
      <trkpt lat="46.42611" lon="0.28949">
        <ele>99.914670021273</ele>
        <time>2021-11-04T09:03:25Z</time>
      </trkpt>
      <trkpt lat="46.42613" lon="0.28951">
        <ele>99.636911188252</ele>
        <time>2021-11-04T09:03:27Z</time>
      </trkpt>
      <trkpt lat="46.42615" lon="0.28952">
        <ele>99.513131957501</ele>
        <time>2021-11-04T09:03:29Z</time>
      </trkpt>
      <trkpt lat="46.42618" lon="0.28954">
        <ele>99.556415864266</ele>
        <time>2021-11-04T09:03:31Z</time>
      </trkpt>
      <trkpt lat="46.4262" lon="0.28955">
        <ele>99.727455493994</ele>
        <time>2021-11-04T09:03:33Z</time>
      </trkpt>
      <trkpt lat="46.42621" lon="0.28958">
        <ele>99.468044628389</ele>
        <time>2021-11-04T09:03:35Z</time>
      </trkpt>
      <trkpt lat="46.42624" lon="0.28959">
        <ele>99.385837064125</ele>
        <time>2021-11-04T09:03:37Z</time>
      </trkpt>
      <trkpt lat="46.42626" lon="0.28961">
        <ele>99.125057165511</ele>
        <time>2021-11-04T09:03:40Z</time>
      </trkpt>
      <trkpt lat="46.42629" lon="0.28963">
        <ele>99.132358331233</ele>
        <time>2021-11-04T09:03:42Z</time>
      </trkpt>
      <trkpt lat="46.42631" lon="0.28964">
        <ele>99.493111567572</ele>
        <time>2021-11-04T09:03:44Z</time>
      </trkpt>
      <trkpt lat="46.42633" lon="0.28966">
        <ele>99.137130898423</ele>
        <time>2021-11-04T09:03:46Z</time>
      </trkpt>
      <trkpt lat="46.42636" lon="0.28967">
        <ele>98.923073044978</ele>
        <time>2021-11-04T09:03:48Z</time>
      </trkpt>
      <trkpt lat="46.42638" lon="0.28969">
        <ele>98.962243037298</ele>
        <time>2021-11-04T09:03:50Z</time>
      </trkpt>
      <trkpt lat="46.4264" lon="0.28971">
        <ele>98.586631411687</ele>
        <time>2021-11-04T09:03:52Z</time>
      </trkpt>
      <trkpt lat="46.42642" lon="0.28973">
        <ele>98.527088789269</ele>
        <time>2021-11-04T09:03:54Z</time>
      </trkpt>
      <trkpt lat="46.42644" lon="0.28974">
        <ele>98.686766562983</ele>
        <time>2021-11-04T09:03:56Z</time>
      </trkpt>
      <trkpt lat="46.42646" lon="0.28976">
        <ele>98.148137480952</ele>
        <time>2021-11-04T09:03:58Z</time>
      </trkpt>
      <trkpt lat="46.42648" lon="0.28977">
        <ele>98.42625635583</ele>
        <time>2021-11-04T09:04:00Z</time>
      </trkpt>
      <trkpt lat="46.42651" lon="0.28979">
        <ele>98.142784071155</ele>
        <time>2021-11-04T09:04:03Z</time>
      </trkpt>
      <trkpt lat="46.42654" lon="0.28979">
        <ele>98.028375401162</ele>
        <time>2021-11-04T09:04:05Z</time>
      </trkpt>
      <trkpt lat="46.42656" lon="0.28981">
        <ele>98.508519370109</ele>
        <time>2021-11-04T09:04:07Z</time>
      </trkpt>
      <trkpt lat="46.42659" lon="0.28982">
        <ele>98.223868796602</ele>
        <time>2021-11-04T09:04:10Z</time>
      </trkpt>
      <trkpt lat="46.42661" lon="0.28983">
        <ele>98.19234213233</ele>
        <time>2021-11-04T09:04:12Z</time>
      </trkpt>
      <trkpt lat="46.42664" lon="0.28983">
        <ele>98.386490418576</ele>
        <time>2021-11-04T09:04:14Z</time>
      </trkpt>
      <trkpt lat="46.42666" lon="0.28984">
        <ele>97.778421887197</ele>
        <time>2021-11-04T09:04:16Z</time>
      </trkpt>
      <trkpt lat="46.42668" lon="0.28985">
        <ele>98.02665004041</ele>
        <time>2021-11-04T09:04:18Z</time>
      </trkpt>
      <trkpt lat="46.4267" lon="0.28986">
        <ele>98.050768700428</ele>
        <time>2021-11-04T09:04:20Z</time>
      </trkpt>
      <trkpt lat="46.42673" lon="0.28986">
        <ele>97.849042208865</ele>
        <time>2021-11-04T09:04:22Z</time>
      </trkpt>
      <trkpt lat="46.42675" lon="0.28987">
        <ele>98.079669271596</ele>
        <time>2021-11-04T09:04:24Z</time>
      </trkpt>
      <trkpt lat="46.42676" lon="0.28988">
        <ele>97.699618797749</ele>
        <time>2021-11-04T09:04:26Z</time>
      </trkpt>
      <trkpt lat="46.42678" lon="0.28989">
        <ele>97.919776527211</ele>
        <time>2021-11-04T09:04:28Z</time>
      </trkpt>
      <trkpt lat="46.42681" lon="0.28989">
        <ele>97.620825181715</ele>
        <time>2021-11-04T09:04:30Z</time>
      </trkpt>
      <trkpt lat="46.42684" lon="0.2899">
        <ele>97.802029133774</ele>
        <time>2021-11-04T09:04:32Z</time>
      </trkpt>
      <trkpt lat="46.42686" lon="0.28991">
        <ele>97.883528786711</ele>
        <time>2021-11-04T09:04:34Z</time>
      </trkpt>
      <trkpt lat="46.42688" lon="0.28992">
        <ele>97.310138830915</ele>
        <time>2021-11-04T09:04:36Z</time>
      </trkpt>
      <trkpt lat="46.4269" lon="0.28993">
        <ele>97.715561842546</ele>
        <time>2021-11-04T09:04:38Z</time>
      </trkpt>
      <trkpt lat="46.42692" lon="0.28994">
        <ele>97.288545331918</ele>
        <time>2021-11-04T09:04:41Z</time>
      </trkpt>
      <trkpt lat="46.42694" lon="0.28995">
        <ele>97.659868313</ele>
        <time>2021-11-04T09:04:43Z</time>
      </trkpt>
      <trkpt lat="46.42696" lon="0.28995">
        <ele>97.566748285666</ele>
        <time>2021-11-04T09:04:45Z</time>
      </trkpt>
      <trkpt lat="46.42698" lon="0.28996">
        <ele>97.21171833016</ele>
        <time>2021-11-04T09:04:47Z</time>
      </trkpt>
      <trkpt lat="46.42701" lon="0.28997">
        <ele>97.497964411974</ele>
        <time>2021-11-04T09:04:49Z</time>
      </trkpt>
      <trkpt lat="46.42702" lon="0.28998">
        <ele>97.130531523377</ele>
        <time>2021-11-04T09:04:51Z</time>
      </trkpt>
      <trkpt lat="46.42705" lon="0.28999">
        <ele>96.965254977345</ele>
        <time>2021-11-04T09:04:53Z</time>
      </trkpt>
      <trkpt lat="46.42707" lon="0.29">
        <ele>97.041031015106</ele>
        <time>2021-11-04T09:04:55Z</time>
      </trkpt>
      <trkpt lat="46.4271" lon="0.29002">
        <ele>97.452281483449</ele>
        <time>2021-11-04T09:04:57Z</time>
      </trkpt>
      <trkpt lat="46.42712" lon="0.29003">
        <ele>96.91192426905</ele>
        <time>2021-11-04T09:04:59Z</time>
      </trkpt>
      <trkpt lat="46.42714" lon="0.29005">
        <ele>97.191172803752</ele>
        <time>2021-11-04T09:05:01Z</time>
      </trkpt>
      <trkpt lat="46.42716" lon="0.29005">
        <ele>97.3187927166</ele>
        <time>2021-11-04T09:05:03Z</time>
      </trkpt>
      <trkpt lat="46.42719" lon="0.29005">
        <ele>96.835371361114</ele>
        <time>2021-11-04T09:05:05Z</time>
      </trkpt>
      <trkpt lat="46.42721" lon="0.29007">
        <ele>97.197882096283</ele>
        <time>2021-11-04T09:05:07Z</time>
      </trkpt>
      <trkpt lat="46.42723" lon="0.29008">
        <ele>96.970175829716</ele>
        <time>2021-11-04T09:05:09Z</time>
      </trkpt>
      <trkpt lat="46.42726" lon="0.2901">
        <ele>96.790351074189</ele>
        <time>2021-11-04T09:05:12Z</time>
      </trkpt>
      <trkpt lat="46.42728" lon="0.2901">
        <ele>97.709672646597</ele>
        <time>2021-11-04T09:05:14Z</time>
      </trkpt>
      <trkpt lat="46.42731" lon="0.29012">
        <ele>97.047793406993</ele>
        <time>2021-11-04T09:05:17Z</time>
      </trkpt>
      <trkpt lat="46.42733" lon="0.29013">
        <ele>97.064404208213</ele>
        <time>2021-11-04T09:05:19Z</time>
      </trkpt>
      <trkpt lat="46.42735" lon="0.29014">
        <ele>96.689851740375</ele>
        <time>2021-11-04T09:05:21Z</time>
      </trkpt>
      <trkpt lat="46.42737" lon="0.29015">
        <ele>96.813048587181</ele>
        <time>2021-11-04T09:05:23Z</time>
      </trkpt>
      <trkpt lat="46.4274" lon="0.29017">
        <ele>96.732074258849</ele>
        <time>2021-11-04T09:05:25Z</time>
      </trkpt>
      <trkpt lat="46.42742" lon="0.29019">
        <ele>96.647724285722</ele>
        <time>2021-11-04T09:05:27Z</time>
      </trkpt>
      <trkpt lat="46.42745" lon="0.29021">
        <ele>96.727539520711</ele>
        <time>2021-11-04T09:05:29Z</time>
      </trkpt>
      <trkpt lat="46.42746" lon="0.29022">
        <ele>96.620159870945</ele>
        <time>2021-11-04T09:05:31Z</time>
      </trkpt>
      <trkpt lat="46.42749" lon="0.29024">
        <ele>96.468776974827</ele>
        <time>2021-11-04T09:05:33Z</time>
      </trkpt>
      <trkpt lat="46.42751" lon="0.29026">
        <ele>96.585578459315</ele>
        <time>2021-11-04T09:05:35Z</time>
      </trkpt>
      <trkpt lat="46.42753" lon="0.29028">
        <ele>96.347982014529</ele>
        <time>2021-11-04T09:05:37Z</time>
      </trkpt>
      <trkpt lat="46.42754" lon="0.29031">
        <ele>96.431154435501</ele>
        <time>2021-11-04T09:05:39Z</time>
      </trkpt>
      <trkpt lat="46.42757" lon="0.29033">
        <ele>96.561308581382</ele>
        <time>2021-11-04T09:05:41Z</time>
      </trkpt>
      <trkpt lat="46.42757" lon="0.29036">
        <ele>96.908265714534</ele>
        <time>2021-11-04T09:05:43Z</time>
      </trkpt>
      <trkpt lat="46.42759" lon="0.29038">
        <ele>96.178875681944</ele>
        <time>2021-11-04T09:05:46Z</time>
      </trkpt>
      <trkpt lat="46.42761" lon="0.2904">
        <ele>96.683544280007</ele>
        <time>2021-11-04T09:05:48Z</time>
      </trkpt>
      <trkpt lat="46.42763" lon="0.29041">
        <ele>96.655382215045</ele>
        <time>2021-11-04T09:05:50Z</time>
      </trkpt>
      <trkpt lat="46.42766" lon="0.29043">
        <ele>96.988770374097</ele>
        <time>2021-11-04T09:05:53Z</time>
      </trkpt>
      <trkpt lat="46.42768" lon="0.29043">
        <ele>96.461622134782</ele>
        <time>2021-11-04T09:05:56Z</time>
      </trkpt>
      <trkpt lat="46.42771" lon="0.29044">
        <ele>96.435700262897</ele>
        <time>2021-11-04T09:05:58Z</time>
      </trkpt>
      <trkpt lat="46.42773" lon="0.29045">
        <ele>96.576117989607</ele>
        <time>2021-11-04T09:06:01Z</time>
      </trkpt>
      <trkpt lat="46.42776" lon="0.29043">
        <ele>96.18149088975</ele>
        <time>2021-11-04T09:06:03Z</time>
      </trkpt>
      <trkpt lat="46.42778" lon="0.29043">
        <ele>96.381418070756</ele>
        <time>2021-11-04T09:06:05Z</time>
      </trkpt>
      <trkpt lat="46.42781" lon="0.29044">
        <ele>95.837203275412</ele>
        <time>2021-11-04T09:06:07Z</time>
      </trkpt>
      <trkpt lat="46.42783" lon="0.29045">
        <ele>95.98891540803</ele>
        <time>2021-11-04T09:06:09Z</time>
      </trkpt>
      <trkpt lat="46.42785" lon="0.29046">
        <ele>95.783190637827</ele>
        <time>2021-11-04T09:06:11Z</time>
      </trkpt>
      <trkpt lat="46.42788" lon="0.29047">
        <ele>95.916764545254</ele>
        <time>2021-11-04T09:06:13Z</time>
      </trkpt>
      <trkpt lat="46.4279" lon="0.29049">
        <ele>95.508915607817</ele>
        <time>2021-11-04T09:06:15Z</time>
      </trkpt>
      <trkpt lat="46.42793" lon="0.29049">
        <ele>95.742906699888</ele>
        <time>2021-11-04T09:06:17Z</time>
      </trkpt>
      <trkpt lat="46.42795" lon="0.29049">
        <ele>95.446396384388</ele>
        <time>2021-11-04T09:06:19Z</time>
      </trkpt>
      <trkpt lat="46.42798" lon="0.2905">
        <ele>95.612857895903</ele>
        <time>2021-11-04T09:06:22Z</time>
      </trkpt>
      <trkpt lat="46.428" lon="0.29051">
        <ele>95.444994300604</ele>
        <time>2021-11-04T09:06:24Z</time>
      </trkpt>
      <trkpt lat="46.42803" lon="0.29052">
        <ele>95.946201243438</ele>
        <time>2021-11-04T09:06:26Z</time>
      </trkpt>
      <trkpt lat="46.42806" lon="0.29053">
        <ele>95.434187538922</ele>
        <time>2021-11-04T09:06:28Z</time>
      </trkpt>
      <trkpt lat="46.4281" lon="0.29053">
        <ele>95.344045693055</ele>
        <time>2021-11-04T09:06:31Z</time>
      </trkpt>
      <trkpt lat="46.42812" lon="0.29055">
        <ele>95.155586984009</ele>
        <time>2021-11-04T09:06:33Z</time>
      </trkpt>
      <trkpt lat="46.42815" lon="0.29055">
        <ele>95.280439184979</ele>
        <time>2021-11-04T09:06:36Z</time>
      </trkpt>
      <trkpt lat="46.42818" lon="0.29056">
        <ele>95.130450288765</ele>
        <time>2021-11-04T09:06:38Z</time>
      </trkpt>
      <trkpt lat="46.4282" lon="0.29057">
        <ele>94.771369729191</ele>
        <time>2021-11-04T09:06:40Z</time>
      </trkpt>
      <trkpt lat="46.42822" lon="0.29058">
        <ele>94.714894657955</ele>
        <time>2021-11-04T09:06:42Z</time>
      </trkpt>
      <trkpt lat="46.42824" lon="0.29059">
        <ele>94.371655940078</ele>
        <time>2021-11-04T09:06:44Z</time>
      </trkpt>
      <trkpt lat="46.42826" lon="0.2906">
        <ele>94.261230249889</ele>
        <time>2021-11-04T09:06:46Z</time>
      </trkpt>
      <trkpt lat="46.42828" lon="0.29061">
        <ele>94.263554866426</ele>
        <time>2021-11-04T09:06:48Z</time>
      </trkpt>
      <trkpt lat="46.42831" lon="0.29062">
        <ele>94.03165279422</ele>
        <time>2021-11-04T09:06:50Z</time>
      </trkpt>
      <trkpt lat="46.42834" lon="0.29063">
        <ele>93.906811250374</ele>
        <time>2021-11-04T09:06:53Z</time>
      </trkpt>
      <trkpt lat="46.42836" lon="0.29064">
        <ele>94.303193696775</ele>
        <time>2021-11-04T09:06:55Z</time>
      </trkpt>
      <trkpt lat="46.42838" lon="0.29065">
        <ele>93.619466756471</ele>
        <time>2021-11-04T09:06:57Z</time>
      </trkpt>
      <trkpt lat="46.42841" lon="0.29066">
        <ele>93.791358338669</ele>
        <time>2021-11-04T09:06:59Z</time>
      </trkpt>
      <trkpt lat="46.42842" lon="0.29067">
        <ele>93.855815396644</ele>
        <time>2021-11-04T09:07:01Z</time>
      </trkpt>
      <trkpt lat="46.42845" lon="0.29068">
        <ele>93.869190772064</ele>
        <time>2021-11-04T09:07:03Z</time>
      </trkpt>
      <trkpt lat="46.42847" lon="0.29069">
        <ele>93.847188613378</ele>
        <time>2021-11-04T09:07:05Z</time>
      </trkpt>
      <trkpt lat="46.42849" lon="0.2907">
        <ele>94.080069073476</ele>
        <time>2021-11-04T09:07:07Z</time>
      </trkpt>
      <trkpt lat="46.42852" lon="0.29072">
        <ele>93.953387231566</ele>
        <time>2021-11-04T09:07:09Z</time>
      </trkpt>
      <trkpt lat="46.42855" lon="0.29073">
        <ele>94.079307430424</ele>
        <time>2021-11-04T09:07:11Z</time>
      </trkpt>
      <trkpt lat="46.42857" lon="0.29074">
        <ele>94.030881264247</ele>
        <time>2021-11-04T09:07:13Z</time>
      </trkpt>
      <trkpt lat="46.42859" lon="0.29075">
        <ele>93.906787692569</ele>
        <time>2021-11-04T09:07:15Z</time>
      </trkpt>
      <trkpt lat="46.42861" lon="0.29077">
        <ele>93.865754663013</ele>
        <time>2021-11-04T09:07:17Z</time>
      </trkpt>
      <trkpt lat="46.42863" lon="0.29079">
        <ele>94.049799641594</ele>
        <time>2021-11-04T09:07:19Z</time>
      </trkpt>
      <trkpt lat="46.42865" lon="0.2908">
        <ele>94.308237886988</ele>
        <time>2021-11-04T09:07:21Z</time>
      </trkpt>
      <trkpt lat="46.42867" lon="0.29081">
        <ele>93.829785319045</ele>
        <time>2021-11-04T09:07:23Z</time>
      </trkpt>
      <trkpt lat="46.42869" lon="0.29082">
        <ele>93.609908121638</ele>
        <time>2021-11-04T09:07:25Z</time>
      </trkpt>
      <trkpt lat="46.42871" lon="0.29084">
        <ele>94.178945519961</ele>
        <time>2021-11-04T09:07:27Z</time>
      </trkpt>
      <trkpt lat="46.42874" lon="0.29086">
        <ele>94.124943788163</ele>
        <time>2021-11-04T09:07:30Z</time>
      </trkpt>
      <trkpt lat="46.42876" lon="0.29087">
        <ele>94.516360471956</ele>
        <time>2021-11-04T09:07:32Z</time>
      </trkpt>
      <trkpt lat="46.42877" lon="0.29088">
        <ele>93.700980162248</ele>
        <time>2021-11-04T09:07:34Z</time>
      </trkpt>
      <trkpt lat="46.42879" lon="0.29089">
        <ele>94.1006299695</ele>
        <time>2021-11-04T09:07:36Z</time>
      </trkpt>
      <trkpt lat="46.42882" lon="0.29091">
        <ele>93.980813500471</ele>
        <time>2021-11-04T09:07:38Z</time>
      </trkpt>
      <trkpt lat="46.42884" lon="0.29093">
        <ele>93.956051900052</ele>
        <time>2021-11-04T09:07:40Z</time>
      </trkpt>
      <trkpt lat="46.42886" lon="0.29094">
        <ele>93.862075502984</ele>
        <time>2021-11-04T09:07:42Z</time>
      </trkpt>
      <trkpt lat="46.42888" lon="0.29096">
        <ele>93.84518333897</ele>
        <time>2021-11-04T09:07:44Z</time>
      </trkpt>
      <trkpt lat="46.4289" lon="0.29097">
        <ele>93.604688346386</ele>
        <time>2021-11-04T09:07:46Z</time>
      </trkpt>
      <trkpt lat="46.42892" lon="0.29099">
        <ele>93.701528765261</ele>
        <time>2021-11-04T09:07:48Z</time>
      </trkpt>
      <trkpt lat="46.42894" lon="0.29101">
        <ele>93.756647936068</ele>
        <time>2021-11-04T09:07:50Z</time>
      </trkpt>
      <trkpt lat="46.42896" lon="0.29102">
        <ele>93.565831139684</ele>
        <time>2021-11-04T09:07:52Z</time>
      </trkpt>
      <trkpt lat="46.42898" lon="0.29104">
        <ele>93.508089167066</ele>
        <time>2021-11-04T09:07:54Z</time>
      </trkpt>
      <trkpt lat="46.429" lon="0.29106">
        <ele>93.912790694274</ele>
        <time>2021-11-04T09:07:56Z</time>
      </trkpt>
      <trkpt lat="46.42902" lon="0.29107">
        <ele>93.617770330049</ele>
        <time>2021-11-04T09:07:58Z</time>
      </trkpt>
      <trkpt lat="46.42904" lon="0.29109">
        <ele>93.713750963099</ele>
        <time>2021-11-04T09:08:00Z</time>
      </trkpt>
      <trkpt lat="46.42906" lon="0.29111">
        <ele>93.714229433797</ele>
        <time>2021-11-04T09:08:02Z</time>
      </trkpt>
      <trkpt lat="46.42908" lon="0.29113">
        <ele>93.491723784246</ele>
        <time>2021-11-04T09:08:04Z</time>
      </trkpt>
      <trkpt lat="46.4291" lon="0.29115">
        <ele>93.550999511965</ele>
        <time>2021-11-04T09:08:06Z</time>
      </trkpt>
      <trkpt lat="46.42912" lon="0.29116">
        <ele>93.679819685407</ele>
        <time>2021-11-04T09:08:08Z</time>
      </trkpt>
      <trkpt lat="46.42914" lon="0.29119">
        <ele>93.73440360371</ele>
        <time>2021-11-04T09:08:10Z</time>
      </trkpt>
      <trkpt lat="46.42916" lon="0.2912">
        <ele>93.361126958393</ele>
        <time>2021-11-04T09:08:12Z</time>
      </trkpt>
      <trkpt lat="46.42918" lon="0.29122">
        <ele>93.570904943161</ele>
        <time>2021-11-04T09:08:14Z</time>
      </trkpt>
      <trkpt lat="46.4292" lon="0.29123">
        <ele>93.210970271379</ele>
        <time>2021-11-04T09:08:16Z</time>
      </trkpt>
      <trkpt lat="46.42922" lon="0.29124">
        <ele>93.1856715912</ele>
        <time>2021-11-04T09:08:19Z</time>
      </trkpt>
      <trkpt lat="46.42924" lon="0.29126">
        <ele>93.720509881154</ele>
        <time>2021-11-04T09:08:21Z</time>
      </trkpt>
      <trkpt lat="46.42927" lon="0.29127">
        <ele>92.992347138003</ele>
        <time>2021-11-04T09:08:23Z</time>
      </trkpt>
      <trkpt lat="46.42929" lon="0.29129">
        <ele>93.529685678892</ele>
        <time>2021-11-04T09:08:25Z</time>
      </trkpt>
      <trkpt lat="46.42931" lon="0.29131">
        <ele>92.934798643924</ele>
        <time>2021-11-04T09:08:27Z</time>
      </trkpt>
      <trkpt lat="46.42933" lon="0.29132">
        <ele>92.661830091849</ele>
        <time>2021-11-04T09:08:29Z</time>
      </trkpt>
      <trkpt lat="46.42936" lon="0.29133">
        <ele>92.756905874237</ele>
        <time>2021-11-04T09:08:31Z</time>
      </trkpt>
      <trkpt lat="46.42939" lon="0.29135">
        <ele>92.405132347718</ele>
        <time>2021-11-04T09:08:33Z</time>
      </trkpt>
      <trkpt lat="46.42942" lon="0.29135">
        <ele>92.562819756567</ele>
        <time>2021-11-04T09:08:35Z</time>
      </trkpt>
      <trkpt lat="46.42944" lon="0.29136">
        <ele>92.562360191718</ele>
        <time>2021-11-04T09:08:37Z</time>
      </trkpt>
      <trkpt lat="46.42947" lon="0.29136">
        <ele>92.177487141453</ele>
        <time>2021-11-04T09:08:39Z</time>
      </trkpt>
      <trkpt lat="46.42949" lon="0.29137">
        <ele>92.488473914564</ele>
        <time>2021-11-04T09:08:41Z</time>
      </trkpt>
      <trkpt lat="46.42952" lon="0.29138">
        <ele>92.340918968432</ele>
        <time>2021-11-04T09:08:43Z</time>
      </trkpt>
      <trkpt lat="46.42955" lon="0.29139">
        <ele>91.99299664516</ele>
        <time>2021-11-04T09:08:46Z</time>
      </trkpt>
      <trkpt lat="46.42956" lon="0.29141">
        <ele>91.80305873882</ele>
        <time>2021-11-04T09:08:48Z</time>
      </trkpt>
      <trkpt lat="46.42959" lon="0.29141">
        <ele>92.139181369916</ele>
        <time>2021-11-04T09:08:50Z</time>
      </trkpt>
      <trkpt lat="46.42961" lon="0.2914">
        <ele>91.925054613501</ele>
        <time>2021-11-04T09:08:52Z</time>
      </trkpt>
      <trkpt lat="46.42963" lon="0.29141">
        <ele>91.728560376912</ele>
        <time>2021-11-04T09:08:54Z</time>
      </trkpt>
      <trkpt lat="46.42966" lon="0.2914">
        <ele>91.962154065259</ele>
        <time>2021-11-04T09:08:56Z</time>
      </trkpt>
      <trkpt lat="46.42968" lon="0.2914">
        <ele>91.875224529766</ele>
        <time>2021-11-04T09:08:58Z</time>
      </trkpt>
      <trkpt lat="46.42971" lon="0.2914">
        <ele>91.474422787316</ele>
        <time>2021-11-04T09:09:00Z</time>
      </trkpt>
      <trkpt lat="46.42973" lon="0.29141">
        <ele>91.410207371227</ele>
        <time>2021-11-04T09:09:03Z</time>
      </trkpt>
      <trkpt lat="46.42976" lon="0.29141">
        <ele>91.230167062953</ele>
        <time>2021-11-04T09:09:05Z</time>
      </trkpt>
      <trkpt lat="46.42978" lon="0.29141">
        <ele>91.548172742128</ele>
        <time>2021-11-04T09:09:07Z</time>
      </trkpt>
      <trkpt lat="46.4298" lon="0.29141">
        <ele>91.249931791797</ele>
        <time>2021-11-04T09:09:09Z</time>
      </trkpt>
      <trkpt lat="46.42982" lon="0.29141">
        <ele>91.315456024371</ele>
        <time>2021-11-04T09:09:11Z</time>
      </trkpt>
      <trkpt lat="46.42986" lon="0.29141">
        <ele>91.283490776084</ele>
        <time>2021-11-04T09:09:14Z</time>
      </trkpt>
      <trkpt lat="46.42988" lon="0.2914">
        <ele>91.216798578389</ele>
        <time>2021-11-04T09:09:17Z</time>
      </trkpt>
      <trkpt lat="46.42991" lon="0.29141">
        <ele>90.990213666111</ele>
        <time>2021-11-04T09:09:19Z</time>
      </trkpt>
      <trkpt lat="46.42994" lon="0.29141">
        <ele>90.873655503616</ele>
        <time>2021-11-04T09:09:22Z</time>
      </trkpt>
      <trkpt lat="46.42996" lon="0.29141">
        <ele>90.743163915351</ele>
        <time>2021-11-04T09:09:24Z</time>
      </trkpt>
      <trkpt lat="46.42998" lon="0.29141">
        <ele>91.129350772128</ele>
        <time>2021-11-04T09:09:26Z</time>
      </trkpt>
      <trkpt lat="46.43001" lon="0.2914">
        <ele>90.420585858636</ele>
        <time>2021-11-04T09:09:28Z</time>
      </trkpt>
      <trkpt lat="46.43003" lon="0.2914">
        <ele>90.696036797017</ele>
        <time>2021-11-04T09:09:30Z</time>
      </trkpt>
      <trkpt lat="46.43005" lon="0.2914">
        <ele>90.512502822094</ele>
        <time>2021-11-04T09:09:32Z</time>
      </trkpt>
      <trkpt lat="46.43007" lon="0.29141">
        <ele>90.489155759104</ele>
        <time>2021-11-04T09:09:34Z</time>
      </trkpt>
      <trkpt lat="46.4301" lon="0.2914">
        <ele>90.77488488704</ele>
        <time>2021-11-04T09:09:36Z</time>
      </trkpt>
      <trkpt lat="46.43012" lon="0.29141">
        <ele>90.297249854542</ele>
        <time>2021-11-04T09:09:38Z</time>
      </trkpt>
      <trkpt lat="46.43015" lon="0.29141">
        <ele>90.397911602631</ele>
        <time>2021-11-04T09:09:40Z</time>
      </trkpt>
      <trkpt lat="46.43017" lon="0.29141">
        <ele>90.304996339604</ele>
        <time>2021-11-04T09:09:42Z</time>
      </trkpt>
      <trkpt lat="46.4302" lon="0.29141">
        <ele>90.400641628541</ele>
        <time>2021-11-04T09:09:44Z</time>
      </trkpt>
      <trkpt lat="46.43022" lon="0.29141">
        <ele>90.61625450477</ele>
        <time>2021-11-04T09:09:46Z</time>
      </trkpt>
      <trkpt lat="46.43025" lon="0.29142">
        <ele>90.237504659221</ele>
        <time>2021-11-04T09:09:48Z</time>
      </trkpt>
      <trkpt lat="46.43028" lon="0.29142">
        <ele>90.624036970548</ele>
        <time>2021-11-04T09:09:50Z</time>
      </trkpt>
      <trkpt lat="46.4303" lon="0.29142">
        <ele>90.483898975886</ele>
        <time>2021-11-04T09:09:52Z</time>
      </trkpt>
      <trkpt lat="46.43032" lon="0.29143">
        <ele>90.633696235716</ele>
        <time>2021-11-04T09:09:54Z</time>
      </trkpt>
      <trkpt lat="46.43035" lon="0.29144">
        <ele>90.501404315233</ele>
        <time>2021-11-04T09:09:56Z</time>
      </trkpt>
      <trkpt lat="46.43037" lon="0.29144">
        <ele>90.266595977359</ele>
        <time>2021-11-04T09:09:58Z</time>
      </trkpt>
      <trkpt lat="46.43039" lon="0.29144">
        <ele>90.583820817992</ele>
        <time>2021-11-04T09:10:00Z</time>
      </trkpt>
      <trkpt lat="46.43042" lon="0.29144">
        <ele>90.998403733596</ele>
        <time>2021-11-04T09:10:02Z</time>
      </trkpt>
      <trkpt lat="46.43045" lon="0.29146">
        <ele>90.771664656699</ele>
        <time>2021-11-04T09:10:04Z</time>
      </trkpt>
      <trkpt lat="46.43048" lon="0.29146">
        <ele>90.573020303622</ele>
        <time>2021-11-04T09:10:07Z</time>
      </trkpt>
      <trkpt lat="46.4305" lon="0.29146">
        <ele>90.509875422344</ele>
        <time>2021-11-04T09:10:09Z</time>
      </trkpt>
      <trkpt lat="46.43053" lon="0.29147">
        <ele>90.359176233411</ele>
        <time>2021-11-04T09:10:11Z</time>
      </trkpt>
      <trkpt lat="46.43055" lon="0.29147">
        <ele>90.508035861887</ele>
        <time>2021-11-04T09:10:13Z</time>
      </trkpt>
      <trkpt lat="46.43057" lon="0.29148">
        <ele>90.433826823719</ele>
        <time>2021-11-04T09:10:15Z</time>
      </trkpt>
      <trkpt lat="46.43059" lon="0.29148">
        <ele>90.412648917176</ele>
        <time>2021-11-04T09:10:17Z</time>
      </trkpt>
      <trkpt lat="46.43061" lon="0.29149">
        <ele>90.5314424932</ele>
        <time>2021-11-04T09:10:19Z</time>
      </trkpt>
      <trkpt lat="46.43064" lon="0.2915">
        <ele>90.46352147311</ele>
        <time>2021-11-04T09:10:21Z</time>
      </trkpt>
      <trkpt lat="46.43066" lon="0.29151">
        <ele>90.233073370531</ele>
        <time>2021-11-04T09:10:23Z</time>
      </trkpt>
      <trkpt lat="46.43068" lon="0.29152">
        <ele>90.441513062455</ele>
        <time>2021-11-04T09:10:25Z</time>
      </trkpt>
      <trkpt lat="46.4307" lon="0.29152">
        <ele>90.058143280447</ele>
        <time>2021-11-04T09:10:27Z</time>
      </trkpt>
      <trkpt lat="46.43073" lon="0.29154">
        <ele>90.219422373921</ele>
        <time>2021-11-04T09:10:29Z</time>
      </trkpt>
      <trkpt lat="46.43074" lon="0.29155">
        <ele>90.16198796127</ele>
        <time>2021-11-04T09:10:31Z</time>
      </trkpt>
      <trkpt lat="46.43077" lon="0.29156">
        <ele>90.411701491103</ele>
        <time>2021-11-04T09:10:33Z</time>
      </trkpt>
      <trkpt lat="46.43079" lon="0.29157">
        <ele>90.399467045441</ele>
        <time>2021-11-04T09:10:35Z</time>
      </trkpt>
      <trkpt lat="46.43082" lon="0.29158">
        <ele>90.120613157749</ele>
        <time>2021-11-04T09:10:37Z</time>
      </trkpt>
      <trkpt lat="46.43086" lon="0.29159">
        <ele>90.324690065347</ele>
        <time>2021-11-04T09:10:39Z</time>
      </trkpt>
      <trkpt lat="46.43087" lon="0.29159">
        <ele>90.546774975955</ele>
        <time>2021-11-04T09:10:41Z</time>
      </trkpt>
      <trkpt lat="46.4309" lon="0.29161">
        <ele>90.472167793661</ele>
        <time>2021-11-04T09:10:43Z</time>
      </trkpt>
      <trkpt lat="46.43091" lon="0.29162">
        <ele>89.683631613851</ele>
        <time>2021-11-04T09:10:45Z</time>
      </trkpt>
      <trkpt lat="46.43094" lon="0.29163">
        <ele>90.117242595181</ele>
        <time>2021-11-04T09:10:47Z</time>
      </trkpt>
      <trkpt lat="46.43096" lon="0.29164">
        <ele>90.363990074024</ele>
        <time>2021-11-04T09:10:49Z</time>
      </trkpt>
      <trkpt lat="46.43098" lon="0.29165">
        <ele>89.772177287377</ele>
        <time>2021-11-04T09:10:51Z</time>
      </trkpt>
      <trkpt lat="46.43101" lon="0.29166">
        <ele>90.227128124796</ele>
        <time>2021-11-04T09:10:54Z</time>
      </trkpt>
      <trkpt lat="46.43103" lon="0.29167">
        <ele>89.775951674208</ele>
        <time>2021-11-04T09:10:56Z</time>
      </trkpt>
      <trkpt lat="46.43105" lon="0.29167">
        <ele>89.640271665528</ele>
        <time>2021-11-04T09:10:58Z</time>
      </trkpt>
      <trkpt lat="46.43107" lon="0.29168">
        <ele>89.652700961567</ele>
        <time>2021-11-04T09:11:00Z</time>
      </trkpt>
      <trkpt lat="46.43109" lon="0.29168">
        <ele>89.482209453359</ele>
        <time>2021-11-04T09:11:03Z</time>
      </trkpt>
      <trkpt lat="46.43111" lon="0.29169">
        <ele>89.614561425522</ele>
        <time>2021-11-04T09:11:05Z</time>
      </trkpt>
      <trkpt lat="46.43114" lon="0.29169">
        <ele>89.416382710449</ele>
        <time>2021-11-04T09:11:07Z</time>
      </trkpt>
      <trkpt lat="46.43116" lon="0.29169">
        <ele>89.472667617723</ele>
        <time>2021-11-04T09:11:09Z</time>
      </trkpt>
      <trkpt lat="46.43119" lon="0.29169">
        <ele>89.608781167306</ele>
        <time>2021-11-04T09:11:11Z</time>
      </trkpt>
      <trkpt lat="46.43121" lon="0.29169">
        <ele>89.38129567448</ele>
        <time>2021-11-04T09:11:13Z</time>
      </trkpt>
      <trkpt lat="46.43124" lon="0.2917">
        <ele>89.304749033414</ele>
        <time>2021-11-04T09:11:16Z</time>
      </trkpt>
      <trkpt lat="46.43126" lon="0.2917">
        <ele>89.075225595385</ele>
        <time>2021-11-04T09:11:19Z</time>
      </trkpt>
      <trkpt lat="46.43129" lon="0.2917">
        <ele>89.050142748281</ele>
        <time>2021-11-04T09:11:21Z</time>
      </trkpt>
      <trkpt lat="46.43131" lon="0.2917">
        <ele>89.038898135535</ele>
        <time>2021-11-04T09:11:23Z</time>
      </trkpt>
      <trkpt lat="46.43134" lon="0.2917">
        <ele>88.731032315642</ele>
        <time>2021-11-04T09:11:25Z</time>
      </trkpt>
      <trkpt lat="46.43136" lon="0.2917">
        <ele>88.771970843896</ele>
        <time>2021-11-04T09:11:27Z</time>
      </trkpt>
      <trkpt lat="46.43138" lon="0.2917">
        <ele>88.762296883389</ele>
        <time>2021-11-04T09:11:29Z</time>
      </trkpt>
      <trkpt lat="46.43141" lon="0.2917">
        <ele>88.602631445974</ele>
        <time>2021-11-04T09:11:42Z</time>
      </trkpt>
      <trkpt lat="46.4314" lon="0.29173">
        <ele>88.818553993478</ele>
        <time>2021-11-04T09:11:46Z</time>
      </trkpt>
      <trkpt lat="46.43138" lon="0.29174">
        <ele>88.830938270316</ele>
        <time>2021-11-04T09:11:49Z</time>
      </trkpt>
      <trkpt lat="46.43136" lon="0.29176">
        <ele>88.755090644583</ele>
        <time>2021-11-04T09:12:07Z</time>
      </trkpt>
      <trkpt lat="46.43138" lon="0.29173">
        <ele>88.843110120855</ele>
        <time>2021-11-04T09:12:16Z</time>
      </trkpt>
      <trkpt lat="46.43139" lon="0.29172">
        <ele>88.900973002426</ele>
        <time>2021-11-04T09:12:22Z</time>
      </trkpt>
      <trkpt lat="46.43139" lon="0.29169">
        <ele>88.713017212227</ele>
        <time>2021-11-04T09:12:31Z</time>
      </trkpt>
      <trkpt lat="46.43137" lon="0.29169">
        <ele>88.623704367317</ele>
        <time>2021-11-04T09:12:37Z</time>
      </trkpt>
      <trkpt lat="46.43135" lon="0.29169">
        <ele>88.80117702391</ele>
        <time>2021-11-04T09:12:42Z</time>
      </trkpt>
      <trkpt lat="46.43134" lon="0.29171">
        <ele>88.702210604213</ele>
        <time>2021-11-04T09:13:07Z</time>
      </trkpt>
      <trkpt lat="46.43136" lon="0.29172">
        <ele>88.643896842375</ele>
        <time>2021-11-04T09:13:12Z</time>
      </trkpt>
      <trkpt lat="46.43137" lon="0.2917">
        <ele>88.847298089415</ele>
        <time>2021-11-04T09:13:25Z</time>
      </trkpt>
      <trkpt lat="46.43139" lon="0.29168">
        <ele>88.715564170852</ele>
        <time>2021-11-04T09:13:33Z</time>
      </trkpt>
      <trkpt lat="46.43142" lon="0.29167">
        <ele>88.960404091515</ele>
        <time>2021-11-04T09:13:38Z</time>
      </trkpt>
      <trkpt lat="46.43141" lon="0.2917">
        <ele>88.771282848902</ele>
        <time>2021-11-04T09:14:05Z</time>
      </trkpt>
      <trkpt lat="46.4314" lon="0.29168">
        <ele>88.443257514387</ele>
        <time>2021-11-04T09:14:21Z</time>
      </trkpt>
      <trkpt lat="46.43143" lon="0.29167">
        <ele>88.752163971774</ele>
        <time>2021-11-04T09:14:38Z</time>
      </trkpt>
      <trkpt lat="46.43141" lon="0.29167">
        <ele>88.728756890632</ele>
        <time>2021-11-04T09:14:49Z</time>
      </trkpt>
      <trkpt lat="46.43139" lon="0.29167">
        <ele>88.680973813869</ele>
        <time>2021-11-04T09:14:57Z</time>
      </trkpt>
      <trkpt lat="46.4314" lon="0.29169">
        <ele>88.659619449638</ele>
        <time>2021-11-04T09:15:28Z</time>
      </trkpt>
      <trkpt lat="46.43142" lon="0.29169">
        <ele>88.82084470056</ele>
        <time>2021-11-04T09:15:34Z</time>
      </trkpt>
      <trkpt lat="46.4314" lon="0.2917">
        <ele>88.687522606924</ele>
        <time>2021-11-04T09:15:44Z</time>
      </trkpt>
      <trkpt lat="46.43142" lon="0.29169">
        <ele>89.053898988292</ele>
        <time>2021-11-04T09:15:58Z</time>
      </trkpt>
      <trkpt lat="46.43141" lon="0.29171">
        <ele>88.506426866166</ele>
        <time>2021-11-04T09:16:16Z</time>
      </trkpt>
      <trkpt lat="46.4314" lon="0.29173">
        <ele>88.749679668806</ele>
        <time>2021-11-04T09:16:37Z</time>
      </trkpt>
      <trkpt lat="46.43138" lon="0.29174">
        <ele>88.72619882226</ele>
        <time>2021-11-04T09:16:40Z</time>
      </trkpt>
      <trkpt lat="46.43136" lon="0.29175">
        <ele>88.307198555209</ele>
        <time>2021-11-04T09:16:50Z</time>
      </trkpt>
      <trkpt lat="46.43134" lon="0.29175">
        <ele>88.914206936024</ele>
        <time>2021-11-04T09:16:54Z</time>
      </trkpt>
      <trkpt lat="46.43136" lon="0.29173">
        <ele>88.420279214159</ele>
        <time>2021-11-04T09:17:37Z</time>
      </trkpt>
      <trkpt lat="46.43135" lon="0.29176">
        <ele>88.763860296458</ele>
        <time>2021-11-04T09:17:58Z</time>
      </trkpt>
      <trkpt lat="46.43137" lon="0.29174">
        <ele>88.809144706465</ele>
        <time>2021-11-04T09:18:46Z</time>
      </trkpt>
      <trkpt lat="46.43138" lon="0.29172">
        <ele>88.503316391259</ele>
        <time>2021-11-04T09:19:13Z</time>
      </trkpt>
      <trkpt lat="46.43136" lon="0.29174">
        <ele>88.592457709834</ele>
        <time>2021-11-04T09:19:21Z</time>
      </trkpt>
      <trkpt lat="46.43134" lon="0.29174">
        <ele>88.829845041037</ele>
        <time>2021-11-04T09:20:19Z</time>
      </trkpt>
      <trkpt lat="46.43136" lon="0.29174">
        <ele>88.442522045225</ele>
        <time>2021-11-04T09:21:44Z</time>
      </trkpt>
      <trkpt lat="46.43137" lon="0.29176">
        <ele>88.718009724282</ele>
        <time>2021-11-04T09:21:56Z</time>
      </trkpt>
      <trkpt lat="46.43137" lon="0.29173">
        <ele>88.675782226957</ele>
        <time>2021-11-04T09:22:21Z</time>
      </trkpt>
      <trkpt lat="46.43135" lon="0.29175">
        <ele>88.73540536873</ele>
        <time>2021-11-04T09:22:43Z</time>
      </trkpt>
      <trkpt lat="46.43136" lon="0.29172">
        <ele>88.747290774249</ele>
        <time>2021-11-04T09:22:59Z</time>
      </trkpt>
      <trkpt lat="46.43136" lon="0.29175">
        <ele>88.661345978267</ele>
        <time>2021-11-04T09:23:11Z</time>
      </trkpt>
      <trkpt lat="46.43138" lon="0.29176">
        <ele>88.492880298756</ele>
        <time>2021-11-04T09:23:21Z</time>
      </trkpt>
      <trkpt lat="46.43137" lon="0.29173">
        <ele>88.542604965158</ele>
        <time>2021-11-04T09:23:32Z</time>
      </trkpt>
      <trkpt lat="46.43135" lon="0.29173">
        <ele>88.762142823078</ele>
        <time>2021-11-04T09:23:38Z</time>
      </trkpt>
      <trkpt lat="46.43136" lon="0.2917">
        <ele>88.843516172841</ele>
        <time>2021-11-04T09:23:49Z</time>
      </trkpt>
      <trkpt lat="46.43134" lon="0.29172">
        <ele>88.819959845394</ele>
        <time>2021-11-04T09:24:01Z</time>
      </trkpt>
      <trkpt lat="46.43135" lon="0.29174">
        <ele>88.611979676411</ele>
        <time>2021-11-04T09:24:34Z</time>
      </trkpt>
      <trkpt lat="46.43137" lon="0.29174">
        <ele>88.560788210481</ele>
        <time>2021-11-04T09:24:52Z</time>
      </trkpt>
      <trkpt lat="46.43136" lon="0.29175">
        <ele>88.852272742428</ele>
        <time>2021-11-04T09:25:03Z</time>
      </trkpt>
      <trkpt lat="46.43135" lon="0.29178">
        <ele>88.702439393848</ele>
        <time>2021-11-04T09:25:18Z</time>
      </trkpt>
      <trkpt lat="46.43136" lon="0.29175">
        <ele>88.804157251492</ele>
        <time>2021-11-04T09:25:48Z</time>
      </trkpt>
      <trkpt lat="46.43136" lon="0.29172">
        <ele>89.385789130814</ele>
        <time>2021-11-04T09:26:33Z</time>
      </trkpt>
      <trkpt lat="46.43138" lon="0.29171">
        <ele>89.050013653003</ele>
        <time>2021-11-04T09:26:50Z</time>
      </trkpt>
      <trkpt lat="46.43139" lon="0.29168">
        <ele>88.95922299847</ele>
        <time>2021-11-04T09:27:01Z</time>
      </trkpt>
      <trkpt lat="46.43138" lon="0.29171">
        <ele>88.938943875954</ele>
        <time>2021-11-04T09:27:07Z</time>
      </trkpt>
      <trkpt lat="46.43139" lon="0.29169">
        <ele>88.678522593342</ele>
        <time>2021-11-04T09:27:13Z</time>
      </trkpt>
      <trkpt lat="46.43137" lon="0.2917">
        <ele>88.669288120233</ele>
        <time>2021-11-04T09:27:23Z</time>
      </trkpt>
      <trkpt lat="46.43139" lon="0.2917">
        <ele>88.566300132312</ele>
        <time>2021-11-04T09:28:27Z</time>
      </trkpt>
      <trkpt lat="46.43141" lon="0.29172">
        <ele>88.012488750741</ele>
        <time>2021-11-04T09:28:29Z</time>
      </trkpt>
      <trkpt lat="46.43144" lon="0.29171">
        <ele>88.302795778029</ele>
        <time>2021-11-04T09:28:35Z</time>
      </trkpt>
      <trkpt lat="46.43146" lon="0.29169">
        <ele>88.382436471991</ele>
        <time>2021-11-04T09:28:42Z</time>
      </trkpt>
      <trkpt lat="46.43146" lon="0.29167">
        <ele>88.357030814514</ele>
        <time>2021-11-04T09:28:50Z</time>
      </trkpt>
      <trkpt lat="46.43149" lon="0.29166">
        <ele>88.675718772225</ele>
        <time>2021-11-04T09:28:53Z</time>
      </trkpt>
      <trkpt lat="46.43151" lon="0.29167">
        <ele>88.292798316106</ele>
        <time>2021-11-04T09:28:56Z</time>
      </trkpt>
      <trkpt lat="46.43151" lon="0.2917">
        <ele>88.431576038711</ele>
        <time>2021-11-04T09:29:01Z</time>
      </trkpt>
      <trkpt lat="46.43153" lon="0.29171">
        <ele>88.460819384083</ele>
        <time>2021-11-04T09:29:03Z</time>
      </trkpt>
      <trkpt lat="46.43155" lon="0.29172">
        <ele>88.530565261841</ele>
        <time>2021-11-04T09:29:05Z</time>
      </trkpt>
      <trkpt lat="46.43157" lon="0.29172">
        <ele>88.639068043791</ele>
        <time>2021-11-04T09:29:10Z</time>
      </trkpt>
      <trkpt lat="46.43159" lon="0.29171">
        <ele>88.773112328723</ele>
        <time>2021-11-04T09:29:14Z</time>
      </trkpt>
      <trkpt lat="46.43162" lon="0.2917">
        <ele>88.742683217861</ele>
        <time>2021-11-04T09:29:17Z</time>
      </trkpt>
      <trkpt lat="46.43163" lon="0.29168">
        <ele>88.719483898021</ele>
        <time>2021-11-04T09:29:19Z</time>
      </trkpt>
      <trkpt lat="46.43165" lon="0.29169">
        <ele>88.706554885022</ele>
        <time>2021-11-04T09:29:21Z</time>
      </trkpt>
      <trkpt lat="46.43167" lon="0.29168">
        <ele>88.5858962005</ele>
        <time>2021-11-04T09:29:26Z</time>
      </trkpt>
      <trkpt lat="46.43169" lon="0.29168">
        <ele>88.787246952765</ele>
        <time>2021-11-04T09:29:32Z</time>
      </trkpt>
      <trkpt lat="46.43171" lon="0.2917">
        <ele>88.96677887626</ele>
        <time>2021-11-04T09:29:36Z</time>
      </trkpt>
      <trkpt lat="46.43172" lon="0.29171">
        <ele>88.69170596078</ele>
        <time>2021-11-04T09:29:40Z</time>
      </trkpt>
      <trkpt lat="46.43175" lon="0.29172">
        <ele>88.906662278809</ele>
        <time>2021-11-04T09:29:44Z</time>
      </trkpt>
      <trkpt lat="46.43176" lon="0.29172">
        <ele>88.962106086314</ele>
        <time>2021-11-04T09:29:47Z</time>
      </trkpt>
      <trkpt lat="46.43178" lon="0.29172">
        <ele>88.726309584454</ele>
        <time>2021-11-04T09:29:50Z</time>
      </trkpt>
      <trkpt lat="46.4318" lon="0.29172">
        <ele>89.217740680091</ele>
        <time>2021-11-04T09:29:58Z</time>
      </trkpt>
      <trkpt lat="46.43181" lon="0.29175">
        <ele>89.064246631227</ele>
        <time>2021-11-04T09:30:04Z</time>
      </trkpt>
      <trkpt lat="46.43182" lon="0.29178">
        <ele>88.945980875753</ele>
        <time>2021-11-04T09:30:06Z</time>
      </trkpt>
      <trkpt lat="46.43181" lon="0.29181">
        <ele>89.304321628064</ele>
        <time>2021-11-04T09:30:08Z</time>
      </trkpt>
      <trkpt lat="46.43182" lon="0.29184">
        <ele>89.42857834883</ele>
        <time>2021-11-04T09:30:10Z</time>
      </trkpt>
      <trkpt lat="46.43182" lon="0.29187">
        <ele>89.24882247299</ele>
        <time>2021-11-04T09:30:13Z</time>
      </trkpt>
      <trkpt lat="46.43182" lon="0.2919">
        <ele>89.372645542026</ele>
        <time>2021-11-04T09:30:16Z</time>
      </trkpt>
      <trkpt lat="46.43183" lon="0.29194">
        <ele>89.426412873901</ele>
        <time>2021-11-04T09:30:18Z</time>
      </trkpt>
      <trkpt lat="46.43183" lon="0.29196">
        <ele>89.03208928369</ele>
        <time>2021-11-04T09:30:24Z</time>
      </trkpt>
      <trkpt lat="46.43184" lon="0.292">
        <ele>88.945933041163</ele>
        <time>2021-11-04T09:30:27Z</time>
      </trkpt>
      <trkpt lat="46.43186" lon="0.29201">
        <ele>90.737111414783</ele>
        <time>2021-11-04T09:30:30Z</time>
      </trkpt>
      <trkpt lat="46.43188" lon="0.29202">
        <ele>90.615599171259</ele>
        <time>2021-11-04T09:30:33Z</time>
      </trkpt>
      <trkpt lat="46.4319" lon="0.29201">
        <ele>90.143974320032</ele>
        <time>2021-11-04T09:30:35Z</time>
      </trkpt>
      <trkpt lat="46.43192" lon="0.292">
        <ele>90.110666169785</ele>
        <time>2021-11-04T09:30:38Z</time>
      </trkpt>
      <trkpt lat="46.43194" lon="0.29198">
        <ele>89.865800610743</ele>
        <time>2021-11-04T09:30:40Z</time>
      </trkpt>
      <trkpt lat="46.43196" lon="0.29196">
        <ele>89.971891423687</ele>
        <time>2021-11-04T09:30:43Z</time>
      </trkpt>
      <trkpt lat="46.43198" lon="0.29195">
        <ele>89.609330791049</ele>
        <time>2021-11-04T09:30:46Z</time>
      </trkpt>
      <trkpt lat="46.43199" lon="0.29191">
        <ele>89.647083489224</ele>
        <time>2021-11-04T09:30:50Z</time>
      </trkpt>
      <trkpt lat="46.432" lon="0.29189">
        <ele>89.206243745051</ele>
        <time>2021-11-04T09:30:52Z</time>
      </trkpt>
      <trkpt lat="46.43201" lon="0.29186">
        <ele>89.2907427717</ele>
        <time>2021-11-04T09:30:54Z</time>
      </trkpt>
      <trkpt lat="46.43203" lon="0.29182">
        <ele>89.243281237781</ele>
        <time>2021-11-04T09:30:56Z</time>
      </trkpt>
      <trkpt lat="46.43204" lon="0.29179">
        <ele>90.055438606068</ele>
        <time>2021-11-04T09:30:58Z</time>
      </trkpt>
      <trkpt lat="46.43206" lon="0.29177">
        <ele>89.457023189403</ele>
        <time>2021-11-04T09:31:00Z</time>
      </trkpt>
      <trkpt lat="46.43207" lon="0.29175">
        <ele>89.765875374898</ele>
        <time>2021-11-04T09:31:02Z</time>
      </trkpt>
      <trkpt lat="46.43209" lon="0.29172">
        <ele>89.756206024438</ele>
        <time>2021-11-04T09:31:04Z</time>
      </trkpt>
      <trkpt lat="46.43211" lon="0.2917">
        <ele>90.001184819266</ele>
        <time>2021-11-04T09:31:06Z</time>
      </trkpt>
      <trkpt lat="46.43212" lon="0.29172">
        <ele>89.871033911593</ele>
        <time>2021-11-04T09:31:12Z</time>
      </trkpt>
      <trkpt lat="46.43214" lon="0.29174">
        <ele>89.791045902297</ele>
        <time>2021-11-04T09:31:15Z</time>
      </trkpt>
      <trkpt lat="46.43216" lon="0.29172">
        <ele>90.440101170912</ele>
        <time>2021-11-04T09:31:17Z</time>
      </trkpt>
      <trkpt lat="46.43218" lon="0.29173">
        <ele>89.977389769629</ele>
        <time>2021-11-04T09:31:21Z</time>
      </trkpt>
      <trkpt lat="46.4322" lon="0.29171">
        <ele>90.153785319999</ele>
        <time>2021-11-04T09:31:24Z</time>
      </trkpt>
      <trkpt lat="46.43222" lon="0.2917">
        <ele>90.620404541492</ele>
        <time>2021-11-04T09:31:28Z</time>
      </trkpt>
      <trkpt lat="46.43225" lon="0.2917">
        <ele>90.526293173432</ele>
        <time>2021-11-04T09:31:30Z</time>
      </trkpt>
      <trkpt lat="46.43228" lon="0.2917">
        <ele>90.928345730528</ele>
        <time>2021-11-04T09:31:32Z</time>
      </trkpt>
      <trkpt lat="46.4323" lon="0.29169">
        <ele>90.989346389659</ele>
        <time>2021-11-04T09:31:34Z</time>
      </trkpt>
      <trkpt lat="46.43232" lon="0.29169">
        <ele>91.126721256413</ele>
        <time>2021-11-04T09:31:37Z</time>
      </trkpt>
      <trkpt lat="46.43234" lon="0.29168">
        <ele>91.425077987835</ele>
        <time>2021-11-04T09:31:39Z</time>
      </trkpt>
      <trkpt lat="46.43237" lon="0.29167">
        <ele>91.603695399128</ele>
        <time>2021-11-04T09:31:42Z</time>
      </trkpt>
      <trkpt lat="46.43239" lon="0.29167">
        <ele>91.301340592094</ele>
        <time>2021-11-04T09:31:45Z</time>
      </trkpt>
      <trkpt lat="46.43242" lon="0.29166">
        <ele>92.040336282924</ele>
        <time>2021-11-04T09:31:48Z</time>
      </trkpt>
      <trkpt lat="46.43245" lon="0.29165">
        <ele>92.593011932448</ele>
        <time>2021-11-04T09:31:51Z</time>
      </trkpt>
      <trkpt lat="46.43247" lon="0.29164">
        <ele>92.777672506869</ele>
        <time>2021-11-04T09:31:53Z</time>
      </trkpt>
      <trkpt lat="46.43249" lon="0.29165">
        <ele>93.332558607683</ele>
        <time>2021-11-04T09:31:58Z</time>
      </trkpt>
      <trkpt lat="46.43252" lon="0.29164">
        <ele>93.461165014654</ele>
        <time>2021-11-04T09:32:01Z</time>
      </trkpt>
      <trkpt lat="46.43255" lon="0.29162">
        <ele>94.08991115354</ele>
        <time>2021-11-04T09:32:03Z</time>
      </trkpt>
      <trkpt lat="46.43258" lon="0.2916">
        <ele>94.472965930589</ele>
        <time>2021-11-04T09:32:05Z</time>
      </trkpt>
      <trkpt lat="46.4326" lon="0.2916">
        <ele>95.722947447561</ele>
        <time>2021-11-04T09:32:08Z</time>
      </trkpt>
      <trkpt lat="46.43262" lon="0.29159">
        <ele>95.67054701969</ele>
        <time>2021-11-04T09:32:09Z</time>
      </trkpt>
      <trkpt lat="46.43265" lon="0.29157">
        <ele>96.269456229173</ele>
        <time>2021-11-04T09:32:10Z</time>
      </trkpt>
      <trkpt lat="46.43265" lon="0.29153">
        <ele>97.569958748296</ele>
        <time>2021-11-04T09:32:11Z</time>
      </trkpt>
      <trkpt lat="46.43266" lon="0.29151">
        <ele>98.886006454937</ele>
        <time>2021-11-04T09:32:13Z</time>
      </trkpt>
      <trkpt lat="46.43265" lon="0.29147">
        <ele>99.33754066471</ele>
        <time>2021-11-04T09:32:15Z</time>
      </trkpt>
      <trkpt lat="46.43265" lon="0.29144">
        <ele>100.0000659246</ele>
        <time>2021-11-04T09:32:17Z</time>
      </trkpt>
      <trkpt lat="46.43263" lon="0.29141">
        <ele>100.30033247452</ele>
        <time>2021-11-04T09:32:19Z</time>
      </trkpt>
      <trkpt lat="46.43262" lon="0.29138">
        <ele>101.24254756141</ele>
        <time>2021-11-04T09:32:21Z</time>
      </trkpt>
      <trkpt lat="46.43261" lon="0.29136">
        <ele>100.72057018802</ele>
        <time>2021-11-04T09:32:23Z</time>
      </trkpt>
      <trkpt lat="46.4326" lon="0.29133">
        <ele>100.889539578</ele>
        <time>2021-11-04T09:32:25Z</time>
      </trkpt>
      <trkpt lat="46.43259" lon="0.29129">
        <ele>101.15272699669</ele>
        <time>2021-11-04T09:32:27Z</time>
      </trkpt>
      <trkpt lat="46.43257" lon="0.29127">
        <ele>101.04642620031</ele>
        <time>2021-11-04T09:32:29Z</time>
      </trkpt>
      <trkpt lat="46.43255" lon="0.29124">
        <ele>100.65329148341</ele>
        <time>2021-11-04T09:32:31Z</time>
      </trkpt>
      <trkpt lat="46.43254" lon="0.29121">
        <ele>100.93474141415</ele>
        <time>2021-11-04T09:32:33Z</time>
      </trkpt>
      <trkpt lat="46.43251" lon="0.29117">
        <ele>100.8172088787</ele>
        <time>2021-11-04T09:32:35Z</time>
      </trkpt>
      <trkpt lat="46.43249" lon="0.29113">
        <ele>100.89069344383</ele>
        <time>2021-11-04T09:32:37Z</time>
      </trkpt>
      <trkpt lat="46.43249" lon="0.29111">
        <ele>100.4804384131</ele>
        <time>2021-11-04T09:32:38Z</time>
      </trkpt>
      <trkpt lat="46.43248" lon="0.29106">
        <ele>100.17616645806</ele>
        <time>2021-11-04T09:32:41Z</time>
      </trkpt>
      <trkpt lat="46.43246" lon="0.29103">
        <ele>100.6026246706</ele>
        <time>2021-11-04T09:32:43Z</time>
      </trkpt>
      <trkpt lat="46.43245" lon="0.291">
        <ele>100.6463683499</ele>
        <time>2021-11-04T09:32:45Z</time>
      </trkpt>
      <trkpt lat="46.43244" lon="0.29097">
        <ele>100.87225994188</ele>
        <time>2021-11-04T09:32:47Z</time>
      </trkpt>
      <trkpt lat="46.43242" lon="0.29093">
        <ele>101.02443245612</ele>
        <time>2021-11-04T09:32:50Z</time>
      </trkpt>
      <trkpt lat="46.4324" lon="0.29091">
        <ele>101.02287407778</ele>
        <time>2021-11-04T09:32:52Z</time>
      </trkpt>
      <trkpt lat="46.43238" lon="0.29088">
        <ele>101.34772452805</ele>
        <time>2021-11-04T09:32:56Z</time>
      </trkpt>
      <trkpt lat="46.43237" lon="0.29086">
        <ele>101.19785287511</ele>
        <time>2021-11-04T09:32:58Z</time>
      </trkpt>
      <trkpt lat="46.43235" lon="0.29085">
        <ele>101.32222456392</ele>
        <time>2021-11-04T09:33:00Z</time>
      </trkpt>
      <trkpt lat="46.43234" lon="0.29082">
        <ele>100.97821222339</ele>
        <time>2021-11-04T09:33:02Z</time>
      </trkpt>
      <trkpt lat="46.43233" lon="0.29079">
        <ele>100.60778154619</ele>
        <time>2021-11-04T09:33:04Z</time>
      </trkpt>
      <trkpt lat="46.43231" lon="0.29077">
        <ele>100.05466687959</ele>
        <time>2021-11-04T09:33:08Z</time>
      </trkpt>
      <trkpt lat="46.43231" lon="0.29075">
        <ele>100.30220346525</ele>
        <time>2021-11-04T09:33:10Z</time>
      </trkpt>
      <trkpt lat="46.43229" lon="0.29071">
        <ele>100.27039849479</ele>
        <time>2021-11-04T09:33:12Z</time>
      </trkpt>
      <trkpt lat="46.43227" lon="0.29068">
        <ele>100.44640421961</ele>
        <time>2021-11-04T09:33:14Z</time>
      </trkpt>
      <trkpt lat="46.43225" lon="0.29066">
        <ele>100.59897277318</ele>
        <time>2021-11-04T09:33:16Z</time>
      </trkpt>
      <trkpt lat="46.43224" lon="0.29063">
        <ele>100.52205843572</ele>
        <time>2021-11-04T09:33:18Z</time>
      </trkpt>
      <trkpt lat="46.43222" lon="0.29059">
        <ele>100.19978206139</ele>
        <time>2021-11-04T09:33:21Z</time>
      </trkpt>
      <trkpt lat="46.4322" lon="0.29058">
        <ele>100.28746921755</ele>
        <time>2021-11-04T09:33:23Z</time>
      </trkpt>
      <trkpt lat="46.43218" lon="0.29054">
        <ele>99.883463570848</ele>
        <time>2021-11-04T09:33:25Z</time>
      </trkpt>
      <trkpt lat="46.43218" lon="0.29051">
        <ele>100.37322353758</ele>
        <time>2021-11-04T09:33:27Z</time>
      </trkpt>
      <trkpt lat="46.43216" lon="0.29048">
        <ele>100.39139828738</ele>
        <time>2021-11-04T09:33:29Z</time>
      </trkpt>
      <trkpt lat="46.43214" lon="0.29044">
        <ele>100.05646465067</ele>
        <time>2021-11-04T09:33:31Z</time>
      </trkpt>
      <trkpt lat="46.43214" lon="0.29041">
        <ele>100.05762773659</ele>
        <time>2021-11-04T09:33:32Z</time>
      </trkpt>
      <trkpt lat="46.43213" lon="0.2904">
        <ele>100.31792268064</ele>
        <time>2021-11-04T09:33:34Z</time>
      </trkpt>
      <trkpt lat="46.43212" lon="0.29036">
        <ele>100.3203391619</ele>
        <time>2021-11-04T09:33:37Z</time>
      </trkpt>
      <trkpt lat="46.43211" lon="0.29033">
        <ele>100.75787210371</ele>
        <time>2021-11-04T09:33:39Z</time>
      </trkpt>
      <trkpt lat="46.4321" lon="0.29029">
        <ele>100.39650468435</ele>
        <time>2021-11-04T09:33:41Z</time>
      </trkpt>
      <trkpt lat="46.43209" lon="0.29027">
        <ele>100.87947895192</ele>
        <time>2021-11-04T09:33:42Z</time>
      </trkpt>
      <trkpt lat="46.43208" lon="0.29023">
        <ele>101.06141505763</ele>
        <time>2021-11-04T09:33:44Z</time>
      </trkpt>
      <trkpt lat="46.43207" lon="0.29022">
        <ele>101.20478880126</ele>
        <time>2021-11-04T09:33:46Z</time>
      </trkpt>
      <trkpt lat="46.43205" lon="0.29021">
        <ele>100.85842670407</ele>
        <time>2021-11-04T09:33:47Z</time>
      </trkpt>
      <trkpt lat="46.43203" lon="0.29019">
        <ele>101.23946330044</ele>
        <time>2021-11-04T09:33:48Z</time>
      </trkpt>
      <trkpt lat="46.43201" lon="0.29015">
        <ele>101.09025433008</ele>
        <time>2021-11-04T09:33:50Z</time>
      </trkpt>
      <trkpt lat="46.43201" lon="0.29012">
        <ele>100.89528472815</ele>
        <time>2021-11-04T09:33:52Z</time>
      </trkpt>
      <trkpt lat="46.432" lon="0.29009">
        <ele>100.48810244258</ele>
        <time>2021-11-04T09:33:54Z</time>
      </trkpt>
      <trkpt lat="46.43198" lon="0.29008">
        <ele>100.50507890061</ele>
        <time>2021-11-04T09:33:55Z</time>
      </trkpt>
      <trkpt lat="46.43196" lon="0.29004">
        <ele>100.16591597255</ele>
        <time>2021-11-04T09:33:58Z</time>
      </trkpt>
      <trkpt lat="46.43195" lon="0.29001">
        <ele>100.14502179716</ele>
        <time>2021-11-04T09:34:00Z</time>
      </trkpt>
      <trkpt lat="46.43194" lon="0.28999">
        <ele>100.28189962637</ele>
        <time>2021-11-04T09:34:02Z</time>
      </trkpt>
      <trkpt lat="46.43191" lon="0.28995">
        <ele>99.871214690618</ele>
        <time>2021-11-04T09:34:04Z</time>
      </trkpt>
      <trkpt lat="46.4319" lon="0.28992">
        <ele>99.953340047039</ele>
        <time>2021-11-04T09:34:06Z</time>
      </trkpt>
      <trkpt lat="46.43189" lon="0.28989">
        <ele>99.760999972001</ele>
        <time>2021-11-04T09:34:08Z</time>
      </trkpt>
      <trkpt lat="46.43189" lon="0.28984">
        <ele>99.101403202862</ele>
        <time>2021-11-04T09:34:11Z</time>
      </trkpt>
      <trkpt lat="46.43188" lon="0.28981">
        <ele>99.823907605372</ele>
        <time>2021-11-04T09:34:13Z</time>
      </trkpt>
      <trkpt lat="46.43187" lon="0.28978">
        <ele>99.392262530513</ele>
        <time>2021-11-04T09:34:17Z</time>
      </trkpt>
      <trkpt lat="46.43185" lon="0.28975">
        <ele>99.071492530406</ele>
        <time>2021-11-04T09:34:19Z</time>
      </trkpt>
      <trkpt lat="46.43184" lon="0.28973">
        <ele>98.759393785149</ele>
        <time>2021-11-04T09:34:20Z</time>
      </trkpt>
      <trkpt lat="46.43183" lon="0.28971">
        <ele>98.16708027292</ele>
        <time>2021-11-04T09:34:21Z</time>
      </trkpt>
      <trkpt lat="46.43181" lon="0.28967">
        <ele>97.955108610913</ele>
        <time>2021-11-04T09:34:24Z</time>
      </trkpt>
      <trkpt lat="46.4318" lon="0.28964">
        <ele>97.984966689721</ele>
        <time>2021-11-04T09:34:26Z</time>
      </trkpt>
      <trkpt lat="46.4318" lon="0.28961">
        <ele>97.160128592514</ele>
        <time>2021-11-04T09:34:28Z</time>
      </trkpt>
      <trkpt lat="46.43178" lon="0.28958">
        <ele>96.400703288615</ele>
        <time>2021-11-04T09:34:32Z</time>
      </trkpt>
      <trkpt lat="46.43176" lon="0.28955">
        <ele>96.499854148366</ele>
        <time>2021-11-04T09:34:33Z</time>
      </trkpt>
      <trkpt lat="46.43176" lon="0.28952">
        <ele>96.252265456133</ele>
        <time>2021-11-04T09:34:35Z</time>
      </trkpt>
      <trkpt lat="46.43175" lon="0.28948">
        <ele>95.601660784334</ele>
        <time>2021-11-04T09:34:38Z</time>
      </trkpt>
      <trkpt lat="46.43173" lon="0.28945">
        <ele>95.378962156363</ele>
        <time>2021-11-04T09:34:41Z</time>
      </trkpt>
      <trkpt lat="46.43172" lon="0.28942">
        <ele>95.049397883005</ele>
        <time>2021-11-04T09:34:43Z</time>
      </trkpt>
      <trkpt lat="46.43171" lon="0.28941">
        <ele>95.154122887179</ele>
        <time>2021-11-04T09:34:44Z</time>
      </trkpt>
      <trkpt lat="46.4317" lon="0.28938">
        <ele>94.791827062145</ele>
        <time>2021-11-04T09:34:45Z</time>
      </trkpt>
      <trkpt lat="46.43168" lon="0.28936">
        <ele>94.568162478507</ele>
        <time>2021-11-04T09:34:46Z</time>
      </trkpt>
      <trkpt lat="46.43168" lon="0.28932">
        <ele>93.696587443352</ele>
        <time>2021-11-04T09:34:49Z</time>
      </trkpt>
      <trkpt lat="46.43166" lon="0.28928">
        <ele>92.863827686757</ele>
        <time>2021-11-04T09:34:52Z</time>
      </trkpt>
      <trkpt lat="46.43164" lon="0.28926">
        <ele>92.535789626651</ele>
        <time>2021-11-04T09:34:54Z</time>
      </trkpt>
      <trkpt lat="46.43163" lon="0.28923">
        <ele>93.185972185805</ele>
        <time>2021-11-04T09:34:55Z</time>
      </trkpt>
      <trkpt lat="46.43162" lon="0.2892">
        <ele>92.678324264474</ele>
        <time>2021-11-04T09:34:56Z</time>
      </trkpt>
      <trkpt lat="46.43161" lon="0.28918">
        <ele>91.711878708564</ele>
        <time>2021-11-04T09:34:58Z</time>
      </trkpt>
      <trkpt lat="46.4316" lon="0.28914">
        <ele>91.454365739599</ele>
        <time>2021-11-04T09:35:01Z</time>
      </trkpt>
      <trkpt lat="46.4316" lon="0.28912">
        <ele>91.42987059243</ele>
        <time>2021-11-04T09:35:03Z</time>
      </trkpt>
      <trkpt lat="46.4316" lon="0.28909">
        <ele>91.142339312471</ele>
        <time>2021-11-04T09:35:05Z</time>
      </trkpt>
      <trkpt lat="46.4316" lon="0.28906">
        <ele>90.629025505856</ele>
        <time>2021-11-04T09:35:07Z</time>
      </trkpt>
      <trkpt lat="46.43162" lon="0.28903">
        <ele>91.064164783806</ele>
        <time>2021-11-04T09:35:09Z</time>
      </trkpt>
      <trkpt lat="46.43162" lon="0.28899">
        <ele>91.060231318697</ele>
        <time>2021-11-04T09:35:12Z</time>
      </trkpt>
      <trkpt lat="46.43165" lon="0.28897">
        <ele>91.415536731482</ele>
        <time>2021-11-04T09:35:15Z</time>
      </trkpt>
      <trkpt lat="46.43167" lon="0.28896">
        <ele>91.476989809424</ele>
        <time>2021-11-04T09:35:17Z</time>
      </trkpt>
      <trkpt lat="46.43169" lon="0.28894">
        <ele>90.410543012433</ele>
        <time>2021-11-04T09:35:19Z</time>
      </trkpt>
      <trkpt lat="46.43172" lon="0.28893">
        <ele>90.896742851473</ele>
        <time>2021-11-04T09:35:22Z</time>
      </trkpt>
      <trkpt lat="46.43174" lon="0.28892">
        <ele>90.530272682197</ele>
        <time>2021-11-04T09:35:24Z</time>
      </trkpt>
      <trkpt lat="46.43176" lon="0.2889">
        <ele>90.424893019721</ele>
        <time>2021-11-04T09:35:26Z</time>
      </trkpt>
      <trkpt lat="46.43178" lon="0.2889">
        <ele>90.207309825346</ele>
        <time>2021-11-04T09:35:30Z</time>
      </trkpt>
      <trkpt lat="46.4318" lon="0.28892">
        <ele>90.499096220359</ele>
        <time>2021-11-04T09:35:34Z</time>
      </trkpt>
      <trkpt lat="46.43182" lon="0.28892">
        <ele>90.408144127578</ele>
        <time>2021-11-04T09:35:36Z</time>
      </trkpt>
      <trkpt lat="46.43185" lon="0.28895">
        <ele>90.863212678581</ele>
        <time>2021-11-04T09:35:39Z</time>
      </trkpt>
      <trkpt lat="46.43187" lon="0.28896">
        <ele>90.892685248516</ele>
        <time>2021-11-04T09:35:42Z</time>
      </trkpt>
      <trkpt lat="46.4319" lon="0.28897">
        <ele>91.220356426202</ele>
        <time>2021-11-04T09:35:44Z</time>
      </trkpt>
      <trkpt lat="46.43192" lon="0.28897">
        <ele>90.954282543622</ele>
        <time>2021-11-04T09:35:45Z</time>
      </trkpt>
      <trkpt lat="46.43194" lon="0.28896">
        <ele>91.336382590234</ele>
        <time>2021-11-04T09:35:47Z</time>
      </trkpt>
      <trkpt lat="46.43197" lon="0.28897">
        <ele>91.174771090969</ele>
        <time>2021-11-04T09:35:49Z</time>
      </trkpt>
      <trkpt lat="46.43199" lon="0.28897">
        <ele>91.782512202859</ele>
        <time>2021-11-04T09:35:50Z</time>
      </trkpt>
      <trkpt lat="46.43202" lon="0.28896">
        <ele>91.341620728374</ele>
        <time>2021-11-04T09:35:52Z</time>
      </trkpt>
      <trkpt lat="46.43203" lon="0.28894">
        <ele>91.58827853296</ele>
        <time>2021-11-04T09:35:54Z</time>
      </trkpt>
      <trkpt lat="46.43206" lon="0.28894">
        <ele>91.510288894176</ele>
        <time>2021-11-04T09:35:56Z</time>
      </trkpt>
      <trkpt lat="46.43208" lon="0.28895">
        <ele>91.765520433895</ele>
        <time>2021-11-04T09:35:58Z</time>
      </trkpt>
      <trkpt lat="46.43211" lon="0.28895">
        <ele>91.36688136775</ele>
        <time>2021-11-04T09:36:00Z</time>
      </trkpt>
      <trkpt lat="46.43213" lon="0.28895">
        <ele>91.570939699188</ele>
        <time>2021-11-04T09:36:02Z</time>
      </trkpt>
      <trkpt lat="46.43214" lon="0.28896">
        <ele>91.436569957994</ele>
        <time>2021-11-04T09:36:05Z</time>
      </trkpt>
      <trkpt lat="46.43218" lon="0.28895">
        <ele>91.740576094016</ele>
        <time>2021-11-04T09:36:09Z</time>
      </trkpt>
      <trkpt lat="46.43219" lon="0.28896">
        <ele>91.40219288785</ele>
        <time>2021-11-04T09:36:11Z</time>
      </trkpt>
      <trkpt lat="46.43222" lon="0.28895">
        <ele>91.434409641661</ele>
        <time>2021-11-04T09:36:13Z</time>
      </trkpt>
      <trkpt lat="46.43225" lon="0.28895">
        <ele>91.305425092578</ele>
        <time>2021-11-04T09:36:15Z</time>
      </trkpt>
      <trkpt lat="46.43228" lon="0.28894">
        <ele>91.989920925349</ele>
        <time>2021-11-04T09:36:17Z</time>
      </trkpt>
      <trkpt lat="46.4323" lon="0.28895">
        <ele>91.395759506151</ele>
        <time>2021-11-04T09:36:19Z</time>
      </trkpt>
      <trkpt lat="46.43232" lon="0.28895">
        <ele>91.630359426141</ele>
        <time>2021-11-04T09:36:21Z</time>
      </trkpt>
      <trkpt lat="46.43235" lon="0.28896">
        <ele>91.512134687044</ele>
        <time>2021-11-04T09:36:23Z</time>
      </trkpt>
      <trkpt lat="46.43237" lon="0.28895">
        <ele>91.850696921349</ele>
        <time>2021-11-04T09:36:25Z</time>
      </trkpt>
      <trkpt lat="46.43239" lon="0.28896">
        <ele>92.058539584279</ele>
        <time>2021-11-04T09:36:27Z</time>
      </trkpt>
      <trkpt lat="46.43241" lon="0.28895">
        <ele>91.861855061725</ele>
        <time>2021-11-04T09:36:30Z</time>
      </trkpt>
      <trkpt lat="46.43244" lon="0.28895">
        <ele>92.232128636912</ele>
        <time>2021-11-04T09:36:32Z</time>
      </trkpt>
      <trkpt lat="46.43247" lon="0.28896">
        <ele>92.03136286512</ele>
        <time>2021-11-04T09:36:35Z</time>
      </trkpt>
      <trkpt lat="46.43249" lon="0.28897">
        <ele>91.770286296494</ele>
        <time>2021-11-04T09:36:37Z</time>
      </trkpt>
      <trkpt lat="46.43252" lon="0.28899">
        <ele>91.827350455336</ele>
        <time>2021-11-04T09:36:39Z</time>
      </trkpt>
      <trkpt lat="46.43254" lon="0.28898">
        <ele>92.194511684589</ele>
        <time>2021-11-04T09:36:40Z</time>
      </trkpt>
      <trkpt lat="46.43257" lon="0.28897">
        <ele>92.251754255965</ele>
        <time>2021-11-04T09:36:42Z</time>
      </trkpt>
      <trkpt lat="46.43259" lon="0.28898">
        <ele>91.792754521593</ele>
        <time>2021-11-04T09:36:44Z</time>
      </trkpt>
      <trkpt lat="46.43261" lon="0.28897">
        <ele>91.911130883731</ele>
        <time>2021-11-04T09:36:46Z</time>
      </trkpt>
      <trkpt lat="46.43264" lon="0.28896">
        <ele>92.224601169117</ele>
        <time>2021-11-04T09:36:48Z</time>
      </trkpt>
      <trkpt lat="46.43266" lon="0.28896">
        <ele>92.094320025295</ele>
        <time>2021-11-04T09:36:50Z</time>
      </trkpt>
      <trkpt lat="46.43268" lon="0.28896">
        <ele>91.444925461896</ele>
        <time>2021-11-04T09:36:53Z</time>
      </trkpt>
      <trkpt lat="46.4327" lon="0.28896">
        <ele>91.799834173173</ele>
        <time>2021-11-04T09:36:57Z</time>
      </trkpt>
      <trkpt lat="46.43274" lon="0.28897">
        <ele>91.350957081653</ele>
        <time>2021-11-04T09:37:00Z</time>
      </trkpt>
      <trkpt lat="46.43276" lon="0.28898">
        <ele>91.811016210355</ele>
        <time>2021-11-04T09:37:02Z</time>
      </trkpt>
      <trkpt lat="46.43278" lon="0.28898">
        <ele>91.789750079624</ele>
        <time>2021-11-04T09:37:05Z</time>
      </trkpt>
      <trkpt lat="46.43281" lon="0.28898">
        <ele>91.845062015578</ele>
        <time>2021-11-04T09:37:08Z</time>
      </trkpt>
      <trkpt lat="46.43283" lon="0.28899">
        <ele>92.036689947359</ele>
        <time>2021-11-04T09:37:09Z</time>
      </trkpt>
      <trkpt lat="46.43284" lon="0.28898">
        <ele>91.805389295332</ele>
        <time>2021-11-04T09:37:11Z</time>
      </trkpt>
      <trkpt lat="46.43286" lon="0.28898">
        <ele>91.957479556091</ele>
        <time>2021-11-04T09:37:13Z</time>
      </trkpt>
      <trkpt lat="46.43289" lon="0.28897">
        <ele>91.980374521576</ele>
        <time>2021-11-04T09:37:18Z</time>
      </trkpt>
      <trkpt lat="46.43291" lon="0.28897">
        <ele>91.85721717868</ele>
        <time>2021-11-04T09:37:20Z</time>
      </trkpt>
      <trkpt lat="46.43293" lon="0.28898">
        <ele>91.484921816736</ele>
        <time>2021-11-04T09:37:23Z</time>
      </trkpt>
      <trkpt lat="46.43295" lon="0.28898">
        <ele>91.894030706957</ele>
        <time>2021-11-04T09:37:24Z</time>
      </trkpt>
      <trkpt lat="46.43297" lon="0.28899">
        <ele>91.53566169925</ele>
        <time>2021-11-04T09:37:27Z</time>
      </trkpt>
      <trkpt lat="46.43299" lon="0.28899">
        <ele>91.814955128357</ele>
        <time>2021-11-04T09:37:29Z</time>
      </trkpt>
      <trkpt lat="46.43302" lon="0.289">
        <ele>91.48165621981</ele>
        <time>2021-11-04T09:37:31Z</time>
      </trkpt>
      <trkpt lat="46.43304" lon="0.289">
        <ele>91.924143100157</ele>
        <time>2021-11-04T09:37:33Z</time>
      </trkpt>
      <trkpt lat="46.43306" lon="0.28899">
        <ele>91.43347793445</ele>
        <time>2021-11-04T09:37:35Z</time>
      </trkpt>
      <trkpt lat="46.43309" lon="0.28899">
        <ele>91.962878152728</ele>
        <time>2021-11-04T09:37:37Z</time>
      </trkpt>
      <trkpt lat="46.43311" lon="0.289">
        <ele>92.110444496386</ele>
        <time>2021-11-04T09:37:38Z</time>
      </trkpt>
      <trkpt lat="46.43314" lon="0.28901">
        <ele>91.89445464313</ele>
        <time>2021-11-04T09:37:41Z</time>
      </trkpt>
      <trkpt lat="46.43316" lon="0.28902">
        <ele>91.635805251077</ele>
        <time>2021-11-04T09:37:45Z</time>
      </trkpt>
      <trkpt lat="46.43319" lon="0.28902">
        <ele>91.755305658095</ele>
        <time>2021-11-04T09:37:48Z</time>
      </trkpt>
      <trkpt lat="46.43321" lon="0.28902">
        <ele>91.975297608413</ele>
        <time>2021-11-04T09:37:49Z</time>
      </trkpt>
      <trkpt lat="46.43325" lon="0.28901">
        <ele>91.806494148448</ele>
        <time>2021-11-04T09:37:51Z</time>
      </trkpt>
      <trkpt lat="46.43327" lon="0.28902">
        <ele>91.790774707682</ele>
        <time>2021-11-04T09:37:54Z</time>
      </trkpt>
      <trkpt lat="46.43329" lon="0.28902">
        <ele>91.471767257899</ele>
        <time>2021-11-04T09:37:56Z</time>
      </trkpt>
      <trkpt lat="46.43332" lon="0.28903">
        <ele>91.425067904405</ele>
        <time>2021-11-04T09:37:59Z</time>
      </trkpt>
      <trkpt lat="46.43335" lon="0.28902">
        <ele>92.020211443305</ele>
        <time>2021-11-04T09:38:01Z</time>
      </trkpt>
      <trkpt lat="46.43337" lon="0.289">
        <ele>91.398585720919</ele>
        <time>2021-11-04T09:38:04Z</time>
      </trkpt>
      <trkpt lat="46.4334" lon="0.28902">
        <ele>91.50199497398</ele>
        <time>2021-11-04T09:38:07Z</time>
      </trkpt>
      <trkpt lat="46.43342" lon="0.28903">
        <ele>91.564128680155</ele>
        <time>2021-11-04T09:38:09Z</time>
      </trkpt>
      <trkpt lat="46.43345" lon="0.28904">
        <ele>91.885579309426</ele>
        <time>2021-11-04T09:38:12Z</time>
      </trkpt>
      <trkpt lat="46.43347" lon="0.28903">
        <ele>91.851125312038</ele>
        <time>2021-11-04T09:38:14Z</time>
      </trkpt>
      <trkpt lat="46.4335" lon="0.28904">
        <ele>92.122209899127</ele>
        <time>2021-11-04T09:38:16Z</time>
      </trkpt>
      <trkpt lat="46.43353" lon="0.28906">
        <ele>91.842196906917</ele>
        <time>2021-11-04T09:38:18Z</time>
      </trkpt>
      <trkpt lat="46.43356" lon="0.28907">
        <ele>92.140810769051</ele>
        <time>2021-11-04T09:38:21Z</time>
      </trkpt>
      <trkpt lat="46.43358" lon="0.28905">
        <ele>92.338548582979</ele>
        <time>2021-11-04T09:38:23Z</time>
      </trkpt>
      <trkpt lat="46.4336" lon="0.28904">
        <ele>92.601326220669</ele>
        <time>2021-11-04T09:38:25Z</time>
      </trkpt>
      <trkpt lat="46.43362" lon="0.28904">
        <ele>92.214135334827</ele>
        <time>2021-11-04T09:38:29Z</time>
      </trkpt>
      <trkpt lat="46.43365" lon="0.28904">
        <ele>92.17546040006</ele>
        <time>2021-11-04T09:38:31Z</time>
      </trkpt>
      <trkpt lat="46.43368" lon="0.28906">
        <ele>92.405447413214</ele>
        <time>2021-11-04T09:38:33Z</time>
      </trkpt>
      <trkpt lat="46.4337" lon="0.28907">
        <ele>92.498766224831</ele>
        <time>2021-11-04T09:38:35Z</time>
      </trkpt>
      <trkpt lat="46.43372" lon="0.28907">
        <ele>92.335127451457</ele>
        <time>2021-11-04T09:38:36Z</time>
      </trkpt>
      <trkpt lat="46.43374" lon="0.28908">
        <ele>92.591236926615</ele>
        <time>2021-11-04T09:38:38Z</time>
      </trkpt>
      <trkpt lat="46.43376" lon="0.28907">
        <ele>92.72830972448</ele>
        <time>2021-11-04T09:38:40Z</time>
      </trkpt>
      <trkpt lat="46.43378" lon="0.28906">
        <ele>93.095082027838</ele>
        <time>2021-11-04T09:38:42Z</time>
      </trkpt>
      <trkpt lat="46.4338" lon="0.28906">
        <ele>92.412305723876</ele>
        <time>2021-11-04T09:38:44Z</time>
      </trkpt>
      <trkpt lat="46.43383" lon="0.28906">
        <ele>92.365692948923</ele>
        <time>2021-11-04T09:38:46Z</time>
      </trkpt>
      <trkpt lat="46.43386" lon="0.28905">
        <ele>92.816454678774</ele>
        <time>2021-11-04T09:38:50Z</time>
      </trkpt>
      <trkpt lat="46.43388" lon="0.28904">
        <ele>92.438306015916</ele>
        <time>2021-11-04T09:38:53Z</time>
      </trkpt>
      <trkpt lat="46.4339" lon="0.28906">
        <ele>92.538894682191</ele>
        <time>2021-11-04T09:38:55Z</time>
      </trkpt>
      <trkpt lat="46.43392" lon="0.28907">
        <ele>93.291572961025</ele>
        <time>2021-11-04T09:38:58Z</time>
      </trkpt>
      <trkpt lat="46.43394" lon="0.28907">
        <ele>93.493528838269</ele>
        <time>2021-11-04T09:39:00Z</time>
      </trkpt>
      <trkpt lat="46.43396" lon="0.28908">
        <ele>92.867891091853</ele>
        <time>2021-11-04T09:39:02Z</time>
      </trkpt>
      <trkpt lat="46.43398" lon="0.28907">
        <ele>93.304170504212</ele>
        <time>2021-11-04T09:39:04Z</time>
      </trkpt>
      <trkpt lat="46.43401" lon="0.28908">
        <ele>92.905010757968</ele>
        <time>2021-11-04T09:39:06Z</time>
      </trkpt>
      <trkpt lat="46.43403" lon="0.28907">
        <ele>93.099864675663</ele>
        <time>2021-11-04T09:39:08Z</time>
      </trkpt>
      <trkpt lat="46.43406" lon="0.28908">
        <ele>93.406474204734</ele>
        <time>2021-11-04T09:39:10Z</time>
      </trkpt>
      <trkpt lat="46.43408" lon="0.28906">
        <ele>93.51464646589</ele>
        <time>2021-11-04T09:39:12Z</time>
      </trkpt>
      <trkpt lat="46.4341" lon="0.28907">
        <ele>93.365612859838</ele>
        <time>2021-11-04T09:39:14Z</time>
      </trkpt>
      <trkpt lat="46.43411" lon="0.28904">
        <ele>93.209690240212</ele>
        <time>2021-11-04T09:39:16Z</time>
      </trkpt>
      <trkpt lat="46.43414" lon="0.28904">
        <ele>93.222424509935</ele>
        <time>2021-11-04T09:39:20Z</time>
      </trkpt>
      <trkpt lat="46.43417" lon="0.28905">
        <ele>93.343523169868</ele>
        <time>2021-11-04T09:39:23Z</time>
      </trkpt>
      <trkpt lat="46.43419" lon="0.28903">
        <ele>93.303111344576</ele>
        <time>2021-11-04T09:39:26Z</time>
      </trkpt>
      <trkpt lat="46.43423" lon="0.28905">
        <ele>92.950833297335</ele>
        <time>2021-11-04T09:39:28Z</time>
      </trkpt>
      <trkpt lat="46.43425" lon="0.28903">
        <ele>93.292637725361</ele>
        <time>2021-11-04T09:39:29Z</time>
      </trkpt>
      <trkpt lat="46.43428" lon="0.28902">
        <ele>93.690902424976</ele>
        <time>2021-11-04T09:39:31Z</time>
      </trkpt>
      <trkpt lat="46.43431" lon="0.28902">
        <ele>93.404296260327</ele>
        <time>2021-11-04T09:39:33Z</time>
      </trkpt>
      <trkpt lat="46.43433" lon="0.289">
        <ele>93.066011200659</ele>
        <time>2021-11-04T09:39:35Z</time>
      </trkpt>
      <trkpt lat="46.43434" lon="0.28898">
        <ele>93.206061319448</ele>
        <time>2021-11-04T09:39:38Z</time>
      </trkpt>
      <trkpt lat="46.43438" lon="0.28898">
        <ele>92.956996637397</ele>
        <time>2021-11-04T09:39:40Z</time>
      </trkpt>
      <trkpt lat="46.43441" lon="0.28897">
        <ele>92.759618588723</ele>
        <time>2021-11-04T09:39:44Z</time>
      </trkpt>
      <trkpt lat="46.43444" lon="0.28896">
        <ele>93.280937244184</ele>
        <time>2021-11-04T09:39:47Z</time>
      </trkpt>
      <trkpt lat="46.43446" lon="0.28896">
        <ele>92.826179262251</ele>
        <time>2021-11-04T09:39:51Z</time>
      </trkpt>
      <trkpt lat="46.43448" lon="0.28896">
        <ele>92.449030523188</ele>
        <time>2021-11-04T09:39:53Z</time>
      </trkpt>
      <trkpt lat="46.43451" lon="0.28895">
        <ele>92.717761271633</ele>
        <time>2021-11-04T09:39:55Z</time>
      </trkpt>
      <trkpt lat="46.43454" lon="0.28894">
        <ele>92.607854248956</ele>
        <time>2021-11-04T09:39:57Z</time>
      </trkpt>
      <trkpt lat="46.43457" lon="0.28896">
        <ele>92.274466655217</ele>
        <time>2021-11-04T09:40:00Z</time>
      </trkpt>
      <trkpt lat="46.43459" lon="0.28897">
        <ele>92.499090814963</ele>
        <time>2021-11-04T09:40:01Z</time>
      </trkpt>
      <trkpt lat="46.43461" lon="0.28896">
        <ele>93.046005941927</ele>
        <time>2021-11-04T09:40:03Z</time>
      </trkpt>
      <trkpt lat="46.43464" lon="0.28896">
        <ele>92.928709300235</ele>
        <time>2021-11-04T09:40:06Z</time>
      </trkpt>
      <trkpt lat="46.43467" lon="0.28895">
        <ele>92.916716924869</ele>
        <time>2021-11-04T09:40:08Z</time>
      </trkpt>
      <trkpt lat="46.4347" lon="0.28893">
        <ele>93.021640292369</ele>
        <time>2021-11-04T09:40:10Z</time>
      </trkpt>
      <trkpt lat="46.43472" lon="0.28893">
        <ele>92.557164066471</ele>
        <time>2021-11-04T09:40:12Z</time>
      </trkpt>
      <trkpt lat="46.43474" lon="0.28893">
        <ele>92.463690004312</ele>
        <time>2021-11-04T09:40:14Z</time>
      </trkpt>
      <trkpt lat="46.43476" lon="0.28891">
        <ele>92.451975104399</ele>
        <time>2021-11-04T09:40:16Z</time>
      </trkpt>
      <trkpt lat="46.43479" lon="0.28891">
        <ele>91.99587937817</ele>
        <time>2021-11-04T09:40:18Z</time>
      </trkpt>
      <trkpt lat="46.43481" lon="0.28891">
        <ele>91.375625682063</ele>
        <time>2021-11-04T09:40:20Z</time>
      </trkpt>
      <trkpt lat="46.43484" lon="0.28891">
        <ele>91.872496514581</ele>
        <time>2021-11-04T09:40:23Z</time>
      </trkpt>
      <trkpt lat="46.43486" lon="0.28891">
        <ele>91.919184077531</ele>
        <time>2021-11-04T09:40:26Z</time>
      </trkpt>
      <trkpt lat="46.43488" lon="0.2889">
        <ele>91.429852927104</ele>
        <time>2021-11-04T09:40:28Z</time>
      </trkpt>
      <trkpt lat="46.43489" lon="0.28887">
        <ele>91.54122527875</ele>
        <time>2021-11-04T09:40:30Z</time>
      </trkpt>
      <trkpt lat="46.43489" lon="0.28884">
        <ele>91.493966552429</ele>
        <time>2021-11-04T09:40:32Z</time>
      </trkpt>
      <trkpt lat="46.4349" lon="0.28881">
        <ele>90.866231503896</ele>
        <time>2021-11-04T09:40:34Z</time>
      </trkpt>
      <trkpt lat="46.4349" lon="0.28878">
        <ele>90.660423238762</ele>
        <time>2021-11-04T09:40:36Z</time>
      </trkpt>
      <trkpt lat="46.43489" lon="0.28875">
        <ele>90.484070362523</ele>
        <time>2021-11-04T09:40:38Z</time>
      </trkpt>
      <trkpt lat="46.43488" lon="0.28872">
        <ele>90.292842728086</ele>
        <time>2021-11-04T09:40:40Z</time>
      </trkpt>
      <trkpt lat="46.43487" lon="0.28868">
        <ele>90.176022879779</ele>
        <time>2021-11-04T09:40:42Z</time>
      </trkpt>
      <trkpt lat="46.43486" lon="0.28864">
        <ele>89.256363302469</ele>
        <time>2021-11-04T09:40:44Z</time>
      </trkpt>
      <trkpt lat="46.43485" lon="0.28861">
        <ele>89.161178981885</ele>
        <time>2021-11-04T09:40:47Z</time>
      </trkpt>
      <trkpt lat="46.43484" lon="0.28859">
        <ele>88.584057176486</ele>
        <time>2021-11-04T09:40:49Z</time>
      </trkpt>
      <trkpt lat="46.43484" lon="0.28855">
        <ele>88.403699357994</ele>
        <time>2021-11-04T09:40:52Z</time>
      </trkpt>
      <trkpt lat="46.43484" lon="0.28851">
        <ele>88.683473572135</ele>
        <time>2021-11-04T09:40:54Z</time>
      </trkpt>
      <trkpt lat="46.43483" lon="0.28847">
        <ele>88.381144578569</ele>
        <time>2021-11-04T09:40:57Z</time>
      </trkpt>
      <trkpt lat="46.43482" lon="0.28844">
        <ele>88.093136447482</ele>
        <time>2021-11-04T09:40:59Z</time>
      </trkpt>
      <trkpt lat="46.43482" lon="0.28841">
        <ele>87.9871895127</ele>
        <time>2021-11-04T09:41:01Z</time>
      </trkpt>
      <trkpt lat="46.43481" lon="0.28838">
        <ele>87.885525542311</ele>
        <time>2021-11-04T09:41:03Z</time>
      </trkpt>
      <trkpt lat="46.43481" lon="0.28834">
        <ele>87.303311000578</ele>
        <time>2021-11-04T09:41:05Z</time>
      </trkpt>
      <trkpt lat="46.4348" lon="0.2883">
        <ele>87.159114520997</ele>
        <time>2021-11-04T09:41:08Z</time>
      </trkpt>
      <trkpt lat="46.4348" lon="0.28827">
        <ele>87.055928228423</ele>
        <time>2021-11-04T09:41:10Z</time>
      </trkpt>
      <trkpt lat="46.43479" lon="0.28824">
        <ele>86.988838548772</ele>
        <time>2021-11-04T09:41:12Z</time>
      </trkpt>
      <trkpt lat="46.43479" lon="0.28821">
        <ele>86.96918715816</ele>
        <time>2021-11-04T09:41:14Z</time>
      </trkpt>
      <trkpt lat="46.43478" lon="0.28817">
        <ele>86.72429702431</ele>
        <time>2021-11-04T09:41:17Z</time>
      </trkpt>
      <trkpt lat="46.43478" lon="0.28814">
        <ele>87.472947559319</ele>
        <time>2021-11-04T09:41:19Z</time>
      </trkpt>
      <trkpt lat="46.43478" lon="0.28811">
        <ele>86.979690706357</ele>
        <time>2021-11-04T09:41:21Z</time>
      </trkpt>
      <trkpt lat="46.43477" lon="0.28808">
        <ele>87.485606152564</ele>
        <time>2021-11-04T09:41:23Z</time>
      </trkpt>
      <trkpt lat="46.43477" lon="0.28805">
        <ele>87.4916915996</ele>
        <time>2021-11-04T09:41:25Z</time>
      </trkpt>
      <trkpt lat="46.43477" lon="0.28802">
        <ele>88.016693020239</ele>
        <time>2021-11-04T09:41:27Z</time>
      </trkpt>
      <trkpt lat="46.43476" lon="0.28799">
        <ele>87.700243503787</ele>
        <time>2021-11-04T09:41:29Z</time>
      </trkpt>
      <trkpt lat="46.43476" lon="0.28795">
        <ele>87.417828365229</ele>
        <time>2021-11-04T09:41:31Z</time>
      </trkpt>
      <trkpt lat="46.43476" lon="0.28792">
        <ele>87.359945423901</ele>
        <time>2021-11-04T09:41:33Z</time>
      </trkpt>
      <trkpt lat="46.43476" lon="0.28789">
        <ele>86.992273729295</ele>
        <time>2021-11-04T09:41:35Z</time>
      </trkpt>
      <trkpt lat="46.43475" lon="0.28786">
        <ele>87.305890170857</ele>
        <time>2021-11-04T09:41:37Z</time>
      </trkpt>
      <trkpt lat="46.43475" lon="0.28782">
        <ele>87.196768353693</ele>
        <time>2021-11-04T09:41:39Z</time>
      </trkpt>
      <trkpt lat="46.43474" lon="0.28779">
        <ele>86.946017130278</ele>
        <time>2021-11-04T09:41:41Z</time>
      </trkpt>
      <trkpt lat="46.43474" lon="0.28776">
        <ele>87.324195485562</ele>
        <time>2021-11-04T09:41:43Z</time>
      </trkpt>
      <trkpt lat="46.43473" lon="0.28773">
        <ele>86.79499207437</ele>
        <time>2021-11-04T09:41:45Z</time>
      </trkpt>
      <trkpt lat="46.43473" lon="0.28769">
        <ele>87.034257692285</ele>
        <time>2021-11-04T09:41:47Z</time>
      </trkpt>
      <trkpt lat="46.43472" lon="0.28765">
        <ele>86.827507119626</ele>
        <time>2021-11-04T09:41:50Z</time>
      </trkpt>
      <trkpt lat="46.43472" lon="0.28762">
        <ele>86.734244752675</ele>
        <time>2021-11-04T09:41:52Z</time>
      </trkpt>
      <trkpt lat="46.43471" lon="0.28759">
        <ele>87.017447375692</ele>
        <time>2021-11-04T09:41:54Z</time>
      </trkpt>
      <trkpt lat="46.4347" lon="0.28756">
        <ele>86.542073286138</ele>
        <time>2021-11-04T09:41:56Z</time>
      </trkpt>
      <trkpt lat="46.4347" lon="0.28754">
        <ele>86.798986480571</ele>
        <time>2021-11-04T09:41:58Z</time>
      </trkpt>
      <trkpt lat="46.4347" lon="0.28749">
        <ele>86.810902072117</ele>
        <time>2021-11-04T09:42:01Z</time>
      </trkpt>
      <trkpt lat="46.43469" lon="0.28746">
        <ele>86.808236465789</ele>
        <time>2021-11-04T09:42:03Z</time>
      </trkpt>
      <trkpt lat="46.43469" lon="0.28743">
        <ele>87.095128287561</ele>
        <time>2021-11-04T09:42:05Z</time>
      </trkpt>
      <trkpt lat="46.43468" lon="0.2874">
        <ele>87.0736301383</ele>
        <time>2021-11-04T09:42:07Z</time>
      </trkpt>
      <trkpt lat="46.43467" lon="0.28736">
        <ele>86.912565528415</ele>
        <time>2021-11-04T09:42:10Z</time>
      </trkpt>
      <trkpt lat="46.43467" lon="0.28732">
        <ele>86.417541859671</ele>
        <time>2021-11-04T09:42:12Z</time>
      </trkpt>
      <trkpt lat="46.43467" lon="0.28729">
        <ele>87.181995363906</ele>
        <time>2021-11-04T09:42:14Z</time>
      </trkpt>
      <trkpt lat="46.43466" lon="0.28727">
        <ele>86.733326285146</ele>
        <time>2021-11-04T09:42:16Z</time>
      </trkpt>
      <trkpt lat="46.43465" lon="0.28723">
        <ele>86.875093202107</ele>
        <time>2021-11-04T09:42:18Z</time>
      </trkpt>
      <trkpt lat="46.43465" lon="0.2872">
        <ele>86.975507657975</ele>
        <time>2021-11-04T09:42:20Z</time>
      </trkpt>
      <trkpt lat="46.43465" lon="0.28717">
        <ele>86.57941668015</ele>
        <time>2021-11-04T09:42:22Z</time>
      </trkpt>
      <trkpt lat="46.43464" lon="0.28713">
        <ele>86.701205522753</ele>
        <time>2021-11-04T09:42:25Z</time>
      </trkpt>
      <trkpt lat="46.43463" lon="0.2871">
        <ele>86.933110746555</ele>
        <time>2021-11-04T09:42:27Z</time>
      </trkpt>
      <trkpt lat="46.43463" lon="0.28706">
        <ele>87.282671440393</ele>
        <time>2021-11-04T09:42:30Z</time>
      </trkpt>
      <trkpt lat="46.43463" lon="0.28704">
        <ele>86.735092109069</ele>
        <time>2021-11-04T09:42:32Z</time>
      </trkpt>
      <trkpt lat="46.43463" lon="0.287">
        <ele>86.533642185852</ele>
        <time>2021-11-04T09:42:34Z</time>
      </trkpt>
      <trkpt lat="46.43463" lon="0.28697">
        <ele>86.354577349499</ele>
        <time>2021-11-04T09:42:37Z</time>
      </trkpt>
      <trkpt lat="46.43462" lon="0.28694">
        <ele>86.558246188797</ele>
        <time>2021-11-04T09:42:40Z</time>
      </trkpt>
      <trkpt lat="46.43462" lon="0.28691">
        <ele>87.133376277052</ele>
        <time>2021-11-04T09:42:43Z</time>
      </trkpt>
      <trkpt lat="46.43463" lon="0.28687">
        <ele>86.986963084899</ele>
        <time>2021-11-04T09:42:46Z</time>
      </trkpt>
      <trkpt lat="46.43463" lon="0.28684">
        <ele>86.732059089467</ele>
        <time>2021-11-04T09:42:49Z</time>
      </trkpt>
      <trkpt lat="46.43462" lon="0.2868">
        <ele>86.90631450247</ele>
        <time>2021-11-04T09:42:51Z</time>
      </trkpt>
      <trkpt lat="46.43461" lon="0.28677">
        <ele>86.8228019448</ele>
        <time>2021-11-04T09:42:54Z</time>
      </trkpt>
      <trkpt lat="46.43459" lon="0.28673">
        <ele>87.650803915225</ele>
        <time>2021-11-04T09:42:57Z</time>
      </trkpt>
      <trkpt lat="46.43458" lon="0.2867">
        <ele>87.305631702766</ele>
        <time>2021-11-04T09:42:59Z</time>
      </trkpt>
      <trkpt lat="46.43456" lon="0.28667">
        <ele>87.439259442501</ele>
        <time>2021-11-04T09:43:01Z</time>
      </trkpt>
      <trkpt lat="46.43455" lon="0.28665">
        <ele>87.21358087007</ele>
        <time>2021-11-04T09:43:03Z</time>
      </trkpt>
      <trkpt lat="46.43454" lon="0.28663">
        <ele>87.945895981044</ele>
        <time>2021-11-04T09:43:05Z</time>
      </trkpt>
      <trkpt lat="46.43452" lon="0.28661">
        <ele>88.097690637223</ele>
        <time>2021-11-04T09:43:08Z</time>
      </trkpt>
      <trkpt lat="46.4345" lon="0.28658">
        <ele>87.866269217804</ele>
        <time>2021-11-04T09:43:11Z</time>
      </trkpt>
      <trkpt lat="46.43448" lon="0.28657">
        <ele>87.501933715306</ele>
        <time>2021-11-04T09:43:13Z</time>
      </trkpt>
      <trkpt lat="46.43446" lon="0.28655">
        <ele>87.413001352921</ele>
        <time>2021-11-04T09:43:15Z</time>
      </trkpt>
      <trkpt lat="46.43444" lon="0.28653">
        <ele>87.947023207322</ele>
        <time>2021-11-04T09:43:18Z</time>
      </trkpt>
      <trkpt lat="46.43442" lon="0.28651">
        <ele>87.588527717628</ele>
        <time>2021-11-04T09:43:20Z</time>
      </trkpt>
      <trkpt lat="46.43441" lon="0.28649">
        <ele>87.288750844076</ele>
        <time>2021-11-04T09:43:22Z</time>
      </trkpt>
      <trkpt lat="46.43439" lon="0.28647">
        <ele>87.688591766171</ele>
        <time>2021-11-04T09:43:24Z</time>
      </trkpt>
      <trkpt lat="46.43436" lon="0.28645">
        <ele>87.963012469932</ele>
        <time>2021-11-04T09:43:27Z</time>
      </trkpt>
      <trkpt lat="46.43434" lon="0.28642">
        <ele>88.088354005478</ele>
        <time>2021-11-04T09:43:29Z</time>
      </trkpt>
      <trkpt lat="46.43432" lon="0.2864">
        <ele>87.835117962211</ele>
        <time>2021-11-04T09:43:31Z</time>
      </trkpt>
      <trkpt lat="46.4343" lon="0.28638">
        <ele>87.799073369242</ele>
        <time>2021-11-04T09:43:34Z</time>
      </trkpt>
      <trkpt lat="46.43428" lon="0.28636">
        <ele>88.08331411425</ele>
        <time>2021-11-04T09:43:36Z</time>
      </trkpt>
      <trkpt lat="46.43426" lon="0.28635">
        <ele>87.060407091863</ele>
        <time>2021-11-04T09:43:38Z</time>
      </trkpt>
      <trkpt lat="46.43425" lon="0.28632">
        <ele>87.950694181956</ele>
        <time>2021-11-04T09:43:39Z</time>
      </trkpt>
      <trkpt lat="46.43423" lon="0.2863">
        <ele>87.592100739479</ele>
        <time>2021-11-04T09:43:42Z</time>
      </trkpt>
      <trkpt lat="46.43422" lon="0.28628">
        <ele>88.213310189545</ele>
        <time>2021-11-04T09:43:44Z</time>
      </trkpt>
      <trkpt lat="46.4342" lon="0.28626">
        <ele>87.749906991608</ele>
        <time>2021-11-04T09:43:46Z</time>
      </trkpt>
      <trkpt lat="46.43417" lon="0.28623">
        <ele>87.7251082398</ele>
        <time>2021-11-04T09:43:49Z</time>
      </trkpt>
      <trkpt lat="46.43415" lon="0.28621">
        <ele>87.822860696353</ele>
        <time>2021-11-04T09:43:51Z</time>
      </trkpt>
      <trkpt lat="46.43414" lon="0.28619">
        <ele>87.664950742386</ele>
        <time>2021-11-04T09:43:53Z</time>
      </trkpt>
      <trkpt lat="46.43412" lon="0.28618">
        <ele>87.917466684245</ele>
        <time>2021-11-04T09:43:55Z</time>
      </trkpt>
      <trkpt lat="46.4341" lon="0.28615">
        <ele>87.711280886084</ele>
        <time>2021-11-04T09:43:57Z</time>
      </trkpt>
      <trkpt lat="46.43408" lon="0.28612">
        <ele>87.747785463929</ele>
        <time>2021-11-04T09:44:00Z</time>
      </trkpt>
      <trkpt lat="46.43406" lon="0.28609">
        <ele>87.772709860466</ele>
        <time>2021-11-04T09:44:02Z</time>
      </trkpt>
      <trkpt lat="46.43404" lon="0.28607">
        <ele>87.806386415847</ele>
        <time>2021-11-04T09:44:04Z</time>
      </trkpt>
      <trkpt lat="46.43403" lon="0.28605">
        <ele>88.084890375845</ele>
        <time>2021-11-04T09:44:06Z</time>
      </trkpt>
      <trkpt lat="46.43401" lon="0.28602">
        <ele>88.209754118696</ele>
        <time>2021-11-04T09:44:08Z</time>
      </trkpt>
      <trkpt lat="46.43399" lon="0.286">
        <ele>88.150285096839</ele>
        <time>2021-11-04T09:44:10Z</time>
      </trkpt>
      <trkpt lat="46.43398" lon="0.28597">
        <ele>88.529606776312</ele>
        <time>2021-11-04T09:44:12Z</time>
      </trkpt>
      <trkpt lat="46.43396" lon="0.28595">
        <ele>88.221947200596</ele>
        <time>2021-11-04T09:44:14Z</time>
      </trkpt>
      <trkpt lat="46.43394" lon="0.28593">
        <ele>88.071140426211</ele>
        <time>2021-11-04T09:44:16Z</time>
      </trkpt>
      <trkpt lat="46.43393" lon="0.2859">
        <ele>88.201511446387</ele>
        <time>2021-11-04T09:44:18Z</time>
      </trkpt>
      <trkpt lat="46.43392" lon="0.28588">
        <ele>88.45356834121</ele>
        <time>2021-11-04T09:44:20Z</time>
      </trkpt>
      <trkpt lat="46.4339" lon="0.28587">
        <ele>88.171438056044</ele>
        <time>2021-11-04T09:44:22Z</time>
      </trkpt>
      <trkpt lat="46.43389" lon="0.28584">
        <ele>88.917095152661</ele>
        <time>2021-11-04T09:44:24Z</time>
      </trkpt>
      <trkpt lat="46.43388" lon="0.28582">
        <ele>89.003406099044</ele>
        <time>2021-11-04T09:44:26Z</time>
      </trkpt>
      <trkpt lat="46.43386" lon="0.28579">
        <ele>89.143126668409</ele>
        <time>2021-11-04T09:44:28Z</time>
      </trkpt>
      <trkpt lat="46.43385" lon="0.28576">
        <ele>88.91168815922</ele>
        <time>2021-11-04T09:44:30Z</time>
      </trkpt>
      <trkpt lat="46.43383" lon="0.28574">
        <ele>89.028859211132</ele>
        <time>2021-11-04T09:44:33Z</time>
      </trkpt>
      <trkpt lat="46.43381" lon="0.28572">
        <ele>88.706775943749</ele>
        <time>2021-11-04T09:44:36Z</time>
      </trkpt>
      <trkpt lat="46.4338" lon="0.28569">
        <ele>88.615489227697</ele>
        <time>2021-11-04T09:44:38Z</time>
      </trkpt>
      <trkpt lat="46.43378" lon="0.28567">
        <ele>88.72668677289</ele>
        <time>2021-11-04T09:44:40Z</time>
      </trkpt>
      <trkpt lat="46.43376" lon="0.28564">
        <ele>88.9005422052</ele>
        <time>2021-11-04T09:44:42Z</time>
      </trkpt>
      <trkpt lat="46.43374" lon="0.28562">
        <ele>88.991256443784</ele>
        <time>2021-11-04T09:44:44Z</time>
      </trkpt>
      <trkpt lat="46.43372" lon="0.28559">
        <ele>88.613929461688</ele>
        <time>2021-11-04T09:44:46Z</time>
      </trkpt>
      <trkpt lat="46.4337" lon="0.28556">
        <ele>88.809467191808</ele>
        <time>2021-11-04T09:44:48Z</time>
      </trkpt>
      <trkpt lat="46.43369" lon="0.28555">
        <ele>88.883355060592</ele>
        <time>2021-11-04T09:44:50Z</time>
      </trkpt>
      <trkpt lat="46.43367" lon="0.28552">
        <ele>88.910982695408</ele>
        <time>2021-11-04T09:44:52Z</time>
      </trkpt>
      <trkpt lat="46.43365" lon="0.2855">
        <ele>88.741930000484</ele>
        <time>2021-11-04T09:44:54Z</time>
      </trkpt>
      <trkpt lat="46.43364" lon="0.28548">
        <ele>89.06851614546</ele>
        <time>2021-11-04T09:44:57Z</time>
      </trkpt>
      <trkpt lat="46.43362" lon="0.28546">
        <ele>88.905698655173</ele>
        <time>2021-11-04T09:44:59Z</time>
      </trkpt>
      <trkpt lat="46.43361" lon="0.28544">
        <ele>89.183549473993</ele>
        <time>2021-11-04T09:45:01Z</time>
      </trkpt>
      <trkpt lat="46.43359" lon="0.2854">
        <ele>89.159824187867</ele>
        <time>2021-11-04T09:45:04Z</time>
      </trkpt>
      <trkpt lat="46.43357" lon="0.28538">
        <ele>89.566798040643</ele>
        <time>2021-11-04T09:45:07Z</time>
      </trkpt>
      <trkpt lat="46.43356" lon="0.28536">
        <ele>89.382997768</ele>
        <time>2021-11-04T09:45:09Z</time>
      </trkpt>
      <trkpt lat="46.43354" lon="0.28533">
        <ele>89.655195793137</ele>
        <time>2021-11-04T09:45:11Z</time>
      </trkpt>
      <trkpt lat="46.43352" lon="0.28531">
        <ele>90.122040167451</ele>
        <time>2021-11-04T09:45:13Z</time>
      </trkpt>
      <trkpt lat="46.43351" lon="0.28529">
        <ele>90.01062282268</ele>
        <time>2021-11-04T09:45:15Z</time>
      </trkpt>
      <trkpt lat="46.43349" lon="0.28527">
        <ele>90.480064418167</ele>
        <time>2021-11-04T09:45:18Z</time>
      </trkpt>
      <trkpt lat="46.43347" lon="0.28525">
        <ele>90.355873826891</ele>
        <time>2021-11-04T09:45:21Z</time>
      </trkpt>
      <trkpt lat="46.43345" lon="0.28522">
        <ele>89.782967329025</ele>
        <time>2021-11-04T09:45:24Z</time>
      </trkpt>
      <trkpt lat="46.43344" lon="0.2852">
        <ele>89.907413743436</ele>
        <time>2021-11-04T09:45:26Z</time>
      </trkpt>
      <trkpt lat="46.43342" lon="0.28517">
        <ele>90.252933489159</ele>
        <time>2021-11-04T09:45:28Z</time>
      </trkpt>
      <trkpt lat="46.4334" lon="0.28515">
        <ele>90.239372753538</ele>
        <time>2021-11-04T09:45:31Z</time>
      </trkpt>
      <trkpt lat="46.43338" lon="0.28512">
        <ele>90.383149152622</ele>
        <time>2021-11-04T09:45:33Z</time>
      </trkpt>
      <trkpt lat="46.43336" lon="0.28509">
        <ele>90.196143141948</ele>
        <time>2021-11-04T09:45:35Z</time>
      </trkpt>
      <trkpt lat="46.43334" lon="0.28508">
        <ele>90.606498307548</ele>
        <time>2021-11-04T09:45:38Z</time>
      </trkpt>
      <trkpt lat="46.43332" lon="0.28506">
        <ele>90.613936046138</ele>
        <time>2021-11-04T09:45:40Z</time>
      </trkpt>
      <trkpt lat="46.43331" lon="0.28504">
        <ele>90.797391947359</ele>
        <time>2021-11-04T09:45:42Z</time>
      </trkpt>
      <trkpt lat="46.43329" lon="0.28501">
        <ele>90.67962359637</ele>
        <time>2021-11-04T09:45:44Z</time>
      </trkpt>
      <trkpt lat="46.43327" lon="0.28498">
        <ele>91.604934714735</ele>
        <time>2021-11-04T09:45:46Z</time>
      </trkpt>
      <trkpt lat="46.43327" lon="0.28496">
        <ele>91.141261599958</ele>
        <time>2021-11-04T09:45:48Z</time>
      </trkpt>
      <trkpt lat="46.43325" lon="0.28493">
        <ele>91.298405033536</ele>
        <time>2021-11-04T09:45:51Z</time>
      </trkpt>
      <trkpt lat="46.43324" lon="0.2849">
        <ele>91.567251537926</ele>
        <time>2021-11-04T09:45:53Z</time>
      </trkpt>
      <trkpt lat="46.43323" lon="0.28487">
        <ele>91.573632600717</ele>
        <time>2021-11-04T09:45:56Z</time>
      </trkpt>
      <trkpt lat="46.43322" lon="0.28484">
        <ele>92.045985016972</ele>
        <time>2021-11-04T09:46:00Z</time>
      </trkpt>
      <trkpt lat="46.43321" lon="0.28482">
        <ele>92.449632969685</ele>
        <time>2021-11-04T09:46:02Z</time>
      </trkpt>
      <trkpt lat="46.4332" lon="0.28479">
        <ele>92.633068531752</ele>
        <time>2021-11-04T09:46:04Z</time>
      </trkpt>
      <trkpt lat="46.4332" lon="0.28475">
        <ele>92.582537499256</ele>
        <time>2021-11-04T09:46:07Z</time>
      </trkpt>
      <trkpt lat="46.43318" lon="0.28472">
        <ele>93.093043906614</ele>
        <time>2021-11-04T09:46:10Z</time>
      </trkpt>
      <trkpt lat="46.43318" lon="0.28468">
        <ele>93.419226391241</ele>
        <time>2021-11-04T09:46:13Z</time>
      </trkpt>
      <trkpt lat="46.43318" lon="0.28465">
        <ele>92.853073042817</ele>
        <time>2021-11-04T09:46:15Z</time>
      </trkpt>
      <trkpt lat="46.43317" lon="0.28461">
        <ele>93.187927231193</ele>
        <time>2021-11-04T09:46:17Z</time>
      </trkpt>
      <trkpt lat="46.43316" lon="0.28457">
        <ele>93.010836658068</ele>
        <time>2021-11-04T09:46:20Z</time>
      </trkpt>
      <trkpt lat="46.43316" lon="0.28454">
        <ele>93.36306873057</ele>
        <time>2021-11-04T09:46:23Z</time>
      </trkpt>
      <trkpt lat="46.43315" lon="0.28451">
        <ele>93.321873974055</ele>
        <time>2021-11-04T09:46:25Z</time>
      </trkpt>
      <trkpt lat="46.43315" lon="0.28448">
        <ele>93.315079406835</ele>
        <time>2021-11-04T09:46:27Z</time>
      </trkpt>
      <trkpt lat="46.43315" lon="0.28445">
        <ele>93.580914733931</ele>
        <time>2021-11-04T09:46:29Z</time>
      </trkpt>
      <trkpt lat="46.43314" lon="0.28442">
        <ele>93.124620061368</ele>
        <time>2021-11-04T09:46:32Z</time>
      </trkpt>
      <trkpt lat="46.43313" lon="0.2844">
        <ele>93.294357053004</ele>
        <time>2021-11-04T09:46:34Z</time>
      </trkpt>
      <trkpt lat="46.43311" lon="0.28437">
        <ele>93.397299038246</ele>
        <time>2021-11-04T09:46:37Z</time>
      </trkpt>
      <trkpt lat="46.4331" lon="0.28434">
        <ele>93.284332386218</ele>
        <time>2021-11-04T09:46:39Z</time>
      </trkpt>
      <trkpt lat="46.43309" lon="0.28432">
        <ele>93.688587364741</ele>
        <time>2021-11-04T09:46:42Z</time>
      </trkpt>
      <trkpt lat="46.43308" lon="0.28429">
        <ele>93.618805233389</ele>
        <time>2021-11-04T09:46:43Z</time>
      </trkpt>
      <trkpt lat="46.43307" lon="0.28427">
        <ele>93.118385218084</ele>
        <time>2021-11-04T09:46:45Z</time>
      </trkpt>
      <trkpt lat="46.43306" lon="0.28425">
        <ele>93.568092528731</ele>
        <time>2021-11-04T09:46:46Z</time>
      </trkpt>
      <trkpt lat="46.43305" lon="0.28421">
        <ele>93.779632956721</ele>
        <time>2021-11-04T09:46:48Z</time>
      </trkpt>
      <trkpt lat="46.43303" lon="0.28418">
        <ele>93.597117090598</ele>
        <time>2021-11-04T09:46:50Z</time>
      </trkpt>
      <trkpt lat="46.43302" lon="0.28415">
        <ele>93.65303722769</ele>
        <time>2021-11-04T09:46:52Z</time>
      </trkpt>
      <trkpt lat="46.433" lon="0.28412">
        <ele>93.914541782811</ele>
        <time>2021-11-04T09:46:54Z</time>
      </trkpt>
      <trkpt lat="46.43299" lon="0.28409">
        <ele>94.042925939895</ele>
        <time>2021-11-04T09:46:56Z</time>
      </trkpt>
      <trkpt lat="46.43297" lon="0.28405">
        <ele>94.040469739586</ele>
        <time>2021-11-04T09:46:58Z</time>
      </trkpt>
      <trkpt lat="46.43296" lon="0.28401">
        <ele>94.43199491594</ele>
        <time>2021-11-04T09:47:00Z</time>
      </trkpt>
      <trkpt lat="46.43294" lon="0.28398">
        <ele>94.058479662985</ele>
        <time>2021-11-04T09:47:03Z</time>
      </trkpt>
      <trkpt lat="46.43293" lon="0.28394">
        <ele>94.083095950074</ele>
        <time>2021-11-04T09:47:05Z</time>
      </trkpt>
      <trkpt lat="46.43291" lon="0.28392">
        <ele>94.428084922023</ele>
        <time>2021-11-04T09:47:07Z</time>
      </trkpt>
      <trkpt lat="46.4329" lon="0.28388">
        <ele>94.106101353653</ele>
        <time>2021-11-04T09:47:09Z</time>
      </trkpt>
      <trkpt lat="46.43289" lon="0.28385">
        <ele>94.22167196963</ele>
        <time>2021-11-04T09:47:11Z</time>
      </trkpt>
      <trkpt lat="46.43287" lon="0.28382">
        <ele>94.660657356493</ele>
        <time>2021-11-04T09:47:13Z</time>
      </trkpt>
      <trkpt lat="46.43286" lon="0.28379">
        <ele>94.266925911419</ele>
        <time>2021-11-04T09:47:15Z</time>
      </trkpt>
      <trkpt lat="46.43285" lon="0.28376">
        <ele>94.768206230365</ele>
        <time>2021-11-04T09:47:17Z</time>
      </trkpt>
      <trkpt lat="46.43284" lon="0.28372">
        <ele>94.158666444942</ele>
        <time>2021-11-04T09:47:20Z</time>
      </trkpt>
      <trkpt lat="46.43283" lon="0.2837">
        <ele>94.416970471852</ele>
        <time>2021-11-04T09:47:22Z</time>
      </trkpt>
      <trkpt lat="46.43282" lon="0.28367">
        <ele>94.088503746316</ele>
        <time>2021-11-04T09:47:24Z</time>
      </trkpt>
      <trkpt lat="46.43281" lon="0.28364">
        <ele>94.07767370902</ele>
        <time>2021-11-04T09:47:27Z</time>
      </trkpt>
      <trkpt lat="46.43279" lon="0.28361">
        <ele>93.739480999298</ele>
        <time>2021-11-04T09:47:30Z</time>
      </trkpt>
      <trkpt lat="46.43279" lon="0.28358">
        <ele>93.995894514956</ele>
        <time>2021-11-04T09:47:32Z</time>
      </trkpt>
      <trkpt lat="46.43279" lon="0.28355">
        <ele>94.323548125103</ele>
        <time>2021-11-04T09:47:33Z</time>
      </trkpt>
      <trkpt lat="46.43277" lon="0.28352">
        <ele>94.31774063874</ele>
        <time>2021-11-04T09:47:36Z</time>
      </trkpt>
      <trkpt lat="46.43276" lon="0.28349">
        <ele>94.143982550129</ele>
        <time>2021-11-04T09:47:38Z</time>
      </trkpt>
      <trkpt lat="46.43275" lon="0.28346">
        <ele>94.158934903331</ele>
        <time>2021-11-04T09:47:40Z</time>
      </trkpt>
      <trkpt lat="46.43273" lon="0.28343">
        <ele>94.08254212141</ele>
        <time>2021-11-04T09:47:43Z</time>
      </trkpt>
      <trkpt lat="46.43272" lon="0.28341">
        <ele>94.198505371809</ele>
        <time>2021-11-04T09:47:45Z</time>
      </trkpt>
      <trkpt lat="46.43272" lon="0.28336">
        <ele>94.208919695579</ele>
        <time>2021-11-04T09:47:47Z</time>
      </trkpt>
      <trkpt lat="46.43269" lon="0.28332">
        <ele>94.208943604492</ele>
        <time>2021-11-04T09:47:50Z</time>
      </trkpt>
      <trkpt lat="46.43269" lon="0.28328">
        <ele>94.182716284879</ele>
        <time>2021-11-04T09:47:52Z</time>
      </trkpt>
      <trkpt lat="46.43268" lon="0.28324">
        <ele>94.437875133008</ele>
        <time>2021-11-04T09:47:54Z</time>
      </trkpt>
      <trkpt lat="46.43267" lon="0.28321">
        <ele>94.432342417538</ele>
        <time>2021-11-04T09:47:56Z</time>
      </trkpt>
      <trkpt lat="46.43265" lon="0.28318">
        <ele>94.446004397236</ele>
        <time>2021-11-04T09:47:58Z</time>
      </trkpt>
      <trkpt lat="46.43264" lon="0.28315">
        <ele>93.733699593693</ele>
        <time>2021-11-04T09:48:01Z</time>
      </trkpt>
      <trkpt lat="46.43263" lon="0.2831">
        <ele>93.917557696812</ele>
        <time>2021-11-04T09:48:05Z</time>
      </trkpt>
      <trkpt lat="46.43263" lon="0.28307">
        <ele>93.822492970154</ele>
        <time>2021-11-04T09:48:07Z</time>
      </trkpt>
      <trkpt lat="46.43262" lon="0.28303">
        <ele>93.564283717424</ele>
        <time>2021-11-04T09:48:09Z</time>
      </trkpt>
      <trkpt lat="46.43261" lon="0.283">
        <ele>93.756231513806</ele>
        <time>2021-11-04T09:48:12Z</time>
      </trkpt>
      <trkpt lat="46.43261" lon="0.28296">
        <ele>93.764230888337</ele>
        <time>2021-11-04T09:48:15Z</time>
      </trkpt>
      <trkpt lat="46.43261" lon="0.28293">
        <ele>93.164205429144</ele>
        <time>2021-11-04T09:48:18Z</time>
      </trkpt>
      <trkpt lat="46.43261" lon="0.2829">
        <ele>93.199943947606</ele>
        <time>2021-11-04T09:48:21Z</time>
      </trkpt>
      <trkpt lat="46.43262" lon="0.28287">
        <ele>93.480282832868</ele>
        <time>2021-11-04T09:48:22Z</time>
      </trkpt>
      <trkpt lat="46.43261" lon="0.28284">
        <ele>92.820737250149</ele>
        <time>2021-11-04T09:48:25Z</time>
      </trkpt>
      <trkpt lat="46.4326" lon="0.28279">
        <ele>92.739357431419</ele>
        <time>2021-11-04T09:48:27Z</time>
      </trkpt>
      <trkpt lat="46.4326" lon="0.28276">
        <ele>92.578314378858</ele>
        <time>2021-11-04T09:48:29Z</time>
      </trkpt>
      <trkpt lat="46.43259" lon="0.28273">
        <ele>92.793872341514</ele>
        <time>2021-11-04T09:48:31Z</time>
      </trkpt>
      <trkpt lat="46.43258" lon="0.2827">
        <ele>92.68425291311</ele>
        <time>2021-11-04T09:48:33Z</time>
      </trkpt>
      <trkpt lat="46.43257" lon="0.28267">
        <ele>92.347270864993</ele>
        <time>2021-11-04T09:48:35Z</time>
      </trkpt>
      <trkpt lat="46.43256" lon="0.28263">
        <ele>92.115499256179</ele>
        <time>2021-11-04T09:48:37Z</time>
      </trkpt>
      <trkpt lat="46.43255" lon="0.28261">
        <ele>91.801135196351</ele>
        <time>2021-11-04T09:48:39Z</time>
      </trkpt>
      <trkpt lat="46.43254" lon="0.28257">
        <ele>92.308971944265</ele>
        <time>2021-11-04T09:48:42Z</time>
      </trkpt>
      <trkpt lat="46.43253" lon="0.28254">
        <ele>91.837816882879</ele>
        <time>2021-11-04T09:48:44Z</time>
      </trkpt>
      <trkpt lat="46.43252" lon="0.28251">
        <ele>91.521746794693</ele>
        <time>2021-11-04T09:48:46Z</time>
      </trkpt>
      <trkpt lat="46.4325" lon="0.28248">
        <ele>91.611809372902</ele>
        <time>2021-11-04T09:48:48Z</time>
      </trkpt>
      <trkpt lat="46.43249" lon="0.28245">
        <ele>91.659874825738</ele>
        <time>2021-11-04T09:48:51Z</time>
      </trkpt>
      <trkpt lat="46.43246" lon="0.28242">
        <ele>91.517431366257</ele>
        <time>2021-11-04T09:48:55Z</time>
      </trkpt>
      <trkpt lat="46.43245" lon="0.2824">
        <ele>91.687916988507</ele>
        <time>2021-11-04T09:48:57Z</time>
      </trkpt>
      <trkpt lat="46.43244" lon="0.28238">
        <ele>92.23599880375</ele>
        <time>2021-11-04T09:49:00Z</time>
      </trkpt>
      <trkpt lat="46.43243" lon="0.28236">
        <ele>92.206975903362</ele>
        <time>2021-11-04T09:49:02Z</time>
      </trkpt>
      <trkpt lat="46.43241" lon="0.28233">
        <ele>92.421187464148</ele>
        <time>2021-11-04T09:49:05Z</time>
      </trkpt>
      <trkpt lat="46.4324" lon="0.28231">
        <ele>92.624491939321</ele>
        <time>2021-11-04T09:49:07Z</time>
      </trkpt>
      <trkpt lat="46.43239" lon="0.28227">
        <ele>93.111923130229</ele>
        <time>2021-11-04T09:49:09Z</time>
      </trkpt>
      <trkpt lat="46.43236" lon="0.28226">
        <ele>92.552429737523</ele>
        <time>2021-11-04T09:49:12Z</time>
      </trkpt>
      <trkpt lat="46.43235" lon="0.28223">
        <ele>92.836921022274</ele>
        <time>2021-11-04T09:49:14Z</time>
      </trkpt>
      <trkpt lat="46.43234" lon="0.28221">
        <ele>92.440606661141</ele>
        <time>2021-11-04T09:49:16Z</time>
      </trkpt>
      <trkpt lat="46.43232" lon="0.28218">
        <ele>92.833173817955</ele>
        <time>2021-11-04T09:49:18Z</time>
      </trkpt>
      <trkpt lat="46.43231" lon="0.28216">
        <ele>92.640137497336</ele>
        <time>2021-11-04T09:49:20Z</time>
      </trkpt>
      <trkpt lat="46.43229" lon="0.28215">
        <ele>92.681455739774</ele>
        <time>2021-11-04T09:49:22Z</time>
      </trkpt>
      <trkpt lat="46.43228" lon="0.28211">
        <ele>93.047180388123</ele>
        <time>2021-11-04T09:49:25Z</time>
      </trkpt>
      <trkpt lat="46.43227" lon="0.28208">
        <ele>92.693313635886</ele>
        <time>2021-11-04T09:49:26Z</time>
      </trkpt>
      <trkpt lat="46.43226" lon="0.28205">
        <ele>92.802448228933</ele>
        <time>2021-11-04T09:49:28Z</time>
      </trkpt>
      <trkpt lat="46.43224" lon="0.28202">
        <ele>92.795360824093</ele>
        <time>2021-11-04T09:49:30Z</time>
      </trkpt>
      <trkpt lat="46.43223" lon="0.28199">
        <ele>92.428990004584</ele>
        <time>2021-11-04T09:49:32Z</time>
      </trkpt>
      <trkpt lat="46.43222" lon="0.28197">
        <ele>92.67013640888</ele>
        <time>2021-11-04T09:49:35Z</time>
      </trkpt>
      <trkpt lat="46.43221" lon="0.28194">
        <ele>92.696842913516</ele>
        <time>2021-11-04T09:49:37Z</time>
      </trkpt>
      <trkpt lat="46.4322" lon="0.2819">
        <ele>92.687333532609</ele>
        <time>2021-11-04T09:49:39Z</time>
      </trkpt>
      <trkpt lat="46.43218" lon="0.28188">
        <ele>92.695145531558</ele>
        <time>2021-11-04T09:49:41Z</time>
      </trkpt>
      <trkpt lat="46.43217" lon="0.28184">
        <ele>93.089271448553</ele>
        <time>2021-11-04T09:49:43Z</time>
      </trkpt>
      <trkpt lat="46.43215" lon="0.28181">
        <ele>93.381800343283</ele>
        <time>2021-11-04T09:49:45Z</time>
      </trkpt>
      <trkpt lat="46.43214" lon="0.28178">
        <ele>93.049905557185</ele>
        <time>2021-11-04T09:49:47Z</time>
      </trkpt>
      <trkpt lat="46.43213" lon="0.28175">
        <ele>93.230275438167</ele>
        <time>2021-11-04T09:49:49Z</time>
      </trkpt>
      <trkpt lat="46.43212" lon="0.28173">
        <ele>93.190577189438</ele>
        <time>2021-11-04T09:49:50Z</time>
      </trkpt>
      <trkpt lat="46.4321" lon="0.28171">
        <ele>93.315836554393</ele>
        <time>2021-11-04T09:49:53Z</time>
      </trkpt>
      <trkpt lat="46.43209" lon="0.28167">
        <ele>93.629591605626</ele>
        <time>2021-11-04T09:49:55Z</time>
      </trkpt>
      <trkpt lat="46.43207" lon="0.28165">
        <ele>93.459307166748</ele>
        <time>2021-11-04T09:49:57Z</time>
      </trkpt>
      <trkpt lat="46.43206" lon="0.28161">
        <ele>93.443769600242</ele>
        <time>2021-11-04T09:49:59Z</time>
      </trkpt>
      <trkpt lat="46.43205" lon="0.28159">
        <ele>93.101136283018</ele>
        <time>2021-11-04T09:50:00Z</time>
      </trkpt>
      <trkpt lat="46.43205" lon="0.28156">
        <ele>93.40659639705</ele>
        <time>2021-11-04T09:50:03Z</time>
      </trkpt>
      <trkpt lat="46.43203" lon="0.28154">
        <ele>93.318336821161</ele>
        <time>2021-11-04T09:50:06Z</time>
      </trkpt>
      <trkpt lat="46.43202" lon="0.2815">
        <ele>93.799325236119</ele>
        <time>2021-11-04T09:50:09Z</time>
      </trkpt>
      <trkpt lat="46.43201" lon="0.28147">
        <ele>93.81264486257</ele>
        <time>2021-11-04T09:50:11Z</time>
      </trkpt>
      <trkpt lat="46.432" lon="0.28144">
        <ele>93.393432307988</ele>
        <time>2021-11-04T09:50:13Z</time>
      </trkpt>
      <trkpt lat="46.43199" lon="0.28141">
        <ele>94.284623790532</ele>
        <time>2021-11-04T09:50:14Z</time>
      </trkpt>
      <trkpt lat="46.43198" lon="0.28139">
        <ele>93.829215158708</ele>
        <time>2021-11-04T09:50:16Z</time>
      </trkpt>
      <trkpt lat="46.43197" lon="0.28136">
        <ele>93.955749507993</ele>
        <time>2021-11-04T09:50:18Z</time>
      </trkpt>
      <trkpt lat="46.43196" lon="0.28132">
        <ele>93.995000317693</ele>
        <time>2021-11-04T09:50:20Z</time>
      </trkpt>
      <trkpt lat="46.43195" lon="0.2813">
        <ele>93.686080503277</ele>
        <time>2021-11-04T09:50:22Z</time>
      </trkpt>
      <trkpt lat="46.43195" lon="0.28127">
        <ele>93.39295326639</ele>
        <time>2021-11-04T09:50:24Z</time>
      </trkpt>
      <trkpt lat="46.43194" lon="0.28125">
        <ele>93.34084067028</ele>
        <time>2021-11-04T09:50:25Z</time>
      </trkpt>
      <trkpt lat="46.43193" lon="0.28122">
        <ele>93.214781560935</ele>
        <time>2021-11-04T09:50:27Z</time>
      </trkpt>
      <trkpt lat="46.43192" lon="0.2812">
        <ele>92.988719320856</ele>
        <time>2021-11-04T09:50:29Z</time>
      </trkpt>
      <trkpt lat="46.43191" lon="0.28115">
        <ele>93.414916255511</ele>
        <time>2021-11-04T09:50:31Z</time>
      </trkpt>
      <trkpt lat="46.4319" lon="0.28113">
        <ele>92.729130299762</ele>
        <time>2021-11-04T09:50:33Z</time>
      </trkpt>
      <trkpt lat="46.43189" lon="0.2811">
        <ele>92.705758460797</ele>
        <time>2021-11-04T09:50:35Z</time>
      </trkpt>
      <trkpt lat="46.43187" lon="0.28106">
        <ele>92.602756999433</ele>
        <time>2021-11-04T09:50:37Z</time>
      </trkpt>
      <trkpt lat="46.43186" lon="0.28102">
        <ele>92.550227317959</ele>
        <time>2021-11-04T09:50:39Z</time>
      </trkpt>
      <trkpt lat="46.43186" lon="0.281">
        <ele>92.898509007879</ele>
        <time>2021-11-04T09:50:41Z</time>
      </trkpt>
      <trkpt lat="46.43184" lon="0.28096">
        <ele>92.926461677998</ele>
        <time>2021-11-04T09:50:43Z</time>
      </trkpt>
      <trkpt lat="46.43183" lon="0.28093">
        <ele>92.765694432892</ele>
        <time>2021-11-04T09:50:45Z</time>
      </trkpt>
      <trkpt lat="46.43182" lon="0.28091">
        <ele>92.714344536886</ele>
        <time>2021-11-04T09:50:47Z</time>
      </trkpt>
      <trkpt lat="46.43182" lon="0.28088">
        <ele>92.552865515463</ele>
        <time>2021-11-04T09:50:49Z</time>
      </trkpt>
      <trkpt lat="46.43181" lon="0.28085">
        <ele>92.325395649299</ele>
        <time>2021-11-04T09:50:51Z</time>
      </trkpt>
      <trkpt lat="46.4318" lon="0.28082">
        <ele>92.385889117606</ele>
        <time>2021-11-04T09:50:53Z</time>
      </trkpt>
      <trkpt lat="46.43179" lon="0.28079">
        <ele>92.623127989471</ele>
        <time>2021-11-04T09:50:55Z</time>
      </trkpt>
      <trkpt lat="46.43178" lon="0.28077">
        <ele>92.27122677397</ele>
        <time>2021-11-04T09:50:57Z</time>
      </trkpt>
      <trkpt lat="46.43177" lon="0.28072">
        <ele>92.423245506361</ele>
        <time>2021-11-04T09:51:00Z</time>
      </trkpt>
      <trkpt lat="46.43176" lon="0.2807">
        <ele>91.895751902834</ele>
        <time>2021-11-04T09:51:02Z</time>
      </trkpt>
      <trkpt lat="46.43175" lon="0.28067">
        <ele>92.177606175654</ele>
        <time>2021-11-04T09:51:04Z</time>
      </trkpt>
      <trkpt lat="46.43174" lon="0.28064">
        <ele>91.678241609596</ele>
        <time>2021-11-04T09:51:06Z</time>
      </trkpt>
      <trkpt lat="46.43172" lon="0.28062">
        <ele>91.356260281056</ele>
        <time>2021-11-04T09:51:08Z</time>
      </trkpt>
      <trkpt lat="46.43171" lon="0.28058">
        <ele>91.558656285517</ele>
        <time>2021-11-04T09:51:10Z</time>
      </trkpt>
      <trkpt lat="46.4317" lon="0.28055">
        <ele>91.41420320794</ele>
        <time>2021-11-04T09:51:12Z</time>
      </trkpt>
      <trkpt lat="46.43169" lon="0.28052">
        <ele>91.18060708046</ele>
        <time>2021-11-04T09:51:14Z</time>
      </trkpt>
      <trkpt lat="46.43167" lon="0.28048">
        <ele>91.468584573828</ele>
        <time>2021-11-04T09:51:16Z</time>
      </trkpt>
      <trkpt lat="46.43166" lon="0.28045">
        <ele>91.457190391608</ele>
        <time>2021-11-04T09:51:18Z</time>
      </trkpt>
      <trkpt lat="46.43165" lon="0.28042">
        <ele>91.283614183776</ele>
        <time>2021-11-04T09:51:20Z</time>
      </trkpt>
      <trkpt lat="46.43164" lon="0.28039">
        <ele>91.135798713192</ele>
        <time>2021-11-04T09:51:22Z</time>
      </trkpt>
      <trkpt lat="46.43163" lon="0.28035">
        <ele>91.201532948762</ele>
        <time>2021-11-04T09:51:24Z</time>
      </trkpt>
      <trkpt lat="46.43161" lon="0.28032">
        <ele>91.95530211553</ele>
        <time>2021-11-04T09:51:26Z</time>
      </trkpt>
      <trkpt lat="46.4316" lon="0.28029">
        <ele>92.125834950246</ele>
        <time>2021-11-04T09:51:28Z</time>
      </trkpt>
      <trkpt lat="46.43159" lon="0.28026">
        <ele>91.706792300567</ele>
        <time>2021-11-04T09:51:30Z</time>
      </trkpt>
      <trkpt lat="46.43158" lon="0.28024">
        <ele>92.004249799065</ele>
        <time>2021-11-04T09:51:32Z</time>
      </trkpt>
      <trkpt lat="46.43156" lon="0.28021">
        <ele>92.134351118468</ele>
        <time>2021-11-04T09:51:34Z</time>
      </trkpt>
      <trkpt lat="46.43155" lon="0.28017">
        <ele>92.205434196629</ele>
        <time>2021-11-04T09:51:36Z</time>
      </trkpt>
      <trkpt lat="46.43155" lon="0.28014">
        <ele>92.335426907055</ele>
        <time>2021-11-04T09:51:38Z</time>
      </trkpt>
      <trkpt lat="46.43153" lon="0.28012">
        <ele>92.444371694699</ele>
        <time>2021-11-04T09:51:40Z</time>
      </trkpt>
      <trkpt lat="46.43152" lon="0.28009">
        <ele>92.46952523943</ele>
        <time>2021-11-04T09:51:42Z</time>
      </trkpt>
      <trkpt lat="46.43151" lon="0.28006">
        <ele>92.485658858903</ele>
        <time>2021-11-04T09:51:44Z</time>
      </trkpt>
      <trkpt lat="46.4315" lon="0.28004">
        <ele>92.559115295298</ele>
        <time>2021-11-04T09:51:46Z</time>
      </trkpt>
      <trkpt lat="46.43148" lon="0.28001">
        <ele>91.77573245205</ele>
        <time>2021-11-04T09:51:48Z</time>
      </trkpt>
      <trkpt lat="46.43148" lon="0.27998">
        <ele>91.99195299577</ele>
        <time>2021-11-04T09:51:50Z</time>
      </trkpt>
      <trkpt lat="46.43147" lon="0.27996">
        <ele>92.398917876184</ele>
        <time>2021-11-04T09:51:52Z</time>
      </trkpt>
      <trkpt lat="46.43146" lon="0.27993">
        <ele>92.036316734739</ele>
        <time>2021-11-04T09:51:54Z</time>
      </trkpt>
      <trkpt lat="46.43145" lon="0.2799">
        <ele>91.910993115045</ele>
        <time>2021-11-04T09:51:56Z</time>
      </trkpt>
      <trkpt lat="46.43144" lon="0.27987">
        <ele>92.123153193854</ele>
        <time>2021-11-04T09:51:58Z</time>
      </trkpt>
      <trkpt lat="46.43143" lon="0.27984">
        <ele>92.377395437099</ele>
        <time>2021-11-04T09:52:00Z</time>
      </trkpt>
      <trkpt lat="46.43142" lon="0.27981">
        <ele>91.944106389768</ele>
        <time>2021-11-04T09:52:03Z</time>
      </trkpt>
      <trkpt lat="46.43141" lon="0.27978">
        <ele>91.703941410407</ele>
        <time>2021-11-04T09:52:05Z</time>
      </trkpt>
      <trkpt lat="46.43139" lon="0.27975">
        <ele>91.87233607471</ele>
        <time>2021-11-04T09:52:07Z</time>
      </trkpt>
      <trkpt lat="46.43138" lon="0.27972">
        <ele>91.773437666707</ele>
        <time>2021-11-04T09:52:09Z</time>
      </trkpt>
      <trkpt lat="46.43137" lon="0.27969">
        <ele>91.813642921858</ele>
        <time>2021-11-04T09:52:12Z</time>
      </trkpt>
      <trkpt lat="46.43135" lon="0.27966">
        <ele>91.791393383406</ele>
        <time>2021-11-04T09:52:14Z</time>
      </trkpt>
      <trkpt lat="46.43134" lon="0.27963">
        <ele>91.568016598932</ele>
        <time>2021-11-04T09:52:17Z</time>
      </trkpt>
      <trkpt lat="46.43133" lon="0.2796">
        <ele>91.899265328422</ele>
        <time>2021-11-04T09:52:19Z</time>
      </trkpt>
      <trkpt lat="46.43131" lon="0.27957">
        <ele>92.003489099443</ele>
        <time>2021-11-04T09:52:21Z</time>
      </trkpt>
      <trkpt lat="46.43129" lon="0.27954">
        <ele>91.870963858441</ele>
        <time>2021-11-04T09:52:23Z</time>
      </trkpt>
      <trkpt lat="46.43128" lon="0.27951">
        <ele>92.10896529071</ele>
        <time>2021-11-04T09:52:25Z</time>
      </trkpt>
      <trkpt lat="46.43127" lon="0.27949">
        <ele>92.111156308092</ele>
        <time>2021-11-04T09:52:27Z</time>
      </trkpt>
      <trkpt lat="46.43125" lon="0.27946">
        <ele>92.302202261984</ele>
        <time>2021-11-04T09:52:29Z</time>
      </trkpt>
      <trkpt lat="46.43124" lon="0.27943">
        <ele>92.357027147897</ele>
        <time>2021-11-04T09:52:31Z</time>
      </trkpt>
      <trkpt lat="46.43123" lon="0.2794">
        <ele>92.497283421457</ele>
        <time>2021-11-04T09:52:34Z</time>
      </trkpt>
      <trkpt lat="46.43122" lon="0.27937">
        <ele>92.385994804092</ele>
        <time>2021-11-04T09:52:36Z</time>
      </trkpt>
      <trkpt lat="46.43121" lon="0.27934">
        <ele>92.797652031295</ele>
        <time>2021-11-04T09:52:38Z</time>
      </trkpt>
      <trkpt lat="46.4312" lon="0.2793">
        <ele>92.736649997532</ele>
        <time>2021-11-04T09:52:41Z</time>
      </trkpt>
      <trkpt lat="46.43118" lon="0.27928">
        <ele>92.289719168097</ele>
        <time>2021-11-04T09:52:43Z</time>
      </trkpt>
      <trkpt lat="46.43117" lon="0.27924">
        <ele>92.660589143634</ele>
        <time>2021-11-04T09:52:46Z</time>
      </trkpt>
      <trkpt lat="46.43115" lon="0.27921">
        <ele>92.64424346853</ele>
        <time>2021-11-04T09:52:48Z</time>
      </trkpt>
      <trkpt lat="46.43114" lon="0.27919">
        <ele>92.839004866779</ele>
        <time>2021-11-04T09:52:50Z</time>
      </trkpt>
      <trkpt lat="46.43113" lon="0.27915">
        <ele>92.461793035269</ele>
        <time>2021-11-04T09:52:53Z</time>
      </trkpt>
      <trkpt lat="46.43111" lon="0.27912">
        <ele>92.026981505565</ele>
        <time>2021-11-04T09:52:55Z</time>
      </trkpt>
      <trkpt lat="46.4311" lon="0.2791">
        <ele>92.070548280142</ele>
        <time>2021-11-04T09:52:57Z</time>
      </trkpt>
      <trkpt lat="46.43108" lon="0.27908">
        <ele>92.025169779547</ele>
        <time>2021-11-04T09:52:59Z</time>
      </trkpt>
      <trkpt lat="46.43107" lon="0.27905">
        <ele>92.11131540779</ele>
        <time>2021-11-04T09:53:01Z</time>
      </trkpt>
      <trkpt lat="46.43106" lon="0.27902">
        <ele>92.634540809318</ele>
        <time>2021-11-04T09:53:03Z</time>
      </trkpt>
      <trkpt lat="46.43106" lon="0.27899">
        <ele>92.348056275398</ele>
        <time>2021-11-04T09:53:05Z</time>
      </trkpt>
      <trkpt lat="46.43105" lon="0.27897">
        <ele>92.550451145507</ele>
        <time>2021-11-04T09:53:07Z</time>
      </trkpt>
      <trkpt lat="46.43104" lon="0.27894">
        <ele>92.167628214695</ele>
        <time>2021-11-04T09:53:09Z</time>
      </trkpt>
      <trkpt lat="46.43103" lon="0.27891">
        <ele>92.089126266539</ele>
        <time>2021-11-04T09:53:11Z</time>
      </trkpt>
      <trkpt lat="46.43101" lon="0.27888">
        <ele>92.168802135624</ele>
        <time>2021-11-04T09:53:13Z</time>
      </trkpt>
      <trkpt lat="46.43101" lon="0.27885">
        <ele>92.02816728875</ele>
        <time>2021-11-04T09:53:15Z</time>
      </trkpt>
      <trkpt lat="46.431" lon="0.27881">
        <ele>92.066252040677</ele>
        <time>2021-11-04T09:53:17Z</time>
      </trkpt>
      <trkpt lat="46.43098" lon="0.27878">
        <ele>91.934650805779</ele>
        <time>2021-11-04T09:53:19Z</time>
      </trkpt>
      <trkpt lat="46.43097" lon="0.27875">
        <ele>91.938396115787</ele>
        <time>2021-11-04T09:53:21Z</time>
      </trkpt>
      <trkpt lat="46.43096" lon="0.27871">
        <ele>91.954725140706</ele>
        <time>2021-11-04T09:53:23Z</time>
      </trkpt>
      <trkpt lat="46.43094" lon="0.27868">
        <ele>91.683912060224</ele>
        <time>2021-11-04T09:53:25Z</time>
      </trkpt>
      <trkpt lat="46.43093" lon="0.27866">
        <ele>92.240867651068</ele>
        <time>2021-11-04T09:53:27Z</time>
      </trkpt>
      <trkpt lat="46.43091" lon="0.27863">
        <ele>91.551677126437</ele>
        <time>2021-11-04T09:53:29Z</time>
      </trkpt>
      <trkpt lat="46.4309" lon="0.27861">
        <ele>91.486046910286</ele>
        <time>2021-11-04T09:53:31Z</time>
      </trkpt>
      <trkpt lat="46.43089" lon="0.27858">
        <ele>91.737391720526</ele>
        <time>2021-11-04T09:53:33Z</time>
      </trkpt>
      <trkpt lat="46.43087" lon="0.27855">
        <ele>91.526396255009</ele>
        <time>2021-11-04T09:53:35Z</time>
      </trkpt>
      <trkpt lat="46.43086" lon="0.27853">
        <ele>91.642526890151</ele>
        <time>2021-11-04T09:53:37Z</time>
      </trkpt>
      <trkpt lat="46.43085" lon="0.27849">
        <ele>90.99176756572</ele>
        <time>2021-11-04T09:53:39Z</time>
      </trkpt>
      <trkpt lat="46.43084" lon="0.27846">
        <ele>91.446397641674</ele>
        <time>2021-11-04T09:53:41Z</time>
      </trkpt>
      <trkpt lat="46.43082" lon="0.27843">
        <ele>90.82344144024</ele>
        <time>2021-11-04T09:53:43Z</time>
      </trkpt>
      <trkpt lat="46.43081" lon="0.27839">
        <ele>90.553333201446</ele>
        <time>2021-11-04T09:53:45Z</time>
      </trkpt>
      <trkpt lat="46.43079" lon="0.27837">
        <ele>90.903717800975</ele>
        <time>2021-11-04T09:53:47Z</time>
      </trkpt>
      <trkpt lat="46.43077" lon="0.27834">
        <ele>90.673934586346</ele>
        <time>2021-11-04T09:53:49Z</time>
      </trkpt>
      <trkpt lat="46.43075" lon="0.27832">
        <ele>90.14298888389</ele>
        <time>2021-11-04T09:53:51Z</time>
      </trkpt>
      <trkpt lat="46.43073" lon="0.2783">
        <ele>90.433734764345</ele>
        <time>2021-11-04T09:53:53Z</time>
      </trkpt>
      <trkpt lat="46.43071" lon="0.27827">
        <ele>90.095256690867</ele>
        <time>2021-11-04T09:53:55Z</time>
      </trkpt>
      <trkpt lat="46.4307" lon="0.27825">
        <ele>90.411080758087</ele>
        <time>2021-11-04T09:53:57Z</time>
      </trkpt>
      <trkpt lat="46.43068" lon="0.27824">
        <ele>89.777774888091</ele>
        <time>2021-11-04T09:53:59Z</time>
      </trkpt>
      <trkpt lat="46.43066" lon="0.27822">
        <ele>90.482607032172</ele>
        <time>2021-11-04T09:54:01Z</time>
      </trkpt>
      <trkpt lat="46.43064" lon="0.27819">
        <ele>90.730885574594</ele>
        <time>2021-11-04T09:54:03Z</time>
      </trkpt>
      <trkpt lat="46.43062" lon="0.27818">
        <ele>90.236737105064</ele>
        <time>2021-11-04T09:54:05Z</time>
      </trkpt>
      <trkpt lat="46.4306" lon="0.27817">
        <ele>90.672777253203</ele>
        <time>2021-11-04T09:54:07Z</time>
      </trkpt>
      <trkpt lat="46.43058" lon="0.27815">
        <ele>90.71837121807</ele>
        <time>2021-11-04T09:54:09Z</time>
      </trkpt>
      <trkpt lat="46.43056" lon="0.27814">
        <ele>90.820104984567</ele>
        <time>2021-11-04T09:54:11Z</time>
      </trkpt>
      <trkpt lat="46.43054" lon="0.27812">
        <ele>90.317563906312</ele>
        <time>2021-11-04T09:54:13Z</time>
      </trkpt>
      <trkpt lat="46.43052" lon="0.27811">
        <ele>90.849750677124</ele>
        <time>2021-11-04T09:54:15Z</time>
      </trkpt>
      <trkpt lat="46.4305" lon="0.27809">
        <ele>90.276662738994</ele>
        <time>2021-11-04T09:54:17Z</time>
      </trkpt>
      <trkpt lat="46.43048" lon="0.27808">
        <ele>90.040278234519</ele>
        <time>2021-11-04T09:54:19Z</time>
      </trkpt>
      <trkpt lat="46.43046" lon="0.27807">
        <ele>90.130760256201</ele>
        <time>2021-11-04T09:54:21Z</time>
      </trkpt>
      <trkpt lat="46.43044" lon="0.27806">
        <ele>90.218035389669</ele>
        <time>2021-11-04T09:54:23Z</time>
      </trkpt>
      <trkpt lat="46.43042" lon="0.27805">
        <ele>89.928899229504</ele>
        <time>2021-11-04T09:54:25Z</time>
      </trkpt>
      <trkpt lat="46.4304" lon="0.27804">
        <ele>89.832922197878</ele>
        <time>2021-11-04T09:54:27Z</time>
      </trkpt>
      <trkpt lat="46.43037" lon="0.27802">
        <ele>90.584317366593</ele>
        <time>2021-11-04T09:54:30Z</time>
      </trkpt>
      <trkpt lat="46.43035" lon="0.27802">
        <ele>89.97166647017</ele>
        <time>2021-11-04T09:54:32Z</time>
      </trkpt>
      <trkpt lat="46.43032" lon="0.27801">
        <ele>89.952841432765</ele>
        <time>2021-11-04T09:54:34Z</time>
      </trkpt>
      <trkpt lat="46.4303" lon="0.27799">
        <ele>89.90016066283</ele>
        <time>2021-11-04T09:54:37Z</time>
      </trkpt>
      <trkpt lat="46.43028" lon="0.27798">
        <ele>89.76254975237</ele>
        <time>2021-11-04T09:54:39Z</time>
      </trkpt>
      <trkpt lat="46.43026" lon="0.27798">
        <ele>89.371446256526</ele>
        <time>2021-11-04T09:54:41Z</time>
      </trkpt>
      <trkpt lat="46.43024" lon="0.27795">
        <ele>89.643993759528</ele>
        <time>2021-11-04T09:54:43Z</time>
      </trkpt>
      <trkpt lat="46.43022" lon="0.27794">
        <ele>89.505443894304</ele>
        <time>2021-11-04T09:54:45Z</time>
      </trkpt>
      <trkpt lat="46.43019" lon="0.27791">
        <ele>89.306561122648</ele>
        <time>2021-11-04T09:54:47Z</time>
      </trkpt>
      <trkpt lat="46.43018" lon="0.27789">
        <ele>89.692916650325</ele>
        <time>2021-11-04T09:54:48Z</time>
      </trkpt>
      <trkpt lat="46.43017" lon="0.27787">
        <ele>89.406425344758</ele>
        <time>2021-11-04T09:54:50Z</time>
      </trkpt>
      <trkpt lat="46.43015" lon="0.27784">
        <ele>89.48034919519</ele>
        <time>2021-11-04T09:54:52Z</time>
      </trkpt>
      <trkpt lat="46.43014" lon="0.27782">
        <ele>88.842516045086</ele>
        <time>2021-11-04T09:54:54Z</time>
      </trkpt>
      <trkpt lat="46.43013" lon="0.27779">
        <ele>88.661169693805</ele>
        <time>2021-11-04T09:54:56Z</time>
      </trkpt>
      <trkpt lat="46.43011" lon="0.27777">
        <ele>88.383419742808</ele>
        <time>2021-11-04T09:54:58Z</time>
      </trkpt>
      <trkpt lat="46.4301" lon="0.27774">
        <ele>87.898366542533</ele>
        <time>2021-11-04T09:55:01Z</time>
      </trkpt>
      <trkpt lat="46.4301" lon="0.27771">
        <ele>87.736042739823</ele>
        <time>2021-11-04T09:55:03Z</time>
      </trkpt>
      <trkpt lat="46.43009" lon="0.27768">
        <ele>87.981243627146</ele>
        <time>2021-11-04T09:55:05Z</time>
      </trkpt>
      <trkpt lat="46.43007" lon="0.27765">
        <ele>87.770581397228</ele>
        <time>2021-11-04T09:55:08Z</time>
      </trkpt>
      <trkpt lat="46.43006" lon="0.27763">
        <ele>88.08535086643</ele>
        <time>2021-11-04T09:55:10Z</time>
      </trkpt>
      <trkpt lat="46.43005" lon="0.2776">
        <ele>87.360335418954</ele>
        <time>2021-11-04T09:55:13Z</time>
      </trkpt>
      <trkpt lat="46.43004" lon="0.27756">
        <ele>87.635931614786</ele>
        <time>2021-11-04T09:55:15Z</time>
      </trkpt>
      <trkpt lat="46.43004" lon="0.27753">
        <ele>87.738326744176</ele>
        <time>2021-11-04T09:55:17Z</time>
      </trkpt>
      <trkpt lat="46.43003" lon="0.27749">
        <ele>87.594985079952</ele>
        <time>2021-11-04T09:55:19Z</time>
      </trkpt>
      <trkpt lat="46.43002" lon="0.27746">
        <ele>87.466537369415</ele>
        <time>2021-11-04T09:55:21Z</time>
      </trkpt>
      <trkpt lat="46.43001" lon="0.27743">
        <ele>87.733173893765</ele>
        <time>2021-11-04T09:55:23Z</time>
      </trkpt>
      <trkpt lat="46.43" lon="0.2774">
        <ele>87.702545914799</ele>
        <time>2021-11-04T09:55:25Z</time>
      </trkpt>
      <trkpt lat="46.42999" lon="0.27738">
        <ele>87.999864808284</ele>
        <time>2021-11-04T09:55:27Z</time>
      </trkpt>
      <trkpt lat="46.42999" lon="0.27734">
        <ele>88.333185467869</ele>
        <time>2021-11-04T09:55:30Z</time>
      </trkpt>
      <trkpt lat="46.42998" lon="0.27731">
        <ele>88.142675572075</ele>
        <time>2021-11-04T09:55:33Z</time>
      </trkpt>
      <trkpt lat="46.42997" lon="0.27728">
        <ele>88.343068747781</ele>
        <time>2021-11-04T09:55:35Z</time>
      </trkpt>
      <trkpt lat="46.42996" lon="0.27725">
        <ele>88.472297518514</ele>
        <time>2021-11-04T09:55:37Z</time>
      </trkpt>
      <trkpt lat="46.42995" lon="0.27722">
        <ele>88.991471809335</ele>
        <time>2021-11-04T09:55:39Z</time>
      </trkpt>
      <trkpt lat="46.42994" lon="0.27719">
        <ele>88.812575043179</ele>
        <time>2021-11-04T09:55:41Z</time>
      </trkpt>
      <trkpt lat="46.42993" lon="0.27716">
        <ele>89.41943890322</ele>
        <time>2021-11-04T09:55:45Z</time>
      </trkpt>
      <trkpt lat="46.42993" lon="0.27714">
        <ele>89.687625057064</ele>
        <time>2021-11-04T09:55:47Z</time>
      </trkpt>
      <trkpt lat="46.42991" lon="0.27711">
        <ele>89.926069809124</ele>
        <time>2021-11-04T09:55:49Z</time>
      </trkpt>
      <trkpt lat="46.4299" lon="0.27708">
        <ele>90.283796777017</ele>
        <time>2021-11-04T09:55:52Z</time>
      </trkpt>
      <trkpt lat="46.4299" lon="0.27705">
        <ele>90.06427460257</ele>
        <time>2021-11-04T09:55:54Z</time>
      </trkpt>
      <trkpt lat="46.42989" lon="0.27702">
        <ele>90.199198278598</ele>
        <time>2021-11-04T09:55:57Z</time>
      </trkpt>
      <trkpt lat="46.42988" lon="0.277">
        <ele>90.50437858887</ele>
        <time>2021-11-04T09:55:59Z</time>
      </trkpt>
      <trkpt lat="46.42987" lon="0.27696">
        <ele>90.95101578068</ele>
        <time>2021-11-04T09:56:02Z</time>
      </trkpt>
      <trkpt lat="46.42987" lon="0.27693">
        <ele>90.937692961656</ele>
        <time>2021-11-04T09:56:04Z</time>
      </trkpt>
      <trkpt lat="46.42986" lon="0.27691">
        <ele>91.18154585734</ele>
        <time>2021-11-04T09:56:05Z</time>
      </trkpt>
      <trkpt lat="46.42984" lon="0.27687">
        <ele>90.634821845219</ele>
        <time>2021-11-04T09:56:07Z</time>
      </trkpt>
      <trkpt lat="46.42983" lon="0.27684">
        <ele>90.721904598176</ele>
        <time>2021-11-04T09:56:09Z</time>
      </trkpt>
      <trkpt lat="46.42983" lon="0.2768">
        <ele>91.409592795186</ele>
        <time>2021-11-04T09:56:11Z</time>
      </trkpt>
      <trkpt lat="46.42983" lon="0.27677">
        <ele>91.08717437461</ele>
        <time>2021-11-04T09:56:13Z</time>
      </trkpt>
      <trkpt lat="46.42982" lon="0.27674">
        <ele>90.994806961156</ele>
        <time>2021-11-04T09:56:15Z</time>
      </trkpt>
      <trkpt lat="46.42982" lon="0.27671">
        <ele>90.649846837856</ele>
        <time>2021-11-04T09:56:17Z</time>
      </trkpt>
      <trkpt lat="46.42981" lon="0.27668">
        <ele>90.828133800067</ele>
        <time>2021-11-04T09:56:19Z</time>
      </trkpt>
      <trkpt lat="46.4298" lon="0.27665">
        <ele>90.615558641031</ele>
        <time>2021-11-04T09:56:21Z</time>
      </trkpt>
      <trkpt lat="46.4298" lon="0.27662">
        <ele>90.833295765333</ele>
        <time>2021-11-04T09:56:23Z</time>
      </trkpt>
      <trkpt lat="46.42978" lon="0.27659">
        <ele>90.731555493549</ele>
        <time>2021-11-04T09:56:27Z</time>
      </trkpt>
      <trkpt lat="46.42977" lon="0.27655">
        <ele>91.090929579921</ele>
        <time>2021-11-04T09:56:30Z</time>
      </trkpt>
      <trkpt lat="46.42976" lon="0.27652">
        <ele>90.519940592349</ele>
        <time>2021-11-04T09:56:32Z</time>
      </trkpt>
      <trkpt lat="46.42975" lon="0.27649">
        <ele>90.844085661694</ele>
        <time>2021-11-04T09:56:35Z</time>
      </trkpt>
      <trkpt lat="46.42974" lon="0.27646">
        <ele>90.349026525393</ele>
        <time>2021-11-04T09:56:38Z</time>
      </trkpt>
      <trkpt lat="46.42972" lon="0.27642">
        <ele>90.552799163386</ele>
        <time>2021-11-04T09:56:41Z</time>
      </trkpt>
      <trkpt lat="46.42971" lon="0.2764">
        <ele>90.855151727796</ele>
        <time>2021-11-04T09:56:43Z</time>
      </trkpt>
      <trkpt lat="46.4297" lon="0.27635">
        <ele>90.296241164207</ele>
        <time>2021-11-04T09:56:45Z</time>
      </trkpt>
      <trkpt lat="46.42969" lon="0.27632">
        <ele>91.157348566689</ele>
        <time>2021-11-04T09:56:47Z</time>
      </trkpt>
      <trkpt lat="46.42967" lon="0.27628">
        <ele>90.897313516587</ele>
        <time>2021-11-04T09:56:49Z</time>
      </trkpt>
      <trkpt lat="46.42965" lon="0.27625">
        <ele>90.940046013333</ele>
        <time>2021-11-04T09:56:52Z</time>
      </trkpt>
      <trkpt lat="46.42964" lon="0.27621">
        <ele>91.367224682122</ele>
        <time>2021-11-04T09:56:55Z</time>
      </trkpt>
      <trkpt lat="46.42963" lon="0.27619">
        <ele>90.339302347973</ele>
        <time>2021-11-04T09:56:56Z</time>
      </trkpt>
      <trkpt lat="46.42963" lon="0.27617">
        <ele>90.875284765847</ele>
        <time>2021-11-04T09:56:58Z</time>
      </trkpt>
      <trkpt lat="46.42962" lon="0.27614">
        <ele>91.518544375896</ele>
        <time>2021-11-04T09:57:00Z</time>
      </trkpt>
      <trkpt lat="46.4296" lon="0.27611">
        <ele>90.854999856092</ele>
        <time>2021-11-04T09:57:02Z</time>
      </trkpt>
      <trkpt lat="46.42959" lon="0.27608">
        <ele>91.127188029699</ele>
        <time>2021-11-04T09:57:04Z</time>
      </trkpt>
      <trkpt lat="46.42957" lon="0.27605">
        <ele>91.007596688345</ele>
        <time>2021-11-04T09:57:06Z</time>
      </trkpt>
      <trkpt lat="46.42955" lon="0.27602">
        <ele>90.552668759599</ele>
        <time>2021-11-04T09:57:08Z</time>
      </trkpt>
      <trkpt lat="46.42954" lon="0.27599">
        <ele>90.940336649306</ele>
        <time>2021-11-04T09:57:10Z</time>
      </trkpt>
      <trkpt lat="46.42953" lon="0.27597">
        <ele>90.918910676613</ele>
        <time>2021-11-04T09:57:12Z</time>
      </trkpt>
      <trkpt lat="46.42952" lon="0.27594">
        <ele>90.991344337352</ele>
        <time>2021-11-04T09:57:14Z</time>
      </trkpt>
      <trkpt lat="46.42951" lon="0.27592">
        <ele>90.745065309107</ele>
        <time>2021-11-04T09:57:16Z</time>
      </trkpt>
      <trkpt lat="46.42949" lon="0.27589">
        <ele>91.010397389531</ele>
        <time>2021-11-04T09:57:19Z</time>
      </trkpt>
      <trkpt lat="46.42947" lon="0.27588">
        <ele>90.505413796753</ele>
        <time>2021-11-04T09:57:21Z</time>
      </trkpt>
      <trkpt lat="46.42946" lon="0.27585">
        <ele>90.933018728159</ele>
        <time>2021-11-04T09:57:23Z</time>
      </trkpt>
      <trkpt lat="46.42945" lon="0.27582">
        <ele>90.300322831608</ele>
        <time>2021-11-04T09:57:25Z</time>
      </trkpt>
      <trkpt lat="46.42943" lon="0.2758">
        <ele>90.445965230465</ele>
        <time>2021-11-04T09:57:27Z</time>
      </trkpt>
      <trkpt lat="46.42942" lon="0.27577">
        <ele>90.440949758515</ele>
        <time>2021-11-04T09:57:29Z</time>
      </trkpt>
      <trkpt lat="46.4294" lon="0.27574">
        <ele>90.210477612913</ele>
        <time>2021-11-04T09:57:31Z</time>
      </trkpt>
      <trkpt lat="46.42938" lon="0.27571">
        <ele>89.95928455051</ele>
        <time>2021-11-04T09:57:33Z</time>
      </trkpt>
      <trkpt lat="46.42937" lon="0.2757">
        <ele>90.151033801027</ele>
        <time>2021-11-04T09:57:35Z</time>
      </trkpt>
      <trkpt lat="46.42936" lon="0.27566">
        <ele>90.509054512717</ele>
        <time>2021-11-04T09:57:37Z</time>
      </trkpt>
      <trkpt lat="46.42935" lon="0.27563">
        <ele>90.375860220753</ele>
        <time>2021-11-04T09:57:39Z</time>
      </trkpt>
      <trkpt lat="46.42933" lon="0.27561">
        <ele>90.377523996867</ele>
        <time>2021-11-04T09:57:41Z</time>
      </trkpt>
      <trkpt lat="46.42932" lon="0.27559">
        <ele>90.462439143099</ele>
        <time>2021-11-04T09:57:43Z</time>
      </trkpt>
      <trkpt lat="46.4293" lon="0.27555">
        <ele>89.998886642046</ele>
        <time>2021-11-04T09:57:45Z</time>
      </trkpt>
      <trkpt lat="46.42928" lon="0.27553">
        <ele>90.357565566897</ele>
        <time>2021-11-04T09:57:47Z</time>
      </trkpt>
      <trkpt lat="46.42927" lon="0.27551">
        <ele>89.777548337355</ele>
        <time>2021-11-04T09:57:49Z</time>
      </trkpt>
      <trkpt lat="46.42925" lon="0.27549">
        <ele>89.97442196589</ele>
        <time>2021-11-04T09:57:51Z</time>
      </trkpt>
      <trkpt lat="46.42923" lon="0.27544">
        <ele>89.525502467528</ele>
        <time>2021-11-04T09:57:53Z</time>
      </trkpt>
      <trkpt lat="46.42922" lon="0.27542">
        <ele>89.570682819001</ele>
        <time>2021-11-04T09:57:55Z</time>
      </trkpt>
      <trkpt lat="46.4292" lon="0.27539">
        <ele>89.617908001877</ele>
        <time>2021-11-04T09:57:57Z</time>
      </trkpt>
      <trkpt lat="46.42917" lon="0.27536">
        <ele>89.30526434537</ele>
        <time>2021-11-04T09:57:59Z</time>
      </trkpt>
      <trkpt lat="46.42916" lon="0.27534">
        <ele>88.833350636996</ele>
        <time>2021-11-04T09:58:02Z</time>
      </trkpt>
      <trkpt lat="46.42914" lon="0.27531">
        <ele>89.440899096429</ele>
        <time>2021-11-04T09:58:04Z</time>
      </trkpt>
      <trkpt lat="46.42912" lon="0.2753">
        <ele>88.676682462916</ele>
        <time>2021-11-04T09:58:06Z</time>
      </trkpt>
      <trkpt lat="46.4291" lon="0.27527">
        <ele>89.082129293121</ele>
        <time>2021-11-04T09:58:09Z</time>
      </trkpt>
      <trkpt lat="46.42908" lon="0.27523">
        <ele>88.948879403993</ele>
        <time>2021-11-04T09:58:12Z</time>
      </trkpt>
      <trkpt lat="46.42906" lon="0.2752">
        <ele>89.73087251652</ele>
        <time>2021-11-04T09:58:14Z</time>
      </trkpt>
      <trkpt lat="46.42904" lon="0.27519">
        <ele>89.285004410893</ele>
        <time>2021-11-04T09:58:16Z</time>
      </trkpt>
      <trkpt lat="46.42903" lon="0.27517">
        <ele>89.780694686808</ele>
        <time>2021-11-04T09:58:18Z</time>
      </trkpt>
      <trkpt lat="46.42901" lon="0.27515">
        <ele>89.399506587535</ele>
        <time>2021-11-04T09:58:20Z</time>
      </trkpt>
      <trkpt lat="46.42898" lon="0.27512">
        <ele>89.982601727359</ele>
        <time>2021-11-04T09:58:22Z</time>
      </trkpt>
      <trkpt lat="46.42897" lon="0.27509">
        <ele>89.883751726709</ele>
        <time>2021-11-04T09:58:25Z</time>
      </trkpt>
      <trkpt lat="46.42896" lon="0.27507">
        <ele>89.904350053519</ele>
        <time>2021-11-04T09:58:26Z</time>
      </trkpt>
      <trkpt lat="46.42895" lon="0.27504">
        <ele>89.32501150202</ele>
        <time>2021-11-04T09:58:28Z</time>
      </trkpt>
      <trkpt lat="46.42893" lon="0.27502">
        <ele>89.58407543879</ele>
        <time>2021-11-04T09:58:30Z</time>
      </trkpt>
      <trkpt lat="46.42891" lon="0.27499">
        <ele>89.517253014259</ele>
        <time>2021-11-04T09:58:33Z</time>
      </trkpt>
      <trkpt lat="46.4289" lon="0.27497">
        <ele>89.383990141563</ele>
        <time>2021-11-04T09:58:35Z</time>
      </trkpt>
      <trkpt lat="46.42889" lon="0.27495">
        <ele>89.210072022863</ele>
        <time>2021-11-04T09:58:36Z</time>
      </trkpt>
      <trkpt lat="46.42887" lon="0.27493">
        <ele>89.179794399068</ele>
        <time>2021-11-04T09:58:37Z</time>
      </trkpt>
      <trkpt lat="46.42887" lon="0.2749">
        <ele>89.026925388724</ele>
        <time>2021-11-04T09:58:39Z</time>
      </trkpt>
      <trkpt lat="46.42886" lon="0.27488">
        <ele>89.013296218589</ele>
        <time>2021-11-04T09:58:41Z</time>
      </trkpt>
      <trkpt lat="46.42884" lon="0.27486">
        <ele>88.885092751123</ele>
        <time>2021-11-04T09:58:43Z</time>
      </trkpt>
      <trkpt lat="46.42882" lon="0.27483">
        <ele>89.013363988139</ele>
        <time>2021-11-04T09:58:45Z</time>
      </trkpt>
      <trkpt lat="46.4288" lon="0.27481">
        <ele>89.128122841939</ele>
        <time>2021-11-04T09:58:47Z</time>
      </trkpt>
      <trkpt lat="46.42879" lon="0.27479">
        <ele>89.441025288776</ele>
        <time>2021-11-04T09:58:49Z</time>
      </trkpt>
      <trkpt lat="46.42877" lon="0.27477">
        <ele>88.799259757623</ele>
        <time>2021-11-04T09:58:51Z</time>
      </trkpt>
      <trkpt lat="46.42875" lon="0.27474">
        <ele>89.180201087147</ele>
        <time>2021-11-04T09:58:53Z</time>
      </trkpt>
      <trkpt lat="46.42874" lon="0.27472">
        <ele>88.912880446762</ele>
        <time>2021-11-04T09:58:56Z</time>
      </trkpt>
      <trkpt lat="46.42872" lon="0.2747">
        <ele>88.616556614637</ele>
        <time>2021-11-04T09:58:58Z</time>
      </trkpt>
      <trkpt lat="46.42871" lon="0.27467">
        <ele>89.037145324983</ele>
        <time>2021-11-04T09:59:00Z</time>
      </trkpt>
      <trkpt lat="46.4287" lon="0.27464">
        <ele>88.706218105741</ele>
        <time>2021-11-04T09:59:02Z</time>
      </trkpt>
      <trkpt lat="46.42869" lon="0.27461">
        <ele>88.868750882335</ele>
        <time>2021-11-04T09:59:04Z</time>
      </trkpt>
      <trkpt lat="46.42867" lon="0.27458">
        <ele>89.026356774382</ele>
        <time>2021-11-04T09:59:06Z</time>
      </trkpt>
      <trkpt lat="46.42865" lon="0.27455">
        <ele>88.29038398806</ele>
        <time>2021-11-04T09:59:08Z</time>
      </trkpt>
      <trkpt lat="46.42862" lon="0.27452">
        <ele>87.707070644945</ele>
        <time>2021-11-04T09:59:11Z</time>
      </trkpt>
      <trkpt lat="46.42861" lon="0.2745">
        <ele>87.607444236055</ele>
        <time>2021-11-04T09:59:13Z</time>
      </trkpt>
      <trkpt lat="46.4286" lon="0.27447">
        <ele>87.537248158827</ele>
        <time>2021-11-04T09:59:15Z</time>
      </trkpt>
      <trkpt lat="46.42858" lon="0.27446">
        <ele>87.796632853337</ele>
        <time>2021-11-04T09:59:16Z</time>
      </trkpt>
      <trkpt lat="46.42856" lon="0.27445">
        <ele>87.855573300272</ele>
        <time>2021-11-04T09:59:18Z</time>
      </trkpt>
      <trkpt lat="46.42853" lon="0.27442">
        <ele>87.675002565607</ele>
        <time>2021-11-04T09:59:20Z</time>
      </trkpt>
      <trkpt lat="46.42851" lon="0.2744">
        <ele>87.951894489117</ele>
        <time>2021-11-04T09:59:22Z</time>
      </trkpt>
      <trkpt lat="46.42849" lon="0.27438">
        <ele>87.967466391623</ele>
        <time>2021-11-04T09:59:24Z</time>
      </trkpt>
      <trkpt lat="46.42848" lon="0.27435">
        <ele>87.9062042851</ele>
        <time>2021-11-04T09:59:26Z</time>
      </trkpt>
      <trkpt lat="46.42846" lon="0.27433">
        <ele>88.952987035736</ele>
        <time>2021-11-04T09:59:28Z</time>
      </trkpt>
      <trkpt lat="46.42844" lon="0.2743">
        <ele>89.032653908245</ele>
        <time>2021-11-04T09:59:31Z</time>
      </trkpt>
      <trkpt lat="46.42844" lon="0.27428">
        <ele>88.801392273977</ele>
        <time>2021-11-04T09:59:33Z</time>
      </trkpt>
      <trkpt lat="46.42843" lon="0.27425">
        <ele>88.558576662093</ele>
        <time>2021-11-04T09:59:35Z</time>
      </trkpt>
      <trkpt lat="46.42841" lon="0.27423">
        <ele>88.275767211802</ele>
        <time>2021-11-04T09:59:37Z</time>
      </trkpt>
      <trkpt lat="46.4284" lon="0.27421">
        <ele>88.337975959294</ele>
        <time>2021-11-04T09:59:41Z</time>
      </trkpt>
      <trkpt lat="46.42838" lon="0.27419">
        <ele>88.487331907265</ele>
        <time>2021-11-04T09:59:43Z</time>
      </trkpt>
      <trkpt lat="46.42836" lon="0.27416">
        <ele>88.464551337995</ele>
        <time>2021-11-04T09:59:46Z</time>
      </trkpt>
      <trkpt lat="46.42834" lon="0.27413">
        <ele>88.809762690216</ele>
        <time>2021-11-04T09:59:48Z</time>
      </trkpt>
      <trkpt lat="46.42833" lon="0.27412">
        <ele>88.614246671088</ele>
        <time>2021-11-04T09:59:50Z</time>
      </trkpt>
      <trkpt lat="46.42831" lon="0.27411">
        <ele>88.511452888139</ele>
        <time>2021-11-04T09:59:52Z</time>
      </trkpt>
      <trkpt lat="46.4283" lon="0.27408">
        <ele>88.786527724937</ele>
        <time>2021-11-04T09:59:54Z</time>
      </trkpt>
      <trkpt lat="46.42827" lon="0.27406">
        <ele>89.090654533356</ele>
        <time>2021-11-04T09:59:57Z</time>
      </trkpt>
      <trkpt lat="46.42825" lon="0.27402">
        <ele>89.48746905569</ele>
        <time>2021-11-04T09:59:59Z</time>
      </trkpt>
      <trkpt lat="46.42822" lon="0.274">
        <ele>89.448079214431</ele>
        <time>2021-11-04T10:00:01Z</time>
      </trkpt>
      <trkpt lat="46.4282" lon="0.27397">
        <ele>89.724493056536</ele>
        <time>2021-11-04T10:00:03Z</time>
      </trkpt>
      <trkpt lat="46.42818" lon="0.27393">
        <ele>90.209533751942</ele>
        <time>2021-11-04T10:00:05Z</time>
      </trkpt>
      <trkpt lat="46.42816" lon="0.27391">
        <ele>90.412512301467</ele>
        <time>2021-11-04T10:00:08Z</time>
      </trkpt>
      <trkpt lat="46.42815" lon="0.27389">
        <ele>90.159151683562</ele>
        <time>2021-11-04T10:00:10Z</time>
      </trkpt>
      <trkpt lat="46.42815" lon="0.27385">
        <ele>90.519141494296</ele>
        <time>2021-11-04T10:00:12Z</time>
      </trkpt>
      <trkpt lat="46.42814" lon="0.27382">
        <ele>90.397066651843</ele>
        <time>2021-11-04T10:00:16Z</time>
      </trkpt>
      <trkpt lat="46.42812" lon="0.2738">
        <ele>90.271087585948</ele>
        <time>2021-11-04T10:00:18Z</time>
      </trkpt>
      <trkpt lat="46.42811" lon="0.27378">
        <ele>90.358238396235</ele>
        <time>2021-11-04T10:00:19Z</time>
      </trkpt>
      <trkpt lat="46.42809" lon="0.27376">
        <ele>90.264112706296</ele>
        <time>2021-11-04T10:00:21Z</time>
      </trkpt>
      <trkpt lat="46.42806" lon="0.27372">
        <ele>90.221856532618</ele>
        <time>2021-11-04T10:00:23Z</time>
      </trkpt>
      <trkpt lat="46.42805" lon="0.2737">
        <ele>90.295777217485</ele>
        <time>2021-11-04T10:00:25Z</time>
      </trkpt>
      <trkpt lat="46.42803" lon="0.27368">
        <ele>90.061019086279</ele>
        <time>2021-11-04T10:00:27Z</time>
      </trkpt>
      <trkpt lat="46.428" lon="0.27367">
        <ele>90.453698494472</ele>
        <time>2021-11-04T10:00:29Z</time>
      </trkpt>
      <trkpt lat="46.42799" lon="0.27364">
        <ele>90.525685648434</ele>
        <time>2021-11-04T10:00:31Z</time>
      </trkpt>
      <trkpt lat="46.42798" lon="0.27361">
        <ele>90.494250770658</ele>
        <time>2021-11-04T10:00:34Z</time>
      </trkpt>
      <trkpt lat="46.42797" lon="0.27359">
        <ele>90.555752968416</ele>
        <time>2021-11-04T10:00:36Z</time>
      </trkpt>
      <trkpt lat="46.42794" lon="0.27356">
        <ele>90.37022356689</ele>
        <time>2021-11-04T10:00:38Z</time>
      </trkpt>
      <trkpt lat="46.42793" lon="0.27353">
        <ele>90.858300289139</ele>
        <time>2021-11-04T10:00:41Z</time>
      </trkpt>
      <trkpt lat="46.42791" lon="0.2735">
        <ele>90.383031485602</ele>
        <time>2021-11-04T10:00:44Z</time>
      </trkpt>
      <trkpt lat="46.42791" lon="0.27348">
        <ele>90.68568050582</ele>
        <time>2021-11-04T10:00:47Z</time>
      </trkpt>
      <trkpt lat="46.42789" lon="0.27345">
        <ele>90.49657415878</ele>
        <time>2021-11-04T10:00:50Z</time>
      </trkpt>
      <trkpt lat="46.42787" lon="0.27342">
        <ele>90.330099339597</ele>
        <time>2021-11-04T10:00:53Z</time>
      </trkpt>
      <trkpt lat="46.42785" lon="0.2734">
        <ele>90.205356191844</ele>
        <time>2021-11-04T10:00:55Z</time>
      </trkpt>
      <trkpt lat="46.42784" lon="0.27338">
        <ele>90.282173047774</ele>
        <time>2021-11-04T10:00:57Z</time>
      </trkpt>
      <trkpt lat="46.42782" lon="0.27335">
        <ele>89.678851041943</ele>
        <time>2021-11-04T10:00:59Z</time>
      </trkpt>
      <trkpt lat="46.42781" lon="0.27332">
        <ele>89.545096985996</ele>
        <time>2021-11-04T10:01:01Z</time>
      </trkpt>
      <trkpt lat="46.4278" lon="0.27328">
        <ele>89.764797097072</ele>
        <time>2021-11-04T10:01:03Z</time>
      </trkpt>
      <trkpt lat="46.42779" lon="0.27324">
        <ele>88.90267284587</ele>
        <time>2021-11-04T10:01:05Z</time>
      </trkpt>
      <trkpt lat="46.42777" lon="0.27321">
        <ele>89.000225090422</ele>
        <time>2021-11-04T10:01:07Z</time>
      </trkpt>
      <trkpt lat="46.42775" lon="0.27319">
        <ele>89.189907208085</ele>
        <time>2021-11-04T10:01:09Z</time>
      </trkpt>
      <trkpt lat="46.42774" lon="0.27317">
        <ele>88.89430561848</ele>
        <time>2021-11-04T10:01:11Z</time>
      </trkpt>
      <trkpt lat="46.42772" lon="0.27315">
        <ele>88.886936581694</ele>
        <time>2021-11-04T10:01:14Z</time>
      </trkpt>
      <trkpt lat="46.4277" lon="0.27313">
        <ele>89.029468388297</ele>
        <time>2021-11-04T10:01:16Z</time>
      </trkpt>
      <trkpt lat="46.42768" lon="0.2731">
        <ele>89.21311635524</ele>
        <time>2021-11-04T10:01:18Z</time>
      </trkpt>
      <trkpt lat="46.42766" lon="0.27311">
        <ele>88.665686584078</ele>
        <time>2021-11-04T10:01:19Z</time>
      </trkpt>
      <trkpt lat="46.42764" lon="0.27308">
        <ele>89.062059342861</ele>
        <time>2021-11-04T10:01:21Z</time>
      </trkpt>
      <trkpt lat="46.42764" lon="0.27305">
        <ele>89.113546916284</ele>
        <time>2021-11-04T10:01:22Z</time>
      </trkpt>
      <trkpt lat="46.42762" lon="0.27303">
        <ele>89.258874568157</ele>
        <time>2021-11-04T10:01:24Z</time>
      </trkpt>
      <trkpt lat="46.4276" lon="0.27301">
        <ele>89.00847435277</ele>
        <time>2021-11-04T10:01:27Z</time>
      </trkpt>
      <trkpt lat="46.42759" lon="0.27298">
        <ele>89.359336499125</ele>
        <time>2021-11-04T10:01:29Z</time>
      </trkpt>
      <trkpt lat="46.42758" lon="0.27295">
        <ele>88.993384875357</ele>
        <time>2021-11-04T10:01:31Z</time>
      </trkpt>
      <trkpt lat="46.42756" lon="0.27293">
        <ele>89.311343821697</ele>
        <time>2021-11-04T10:01:33Z</time>
      </trkpt>
      <trkpt lat="46.42755" lon="0.2729">
        <ele>88.883932597004</ele>
        <time>2021-11-04T10:01:35Z</time>
      </trkpt>
      <trkpt lat="46.42753" lon="0.27287">
        <ele>89.102512861602</ele>
        <time>2021-11-04T10:01:38Z</time>
      </trkpt>
      <trkpt lat="46.42751" lon="0.27285">
        <ele>88.745660779998</ele>
        <time>2021-11-04T10:01:40Z</time>
      </trkpt>
      <trkpt lat="46.42749" lon="0.27283">
        <ele>88.541799402796</ele>
        <time>2021-11-04T10:01:43Z</time>
      </trkpt>
      <trkpt lat="46.42747" lon="0.2728">
        <ele>88.645743856207</ele>
        <time>2021-11-04T10:01:45Z</time>
      </trkpt>
      <trkpt lat="46.42746" lon="0.27276">
        <ele>88.848386336118</ele>
        <time>2021-11-04T10:01:47Z</time>
      </trkpt>
      <trkpt lat="46.42744" lon="0.27273">
        <ele>88.849918754771</ele>
        <time>2021-11-04T10:01:49Z</time>
      </trkpt>
      <trkpt lat="46.42743" lon="0.2727">
        <ele>88.673833426088</ele>
        <time>2021-11-04T10:01:51Z</time>
      </trkpt>
      <trkpt lat="46.42741" lon="0.27267">
        <ele>89.050665397197</ele>
        <time>2021-11-04T10:01:54Z</time>
      </trkpt>
      <trkpt lat="46.42739" lon="0.27264">
        <ele>88.968989578076</ele>
        <time>2021-11-04T10:01:58Z</time>
      </trkpt>
      <trkpt lat="46.42738" lon="0.27262">
        <ele>88.90623336006</ele>
        <time>2021-11-04T10:01:59Z</time>
      </trkpt>
      <trkpt lat="46.42736" lon="0.2726">
        <ele>89.588033059612</ele>
        <time>2021-11-04T10:02:02Z</time>
      </trkpt>
      <trkpt lat="46.42734" lon="0.27259">
        <ele>89.350775037892</ele>
        <time>2021-11-04T10:02:04Z</time>
      </trkpt>
      <trkpt lat="46.42733" lon="0.27256">
        <ele>89.412247117609</ele>
        <time>2021-11-04T10:02:07Z</time>
      </trkpt>
      <trkpt lat="46.42731" lon="0.27254">
        <ele>89.438372317702</ele>
        <time>2021-11-04T10:02:08Z</time>
      </trkpt>
      <trkpt lat="46.4273" lon="0.27251">
        <ele>89.336659535766</ele>
        <time>2021-11-04T10:02:10Z</time>
      </trkpt>
      <trkpt lat="46.42729" lon="0.27249">
        <ele>89.358443100005</ele>
        <time>2021-11-04T10:02:12Z</time>
      </trkpt>
      <trkpt lat="46.42728" lon="0.27246">
        <ele>89.477287444286</ele>
        <time>2021-11-04T10:02:13Z</time>
      </trkpt>
      <trkpt lat="46.42727" lon="0.27243">
        <ele>89.346440262161</ele>
        <time>2021-11-04T10:02:15Z</time>
      </trkpt>
      <trkpt lat="46.42726" lon="0.2724">
        <ele>89.039837864228</ele>
        <time>2021-11-04T10:02:18Z</time>
      </trkpt>
      <trkpt lat="46.42724" lon="0.27237">
        <ele>89.622634709813</ele>
        <time>2021-11-04T10:02:20Z</time>
      </trkpt>
      <trkpt lat="46.42722" lon="0.27236">
        <ele>89.358962912112</ele>
        <time>2021-11-04T10:02:23Z</time>
      </trkpt>
      <trkpt lat="46.42721" lon="0.27233">
        <ele>89.133469898254</ele>
        <time>2021-11-04T10:02:26Z</time>
      </trkpt>
      <trkpt lat="46.4272" lon="0.2723">
        <ele>89.454739152454</ele>
        <time>2021-11-04T10:02:29Z</time>
      </trkpt>
      <trkpt lat="46.42718" lon="0.27228">
        <ele>89.132390224375</ele>
        <time>2021-11-04T10:02:31Z</time>
      </trkpt>
      <trkpt lat="46.42717" lon="0.27225">
        <ele>89.686641077511</ele>
        <time>2021-11-04T10:02:33Z</time>
      </trkpt>
      <trkpt lat="46.42715" lon="0.27222">
        <ele>89.400156118907</ele>
        <time>2021-11-04T10:02:35Z</time>
      </trkpt>
      <trkpt lat="46.42715" lon="0.2722">
        <ele>89.662665977143</ele>
        <time>2021-11-04T10:02:37Z</time>
      </trkpt>
      <trkpt lat="46.42713" lon="0.27217">
        <ele>89.886784891598</ele>
        <time>2021-11-04T10:02:39Z</time>
      </trkpt>
      <trkpt lat="46.42712" lon="0.27216">
        <ele>89.994448960759</ele>
        <time>2021-11-04T10:02:41Z</time>
      </trkpt>
      <trkpt lat="46.4271" lon="0.27213">
        <ele>89.832433587871</ele>
        <time>2021-11-04T10:02:43Z</time>
      </trkpt>
      <trkpt lat="46.42709" lon="0.2721">
        <ele>89.652837690897</ele>
        <time>2021-11-04T10:02:45Z</time>
      </trkpt>
      <trkpt lat="46.42708" lon="0.27208">
        <ele>90.056853629649</ele>
        <time>2021-11-04T10:02:47Z</time>
      </trkpt>
      <trkpt lat="46.42708" lon="0.27205">
        <ele>90.268211821094</ele>
        <time>2021-11-04T10:02:49Z</time>
      </trkpt>
      <trkpt lat="46.42707" lon="0.27202">
        <ele>90.369094141759</ele>
        <time>2021-11-04T10:02:51Z</time>
      </trkpt>
      <trkpt lat="46.42705" lon="0.27201">
        <ele>90.090487574227</ele>
        <time>2021-11-04T10:02:53Z</time>
      </trkpt>
      <trkpt lat="46.42703" lon="0.27198">
        <ele>90.436426748522</ele>
        <time>2021-11-04T10:02:55Z</time>
      </trkpt>
      <trkpt lat="46.42701" lon="0.27195">
        <ele>90.595634403639</ele>
        <time>2021-11-04T10:02:57Z</time>
      </trkpt>
      <trkpt lat="46.427" lon="0.2719">
        <ele>90.855335624889</ele>
        <time>2021-11-04T10:02:59Z</time>
      </trkpt>
      <trkpt lat="46.427" lon="0.27187">
        <ele>90.894979870878</ele>
        <time>2021-11-04T10:03:01Z</time>
      </trkpt>
      <trkpt lat="46.42699" lon="0.27185">
        <ele>90.811380311847</ele>
        <time>2021-11-04T10:03:03Z</time>
      </trkpt>
      <trkpt lat="46.42698" lon="0.2718">
        <ele>90.550098857842</ele>
        <time>2021-11-04T10:03:05Z</time>
      </trkpt>
      <trkpt lat="46.42696" lon="0.27177">
        <ele>90.503400891088</ele>
        <time>2021-11-04T10:03:07Z</time>
      </trkpt>
      <trkpt lat="46.42694" lon="0.27174">
        <ele>90.261104334146</ele>
        <time>2021-11-04T10:03:10Z</time>
      </trkpt>
      <trkpt lat="46.42693" lon="0.27172">
        <ele>90.196335365064</ele>
        <time>2021-11-04T10:03:12Z</time>
      </trkpt>
      <trkpt lat="46.42691" lon="0.27168">
        <ele>90.162615021691</ele>
        <time>2021-11-04T10:03:14Z</time>
      </trkpt>
      <trkpt lat="46.42691" lon="0.27166">
        <ele>90.096287285909</ele>
        <time>2021-11-04T10:03:17Z</time>
      </trkpt>
      <trkpt lat="46.42689" lon="0.27163">
        <ele>90.231522647664</ele>
        <time>2021-11-04T10:03:19Z</time>
      </trkpt>
      <trkpt lat="46.42688" lon="0.27161">
        <ele>89.911112083122</ele>
        <time>2021-11-04T10:03:20Z</time>
      </trkpt>
      <trkpt lat="46.42686" lon="0.27159">
        <ele>90.326373623684</ele>
        <time>2021-11-04T10:03:22Z</time>
      </trkpt>
      <trkpt lat="46.42685" lon="0.27156">
        <ele>90.698477282189</ele>
        <time>2021-11-04T10:03:23Z</time>
      </trkpt>
      <trkpt lat="46.42683" lon="0.27154">
        <ele>91.063359870575</ele>
        <time>2021-11-04T10:03:25Z</time>
      </trkpt>
      <trkpt lat="46.4268" lon="0.27151">
        <ele>91.478188232519</ele>
        <time>2021-11-04T10:03:28Z</time>
      </trkpt>
      <trkpt lat="46.42679" lon="0.27148">
        <ele>91.544356764294</ele>
        <time>2021-11-04T10:03:30Z</time>
      </trkpt>
      <trkpt lat="46.42678" lon="0.27145">
        <ele>92.114880179055</ele>
        <time>2021-11-04T10:03:32Z</time>
      </trkpt>
      <trkpt lat="46.42677" lon="0.27142">
        <ele>91.96469060611</ele>
        <time>2021-11-04T10:03:34Z</time>
      </trkpt>
      <trkpt lat="46.42675" lon="0.27139">
        <ele>92.205461649224</ele>
        <time>2021-11-04T10:03:36Z</time>
      </trkpt>
      <trkpt lat="46.42674" lon="0.27137">
        <ele>92.494037528522</ele>
        <time>2021-11-04T10:03:38Z</time>
      </trkpt>
      <trkpt lat="46.42673" lon="0.27133">
        <ele>92.638981832191</ele>
        <time>2021-11-04T10:03:40Z</time>
      </trkpt>
      <trkpt lat="46.42672" lon="0.27131">
        <ele>92.28164948523</ele>
        <time>2021-11-04T10:03:43Z</time>
      </trkpt>
      <trkpt lat="46.4267" lon="0.27128">
        <ele>92.628622227348</ele>
        <time>2021-11-04T10:03:46Z</time>
      </trkpt>
      <trkpt lat="46.42667" lon="0.27127">
        <ele>92.7708753841</ele>
        <time>2021-11-04T10:03:49Z</time>
      </trkpt>
      <trkpt lat="46.42665" lon="0.27125">
        <ele>92.871678126045</ele>
        <time>2021-11-04T10:03:51Z</time>
      </trkpt>
      <trkpt lat="46.42664" lon="0.27122">
        <ele>92.851961714216</ele>
        <time>2021-11-04T10:03:53Z</time>
      </trkpt>
      <trkpt lat="46.42663" lon="0.27118">
        <ele>93.362094034441</ele>
        <time>2021-11-04T10:03:55Z</time>
      </trkpt>
      <trkpt lat="46.42661" lon="0.27117">
        <ele>93.758879221976</ele>
        <time>2021-11-04T10:03:56Z</time>
      </trkpt>
      <trkpt lat="46.4266" lon="0.27114">
        <ele>93.556224223226</ele>
        <time>2021-11-04T10:03:58Z</time>
      </trkpt>
      <trkpt lat="46.42659" lon="0.27111">
        <ele>93.905446154065</ele>
        <time>2021-11-04T10:04:00Z</time>
      </trkpt>
      <trkpt lat="46.42657" lon="0.27109">
        <ele>93.907878033817</ele>
        <time>2021-11-04T10:04:02Z</time>
      </trkpt>
      <trkpt lat="46.42656" lon="0.27107">
        <ele>93.8392413361</ele>
        <time>2021-11-04T10:04:04Z</time>
      </trkpt>
      <trkpt lat="46.42654" lon="0.27104">
        <ele>94.215183024295</ele>
        <time>2021-11-04T10:04:06Z</time>
      </trkpt>
      <trkpt lat="46.42653" lon="0.27101">
        <ele>94.324541645125</ele>
        <time>2021-11-04T10:04:08Z</time>
      </trkpt>
      <trkpt lat="46.42652" lon="0.27098">
        <ele>93.818355186842</ele>
        <time>2021-11-04T10:04:10Z</time>
      </trkpt>
      <trkpt lat="46.42652" lon="0.27094">
        <ele>93.742650155909</ele>
        <time>2021-11-04T10:04:12Z</time>
      </trkpt>
      <trkpt lat="46.42651" lon="0.27091">
        <ele>93.639537211508</ele>
        <time>2021-11-04T10:04:13Z</time>
      </trkpt>
      <trkpt lat="46.4265" lon="0.27089">
        <ele>93.517615130171</ele>
        <time>2021-11-04T10:04:16Z</time>
      </trkpt>
      <trkpt lat="46.42649" lon="0.27086">
        <ele>93.602980763651</ele>
        <time>2021-11-04T10:04:18Z</time>
      </trkpt>
      <trkpt lat="46.42648" lon="0.27084">
        <ele>93.04696856346</ele>
        <time>2021-11-04T10:04:20Z</time>
      </trkpt>
      <trkpt lat="46.42647" lon="0.27081">
        <ele>93.377713465132</ele>
        <time>2021-11-04T10:04:22Z</time>
      </trkpt>
      <trkpt lat="46.42645" lon="0.27079">
        <ele>93.437605937943</ele>
        <time>2021-11-04T10:04:24Z</time>
      </trkpt>
      <trkpt lat="46.42645" lon="0.27076">
        <ele>93.320450027473</ele>
        <time>2021-11-04T10:04:27Z</time>
      </trkpt>
      <trkpt lat="46.42643" lon="0.27074">
        <ele>93.382151783444</ele>
        <time>2021-11-04T10:04:29Z</time>
      </trkpt>
      <trkpt lat="46.42645" lon="0.27072">
        <ele>93.174546957947</ele>
        <time>2021-11-04T10:04:36Z</time>
      </trkpt>
      <trkpt lat="46.42644" lon="0.27069">
        <ele>93.413602208719</ele>
        <time>2021-11-04T10:04:39Z</time>
      </trkpt>
      <trkpt lat="46.42641" lon="0.27068">
        <ele>92.938598780893</ele>
        <time>2021-11-04T10:04:42Z</time>
      </trkpt>
      <trkpt lat="46.4264" lon="0.27066">
        <ele>92.87687924318</ele>
        <time>2021-11-04T10:04:44Z</time>
      </trkpt>
      <trkpt lat="46.42638" lon="0.27064">
        <ele>92.801064371131</ele>
        <time>2021-11-04T10:04:46Z</time>
      </trkpt>
      <trkpt lat="46.42637" lon="0.2706">
        <ele>93.024848919362</ele>
        <time>2021-11-04T10:04:48Z</time>
      </trkpt>
      <trkpt lat="46.42636" lon="0.27058">
        <ele>93.133153868839</ele>
        <time>2021-11-04T10:04:50Z</time>
      </trkpt>
      <trkpt lat="46.42635" lon="0.27053">
        <ele>92.793102224357</ele>
        <time>2021-11-04T10:04:53Z</time>
      </trkpt>
      <trkpt lat="46.42633" lon="0.27051">
        <ele>92.635304701515</ele>
        <time>2021-11-04T10:04:55Z</time>
      </trkpt>
      <trkpt lat="46.42631" lon="0.27048">
        <ele>92.639644068666</ele>
        <time>2021-11-04T10:04:58Z</time>
      </trkpt>
      <trkpt lat="46.42629" lon="0.27047">
        <ele>92.962838413194</ele>
        <time>2021-11-04T10:05:01Z</time>
      </trkpt>
      <trkpt lat="46.42629" lon="0.27042">
        <ele>93.140198674984</ele>
        <time>2021-11-04T10:05:03Z</time>
      </trkpt>
      <trkpt lat="46.42628" lon="0.27039">
        <ele>92.793531225994</ele>
        <time>2021-11-04T10:05:06Z</time>
      </trkpt>
      <trkpt lat="46.42627" lon="0.27036">
        <ele>93.048670738935</ele>
        <time>2021-11-04T10:05:08Z</time>
      </trkpt>
      <trkpt lat="46.42626" lon="0.27033">
        <ele>92.503421678208</ele>
        <time>2021-11-04T10:05:10Z</time>
      </trkpt>
      <trkpt lat="46.42624" lon="0.2703">
        <ele>92.829148351215</ele>
        <time>2021-11-04T10:05:12Z</time>
      </trkpt>
      <trkpt lat="46.42622" lon="0.27026">
        <ele>92.757052318193</ele>
        <time>2021-11-04T10:05:14Z</time>
      </trkpt>
      <trkpt lat="46.42621" lon="0.27024">
        <ele>92.399679565802</ele>
        <time>2021-11-04T10:05:15Z</time>
      </trkpt>
      <trkpt lat="46.42619" lon="0.27022">
        <ele>92.543801746331</ele>
        <time>2021-11-04T10:05:17Z</time>
      </trkpt>
      <trkpt lat="46.42618" lon="0.27019">
        <ele>92.8176166825</ele>
        <time>2021-11-04T10:05:19Z</time>
      </trkpt>
      <trkpt lat="46.42617" lon="0.27015">
        <ele>92.756795085035</ele>
        <time>2021-11-04T10:05:22Z</time>
      </trkpt>
      <trkpt lat="46.42616" lon="0.27013">
        <ele>92.664084881544</ele>
        <time>2021-11-04T10:05:24Z</time>
      </trkpt>
      <trkpt lat="46.42615" lon="0.27009">
        <ele>92.635288869031</ele>
        <time>2021-11-04T10:05:27Z</time>
      </trkpt>
      <trkpt lat="46.42614" lon="0.27006">
        <ele>92.076158194803</ele>
        <time>2021-11-04T10:05:29Z</time>
      </trkpt>
      <trkpt lat="46.42612" lon="0.27003">
        <ele>92.192326703109</ele>
        <time>2021-11-04T10:05:32Z</time>
      </trkpt>
      <trkpt lat="46.4261" lon="0.27">
        <ele>92.081438411027</ele>
        <time>2021-11-04T10:05:34Z</time>
      </trkpt>
      <trkpt lat="46.42608" lon="0.26997">
        <ele>92.151556629688</ele>
        <time>2021-11-04T10:05:37Z</time>
      </trkpt>
      <trkpt lat="46.42606" lon="0.26995">
        <ele>92.31741245836</ele>
        <time>2021-11-04T10:05:39Z</time>
      </trkpt>
      <trkpt lat="46.42605" lon="0.26992">
        <ele>92.083221016452</ele>
        <time>2021-11-04T10:05:40Z</time>
      </trkpt>
      <trkpt lat="46.42603" lon="0.2699">
        <ele>92.006462736987</ele>
        <time>2021-11-04T10:05:42Z</time>
      </trkpt>
      <trkpt lat="46.42602" lon="0.26988">
        <ele>91.953151125461</ele>
        <time>2021-11-04T10:05:43Z</time>
      </trkpt>
      <trkpt lat="46.42601" lon="0.26985">
        <ele>92.632360184565</ele>
        <time>2021-11-04T10:05:45Z</time>
      </trkpt>
      <trkpt lat="46.426" lon="0.26982">
        <ele>92.634638051502</ele>
        <time>2021-11-04T10:05:47Z</time>
      </trkpt>
      <trkpt lat="46.42598" lon="0.26979">
        <ele>92.187861991115</ele>
        <time>2021-11-04T10:05:50Z</time>
      </trkpt>
      <trkpt lat="46.42597" lon="0.26977">
        <ele>92.209986162372</ele>
        <time>2021-11-04T10:05:52Z</time>
      </trkpt>
      <trkpt lat="46.42596" lon="0.26974">
        <ele>91.897779366001</ele>
        <time>2021-11-04T10:05:54Z</time>
      </trkpt>
      <trkpt lat="46.42594" lon="0.26972">
        <ele>92.60403260123</ele>
        <time>2021-11-04T10:05:56Z</time>
      </trkpt>
      <trkpt lat="46.42592" lon="0.26968">
        <ele>92.33763803076</ele>
        <time>2021-11-04T10:05:58Z</time>
      </trkpt>
      <trkpt lat="46.42591" lon="0.26966">
        <ele>92.199385367334</ele>
        <time>2021-11-04T10:06:00Z</time>
      </trkpt>
      <trkpt lat="46.4259" lon="0.26963">
        <ele>91.910832791589</ele>
        <time>2021-11-04T10:06:02Z</time>
      </trkpt>
      <trkpt lat="46.42588" lon="0.2696">
        <ele>92.404748992063</ele>
        <time>2021-11-04T10:06:04Z</time>
      </trkpt>
      <trkpt lat="46.42587" lon="0.26957">
        <ele>92.284483766183</ele>
        <time>2021-11-04T10:06:06Z</time>
      </trkpt>
      <trkpt lat="46.42586" lon="0.26954">
        <ele>92.263291590847</ele>
        <time>2021-11-04T10:06:09Z</time>
      </trkpt>
      <trkpt lat="46.42584" lon="0.26951">
        <ele>92.056929212064</ele>
        <time>2021-11-04T10:06:12Z</time>
      </trkpt>
      <trkpt lat="46.42582" lon="0.26949">
        <ele>91.823646128178</ele>
        <time>2021-11-04T10:06:14Z</time>
      </trkpt>
      <trkpt lat="46.42581" lon="0.26946">
        <ele>91.938459243625</ele>
        <time>2021-11-04T10:06:16Z</time>
      </trkpt>
      <trkpt lat="46.42579" lon="0.26943">
        <ele>92.052730536088</ele>
        <time>2021-11-04T10:06:18Z</time>
      </trkpt>
      <trkpt lat="46.42578" lon="0.2694">
        <ele>91.730729213916</ele>
        <time>2021-11-04T10:06:20Z</time>
      </trkpt>
      <trkpt lat="46.42578" lon="0.26936">
        <ele>91.792670477182</ele>
        <time>2021-11-04T10:06:23Z</time>
      </trkpt>
      <trkpt lat="46.42576" lon="0.26932">
        <ele>91.449299205095</ele>
        <time>2021-11-04T10:06:25Z</time>
      </trkpt>
      <trkpt lat="46.42575" lon="0.26929">
        <ele>91.594057588838</ele>
        <time>2021-11-04T10:06:27Z</time>
      </trkpt>
      <trkpt lat="46.42573" lon="0.26926">
        <ele>91.251856701449</ele>
        <time>2021-11-04T10:06:30Z</time>
      </trkpt>
      <trkpt lat="46.42572" lon="0.26924">
        <ele>91.277543207631</ele>
        <time>2021-11-04T10:06:32Z</time>
      </trkpt>
      <trkpt lat="46.42571" lon="0.26921">
        <ele>90.854880979285</ele>
        <time>2021-11-04T10:06:34Z</time>
      </trkpt>
      <trkpt lat="46.4257" lon="0.26919">
        <ele>90.882743824273</ele>
        <time>2021-11-04T10:06:35Z</time>
      </trkpt>
      <trkpt lat="46.42567" lon="0.26916">
        <ele>90.618612263352</ele>
        <time>2021-11-04T10:06:38Z</time>
      </trkpt>
      <trkpt lat="46.42566" lon="0.26912">
        <ele>91.120680226944</ele>
        <time>2021-11-04T10:06:40Z</time>
      </trkpt>
      <trkpt lat="46.42564" lon="0.26911">
        <ele>91.040818348527</ele>
        <time>2021-11-04T10:06:42Z</time>
      </trkpt>
      <trkpt lat="46.42563" lon="0.26908">
        <ele>91.155607719906</ele>
        <time>2021-11-04T10:06:44Z</time>
      </trkpt>
      <trkpt lat="46.42563" lon="0.26905">
        <ele>91.396965709515</ele>
        <time>2021-11-04T10:06:46Z</time>
      </trkpt>
      <trkpt lat="46.42562" lon="0.26902">
        <ele>91.000366932712</ele>
        <time>2021-11-04T10:06:49Z</time>
      </trkpt>
      <trkpt lat="46.4256" lon="0.26899">
        <ele>90.873296620324</ele>
        <time>2021-11-04T10:06:52Z</time>
      </trkpt>
      <trkpt lat="46.42558" lon="0.26897">
        <ele>90.68161646463</ele>
        <time>2021-11-04T10:06:54Z</time>
      </trkpt>
      <trkpt lat="46.42555" lon="0.26894">
        <ele>90.694107098505</ele>
        <time>2021-11-04T10:06:56Z</time>
      </trkpt>
      <trkpt lat="46.42553" lon="0.26891">
        <ele>91.051433553919</ele>
        <time>2021-11-04T10:06:59Z</time>
      </trkpt>
      <trkpt lat="46.42551" lon="0.26889">
        <ele>91.130326409824</ele>
        <time>2021-11-04T10:07:01Z</time>
      </trkpt>
      <trkpt lat="46.42551" lon="0.26885">
        <ele>91.14176395908</ele>
        <time>2021-11-04T10:07:03Z</time>
      </trkpt>
      <trkpt lat="46.42551" lon="0.2688">
        <ele>91.129218436778</ele>
        <time>2021-11-04T10:07:05Z</time>
      </trkpt>
      <trkpt lat="46.4255" lon="0.26878">
        <ele>91.018864275888</ele>
        <time>2021-11-04T10:07:06Z</time>
      </trkpt>
      <trkpt lat="46.4255" lon="0.26874">
        <ele>90.739275274798</ele>
        <time>2021-11-04T10:07:08Z</time>
      </trkpt>
      <trkpt lat="46.4255" lon="0.26871">
        <ele>90.336295379326</ele>
        <time>2021-11-04T10:07:10Z</time>
      </trkpt>
      <trkpt lat="46.42549" lon="0.26869">
        <ele>90.522930094972</ele>
        <time>2021-11-04T10:07:12Z</time>
      </trkpt>
      <trkpt lat="46.42547" lon="0.26864">
        <ele>90.193332802504</ele>
        <time>2021-11-04T10:07:14Z</time>
      </trkpt>
      <trkpt lat="46.42545" lon="0.26862">
        <ele>90.222137855366</ele>
        <time>2021-11-04T10:07:16Z</time>
      </trkpt>
      <trkpt lat="46.42544" lon="0.26859">
        <ele>89.990573543124</ele>
        <time>2021-11-04T10:07:17Z</time>
      </trkpt>
      <trkpt lat="46.42543" lon="0.26857">
        <ele>90.119268623181</ele>
        <time>2021-11-04T10:07:19Z</time>
      </trkpt>
      <trkpt lat="46.42542" lon="0.26854">
        <ele>89.880726921372</ele>
        <time>2021-11-04T10:07:22Z</time>
      </trkpt>
      <trkpt lat="46.4254" lon="0.26851">
        <ele>89.712186235003</ele>
        <time>2021-11-04T10:07:24Z</time>
      </trkpt>
      <trkpt lat="46.42539" lon="0.26848">
        <ele>89.715352218598</ele>
        <time>2021-11-04T10:07:26Z</time>
      </trkpt>
      <trkpt lat="46.42537" lon="0.26847">
        <ele>89.78443196509</ele>
        <time>2021-11-04T10:07:27Z</time>
      </trkpt>
      <trkpt lat="46.42536" lon="0.26844">
        <ele>89.870957412757</ele>
        <time>2021-11-04T10:07:28Z</time>
      </trkpt>
      <trkpt lat="46.42535" lon="0.26841">
        <ele>89.837273075245</ele>
        <time>2021-11-04T10:07:30Z</time>
      </trkpt>
      <trkpt lat="46.42533" lon="0.26838">
        <ele>89.716774811037</ele>
        <time>2021-11-04T10:07:32Z</time>
      </trkpt>
      <trkpt lat="46.42531" lon="0.26836">
        <ele>89.658383906819</ele>
        <time>2021-11-04T10:07:35Z</time>
      </trkpt>
      <trkpt lat="46.42529" lon="0.26834">
        <ele>89.058803511783</ele>
        <time>2021-11-04T10:07:37Z</time>
      </trkpt>
      <trkpt lat="46.42529" lon="0.26832">
        <ele>89.632627608255</ele>
        <time>2021-11-04T10:07:38Z</time>
      </trkpt>
      <trkpt lat="46.42527" lon="0.26829">
        <ele>89.275117084384</ele>
        <time>2021-11-04T10:07:41Z</time>
      </trkpt>
      <trkpt lat="46.42526" lon="0.26826">
        <ele>89.868585587479</ele>
        <time>2021-11-04T10:07:43Z</time>
      </trkpt>
      <trkpt lat="46.42524" lon="0.26824">
        <ele>89.240137481131</ele>
        <time>2021-11-04T10:07:45Z</time>
      </trkpt>
      <trkpt lat="46.42523" lon="0.2682">
        <ele>89.690382561646</ele>
        <time>2021-11-04T10:07:47Z</time>
      </trkpt>
      <trkpt lat="46.42522" lon="0.26817">
        <ele>89.425997365266</ele>
        <time>2021-11-04T10:07:49Z</time>
      </trkpt>
      <trkpt lat="46.4252" lon="0.26814">
        <ele>89.323765218258</ele>
        <time>2021-11-04T10:07:52Z</time>
      </trkpt>
      <trkpt lat="46.42519" lon="0.2681">
        <ele>89.325296039693</ele>
        <time>2021-11-04T10:07:54Z</time>
      </trkpt>
      <trkpt lat="46.42516" lon="0.26807">
        <ele>89.024806574918</ele>
        <time>2021-11-04T10:07:57Z</time>
      </trkpt>
      <trkpt lat="46.42514" lon="0.26805">
        <ele>89.203295720741</ele>
        <time>2021-11-04T10:07:59Z</time>
      </trkpt>
      <trkpt lat="46.42512" lon="0.26802">
        <ele>89.494688659906</ele>
        <time>2021-11-04T10:08:02Z</time>
      </trkpt>
      <trkpt lat="46.42511" lon="0.26799">
        <ele>89.455755244009</ele>
        <time>2021-11-04T10:08:04Z</time>
      </trkpt>
      <trkpt lat="46.42509" lon="0.26797">
        <ele>89.4485080624</ele>
        <time>2021-11-04T10:08:06Z</time>
      </trkpt>
      <trkpt lat="46.42507" lon="0.26795">
        <ele>89.563593029045</ele>
        <time>2021-11-04T10:08:08Z</time>
      </trkpt>
      <trkpt lat="46.42505" lon="0.26793">
        <ele>90.068285383284</ele>
        <time>2021-11-04T10:08:10Z</time>
      </trkpt>
      <trkpt lat="46.42503" lon="0.26789">
        <ele>89.745732347481</ele>
        <time>2021-11-04T10:08:12Z</time>
      </trkpt>
      <trkpt lat="46.42502" lon="0.26787">
        <ele>89.909949970432</ele>
        <time>2021-11-04T10:08:14Z</time>
      </trkpt>
      <trkpt lat="46.425" lon="0.26784">
        <ele>90.283556513488</ele>
        <time>2021-11-04T10:08:15Z</time>
      </trkpt>
      <trkpt lat="46.42499" lon="0.26783">
        <ele>89.657060959376</ele>
        <time>2021-11-04T10:08:17Z</time>
      </trkpt>
      <trkpt lat="46.42497" lon="0.26776">
        <ele>89.604852264747</ele>
        <time>2021-11-04T10:08:19Z</time>
      </trkpt>
      <trkpt lat="46.42495" lon="0.26774">
        <ele>89.237588031217</ele>
        <time>2021-11-04T10:08:22Z</time>
      </trkpt>
      <trkpt lat="46.42494" lon="0.26772">
        <ele>89.484445395879</ele>
        <time>2021-11-04T10:08:24Z</time>
      </trkpt>
      <trkpt lat="46.42491" lon="0.26772">
        <ele>89.7962035276</ele>
        <time>2021-11-04T10:08:26Z</time>
      </trkpt>
      <trkpt lat="46.4249" lon="0.26769">
        <ele>90.020178762265</ele>
        <time>2021-11-04T10:08:28Z</time>
      </trkpt>
      <trkpt lat="46.42489" lon="0.26767">
        <ele>90.002428768203</ele>
        <time>2021-11-04T10:08:30Z</time>
      </trkpt>
      <trkpt lat="46.42487" lon="0.26765">
        <ele>90.28386504855</ele>
        <time>2021-11-04T10:08:32Z</time>
      </trkpt>
      <trkpt lat="46.42486" lon="0.26763">
        <ele>90.314637399279</ele>
        <time>2021-11-04T10:08:34Z</time>
      </trkpt>
      <trkpt lat="46.42484" lon="0.2676">
        <ele>90.352491172031</ele>
        <time>2021-11-04T10:08:37Z</time>
      </trkpt>
      <trkpt lat="46.42481" lon="0.2676">
        <ele>90.597074798308</ele>
        <time>2021-11-04T10:08:39Z</time>
      </trkpt>
      <trkpt lat="46.4248" lon="0.26757">
        <ele>90.478740369901</ele>
        <time>2021-11-04T10:08:41Z</time>
      </trkpt>
      <trkpt lat="46.42479" lon="0.26755">
        <ele>90.521780617535</ele>
        <time>2021-11-04T10:08:42Z</time>
      </trkpt>
      <trkpt lat="46.42478" lon="0.26753">
        <ele>90.731789860874</ele>
        <time>2021-11-04T10:08:45Z</time>
      </trkpt>
      <trkpt lat="46.42476" lon="0.2675">
        <ele>90.481010376476</ele>
        <time>2021-11-04T10:08:47Z</time>
      </trkpt>
      <trkpt lat="46.42474" lon="0.26748">
        <ele>90.780225709081</ele>
        <time>2021-11-04T10:08:49Z</time>
      </trkpt>
      <trkpt lat="46.42472" lon="0.26745">
        <ele>90.546598125249</ele>
        <time>2021-11-04T10:08:52Z</time>
      </trkpt>
      <trkpt lat="46.42471" lon="0.26742">
        <ele>90.879033982754</ele>
        <time>2021-11-04T10:08:54Z</time>
      </trkpt>
      <trkpt lat="46.4247" lon="0.26739">
        <ele>90.468785553239</ele>
        <time>2021-11-04T10:08:56Z</time>
      </trkpt>
      <trkpt lat="46.42469" lon="0.26736">
        <ele>90.629817386158</ele>
        <time>2021-11-04T10:08:58Z</time>
      </trkpt>
      <trkpt lat="46.42468" lon="0.26733">
        <ele>90.504872727208</ele>
        <time>2021-11-04T10:09:00Z</time>
      </trkpt>
      <trkpt lat="46.42466" lon="0.2673">
        <ele>90.020364063792</ele>
        <time>2021-11-04T10:09:02Z</time>
      </trkpt>
      <trkpt lat="46.42464" lon="0.26728">
        <ele>90.206832082011</ele>
        <time>2021-11-04T10:09:04Z</time>
      </trkpt>
      <trkpt lat="46.42462" lon="0.26727">
        <ele>90.302307421342</ele>
        <time>2021-11-04T10:09:06Z</time>
      </trkpt>
      <trkpt lat="46.4246" lon="0.26724">
        <ele>90.293736289255</ele>
        <time>2021-11-04T10:09:09Z</time>
      </trkpt>
      <trkpt lat="46.42458" lon="0.26722">
        <ele>90.282787192613</ele>
        <time>2021-11-04T10:09:11Z</time>
      </trkpt>
      <trkpt lat="46.42456" lon="0.2672">
        <ele>90.387273143977</ele>
        <time>2021-11-04T10:09:14Z</time>
      </trkpt>
      <trkpt lat="46.42454" lon="0.26717">
        <ele>90.467723562382</ele>
        <time>2021-11-04T10:09:16Z</time>
      </trkpt>
      <trkpt lat="46.42453" lon="0.26714">
        <ele>90.281479218043</ele>
        <time>2021-11-04T10:09:18Z</time>
      </trkpt>
      <trkpt lat="46.42452" lon="0.26712">
        <ele>90.52017259039</ele>
        <time>2021-11-04T10:09:21Z</time>
      </trkpt>
      <trkpt lat="46.42451" lon="0.2671">
        <ele>90.706598035991</ele>
        <time>2021-11-04T10:09:23Z</time>
      </trkpt>
      <trkpt lat="46.42449" lon="0.26707">
        <ele>90.293604770675</ele>
        <time>2021-11-04T10:09:25Z</time>
      </trkpt>
      <trkpt lat="46.42449" lon="0.26703">
        <ele>90.520418563858</ele>
        <time>2021-11-04T10:09:27Z</time>
      </trkpt>
      <trkpt lat="46.42447" lon="0.26701">
        <ele>89.822885647416</ele>
        <time>2021-11-04T10:09:29Z</time>
      </trkpt>
      <trkpt lat="46.42446" lon="0.26698">
        <ele>89.854894111864</ele>
        <time>2021-11-04T10:09:31Z</time>
      </trkpt>
      <trkpt lat="46.42445" lon="0.26696">
        <ele>89.518874568865</ele>
        <time>2021-11-04T10:09:33Z</time>
      </trkpt>
      <trkpt lat="46.42443" lon="0.26693">
        <ele>89.414808937348</ele>
        <time>2021-11-04T10:09:35Z</time>
      </trkpt>
      <trkpt lat="46.42441" lon="0.2669">
        <ele>89.067576295696</ele>
        <time>2021-11-04T10:09:37Z</time>
      </trkpt>
      <trkpt lat="46.42441" lon="0.26686">
        <ele>89.428046918474</ele>
        <time>2021-11-04T10:09:39Z</time>
      </trkpt>
      <trkpt lat="46.42441" lon="0.26683">
        <ele>89.225597165525</ele>
        <time>2021-11-04T10:09:41Z</time>
      </trkpt>
      <trkpt lat="46.42439" lon="0.26681">
        <ele>89.342102268711</ele>
        <time>2021-11-04T10:09:44Z</time>
      </trkpt>
      <trkpt lat="46.42438" lon="0.26677">
        <ele>89.395775251091</ele>
        <time>2021-11-04T10:09:47Z</time>
      </trkpt>
      <trkpt lat="46.42436" lon="0.26676">
        <ele>89.321402987465</ele>
        <time>2021-11-04T10:09:50Z</time>
      </trkpt>
      <trkpt lat="46.42434" lon="0.26674">
        <ele>89.865711736493</ele>
        <time>2021-11-04T10:09:53Z</time>
      </trkpt>
      <trkpt lat="46.42432" lon="0.26671">
        <ele>89.853044852614</ele>
        <time>2021-11-04T10:09:55Z</time>
      </trkpt>
      <trkpt lat="46.42431" lon="0.26669">
        <ele>89.645468262956</ele>
        <time>2021-11-04T10:09:57Z</time>
      </trkpt>
      <trkpt lat="46.42429" lon="0.26668">
        <ele>89.880733816884</ele>
        <time>2021-11-04T10:09:58Z</time>
      </trkpt>
      <trkpt lat="46.42427" lon="0.26666">
        <ele>89.751897625625</ele>
        <time>2021-11-04T10:10:00Z</time>
      </trkpt>
      <trkpt lat="46.42425" lon="0.26664">
        <ele>89.714200619608</ele>
        <time>2021-11-04T10:10:02Z</time>
      </trkpt>
      <trkpt lat="46.42423" lon="0.26663">
        <ele>89.871646796353</ele>
        <time>2021-11-04T10:10:04Z</time>
      </trkpt>
      <trkpt lat="46.42421" lon="0.2666">
        <ele>89.942694262601</ele>
        <time>2021-11-04T10:10:06Z</time>
      </trkpt>
      <trkpt lat="46.42419" lon="0.26658">
        <ele>89.85540038906</ele>
        <time>2021-11-04T10:10:07Z</time>
      </trkpt>
      <trkpt lat="46.42415" lon="0.26656">
        <ele>89.975570460781</ele>
        <time>2021-11-04T10:10:09Z</time>
      </trkpt>
      <trkpt lat="46.42414" lon="0.26654">
        <ele>90.234009362757</ele>
        <time>2021-11-04T10:10:10Z</time>
      </trkpt>
      <trkpt lat="46.42412" lon="0.26653">
        <ele>90.411727890372</ele>
        <time>2021-11-04T10:10:12Z</time>
      </trkpt>
      <trkpt lat="46.4241" lon="0.2665">
        <ele>90.761504858732</ele>
        <time>2021-11-04T10:10:14Z</time>
      </trkpt>
      <trkpt lat="46.42407" lon="0.26647">
        <ele>91.141705905087</ele>
        <time>2021-11-04T10:10:16Z</time>
      </trkpt>
      <trkpt lat="46.42406" lon="0.26643">
        <ele>91.723662884906</ele>
        <time>2021-11-04T10:10:18Z</time>
      </trkpt>
      <trkpt lat="46.42405" lon="0.2664">
        <ele>91.526134268381</ele>
        <time>2021-11-04T10:10:20Z</time>
      </trkpt>
      <trkpt lat="46.42403" lon="0.26639">
        <ele>91.736992095597</ele>
        <time>2021-11-04T10:10:21Z</time>
      </trkpt>
      <trkpt lat="46.42401" lon="0.26636">
        <ele>91.781549616717</ele>
        <time>2021-11-04T10:10:23Z</time>
      </trkpt>
      <trkpt lat="46.424" lon="0.26634">
        <ele>92.043754039332</ele>
        <time>2021-11-04T10:10:25Z</time>
      </trkpt>
      <trkpt lat="46.42398" lon="0.26632">
        <ele>91.930513476953</ele>
        <time>2021-11-04T10:10:26Z</time>
      </trkpt>
      <trkpt lat="46.42399" lon="0.26628">
        <ele>91.644239296205</ele>
        <time>2021-11-04T10:10:28Z</time>
      </trkpt>
      <trkpt lat="46.42397" lon="0.26628">
        <ele>92.035137978382</ele>
        <time>2021-11-04T10:10:30Z</time>
      </trkpt>
      <trkpt lat="46.42396" lon="0.26624">
        <ele>92.616742656566</ele>
        <time>2021-11-04T10:10:34Z</time>
      </trkpt>
      <trkpt lat="46.42394" lon="0.26621">
        <ele>92.458821200766</ele>
        <time>2021-11-04T10:10:37Z</time>
      </trkpt>
      <trkpt lat="46.42392" lon="0.26619">
        <ele>92.628432165831</ele>
        <time>2021-11-04T10:10:40Z</time>
      </trkpt>
      <trkpt lat="46.4239" lon="0.26616">
        <ele>92.59285859298</ele>
        <time>2021-11-04T10:10:42Z</time>
      </trkpt>
      <trkpt lat="46.42389" lon="0.26614">
        <ele>92.210216135718</ele>
        <time>2021-11-04T10:10:44Z</time>
      </trkpt>
      <trkpt lat="46.42388" lon="0.2661">
        <ele>91.450994214974</ele>
        <time>2021-11-04T10:10:46Z</time>
      </trkpt>
      <trkpt lat="46.42388" lon="0.26607">
        <ele>91.966912118718</ele>
        <time>2021-11-04T10:10:49Z</time>
      </trkpt>
      <trkpt lat="46.42386" lon="0.26604">
        <ele>91.646471613087</ele>
        <time>2021-11-04T10:10:51Z</time>
      </trkpt>
      <trkpt lat="46.42385" lon="0.26601">
        <ele>91.858810056932</ele>
        <time>2021-11-04T10:10:52Z</time>
      </trkpt>
      <trkpt lat="46.42384" lon="0.26599">
        <ele>91.487045465969</ele>
        <time>2021-11-04T10:10:56Z</time>
      </trkpt>
      <trkpt lat="46.42384" lon="0.26595">
        <ele>91.639185503125</ele>
        <time>2021-11-04T10:10:58Z</time>
      </trkpt>
      <trkpt lat="46.42383" lon="0.26593">
        <ele>91.660918436013</ele>
        <time>2021-11-04T10:11:00Z</time>
      </trkpt>
      <trkpt lat="46.42381" lon="0.2659">
        <ele>91.717908717692</ele>
        <time>2021-11-04T10:11:01Z</time>
      </trkpt>
      <trkpt lat="46.42382" lon="0.26586">
        <ele>91.584148378111</ele>
        <time>2021-11-04T10:11:04Z</time>
      </trkpt>
      <trkpt lat="46.42381" lon="0.26582">
        <ele>91.251394678839</ele>
        <time>2021-11-04T10:11:06Z</time>
      </trkpt>
      <trkpt lat="46.42381" lon="0.26578">
        <ele>90.648874361068</ele>
        <time>2021-11-04T10:11:08Z</time>
      </trkpt>
      <trkpt lat="46.42381" lon="0.26575">
        <ele>90.507883849554</ele>
        <time>2021-11-04T10:11:11Z</time>
      </trkpt>
      <trkpt lat="46.42381" lon="0.26571">
        <ele>90.479136948474</ele>
        <time>2021-11-04T10:11:13Z</time>
      </trkpt>
      <trkpt lat="46.42383" lon="0.26569">
        <ele>90.035749997012</ele>
        <time>2021-11-04T10:11:15Z</time>
      </trkpt>
      <trkpt lat="46.42384" lon="0.26566">
        <ele>89.461968735792</ele>
        <time>2021-11-04T10:11:19Z</time>
      </trkpt>
      <trkpt lat="46.42386" lon="0.26564">
        <ele>88.874556583352</ele>
        <time>2021-11-04T10:11:22Z</time>
      </trkpt>
      <trkpt lat="46.42387" lon="0.26562">
        <ele>88.231337456964</ele>
        <time>2021-11-04T10:11:24Z</time>
      </trkpt>
      <trkpt lat="46.42389" lon="0.26561">
        <ele>87.693643794395</ele>
        <time>2021-11-04T10:11:27Z</time>
      </trkpt>
      <trkpt lat="46.42391" lon="0.26558">
        <ele>87.121601405554</ele>
        <time>2021-11-04T10:11:30Z</time>
      </trkpt>
      <trkpt lat="46.42392" lon="0.26555">
        <ele>86.779692939483</ele>
        <time>2021-11-04T10:11:32Z</time>
      </trkpt>
      <trkpt lat="46.42391" lon="0.26553">
        <ele>87.136408746243</ele>
        <time>2021-11-04T10:11:35Z</time>
      </trkpt>
      <trkpt lat="46.42389" lon="0.26549">
        <ele>86.562281129882</ele>
        <time>2021-11-04T10:11:38Z</time>
      </trkpt>
      <trkpt lat="46.42387" lon="0.26547">
        <ele>86.749189055525</ele>
        <time>2021-11-04T10:11:41Z</time>
      </trkpt>
      <trkpt lat="46.42386" lon="0.26544">
        <ele>86.871870012954</ele>
        <time>2021-11-04T10:11:44Z</time>
      </trkpt>
      <trkpt lat="46.42385" lon="0.26541">
        <ele>87.000267989933</ele>
        <time>2021-11-04T10:11:46Z</time>
      </trkpt>
      <trkpt lat="46.42385" lon="0.26538">
        <ele>87.393444888294</ele>
        <time>2021-11-04T10:11:48Z</time>
      </trkpt>
      <trkpt lat="46.42385" lon="0.26533">
        <ele>86.998253088444</ele>
        <time>2021-11-04T10:11:51Z</time>
      </trkpt>
      <trkpt lat="46.42385" lon="0.26531">
        <ele>87.036273149773</ele>
        <time>2021-11-04T10:11:53Z</time>
      </trkpt>
      <trkpt lat="46.42382" lon="0.2653">
        <ele>87.462693495676</ele>
        <time>2021-11-04T10:11:56Z</time>
      </trkpt>
      <trkpt lat="46.42383" lon="0.26525">
        <ele>87.504614313133</ele>
        <time>2021-11-04T10:11:58Z</time>
      </trkpt>
      <trkpt lat="46.42384" lon="0.26522">
        <ele>87.449646234512</ele>
        <time>2021-11-04T10:12:02Z</time>
      </trkpt>
      <trkpt lat="46.42382" lon="0.26519">
        <ele>87.238093736582</ele>
        <time>2021-11-04T10:12:10Z</time>
      </trkpt>
      <trkpt lat="46.42382" lon="0.26516">
        <ele>87.300418674015</ele>
        <time>2021-11-04T10:12:15Z</time>
      </trkpt>
      <trkpt lat="46.42383" lon="0.26517">
        <ele>87.256537458859</ele>
        <time>2021-11-04T10:12:24Z</time>
      </trkpt>
      <trkpt lat="46.42386" lon="0.26516">
        <ele>87.740532125346</ele>
        <time>2021-11-04T10:12:31Z</time>
      </trkpt>
      <trkpt lat="46.42388" lon="0.26515">
        <ele>87.659250522964</ele>
        <time>2021-11-04T10:12:36Z</time>
      </trkpt>
      <trkpt lat="46.42389" lon="0.26514">
        <ele>87.340161333792</ele>
        <time>2021-11-04T10:12:39Z</time>
      </trkpt>
      <trkpt lat="46.42392" lon="0.26513">
        <ele>87.466442028061</ele>
        <time>2021-11-04T10:12:41Z</time>
      </trkpt>
      <trkpt lat="46.42394" lon="0.26511">
        <ele>86.820816284046</ele>
        <time>2021-11-04T10:12:43Z</time>
      </trkpt>
      <trkpt lat="46.42397" lon="0.2651">
        <ele>87.136945363134</ele>
        <time>2021-11-04T10:12:45Z</time>
      </trkpt>
      <trkpt lat="46.42399" lon="0.26508">
        <ele>86.798976054415</ele>
        <time>2021-11-04T10:12:48Z</time>
      </trkpt>
      <trkpt lat="46.42402" lon="0.26506">
        <ele>86.739278854802</ele>
        <time>2021-11-04T10:12:50Z</time>
      </trkpt>
      <trkpt lat="46.42404" lon="0.26506">
        <ele>87.037655448541</ele>
        <time>2021-11-04T10:12:52Z</time>
      </trkpt>
      <trkpt lat="46.42406" lon="0.26504">
        <ele>86.420022638515</ele>
        <time>2021-11-04T10:12:55Z</time>
      </trkpt>
      <trkpt lat="46.42408" lon="0.26502">
        <ele>86.903541227803</ele>
        <time>2021-11-04T10:12:57Z</time>
      </trkpt>
      <trkpt lat="46.42409" lon="0.265">
        <ele>86.512551945634</ele>
        <time>2021-11-04T10:13:00Z</time>
      </trkpt>
      <trkpt lat="46.42411" lon="0.26497">
        <ele>86.721968028694</ele>
        <time>2021-11-04T10:13:04Z</time>
      </trkpt>
      <trkpt lat="46.42412" lon="0.26495">
        <ele>86.776874794625</ele>
        <time>2021-11-04T10:13:05Z</time>
      </trkpt>
      <trkpt lat="46.42414" lon="0.26494">
        <ele>86.971812088974</ele>
        <time>2021-11-04T10:13:09Z</time>
      </trkpt>
      <trkpt lat="46.42417" lon="0.26493">
        <ele>86.447161215357</ele>
        <time>2021-11-04T10:13:13Z</time>
      </trkpt>
      <trkpt lat="46.42419" lon="0.26492">
        <ele>86.21387732029</ele>
        <time>2021-11-04T10:13:15Z</time>
      </trkpt>
      <trkpt lat="46.42421" lon="0.2649">
        <ele>86.129499770701</ele>
        <time>2021-11-04T10:13:18Z</time>
      </trkpt>
      <trkpt lat="46.42423" lon="0.26489">
        <ele>86.501547841355</ele>
        <time>2021-11-04T10:13:19Z</time>
      </trkpt>
      <trkpt lat="46.42424" lon="0.26487">
        <ele>86.524796081707</ele>
        <time>2021-11-04T10:13:21Z</time>
      </trkpt>
      <trkpt lat="46.42426" lon="0.26485">
        <ele>86.619788051583</ele>
        <time>2021-11-04T10:13:23Z</time>
      </trkpt>
      <trkpt lat="46.42428" lon="0.26483">
        <ele>86.927282305434</ele>
        <time>2021-11-04T10:13:25Z</time>
      </trkpt>
      <trkpt lat="46.42429" lon="0.2648">
        <ele>86.987249204889</ele>
        <time>2021-11-04T10:13:27Z</time>
      </trkpt>
      <trkpt lat="46.4243" lon="0.26478">
        <ele>86.79646727629</ele>
        <time>2021-11-04T10:13:29Z</time>
      </trkpt>
      <trkpt lat="46.42432" lon="0.26475">
        <ele>87.086897161789</ele>
        <time>2021-11-04T10:13:31Z</time>
      </trkpt>
      <trkpt lat="46.42433" lon="0.26472">
        <ele>87.302270820364</ele>
        <time>2021-11-04T10:13:33Z</time>
      </trkpt>
      <trkpt lat="46.42434" lon="0.26469">
        <ele>86.966185212135</ele>
        <time>2021-11-04T10:13:36Z</time>
      </trkpt>
      <trkpt lat="46.42436" lon="0.26465">
        <ele>86.896385076456</ele>
        <time>2021-11-04T10:13:39Z</time>
      </trkpt>
      <trkpt lat="46.42437" lon="0.26462">
        <ele>86.659030953422</ele>
        <time>2021-11-04T10:13:41Z</time>
      </trkpt>
      <trkpt lat="46.42437" lon="0.26459">
        <ele>86.835576664656</ele>
        <time>2021-11-04T10:13:44Z</time>
      </trkpt>
      <trkpt lat="46.42438" lon="0.26455">
        <ele>87.467792048119</ele>
        <time>2021-11-04T10:13:46Z</time>
      </trkpt>
      <trkpt lat="46.4244" lon="0.26452">
        <ele>86.993476378731</ele>
        <time>2021-11-04T10:13:49Z</time>
      </trkpt>
      <trkpt lat="46.4244" lon="0.26449">
        <ele>86.954560942017</ele>
        <time>2021-11-04T10:13:51Z</time>
      </trkpt>
      <trkpt lat="46.42442" lon="0.26446">
        <ele>87.023893582635</ele>
        <time>2021-11-04T10:13:53Z</time>
      </trkpt>
      <trkpt lat="46.42442" lon="0.26443">
        <ele>87.096848818474</ele>
        <time>2021-11-04T10:13:55Z</time>
      </trkpt>
      <trkpt lat="46.42445" lon="0.2644">
        <ele>86.384188185446</ele>
        <time>2021-11-04T10:13:58Z</time>
      </trkpt>
      <trkpt lat="46.42446" lon="0.26437">
        <ele>86.946722084656</ele>
        <time>2021-11-04T10:14:00Z</time>
      </trkpt>
      <trkpt lat="46.42447" lon="0.26435">
        <ele>87.235535376705</ele>
        <time>2021-11-04T10:14:02Z</time>
      </trkpt>
      <trkpt lat="46.42449" lon="0.26432">
        <ele>86.925068399869</ele>
        <time>2021-11-04T10:14:04Z</time>
      </trkpt>
      <trkpt lat="46.42451" lon="0.26429">
        <ele>87.251247435808</ele>
        <time>2021-11-04T10:14:07Z</time>
      </trkpt>
      <trkpt lat="46.42453" lon="0.26426">
        <ele>87.242406430654</ele>
        <time>2021-11-04T10:14:09Z</time>
      </trkpt>
      <trkpt lat="46.42455" lon="0.26424">
        <ele>86.980499639176</ele>
        <time>2021-11-04T10:14:11Z</time>
      </trkpt>
      <trkpt lat="46.42458" lon="0.26422">
        <ele>86.709709982388</ele>
        <time>2021-11-04T10:14:13Z</time>
      </trkpt>
      <trkpt lat="46.4246" lon="0.2642">
        <ele>87.203657717444</ele>
        <time>2021-11-04T10:14:16Z</time>
      </trkpt>
      <trkpt lat="46.42462" lon="0.26418">
        <ele>87.29336363636</ele>
        <time>2021-11-04T10:14:18Z</time>
      </trkpt>
      <trkpt lat="46.42463" lon="0.26416">
        <ele>87.526847931556</ele>
        <time>2021-11-04T10:14:19Z</time>
      </trkpt>
      <trkpt lat="46.42465" lon="0.26415">
        <ele>87.384136547334</ele>
        <time>2021-11-04T10:14:21Z</time>
      </trkpt>
      <trkpt lat="46.42466" lon="0.26411">
        <ele>87.74354023207</ele>
        <time>2021-11-04T10:14:24Z</time>
      </trkpt>
      <trkpt lat="46.42468" lon="0.26408">
        <ele>87.603943528607</ele>
        <time>2021-11-04T10:14:26Z</time>
      </trkpt>
      <trkpt lat="46.42469" lon="0.26405">
        <ele>87.349577037618</ele>
        <time>2021-11-04T10:14:28Z</time>
      </trkpt>
      <trkpt lat="46.4247" lon="0.26403">
        <ele>87.515700433403</ele>
        <time>2021-11-04T10:14:30Z</time>
      </trkpt>
      <trkpt lat="46.42472" lon="0.26402">
        <ele>87.742961270735</ele>
        <time>2021-11-04T10:14:31Z</time>
      </trkpt>
      <trkpt lat="46.42474" lon="0.26399">
        <ele>87.451192899607</ele>
        <time>2021-11-04T10:14:33Z</time>
      </trkpt>
      <trkpt lat="46.42475" lon="0.26397">
        <ele>87.902992349118</ele>
        <time>2021-11-04T10:14:35Z</time>
      </trkpt>
      <trkpt lat="46.42477" lon="0.26395">
        <ele>87.963704619557</ele>
        <time>2021-11-04T10:14:37Z</time>
      </trkpt>
      <trkpt lat="46.42478" lon="0.26393">
        <ele>88.352666663006</ele>
        <time>2021-11-04T10:14:40Z</time>
      </trkpt>
      <trkpt lat="46.4248" lon="0.26391">
        <ele>88.760601401329</ele>
        <time>2021-11-04T10:14:42Z</time>
      </trkpt>
      <trkpt lat="46.42483" lon="0.2639">
        <ele>89.28781935852</ele>
        <time>2021-11-04T10:14:45Z</time>
      </trkpt>
      <trkpt lat="46.42485" lon="0.26388">
        <ele>89.749174037017</ele>
        <time>2021-11-04T10:14:48Z</time>
      </trkpt>
      <trkpt lat="46.42487" lon="0.26387">
        <ele>90.081605000421</ele>
        <time>2021-11-04T10:14:50Z</time>
      </trkpt>
      <trkpt lat="46.42489" lon="0.26386">
        <ele>91.606321249157</ele>
        <time>2021-11-04T10:14:53Z</time>
      </trkpt>
      <trkpt lat="46.42491" lon="0.26388">
        <ele>92.31515144743</ele>
        <time>2021-11-04T10:14:56Z</time>
      </trkpt>
      <trkpt lat="46.42493" lon="0.2639">
        <ele>92.654563883319</ele>
        <time>2021-11-04T10:14:58Z</time>
      </trkpt>
      <trkpt lat="46.42495" lon="0.26391">
        <ele>93.151465824805</ele>
        <time>2021-11-04T10:15:02Z</time>
      </trkpt>
      <trkpt lat="46.42496" lon="0.26394">
        <ele>93.656339300796</ele>
        <time>2021-11-04T10:15:06Z</time>
      </trkpt>
      <trkpt lat="46.42498" lon="0.26396">
        <ele>93.188813023269</ele>
        <time>2021-11-04T10:15:08Z</time>
      </trkpt>
      <trkpt lat="46.425" lon="0.26397">
        <ele>93.411515429616</ele>
        <time>2021-11-04T10:15:10Z</time>
      </trkpt>
      <trkpt lat="46.42502" lon="0.26398">
        <ele>93.493119974621</ele>
        <time>2021-11-04T10:15:12Z</time>
      </trkpt>
      <trkpt lat="46.42504" lon="0.264">
        <ele>93.142576369457</ele>
        <time>2021-11-04T10:15:15Z</time>
      </trkpt>
      <trkpt lat="46.42506" lon="0.264">
        <ele>93.010333303362</ele>
        <time>2021-11-04T10:15:17Z</time>
      </trkpt>
      <trkpt lat="46.42509" lon="0.26399">
        <ele>92.931138427928</ele>
        <time>2021-11-04T10:15:19Z</time>
      </trkpt>
      <trkpt lat="46.42511" lon="0.26398">
        <ele>93.351404918358</ele>
        <time>2021-11-04T10:15:21Z</time>
      </trkpt>
      <trkpt lat="46.42513" lon="0.26395">
        <ele>93.465562752448</ele>
        <time>2021-11-04T10:15:23Z</time>
      </trkpt>
      <trkpt lat="46.42513" lon="0.26391">
        <ele>94.261067990214</ele>
        <time>2021-11-04T10:15:26Z</time>
      </trkpt>
      <trkpt lat="46.42513" lon="0.26388">
        <ele>95.150043877773</ele>
        <time>2021-11-04T10:15:30Z</time>
      </trkpt>
      <trkpt lat="46.42514" lon="0.26384">
        <ele>95.364564637654</ele>
        <time>2021-11-04T10:15:32Z</time>
      </trkpt>
      <trkpt lat="46.42515" lon="0.2638">
        <ele>95.560374061577</ele>
        <time>2021-11-04T10:15:34Z</time>
      </trkpt>
      <trkpt lat="46.42515" lon="0.26377">
        <ele>95.677585434169</ele>
        <time>2021-11-04T10:15:36Z</time>
      </trkpt>
      <trkpt lat="46.42515" lon="0.26373">
        <ele>95.694982863963</ele>
        <time>2021-11-04T10:15:39Z</time>
      </trkpt>
      <trkpt lat="46.42516" lon="0.2637">
        <ele>95.564422147349</ele>
        <time>2021-11-04T10:15:40Z</time>
      </trkpt>
      <trkpt lat="46.42518" lon="0.26367">
        <ele>95.409431688488</ele>
        <time>2021-11-04T10:15:42Z</time>
      </trkpt>
      <trkpt lat="46.42519" lon="0.26364">
        <ele>94.867931487039</ele>
        <time>2021-11-04T10:15:43Z</time>
      </trkpt>
      <trkpt lat="46.42521" lon="0.2636">
        <ele>94.832775057293</ele>
        <time>2021-11-04T10:15:44Z</time>
      </trkpt>
      <trkpt lat="46.42523" lon="0.26356">
        <ele>94.614878889173</ele>
        <time>2021-11-04T10:15:46Z</time>
      </trkpt>
      <trkpt lat="46.42524" lon="0.26353">
        <ele>94.044647917151</ele>
        <time>2021-11-04T10:15:47Z</time>
      </trkpt>
      <trkpt lat="46.42526" lon="0.2635">
        <ele>93.361052996479</ele>
        <time>2021-11-04T10:15:49Z</time>
      </trkpt>
      <trkpt lat="46.42528" lon="0.26348">
        <ele>93.093007778749</ele>
        <time>2021-11-04T10:15:51Z</time>
      </trkpt>
      <trkpt lat="46.4253" lon="0.26346">
        <ele>92.236632972024</ele>
        <time>2021-11-04T10:15:53Z</time>
      </trkpt>
      <trkpt lat="46.42533" lon="0.26343">
        <ele>91.91731912829</ele>
        <time>2021-11-04T10:15:55Z</time>
      </trkpt>
      <trkpt lat="46.42535" lon="0.26343">
        <ele>91.427988969721</ele>
        <time>2021-11-04T10:15:57Z</time>
      </trkpt>
      <trkpt lat="46.42538" lon="0.26344">
        <ele>90.850662190467</ele>
        <time>2021-11-04T10:16:00Z</time>
      </trkpt>
      <trkpt lat="46.4254" lon="0.26343">
        <ele>90.928482202813</ele>
        <time>2021-11-04T10:16:02Z</time>
      </trkpt>
      <trkpt lat="46.42543" lon="0.26341">
        <ele>90.891363767907</ele>
        <time>2021-11-04T10:16:05Z</time>
      </trkpt>
      <trkpt lat="46.42542" lon="0.26336">
        <ele>90.773955878802</ele>
        <time>2021-11-04T10:16:07Z</time>
      </trkpt>
      <trkpt lat="46.42541" lon="0.26331">
        <ele>89.805857736617</ele>
        <time>2021-11-04T10:16:09Z</time>
      </trkpt>
      <trkpt lat="46.42539" lon="0.26327">
        <ele>90.125446425751</ele>
        <time>2021-11-04T10:16:11Z</time>
      </trkpt>
      <trkpt lat="46.42537" lon="0.26326">
        <ele>89.485025442205</ele>
        <time>2021-11-04T10:16:13Z</time>
      </trkpt>
      <trkpt lat="46.42535" lon="0.26323">
        <ele>89.400493429042</ele>
        <time>2021-11-04T10:16:15Z</time>
      </trkpt>
      <trkpt lat="46.42533" lon="0.26322">
        <ele>88.718411364593</ele>
        <time>2021-11-04T10:16:17Z</time>
      </trkpt>
      <trkpt lat="46.42531" lon="0.2632">
        <ele>88.309402337298</ele>
        <time>2021-11-04T10:16:19Z</time>
      </trkpt>
      <trkpt lat="46.42528" lon="0.26319">
        <ele>88.671303554438</ele>
        <time>2021-11-04T10:16:21Z</time>
      </trkpt>
      <trkpt lat="46.42527" lon="0.26316">
        <ele>88.358234065585</ele>
        <time>2021-11-04T10:16:24Z</time>
      </trkpt>
      <trkpt lat="46.42525" lon="0.26314">
        <ele>88.424558797851</ele>
        <time>2021-11-04T10:16:27Z</time>
      </trkpt>
      <trkpt lat="46.42523" lon="0.26312">
        <ele>88.468426077627</ele>
        <time>2021-11-04T10:16:29Z</time>
      </trkpt>
      <trkpt lat="46.42521" lon="0.26311">
        <ele>88.301533025689</ele>
        <time>2021-11-04T10:16:31Z</time>
      </trkpt>
      <trkpt lat="46.42519" lon="0.26307">
        <ele>88.274781335145</ele>
        <time>2021-11-04T10:16:34Z</time>
      </trkpt>
      <trkpt lat="46.42518" lon="0.26304">
        <ele>87.91395928897</ele>
        <time>2021-11-04T10:16:36Z</time>
      </trkpt>
      <trkpt lat="46.42517" lon="0.26301">
        <ele>87.817788748071</ele>
        <time>2021-11-04T10:16:43Z</time>
      </trkpt>
      <trkpt lat="46.42516" lon="0.26298">
        <ele>87.672778535634</ele>
        <time>2021-11-04T10:16:46Z</time>
      </trkpt>
      <trkpt lat="46.42516" lon="0.26295">
        <ele>87.792002973147</ele>
        <time>2021-11-04T10:16:49Z</time>
      </trkpt>
      <trkpt lat="46.42518" lon="0.26296">
        <ele>87.812695459463</ele>
        <time>2021-11-04T10:16:54Z</time>
      </trkpt>
      <trkpt lat="46.4252" lon="0.26297">
        <ele>88.026792729273</ele>
        <time>2021-11-04T10:17:01Z</time>
      </trkpt>
      <trkpt lat="46.4252" lon="0.26294">
        <ele>87.567433616146</ele>
        <time>2021-11-04T10:17:10Z</time>
      </trkpt>
      <trkpt lat="46.42518" lon="0.26294">
        <ele>87.629112232476</ele>
        <time>2021-11-04T10:17:23Z</time>
      </trkpt>
      <trkpt lat="46.42517" lon="0.26297">
        <ele>87.281770823523</ele>
        <time>2021-11-04T10:17:43Z</time>
      </trkpt>
      <trkpt lat="46.42515" lon="0.26296">
        <ele>87.257534597069</ele>
        <time>2021-11-04T10:17:55Z</time>
      </trkpt>
    </trkseg>
  </trk>
</gpx>